<?xml version="1.0" encoding="UTF-8" standalone="no" ?>
<gpx xmlns="http://www.topografix.com/GPX/1/1" xmlns:xsi="http://www.w3.org/2001/XMLSchema-instance" xsi:schemaLocation="http://www.topografix.com/GPX/1/1 http://www.topografix.com/GPX/1/1/gpx.xsd" version="1.1" creator="VisuGPX - https://www.visugpx.com">
  <metadata>
    <name>[14/05/2017] Val de Seine Tout Terrain</name>
    <desc><![CDATA[50 Km de la val de seine tout terrain organisé par les guidons à crampons (Aubevoye 27)]]></desc>
  </metadata>
  <trk>
    <name><![CDATA[[14/05/2017] Val de Seine Tout Terrain_1]]></name>
    <trkseg>
      <trkpt lat="49.18363" lon="1.33031">
        <ele>50.270435</ele>
        <time>2017-05-14T06:07:52Z</time>
      </trkpt>
      <trkpt lat="49.18362" lon="1.33032">
        <ele>50.270435</ele>
        <time>2017-05-14T06:07:53Z</time>
      </trkpt>
      <trkpt lat="49.18353" lon="1.33034">
        <ele>50.587528</ele>
        <time>2017-05-14T06:07:58Z</time>
      </trkpt>
      <trkpt lat="49.1835" lon="1.33051">
        <ele>50.01527</ele>
        <time>2017-05-14T06:08:02Z</time>
      </trkpt>
      <trkpt lat="49.18346" lon="1.3307">
        <ele>49.362022</ele>
        <time>2017-05-14T06:08:05Z</time>
      </trkpt>
      <trkpt lat="49.18343" lon="1.33087">
        <ele>48.77837</ele>
        <time>2017-05-14T06:08:07Z</time>
      </trkpt>
      <trkpt lat="49.18344" lon="1.33107">
        <ele>48.083061</ele>
        <time>2017-05-14T06:08:09Z</time>
      </trkpt>
      <trkpt lat="49.18346" lon="1.33129">
        <ele>47.350307</ele>
        <time>2017-05-14T06:08:11Z</time>
      </trkpt>
      <trkpt lat="49.18346" lon="1.33149">
        <ele>46.29081</ele>
        <time>2017-05-14T06:08:13Z</time>
      </trkpt>
      <trkpt lat="49.18345" lon="1.33167">
        <ele>45.184525</ele>
        <time>2017-05-14T06:08:15Z</time>
      </trkpt>
      <trkpt lat="49.18343" lon="1.33181">
        <ele>43.78212</ele>
        <time>2017-05-14T06:08:18Z</time>
      </trkpt>
      <trkpt lat="49.18352" lon="1.33186">
        <ele>41.478786</ele>
        <time>2017-05-14T06:08:36Z</time>
      </trkpt>
      <trkpt lat="49.18361" lon="1.33184">
        <ele>41.243187</ele>
        <time>2017-05-14T06:08:41Z</time>
      </trkpt>
      <trkpt lat="49.18371" lon="1.33189">
        <ele>41.1</ele>
        <time>2017-05-14T06:08:47Z</time>
      </trkpt>
      <trkpt lat="49.18371" lon="1.33203">
        <ele>40.6</ele>
        <time>2017-05-14T06:08:50Z</time>
      </trkpt>
      <trkpt lat="49.18367" lon="1.3319">
        <ele>40.2</ele>
        <time>2017-05-14T06:09:03Z</time>
      </trkpt>
      <trkpt lat="49.18359" lon="1.33186">
        <ele>40.8</ele>
        <time>2017-05-14T06:09:07Z</time>
      </trkpt>
      <trkpt lat="49.18347" lon="1.33188">
        <ele>41.2</ele>
        <time>2017-05-14T06:09:11Z</time>
      </trkpt>
      <trkpt lat="49.18336" lon="1.33187">
        <ele>41.5</ele>
        <time>2017-05-14T06:09:14Z</time>
      </trkpt>
      <trkpt lat="49.18325" lon="1.33186">
        <ele>41.6</ele>
        <time>2017-05-14T06:09:17Z</time>
      </trkpt>
      <trkpt lat="49.18313" lon="1.33184">
        <ele>41.7</ele>
        <time>2017-05-14T06:09:20Z</time>
      </trkpt>
      <trkpt lat="49.18301" lon="1.33181">
        <ele>41.8</ele>
        <time>2017-05-14T06:09:23Z</time>
      </trkpt>
      <trkpt lat="49.18288" lon="1.33177">
        <ele>41.8</ele>
        <time>2017-05-14T06:09:26Z</time>
      </trkpt>
      <trkpt lat="49.18279" lon="1.33174">
        <ele>41.8</ele>
        <time>2017-05-14T06:09:28Z</time>
      </trkpt>
      <trkpt lat="49.1827" lon="1.33171">
        <ele>41.5</ele>
        <time>2017-05-14T06:09:30Z</time>
      </trkpt>
      <trkpt lat="49.18257" lon="1.3317">
        <ele>41.3</ele>
        <time>2017-05-14T06:09:33Z</time>
      </trkpt>
      <trkpt lat="49.18244" lon="1.33172">
        <ele>41.1</ele>
        <time>2017-05-14T06:09:36Z</time>
      </trkpt>
      <trkpt lat="49.18234" lon="1.33173">
        <ele>40.9</ele>
        <time>2017-05-14T06:09:38Z</time>
      </trkpt>
      <trkpt lat="49.18224" lon="1.33175">
        <ele>40.7</ele>
        <time>2017-05-14T06:09:40Z</time>
      </trkpt>
      <trkpt lat="49.18215" lon="1.33176">
        <ele>40.6</ele>
        <time>2017-05-14T06:09:42Z</time>
      </trkpt>
      <trkpt lat="49.18205" lon="1.33178">
        <ele>40.4</ele>
        <time>2017-05-14T06:09:44Z</time>
      </trkpt>
      <trkpt lat="49.18195" lon="1.33179">
        <ele>40.4</ele>
        <time>2017-05-14T06:09:46Z</time>
      </trkpt>
      <trkpt lat="49.18185" lon="1.3318">
        <ele>40.3</ele>
        <time>2017-05-14T06:09:48Z</time>
      </trkpt>
      <trkpt lat="49.18175" lon="1.33181">
        <ele>40.2</ele>
        <time>2017-05-14T06:09:50Z</time>
      </trkpt>
      <trkpt lat="49.18165" lon="1.33183">
        <ele>39.9</ele>
        <time>2017-05-14T06:09:52Z</time>
      </trkpt>
      <trkpt lat="49.18155" lon="1.33186">
        <ele>39.9</ele>
        <time>2017-05-14T06:09:54Z</time>
      </trkpt>
      <trkpt lat="49.18145" lon="1.33189">
        <ele>39.8</ele>
        <time>2017-05-14T06:09:56Z</time>
      </trkpt>
      <trkpt lat="49.18135" lon="1.33193">
        <ele>39.8</ele>
        <time>2017-05-14T06:09:58Z</time>
      </trkpt>
      <trkpt lat="49.18125" lon="1.33198">
        <ele>39.9</ele>
        <time>2017-05-14T06:10:00Z</time>
      </trkpt>
      <trkpt lat="49.18116" lon="1.33202">
        <ele>39.9</ele>
        <time>2017-05-14T06:10:02Z</time>
      </trkpt>
      <trkpt lat="49.18106" lon="1.33207">
        <ele>40</ele>
        <time>2017-05-14T06:10:04Z</time>
      </trkpt>
      <trkpt lat="49.18097" lon="1.33211">
        <ele>40.1</ele>
        <time>2017-05-14T06:10:06Z</time>
      </trkpt>
      <trkpt lat="49.18088" lon="1.33216">
        <ele>40</ele>
        <time>2017-05-14T06:10:08Z</time>
      </trkpt>
      <trkpt lat="49.18079" lon="1.3322">
        <ele>40.1</ele>
        <time>2017-05-14T06:10:10Z</time>
      </trkpt>
      <trkpt lat="49.1807" lon="1.33225">
        <ele>39.9</ele>
        <time>2017-05-14T06:10:12Z</time>
      </trkpt>
      <trkpt lat="49.18061" lon="1.3323">
        <ele>39.8</ele>
        <time>2017-05-14T06:10:14Z</time>
      </trkpt>
      <trkpt lat="49.18052" lon="1.33235">
        <ele>39.7</ele>
        <time>2017-05-14T06:10:16Z</time>
      </trkpt>
      <trkpt lat="49.1804" lon="1.33236">
        <ele>39.6</ele>
        <time>2017-05-14T06:10:19Z</time>
      </trkpt>
      <trkpt lat="49.18028" lon="1.33237">
        <ele>39.5</ele>
        <time>2017-05-14T06:10:22Z</time>
      </trkpt>
      <trkpt lat="49.18015" lon="1.33237">
        <ele>39.7</ele>
        <time>2017-05-14T06:10:25Z</time>
      </trkpt>
      <trkpt lat="49.18001" lon="1.33236">
        <ele>39.8</ele>
        <time>2017-05-14T06:10:28Z</time>
      </trkpt>
      <trkpt lat="49.17988" lon="1.33236">
        <ele>40</ele>
        <time>2017-05-14T06:10:31Z</time>
      </trkpt>
      <trkpt lat="49.17979" lon="1.33236">
        <ele>40</ele>
        <time>2017-05-14T06:10:33Z</time>
      </trkpt>
      <trkpt lat="49.17965" lon="1.33235">
        <ele>40</ele>
        <time>2017-05-14T06:10:36Z</time>
      </trkpt>
      <trkpt lat="49.17956" lon="1.33234">
        <ele>40</ele>
        <time>2017-05-14T06:10:38Z</time>
      </trkpt>
      <trkpt lat="49.17947" lon="1.33233">
        <ele>39.9</ele>
        <time>2017-05-14T06:10:40Z</time>
      </trkpt>
      <trkpt lat="49.17938" lon="1.33231">
        <ele>39.8</ele>
        <time>2017-05-14T06:10:42Z</time>
      </trkpt>
      <trkpt lat="49.17925" lon="1.33231">
        <ele>39.8</ele>
        <time>2017-05-14T06:10:45Z</time>
      </trkpt>
      <trkpt lat="49.17911" lon="1.33229">
        <ele>39.9</ele>
        <time>2017-05-14T06:10:48Z</time>
      </trkpt>
      <trkpt lat="49.17902" lon="1.33228">
        <ele>39.8</ele>
        <time>2017-05-14T06:10:50Z</time>
      </trkpt>
      <trkpt lat="49.17893" lon="1.33225">
        <ele>40</ele>
        <time>2017-05-14T06:10:52Z</time>
      </trkpt>
      <trkpt lat="49.1788" lon="1.3322">
        <ele>40.1</ele>
        <time>2017-05-14T06:10:55Z</time>
      </trkpt>
      <trkpt lat="49.17867" lon="1.33216">
        <ele>40</ele>
        <time>2017-05-14T06:10:58Z</time>
      </trkpt>
      <trkpt lat="49.17857" lon="1.33214">
        <ele>40</ele>
        <time>2017-05-14T06:11:00Z</time>
      </trkpt>
      <trkpt lat="49.17846" lon="1.33211">
        <ele>39.9</ele>
        <time>2017-05-14T06:11:03Z</time>
      </trkpt>
      <trkpt lat="49.17839" lon="1.33201">
        <ele>39.4</ele>
        <time>2017-05-14T06:11:09Z</time>
      </trkpt>
      <trkpt lat="49.17832" lon="1.3319">
        <ele>39.1</ele>
        <time>2017-05-14T06:11:16Z</time>
      </trkpt>
      <trkpt lat="49.17821" lon="1.33187">
        <ele>39.1</ele>
        <time>2017-05-14T06:11:20Z</time>
      </trkpt>
      <trkpt lat="49.1781" lon="1.33182">
        <ele>39.1</ele>
        <time>2017-05-14T06:11:23Z</time>
      </trkpt>
      <trkpt lat="49.17798" lon="1.33178">
        <ele>39.2</ele>
        <time>2017-05-14T06:11:26Z</time>
      </trkpt>
      <trkpt lat="49.17786" lon="1.33174">
        <ele>39.5</ele>
        <time>2017-05-14T06:11:29Z</time>
      </trkpt>
      <trkpt lat="49.17773" lon="1.33169">
        <ele>39.7</ele>
        <time>2017-05-14T06:11:32Z</time>
      </trkpt>
      <trkpt lat="49.17763" lon="1.33169">
        <ele>39.8</ele>
        <time>2017-05-14T06:11:35Z</time>
      </trkpt>
      <trkpt lat="49.17758" lon="1.33185">
        <ele>39.9</ele>
        <time>2017-05-14T06:11:39Z</time>
      </trkpt>
      <trkpt lat="49.17751" lon="1.332">
        <ele>39.9</ele>
        <time>2017-05-14T06:11:43Z</time>
      </trkpt>
      <trkpt lat="49.17748" lon="1.33213">
        <ele>39.9</ele>
        <time>2017-05-14T06:11:46Z</time>
      </trkpt>
      <trkpt lat="49.17738" lon="1.33214">
        <ele>39.4</ele>
        <time>2017-05-14T06:11:54Z</time>
      </trkpt>
      <trkpt lat="49.17728" lon="1.3321">
        <ele>39.3</ele>
        <time>2017-05-14T06:11:57Z</time>
      </trkpt>
      <trkpt lat="49.17715" lon="1.33206">
        <ele>39.4</ele>
        <time>2017-05-14T06:12:00Z</time>
      </trkpt>
      <trkpt lat="49.17705" lon="1.33204">
        <ele>39.5</ele>
        <time>2017-05-14T06:12:02Z</time>
      </trkpt>
      <trkpt lat="49.17696" lon="1.33201">
        <ele>39.4</ele>
        <time>2017-05-14T06:12:04Z</time>
      </trkpt>
      <trkpt lat="49.17686" lon="1.33198">
        <ele>39.4</ele>
        <time>2017-05-14T06:12:06Z</time>
      </trkpt>
      <trkpt lat="49.17676" lon="1.33195">
        <ele>39.7</ele>
        <time>2017-05-14T06:12:08Z</time>
      </trkpt>
      <trkpt lat="49.17667" lon="1.33192">
        <ele>39.8</ele>
        <time>2017-05-14T06:12:10Z</time>
      </trkpt>
      <trkpt lat="49.17658" lon="1.3319">
        <ele>39.9</ele>
        <time>2017-05-14T06:12:12Z</time>
      </trkpt>
      <trkpt lat="49.17649" lon="1.33184">
        <ele>39.9</ele>
        <time>2017-05-14T06:12:15Z</time>
      </trkpt>
      <trkpt lat="49.17648" lon="1.33169">
        <ele>40</ele>
        <time>2017-05-14T06:12:18Z</time>
      </trkpt>
      <trkpt lat="49.17646" lon="1.33151">
        <ele>40.2</ele>
        <time>2017-05-14T06:12:21Z</time>
      </trkpt>
      <trkpt lat="49.17637" lon="1.33138">
        <ele>40.3</ele>
        <time>2017-05-14T06:12:24Z</time>
      </trkpt>
      <trkpt lat="49.17624" lon="1.33135">
        <ele>40.4</ele>
        <time>2017-05-14T06:12:27Z</time>
      </trkpt>
      <trkpt lat="49.17611" lon="1.33134">
        <ele>40.5</ele>
        <time>2017-05-14T06:12:30Z</time>
      </trkpt>
      <trkpt lat="49.17598" lon="1.33129">
        <ele>40.7</ele>
        <time>2017-05-14T06:12:33Z</time>
      </trkpt>
      <trkpt lat="49.17585" lon="1.33122">
        <ele>41.1</ele>
        <time>2017-05-14T06:12:36Z</time>
      </trkpt>
      <trkpt lat="49.17573" lon="1.33112">
        <ele>41.3</ele>
        <time>2017-05-14T06:12:39Z</time>
      </trkpt>
      <trkpt lat="49.17562" lon="1.33101">
        <ele>41.7</ele>
        <time>2017-05-14T06:12:42Z</time>
      </trkpt>
      <trkpt lat="49.17554" lon="1.33092">
        <ele>41.8</ele>
        <time>2017-05-14T06:12:44Z</time>
      </trkpt>
      <trkpt lat="49.17547" lon="1.33084">
        <ele>42</ele>
        <time>2017-05-14T06:12:46Z</time>
      </trkpt>
      <trkpt lat="49.1754" lon="1.33075">
        <ele>42.2</ele>
        <time>2017-05-14T06:12:48Z</time>
      </trkpt>
      <trkpt lat="49.17529" lon="1.33063">
        <ele>42.5</ele>
        <time>2017-05-14T06:12:51Z</time>
      </trkpt>
      <trkpt lat="49.17524" lon="1.33047">
        <ele>42.9</ele>
        <time>2017-05-14T06:12:54Z</time>
      </trkpt>
      <trkpt lat="49.1753" lon="1.33035">
        <ele>43.5</ele>
        <time>2017-05-14T06:12:57Z</time>
      </trkpt>
      <trkpt lat="49.17536" lon="1.33022">
        <ele>44</ele>
        <time>2017-05-14T06:13:00Z</time>
      </trkpt>
      <trkpt lat="49.17541" lon="1.33009">
        <ele>44.6</ele>
        <time>2017-05-14T06:13:03Z</time>
      </trkpt>
      <trkpt lat="49.17544" lon="1.32995">
        <ele>45.4</ele>
        <time>2017-05-14T06:13:06Z</time>
      </trkpt>
      <trkpt lat="49.17548" lon="1.32982">
        <ele>46.2</ele>
        <time>2017-05-14T06:13:09Z</time>
      </trkpt>
      <trkpt lat="49.17555" lon="1.32968">
        <ele>47.3</ele>
        <time>2017-05-14T06:13:13Z</time>
      </trkpt>
      <trkpt lat="49.1756" lon="1.32952">
        <ele>48.4</ele>
        <time>2017-05-14T06:13:17Z</time>
      </trkpt>
      <trkpt lat="49.17565" lon="1.32938">
        <ele>49.7</ele>
        <time>2017-05-14T06:13:21Z</time>
      </trkpt>
      <trkpt lat="49.17569" lon="1.32925">
        <ele>50.9</ele>
        <time>2017-05-14T06:13:25Z</time>
      </trkpt>
      <trkpt lat="49.17566" lon="1.32912">
        <ele>51.9</ele>
        <time>2017-05-14T06:13:29Z</time>
      </trkpt>
      <trkpt lat="49.17561" lon="1.329">
        <ele>53.2</ele>
        <time>2017-05-14T06:13:33Z</time>
      </trkpt>
      <trkpt lat="49.17554" lon="1.3289">
        <ele>54.8</ele>
        <time>2017-05-14T06:13:38Z</time>
      </trkpt>
      <trkpt lat="49.17544" lon="1.32883">
        <ele>56.6</ele>
        <time>2017-05-14T06:13:44Z</time>
      </trkpt>
      <trkpt lat="49.17536" lon="1.32875">
        <ele>58.5</ele>
        <time>2017-05-14T06:13:50Z</time>
      </trkpt>
      <trkpt lat="49.17528" lon="1.32869">
        <ele>60</ele>
        <time>2017-05-14T06:13:56Z</time>
      </trkpt>
      <trkpt lat="49.17519" lon="1.32865">
        <ele>61.1</ele>
        <time>2017-05-14T06:14:01Z</time>
      </trkpt>
      <trkpt lat="49.1751" lon="1.32863">
        <ele>62.5</ele>
        <time>2017-05-14T06:14:06Z</time>
      </trkpt>
      <trkpt lat="49.175" lon="1.32858">
        <ele>63.9</ele>
        <time>2017-05-14T06:14:12Z</time>
      </trkpt>
      <trkpt lat="49.17492" lon="1.32852">
        <ele>65.6</ele>
        <time>2017-05-14T06:14:18Z</time>
      </trkpt>
      <trkpt lat="49.17483" lon="1.32844">
        <ele>67.6</ele>
        <time>2017-05-14T06:14:25Z</time>
      </trkpt>
      <trkpt lat="49.17475" lon="1.32837">
        <ele>69.4</ele>
        <time>2017-05-14T06:14:31Z</time>
      </trkpt>
      <trkpt lat="49.17467" lon="1.32828">
        <ele>70.8</ele>
        <time>2017-05-14T06:14:36Z</time>
      </trkpt>
      <trkpt lat="49.17458" lon="1.3282">
        <ele>71.6</ele>
        <time>2017-05-14T06:14:41Z</time>
      </trkpt>
      <trkpt lat="49.17449" lon="1.32816">
        <ele>72.9</ele>
        <time>2017-05-14T06:14:46Z</time>
      </trkpt>
      <trkpt lat="49.17441" lon="1.3281">
        <ele>73.9</ele>
        <time>2017-05-14T06:14:51Z</time>
      </trkpt>
      <trkpt lat="49.17431" lon="1.32805">
        <ele>75.2</ele>
        <time>2017-05-14T06:14:57Z</time>
      </trkpt>
      <trkpt lat="49.17422" lon="1.32799">
        <ele>76.7</ele>
        <time>2017-05-14T06:15:03Z</time>
      </trkpt>
      <trkpt lat="49.17413" lon="1.32795">
        <ele>77.7</ele>
        <time>2017-05-14T06:15:08Z</time>
      </trkpt>
      <trkpt lat="49.17404" lon="1.32791">
        <ele>78.7</ele>
        <time>2017-05-14T06:15:13Z</time>
      </trkpt>
      <trkpt lat="49.17394" lon="1.32786">
        <ele>80.3</ele>
        <time>2017-05-14T06:15:19Z</time>
      </trkpt>
      <trkpt lat="49.17385" lon="1.32783">
        <ele>81.9</ele>
        <time>2017-05-14T06:15:25Z</time>
      </trkpt>
      <trkpt lat="49.17376" lon="1.32778">
        <ele>83.5</ele>
        <time>2017-05-14T06:15:31Z</time>
      </trkpt>
      <trkpt lat="49.17366" lon="1.32774">
        <ele>84.8</ele>
        <time>2017-05-14T06:15:36Z</time>
      </trkpt>
      <trkpt lat="49.17358" lon="1.32769">
        <ele>86.5</ele>
        <time>2017-05-14T06:15:42Z</time>
      </trkpt>
      <trkpt lat="49.17348" lon="1.32763">
        <ele>88.1</ele>
        <time>2017-05-14T06:15:49Z</time>
      </trkpt>
      <trkpt lat="49.17339" lon="1.32757">
        <ele>89.5</ele>
        <time>2017-05-14T06:15:55Z</time>
      </trkpt>
      <trkpt lat="49.1733" lon="1.32751">
        <ele>90.6</ele>
        <time>2017-05-14T06:16:00Z</time>
      </trkpt>
      <trkpt lat="49.17323" lon="1.32741">
        <ele>92.2</ele>
        <time>2017-05-14T06:16:06Z</time>
      </trkpt>
      <trkpt lat="49.17314" lon="1.32732">
        <ele>93.9</ele>
        <time>2017-05-14T06:16:12Z</time>
      </trkpt>
      <trkpt lat="49.17306" lon="1.32724">
        <ele>95.3</ele>
        <time>2017-05-14T06:16:17Z</time>
      </trkpt>
      <trkpt lat="49.17299" lon="1.32715">
        <ele>96.8</ele>
        <time>2017-05-14T06:16:22Z</time>
      </trkpt>
      <trkpt lat="49.17292" lon="1.32704">
        <ele>98.4</ele>
        <time>2017-05-14T06:16:28Z</time>
      </trkpt>
      <trkpt lat="49.17286" lon="1.32692">
        <ele>99.8</ele>
        <time>2017-05-14T06:16:33Z</time>
      </trkpt>
      <trkpt lat="49.17283" lon="1.32677">
        <ele>102.2</ele>
        <time>2017-05-14T06:16:40Z</time>
      </trkpt>
      <trkpt lat="49.17279" lon="1.32662">
        <ele>104.3</ele>
        <time>2017-05-14T06:16:46Z</time>
      </trkpt>
      <trkpt lat="49.17277" lon="1.32647">
        <ele>105.9</ele>
        <time>2017-05-14T06:16:52Z</time>
      </trkpt>
      <trkpt lat="49.17274" lon="1.32631">
        <ele>107.6</ele>
        <time>2017-05-14T06:16:58Z</time>
      </trkpt>
      <trkpt lat="49.17272" lon="1.32617">
        <ele>109</ele>
        <time>2017-05-14T06:17:04Z</time>
      </trkpt>
      <trkpt lat="49.17264" lon="1.32608">
        <ele>110.3</ele>
        <time>2017-05-14T06:17:10Z</time>
      </trkpt>
      <trkpt lat="49.17254" lon="1.32609">
        <ele>110.5</ele>
        <time>2017-05-14T06:17:14Z</time>
      </trkpt>
      <trkpt lat="49.17244" lon="1.32608">
        <ele>110.5</ele>
        <time>2017-05-14T06:17:18Z</time>
      </trkpt>
      <trkpt lat="49.17235" lon="1.32606">
        <ele>110.8</ele>
        <time>2017-05-14T06:17:22Z</time>
      </trkpt>
      <trkpt lat="49.17225" lon="1.32606">
        <ele>111.3</ele>
        <time>2017-05-14T06:17:26Z</time>
      </trkpt>
      <trkpt lat="49.17218" lon="1.32617">
        <ele>111</ele>
        <time>2017-05-14T06:17:31Z</time>
      </trkpt>
      <trkpt lat="49.17216" lon="1.32631">
        <ele>109.6</ele>
        <time>2017-05-14T06:17:35Z</time>
      </trkpt>
      <trkpt lat="49.17206" lon="1.32644">
        <ele>107.9</ele>
        <time>2017-05-14T06:17:38Z</time>
      </trkpt>
      <trkpt lat="49.17195" lon="1.32646">
        <ele>107.1</ele>
        <time>2017-05-14T06:17:41Z</time>
      </trkpt>
      <trkpt lat="49.17185" lon="1.32647">
        <ele>106.5</ele>
        <time>2017-05-14T06:17:43Z</time>
      </trkpt>
      <trkpt lat="49.17176" lon="1.3265">
        <ele>106.1</ele>
        <time>2017-05-14T06:17:45Z</time>
      </trkpt>
      <trkpt lat="49.17162" lon="1.32653">
        <ele>105</ele>
        <time>2017-05-14T06:17:48Z</time>
      </trkpt>
      <trkpt lat="49.17151" lon="1.32654">
        <ele>104.5</ele>
        <time>2017-05-14T06:17:50Z</time>
      </trkpt>
      <trkpt lat="49.17139" lon="1.32656">
        <ele>103.8</ele>
        <time>2017-05-14T06:17:53Z</time>
      </trkpt>
      <trkpt lat="49.17133" lon="1.32646">
        <ele>104.1</ele>
        <time>2017-05-14T06:17:59Z</time>
      </trkpt>
      <trkpt lat="49.17127" lon="1.3263">
        <ele>105.6</ele>
        <time>2017-05-14T06:18:04Z</time>
      </trkpt>
      <trkpt lat="49.17119" lon="1.32619">
        <ele>106.4</ele>
        <time>2017-05-14T06:18:07Z</time>
      </trkpt>
      <trkpt lat="49.17111" lon="1.32611">
        <ele>106.6</ele>
        <time>2017-05-14T06:18:10Z</time>
      </trkpt>
      <trkpt lat="49.17104" lon="1.32596">
        <ele>106.5</ele>
        <time>2017-05-14T06:18:14Z</time>
      </trkpt>
      <trkpt lat="49.171" lon="1.3258">
        <ele>106.9</ele>
        <time>2017-05-14T06:18:19Z</time>
      </trkpt>
      <trkpt lat="49.17094" lon="1.32568">
        <ele>106.3</ele>
        <time>2017-05-14T06:18:23Z</time>
      </trkpt>
      <trkpt lat="49.17085" lon="1.32563">
        <ele>104.9</ele>
        <time>2017-05-14T06:18:26Z</time>
      </trkpt>
      <trkpt lat="49.17076" lon="1.32558">
        <ele>103.9</ele>
        <time>2017-05-14T06:18:28Z</time>
      </trkpt>
      <trkpt lat="49.17067" lon="1.32553">
        <ele>102.4</ele>
        <time>2017-05-14T06:18:30Z</time>
      </trkpt>
      <trkpt lat="49.17057" lon="1.32552">
        <ele>101.1</ele>
        <time>2017-05-14T06:18:32Z</time>
      </trkpt>
      <trkpt lat="49.17044" lon="1.32551">
        <ele>99.9</ele>
        <time>2017-05-14T06:18:34Z</time>
      </trkpt>
      <trkpt lat="49.17034" lon="1.32551">
        <ele>98.9</ele>
        <time>2017-05-14T06:18:36Z</time>
      </trkpt>
      <trkpt lat="49.17023" lon="1.32553">
        <ele>98.6</ele>
        <time>2017-05-14T06:18:39Z</time>
      </trkpt>
      <trkpt lat="49.17011" lon="1.32559">
        <ele>98.3</ele>
        <time>2017-05-14T06:18:43Z</time>
      </trkpt>
      <trkpt lat="49.17001" lon="1.32566">
        <ele>98.1</ele>
        <time>2017-05-14T06:18:46Z</time>
      </trkpt>
      <trkpt lat="49.16992" lon="1.32577">
        <ele>98.2</ele>
        <time>2017-05-14T06:18:50Z</time>
      </trkpt>
      <trkpt lat="49.16986" lon="1.32588">
        <ele>98.7</ele>
        <time>2017-05-14T06:18:54Z</time>
      </trkpt>
      <trkpt lat="49.16979" lon="1.32596">
        <ele>99</ele>
        <time>2017-05-14T06:18:57Z</time>
      </trkpt>
      <trkpt lat="49.1697" lon="1.32606">
        <ele>99.3</ele>
        <time>2017-05-14T06:19:01Z</time>
      </trkpt>
      <trkpt lat="49.16961" lon="1.32612">
        <ele>100</ele>
        <time>2017-05-14T06:19:06Z</time>
      </trkpt>
      <trkpt lat="49.16953" lon="1.3262">
        <ele>100.6</ele>
        <time>2017-05-14T06:19:10Z</time>
      </trkpt>
      <trkpt lat="49.16944" lon="1.32629">
        <ele>101.2</ele>
        <time>2017-05-14T06:19:15Z</time>
      </trkpt>
      <trkpt lat="49.16935" lon="1.32638">
        <ele>102.2</ele>
        <time>2017-05-14T06:19:20Z</time>
      </trkpt>
      <trkpt lat="49.16927" lon="1.32646">
        <ele>103.3</ele>
        <time>2017-05-14T06:19:51Z</time>
      </trkpt>
      <trkpt lat="49.16916" lon="1.32649">
        <ele>103.8</ele>
        <time>2017-05-14T06:19:56Z</time>
      </trkpt>
      <trkpt lat="49.16905" lon="1.32652">
        <ele>104.6</ele>
        <time>2017-05-14T06:20:00Z</time>
      </trkpt>
      <trkpt lat="49.16896" lon="1.32655">
        <ele>105</ele>
        <time>2017-05-14T06:20:03Z</time>
      </trkpt>
      <trkpt lat="49.16885" lon="1.32654">
        <ele>105.1</ele>
        <time>2017-05-14T06:20:06Z</time>
      </trkpt>
      <trkpt lat="49.16872" lon="1.32655">
        <ele>104.7</ele>
        <time>2017-05-14T06:20:09Z</time>
      </trkpt>
      <trkpt lat="49.1686" lon="1.32655">
        <ele>104.3</ele>
        <time>2017-05-14T06:20:12Z</time>
      </trkpt>
      <trkpt lat="49.1685" lon="1.32654">
        <ele>104.5</ele>
        <time>2017-05-14T06:20:15Z</time>
      </trkpt>
      <trkpt lat="49.1684" lon="1.3265">
        <ele>105</ele>
        <time>2017-05-14T06:20:18Z</time>
      </trkpt>
      <trkpt lat="49.16828" lon="1.32644">
        <ele>106</ele>
        <time>2017-05-14T06:20:22Z</time>
      </trkpt>
      <trkpt lat="49.16816" lon="1.32636">
        <ele>107</ele>
        <time>2017-05-14T06:20:26Z</time>
      </trkpt>
      <trkpt lat="49.16803" lon="1.32638">
        <ele>107.7</ele>
        <time>2017-05-14T06:20:29Z</time>
      </trkpt>
      <trkpt lat="49.16791" lon="1.3264">
        <ele>107.6</ele>
        <time>2017-05-14T06:20:32Z</time>
      </trkpt>
      <trkpt lat="49.16784" lon="1.32626">
        <ele>107.6</ele>
        <time>2017-05-14T06:20:36Z</time>
      </trkpt>
      <trkpt lat="49.16788" lon="1.32612">
        <ele>109.7</ele>
        <time>2017-05-14T06:20:42Z</time>
      </trkpt>
      <trkpt lat="49.16791" lon="1.32599">
        <ele>111.9</ele>
        <time>2017-05-14T06:20:48Z</time>
      </trkpt>
      <trkpt lat="49.16795" lon="1.32584">
        <ele>114.4</ele>
        <time>2017-05-14T06:20:55Z</time>
      </trkpt>
      <trkpt lat="49.16799" lon="1.32572">
        <ele>116</ele>
        <time>2017-05-14T06:21:00Z</time>
      </trkpt>
      <trkpt lat="49.16799" lon="1.32556">
        <ele>118.4</ele>
        <time>2017-05-14T06:21:08Z</time>
      </trkpt>
      <trkpt lat="49.16799" lon="1.3254">
        <ele>120.4</ele>
        <time>2017-05-14T06:21:16Z</time>
      </trkpt>
      <trkpt lat="49.16806" lon="1.32529">
        <ele>121.8</ele>
        <time>2017-05-14T06:21:22Z</time>
      </trkpt>
      <trkpt lat="49.16812" lon="1.32518">
        <ele>122.6</ele>
        <time>2017-05-14T06:21:27Z</time>
      </trkpt>
      <trkpt lat="49.1681" lon="1.32504">
        <ele>124.5</ele>
        <time>2017-05-14T06:21:34Z</time>
      </trkpt>
      <trkpt lat="49.16806" lon="1.32491">
        <ele>125.8</ele>
        <time>2017-05-14T06:21:40Z</time>
      </trkpt>
      <trkpt lat="49.16803" lon="1.32476">
        <ele>127.9</ele>
        <time>2017-05-14T06:21:47Z</time>
      </trkpt>
      <trkpt lat="49.168" lon="1.32463">
        <ele>129.4</ele>
        <time>2017-05-14T06:21:54Z</time>
      </trkpt>
      <trkpt lat="49.16795" lon="1.32449">
        <ele>131.1</ele>
        <time>2017-05-14T06:22:01Z</time>
      </trkpt>
      <trkpt lat="49.1679" lon="1.32437">
        <ele>132.2</ele>
        <time>2017-05-14T06:22:06Z</time>
      </trkpt>
      <trkpt lat="49.16785" lon="1.32425">
        <ele>133.2</ele>
        <time>2017-05-14T06:22:11Z</time>
      </trkpt>
      <trkpt lat="49.16784" lon="1.3241">
        <ele>133.9</ele>
        <time>2017-05-14T06:22:16Z</time>
      </trkpt>
      <trkpt lat="49.16777" lon="1.32399">
        <ele>134.6</ele>
        <time>2017-05-14T06:22:20Z</time>
      </trkpt>
      <trkpt lat="49.16767" lon="1.32391">
        <ele>135.3</ele>
        <time>2017-05-14T06:22:25Z</time>
      </trkpt>
      <trkpt lat="49.16758" lon="1.32384">
        <ele>135.7</ele>
        <time>2017-05-14T06:22:28Z</time>
      </trkpt>
      <trkpt lat="49.16748" lon="1.32378">
        <ele>135.8</ele>
        <time>2017-05-14T06:22:32Z</time>
      </trkpt>
      <trkpt lat="49.16739" lon="1.32374">
        <ele>136.2</ele>
        <time>2017-05-14T06:22:36Z</time>
      </trkpt>
      <trkpt lat="49.16729" lon="1.32381">
        <ele>136.3</ele>
        <time>2017-05-14T06:22:40Z</time>
      </trkpt>
      <trkpt lat="49.16718" lon="1.3239">
        <ele>136.2</ele>
        <time>2017-05-14T06:22:44Z</time>
      </trkpt>
      <trkpt lat="49.16707" lon="1.32396">
        <ele>135.9</ele>
        <time>2017-05-14T06:22:47Z</time>
      </trkpt>
      <trkpt lat="49.16694" lon="1.324">
        <ele>135.3</ele>
        <time>2017-05-14T06:22:50Z</time>
      </trkpt>
      <trkpt lat="49.16681" lon="1.32402">
        <ele>135</ele>
        <time>2017-05-14T06:22:53Z</time>
      </trkpt>
      <trkpt lat="49.1667" lon="1.32406">
        <ele>134.5</ele>
        <time>2017-05-14T06:22:55Z</time>
      </trkpt>
      <trkpt lat="49.16659" lon="1.32412">
        <ele>133.8</ele>
        <time>2017-05-14T06:22:57Z</time>
      </trkpt>
      <trkpt lat="49.16652" lon="1.3242">
        <ele>133.3</ele>
        <time>2017-05-14T06:22:59Z</time>
      </trkpt>
      <trkpt lat="49.16644" lon="1.32429">
        <ele>132.7</ele>
        <time>2017-05-14T06:23:01Z</time>
      </trkpt>
      <trkpt lat="49.16634" lon="1.32438">
        <ele>132.2</ele>
        <time>2017-05-14T06:23:03Z</time>
      </trkpt>
      <trkpt lat="49.16622" lon="1.32451">
        <ele>131.3</ele>
        <time>2017-05-14T06:23:05Z</time>
      </trkpt>
      <trkpt lat="49.16611" lon="1.3246">
        <ele>130.5</ele>
        <time>2017-05-14T06:23:07Z</time>
      </trkpt>
      <trkpt lat="49.166" lon="1.32471">
        <ele>129.1</ele>
        <time>2017-05-14T06:23:09Z</time>
      </trkpt>
      <trkpt lat="49.16594" lon="1.32483">
        <ele>128.2</ele>
        <time>2017-05-14T06:23:11Z</time>
      </trkpt>
      <trkpt lat="49.16586" lon="1.32498">
        <ele>126.5</ele>
        <time>2017-05-14T06:23:16Z</time>
      </trkpt>
      <trkpt lat="49.16578" lon="1.3251">
        <ele>125.2</ele>
        <time>2017-05-14T06:23:19Z</time>
      </trkpt>
      <trkpt lat="49.16572" lon="1.3252">
        <ele>124.3</ele>
        <time>2017-05-14T06:23:23Z</time>
      </trkpt>
      <trkpt lat="49.16564" lon="1.32534">
        <ele>123.6</ele>
        <time>2017-05-14T06:23:26Z</time>
      </trkpt>
      <trkpt lat="49.16552" lon="1.32543">
        <ele>121.6</ele>
        <time>2017-05-14T06:23:29Z</time>
      </trkpt>
      <trkpt lat="49.16544" lon="1.3255">
        <ele>120</ele>
        <time>2017-05-14T06:23:31Z</time>
      </trkpt>
      <trkpt lat="49.16533" lon="1.32563">
        <ele>118.7</ele>
        <time>2017-05-14T06:23:33Z</time>
      </trkpt>
      <trkpt lat="49.16525" lon="1.32573">
        <ele>117.7</ele>
        <time>2017-05-14T06:23:35Z</time>
      </trkpt>
      <trkpt lat="49.16519" lon="1.32585">
        <ele>117.3</ele>
        <time>2017-05-14T06:23:37Z</time>
      </trkpt>
      <trkpt lat="49.16524" lon="1.32596">
        <ele>117.1</ele>
        <time>2017-05-14T06:23:41Z</time>
      </trkpt>
      <trkpt lat="49.16532" lon="1.32609">
        <ele>117.2</ele>
        <time>2017-05-14T06:23:46Z</time>
      </trkpt>
      <trkpt lat="49.1654" lon="1.32614">
        <ele>117.2</ele>
        <time>2017-05-14T06:23:49Z</time>
      </trkpt>
      <trkpt lat="49.16547" lon="1.32625">
        <ele>115.9</ele>
        <time>2017-05-14T06:23:52Z</time>
      </trkpt>
      <trkpt lat="49.16554" lon="1.32636">
        <ele>115.3</ele>
        <time>2017-05-14T06:23:56Z</time>
      </trkpt>
      <trkpt lat="49.16563" lon="1.32644">
        <ele>114.3</ele>
        <time>2017-05-14T06:24:00Z</time>
      </trkpt>
      <trkpt lat="49.1657" lon="1.32654">
        <ele>113</ele>
        <time>2017-05-14T06:24:04Z</time>
      </trkpt>
      <trkpt lat="49.16578" lon="1.32664">
        <ele>110.9</ele>
        <time>2017-05-14T06:24:07Z</time>
      </trkpt>
      <trkpt lat="49.16572" lon="1.32676">
        <ele>107.4</ele>
        <time>2017-05-14T06:24:16Z</time>
      </trkpt>
      <trkpt lat="49.16561" lon="1.32682">
        <ele>107.2</ele>
        <time>2017-05-14T06:24:19Z</time>
      </trkpt>
      <trkpt lat="49.16552" lon="1.32685">
        <ele>107.1</ele>
        <time>2017-05-14T06:24:23Z</time>
      </trkpt>
      <trkpt lat="49.16543" lon="1.3269">
        <ele>107.3</ele>
        <time>2017-05-14T06:24:30Z</time>
      </trkpt>
      <trkpt lat="49.16534" lon="1.32696">
        <ele>107.4</ele>
        <time>2017-05-14T06:24:35Z</time>
      </trkpt>
      <trkpt lat="49.16524" lon="1.32698">
        <ele>107.1</ele>
        <time>2017-05-14T06:24:39Z</time>
      </trkpt>
      <trkpt lat="49.16514" lon="1.32701">
        <ele>107.2</ele>
        <time>2017-05-14T06:24:43Z</time>
      </trkpt>
      <trkpt lat="49.16504" lon="1.32702">
        <ele>107.4</ele>
        <time>2017-05-14T06:24:46Z</time>
      </trkpt>
      <trkpt lat="49.16495" lon="1.32704">
        <ele>107.2</ele>
        <time>2017-05-14T06:24:49Z</time>
      </trkpt>
      <trkpt lat="49.16486" lon="1.32705">
        <ele>107.1</ele>
        <time>2017-05-14T06:24:52Z</time>
      </trkpt>
      <trkpt lat="49.16477" lon="1.32708">
        <ele>106.7</ele>
        <time>2017-05-14T06:24:56Z</time>
      </trkpt>
      <trkpt lat="49.16468" lon="1.32713">
        <ele>105.7</ele>
        <time>2017-05-14T06:25:23Z</time>
      </trkpt>
      <trkpt lat="49.1646" lon="1.32724">
        <ele>105.3</ele>
        <time>2017-05-14T06:25:26Z</time>
      </trkpt>
      <trkpt lat="49.16453" lon="1.32738">
        <ele>104.6</ele>
        <time>2017-05-14T06:25:28Z</time>
      </trkpt>
      <trkpt lat="49.16444" lon="1.32755">
        <ele>103.6</ele>
        <time>2017-05-14T06:25:30Z</time>
      </trkpt>
      <trkpt lat="49.16434" lon="1.3277">
        <ele>101.9</ele>
        <time>2017-05-14T06:25:32Z</time>
      </trkpt>
      <trkpt lat="49.16423" lon="1.3278">
        <ele>100.1</ele>
        <time>2017-05-14T06:25:34Z</time>
      </trkpt>
      <trkpt lat="49.16413" lon="1.32791">
        <ele>96.5</ele>
        <time>2017-05-14T06:25:38Z</time>
      </trkpt>
      <trkpt lat="49.16404" lon="1.32793">
        <ele>94.7</ele>
        <time>2017-05-14T06:25:40Z</time>
      </trkpt>
      <trkpt lat="49.16395" lon="1.32799">
        <ele>92.7</ele>
        <time>2017-05-14T06:25:42Z</time>
      </trkpt>
      <trkpt lat="49.16402" lon="1.32809">
        <ele>88.6</ele>
        <time>2017-05-14T06:25:47Z</time>
      </trkpt>
      <trkpt lat="49.16412" lon="1.32807">
        <ele>87.8</ele>
        <time>2017-05-14T06:25:50Z</time>
      </trkpt>
      <trkpt lat="49.16425" lon="1.32806">
        <ele>87.2</ele>
        <time>2017-05-14T06:25:53Z</time>
      </trkpt>
      <trkpt lat="49.16435" lon="1.32804">
        <ele>87.3</ele>
        <time>2017-05-14T06:25:55Z</time>
      </trkpt>
      <trkpt lat="49.16446" lon="1.32804">
        <ele>87.3</ele>
        <time>2017-05-14T06:25:57Z</time>
      </trkpt>
      <trkpt lat="49.16457" lon="1.32803">
        <ele>87.2</ele>
        <time>2017-05-14T06:25:59Z</time>
      </trkpt>
      <trkpt lat="49.16467" lon="1.32802">
        <ele>87.4</ele>
        <time>2017-05-14T06:26:01Z</time>
      </trkpt>
      <trkpt lat="49.16477" lon="1.328">
        <ele>87.4</ele>
        <time>2017-05-14T06:26:03Z</time>
      </trkpt>
      <trkpt lat="49.16486" lon="1.32796">
        <ele>87.6</ele>
        <time>2017-05-14T06:26:05Z</time>
      </trkpt>
      <trkpt lat="49.16497" lon="1.32792">
        <ele>87.8</ele>
        <time>2017-05-14T06:26:08Z</time>
      </trkpt>
      <trkpt lat="49.16506" lon="1.328">
        <ele>87.7</ele>
        <time>2017-05-14T06:26:11Z</time>
      </trkpt>
      <trkpt lat="49.16515" lon="1.32807">
        <ele>87.5</ele>
        <time>2017-05-14T06:26:14Z</time>
      </trkpt>
      <trkpt lat="49.16509" lon="1.32823">
        <ele>86.6</ele>
        <time>2017-05-14T06:26:18Z</time>
      </trkpt>
      <trkpt lat="49.16501" lon="1.32831">
        <ele>85.8</ele>
        <time>2017-05-14T06:26:20Z</time>
      </trkpt>
      <trkpt lat="49.16491" lon="1.32841">
        <ele>84.7</ele>
        <time>2017-05-14T06:26:22Z</time>
      </trkpt>
      <trkpt lat="49.16478" lon="1.32849">
        <ele>83.1</ele>
        <time>2017-05-14T06:26:24Z</time>
      </trkpt>
      <trkpt lat="49.16464" lon="1.32856">
        <ele>81.8</ele>
        <time>2017-05-14T06:26:26Z</time>
      </trkpt>
      <trkpt lat="49.1645" lon="1.32867">
        <ele>80.7</ele>
        <time>2017-05-14T06:26:28Z</time>
      </trkpt>
      <trkpt lat="49.16436" lon="1.32876">
        <ele>79.6</ele>
        <time>2017-05-14T06:26:30Z</time>
      </trkpt>
      <trkpt lat="49.16422" lon="1.32884">
        <ele>78.5</ele>
        <time>2017-05-14T06:26:32Z</time>
      </trkpt>
      <trkpt lat="49.16408" lon="1.32886">
        <ele>77.7</ele>
        <time>2017-05-14T06:26:34Z</time>
      </trkpt>
      <trkpt lat="49.16395" lon="1.32888">
        <ele>76.9</ele>
        <time>2017-05-14T06:26:36Z</time>
      </trkpt>
      <trkpt lat="49.16383" lon="1.32891">
        <ele>76.5</ele>
        <time>2017-05-14T06:26:38Z</time>
      </trkpt>
      <trkpt lat="49.16373" lon="1.3289">
        <ele>76</ele>
        <time>2017-05-14T06:26:40Z</time>
      </trkpt>
      <trkpt lat="49.16367" lon="1.32873">
        <ele>75.6</ele>
        <time>2017-05-14T06:26:43Z</time>
      </trkpt>
      <trkpt lat="49.16358" lon="1.32864">
        <ele>75.4</ele>
        <time>2017-05-14T06:26:46Z</time>
      </trkpt>
      <trkpt lat="49.16349" lon="1.32864">
        <ele>75.2</ele>
        <time>2017-05-14T06:26:48Z</time>
      </trkpt>
      <trkpt lat="49.16335" lon="1.32866">
        <ele>75.1</ele>
        <time>2017-05-14T06:26:51Z</time>
      </trkpt>
      <trkpt lat="49.16325" lon="1.32868">
        <ele>75.1</ele>
        <time>2017-05-14T06:26:53Z</time>
      </trkpt>
      <trkpt lat="49.16315" lon="1.3287">
        <ele>75.1</ele>
        <time>2017-05-14T06:26:55Z</time>
      </trkpt>
      <trkpt lat="49.16305" lon="1.32872">
        <ele>75.2</ele>
        <time>2017-05-14T06:26:57Z</time>
      </trkpt>
      <trkpt lat="49.16295" lon="1.32874">
        <ele>75.4</ele>
        <time>2017-05-14T06:26:59Z</time>
      </trkpt>
      <trkpt lat="49.16285" lon="1.32876">
        <ele>75.3</ele>
        <time>2017-05-14T06:27:01Z</time>
      </trkpt>
      <trkpt lat="49.16275" lon="1.32878">
        <ele>75.3</ele>
        <time>2017-05-14T06:27:03Z</time>
      </trkpt>
      <trkpt lat="49.16266" lon="1.3288">
        <ele>75.2</ele>
        <time>2017-05-14T06:27:05Z</time>
      </trkpt>
      <trkpt lat="49.16256" lon="1.32882">
        <ele>75.3</ele>
        <time>2017-05-14T06:27:07Z</time>
      </trkpt>
      <trkpt lat="49.16246" lon="1.32884">
        <ele>75.1</ele>
        <time>2017-05-14T06:27:09Z</time>
      </trkpt>
      <trkpt lat="49.16237" lon="1.32887">
        <ele>75.1</ele>
        <time>2017-05-14T06:27:11Z</time>
      </trkpt>
      <trkpt lat="49.16227" lon="1.3289">
        <ele>75</ele>
        <time>2017-05-14T06:27:13Z</time>
      </trkpt>
      <trkpt lat="49.16217" lon="1.32892">
        <ele>74.9</ele>
        <time>2017-05-14T06:27:15Z</time>
      </trkpt>
      <trkpt lat="49.16207" lon="1.32893">
        <ele>74.9</ele>
        <time>2017-05-14T06:27:17Z</time>
      </trkpt>
      <trkpt lat="49.16197" lon="1.32895">
        <ele>74.9</ele>
        <time>2017-05-14T06:27:19Z</time>
      </trkpt>
      <trkpt lat="49.16187" lon="1.32897">
        <ele>74.6</ele>
        <time>2017-05-14T06:27:21Z</time>
      </trkpt>
      <trkpt lat="49.16178" lon="1.32899">
        <ele>74.5</ele>
        <time>2017-05-14T06:27:23Z</time>
      </trkpt>
      <trkpt lat="49.16168" lon="1.32902">
        <ele>74.4</ele>
        <time>2017-05-14T06:27:25Z</time>
      </trkpt>
      <trkpt lat="49.16159" lon="1.32904">
        <ele>74.3</ele>
        <time>2017-05-14T06:27:27Z</time>
      </trkpt>
      <trkpt lat="49.16149" lon="1.32905">
        <ele>74.2</ele>
        <time>2017-05-14T06:27:29Z</time>
      </trkpt>
      <trkpt lat="49.16139" lon="1.329">
        <ele>73.6</ele>
        <time>2017-05-14T06:27:32Z</time>
      </trkpt>
      <trkpt lat="49.16142" lon="1.32883">
        <ele>73</ele>
        <time>2017-05-14T06:27:36Z</time>
      </trkpt>
      <trkpt lat="49.16149" lon="1.32871">
        <ele>73.3</ele>
        <time>2017-05-14T06:27:39Z</time>
      </trkpt>
      <trkpt lat="49.16138" lon="1.32879">
        <ele>73.7</ele>
        <time>2017-05-14T06:27:48Z</time>
      </trkpt>
      <trkpt lat="49.1613" lon="1.32888">
        <ele>73.2</ele>
        <time>2017-05-14T06:27:50Z</time>
      </trkpt>
      <trkpt lat="49.1612" lon="1.32898">
        <ele>72.7</ele>
        <time>2017-05-14T06:27:52Z</time>
      </trkpt>
      <trkpt lat="49.16109" lon="1.32912">
        <ele>71.9</ele>
        <time>2017-05-14T06:27:54Z</time>
      </trkpt>
      <trkpt lat="49.16098" lon="1.32927">
        <ele>70.7</ele>
        <time>2017-05-14T06:27:56Z</time>
      </trkpt>
      <trkpt lat="49.16088" lon="1.32945">
        <ele>69.8</ele>
        <time>2017-05-14T06:27:58Z</time>
      </trkpt>
      <trkpt lat="49.16081" lon="1.32964">
        <ele>68.3</ele>
        <time>2017-05-14T06:28:00Z</time>
      </trkpt>
      <trkpt lat="49.16075" lon="1.32975">
        <ele>67.1</ele>
        <time>2017-05-14T06:28:02Z</time>
      </trkpt>
      <trkpt lat="49.16075" lon="1.32957">
        <ele>65</ele>
        <time>2017-05-14T06:28:06Z</time>
      </trkpt>
      <trkpt lat="49.16078" lon="1.32943">
        <ele>64.4</ele>
        <time>2017-05-14T06:28:08Z</time>
      </trkpt>
      <trkpt lat="49.16082" lon="1.32925">
        <ele>63.6</ele>
        <time>2017-05-14T06:28:11Z</time>
      </trkpt>
      <trkpt lat="49.16086" lon="1.3291">
        <ele>62.7</ele>
        <time>2017-05-14T06:28:13Z</time>
      </trkpt>
      <trkpt lat="49.16088" lon="1.32892">
        <ele>62</ele>
        <time>2017-05-14T06:28:15Z</time>
      </trkpt>
      <trkpt lat="49.16091" lon="1.32874">
        <ele>61.2</ele>
        <time>2017-05-14T06:28:17Z</time>
      </trkpt>
      <trkpt lat="49.16091" lon="1.32858">
        <ele>60.3</ele>
        <time>2017-05-14T06:28:19Z</time>
      </trkpt>
      <trkpt lat="49.16083" lon="1.32842">
        <ele>58.8</ele>
        <time>2017-05-14T06:28:22Z</time>
      </trkpt>
      <trkpt lat="49.16072" lon="1.3285">
        <ele>57.6</ele>
        <time>2017-05-14T06:28:25Z</time>
      </trkpt>
      <trkpt lat="49.16065" lon="1.32858">
        <ele>56.9</ele>
        <time>2017-05-14T06:28:27Z</time>
      </trkpt>
      <trkpt lat="49.16057" lon="1.32849">
        <ele>55.8</ele>
        <time>2017-05-14T06:28:30Z</time>
      </trkpt>
      <trkpt lat="49.16058" lon="1.32829">
        <ele>55.4</ele>
        <time>2017-05-14T06:28:33Z</time>
      </trkpt>
      <trkpt lat="49.16061" lon="1.32815">
        <ele>55.4</ele>
        <time>2017-05-14T06:28:35Z</time>
      </trkpt>
      <trkpt lat="49.16065" lon="1.328">
        <ele>55</ele>
        <time>2017-05-14T06:28:37Z</time>
      </trkpt>
      <trkpt lat="49.16069" lon="1.32784">
        <ele>54.6</ele>
        <time>2017-05-14T06:28:39Z</time>
      </trkpt>
      <trkpt lat="49.16073" lon="1.32768">
        <ele>54.3</ele>
        <time>2017-05-14T06:28:41Z</time>
      </trkpt>
      <trkpt lat="49.16077" lon="1.32752">
        <ele>54</ele>
        <time>2017-05-14T06:28:43Z</time>
      </trkpt>
      <trkpt lat="49.16082" lon="1.32735">
        <ele>53.7</ele>
        <time>2017-05-14T06:28:45Z</time>
      </trkpt>
      <trkpt lat="49.16084" lon="1.32719">
        <ele>53.4</ele>
        <time>2017-05-14T06:28:47Z</time>
      </trkpt>
      <trkpt lat="49.1608" lon="1.32705">
        <ele>53.3</ele>
        <time>2017-05-14T06:28:49Z</time>
      </trkpt>
      <trkpt lat="49.16073" lon="1.32691">
        <ele>53.2</ele>
        <time>2017-05-14T06:28:51Z</time>
      </trkpt>
      <trkpt lat="49.16065" lon="1.32679">
        <ele>53.2</ele>
        <time>2017-05-14T06:28:53Z</time>
      </trkpt>
      <trkpt lat="49.16058" lon="1.32667">
        <ele>53.3</ele>
        <time>2017-05-14T06:28:55Z</time>
      </trkpt>
      <trkpt lat="49.1605" lon="1.32655">
        <ele>53.6</ele>
        <time>2017-05-14T06:28:57Z</time>
      </trkpt>
      <trkpt lat="49.16043" lon="1.32643">
        <ele>53.7</ele>
        <time>2017-05-14T06:28:59Z</time>
      </trkpt>
      <trkpt lat="49.16036" lon="1.32631">
        <ele>53.9</ele>
        <time>2017-05-14T06:29:01Z</time>
      </trkpt>
      <trkpt lat="49.16031" lon="1.32618">
        <ele>54.3</ele>
        <time>2017-05-14T06:29:03Z</time>
      </trkpt>
      <trkpt lat="49.16027" lon="1.32606">
        <ele>54.8</ele>
        <time>2017-05-14T06:29:05Z</time>
      </trkpt>
      <trkpt lat="49.16023" lon="1.32587">
        <ele>55.6</ele>
        <time>2017-05-14T06:29:08Z</time>
      </trkpt>
      <trkpt lat="49.1602" lon="1.32569">
        <ele>55.9</ele>
        <time>2017-05-14T06:29:11Z</time>
      </trkpt>
      <trkpt lat="49.16015" lon="1.32551">
        <ele>56.4</ele>
        <time>2017-05-14T06:29:14Z</time>
      </trkpt>
      <trkpt lat="49.16009" lon="1.32535">
        <ele>57</ele>
        <time>2017-05-14T06:29:17Z</time>
      </trkpt>
      <trkpt lat="49.16002" lon="1.3252">
        <ele>57.7</ele>
        <time>2017-05-14T06:29:20Z</time>
      </trkpt>
      <trkpt lat="49.15996" lon="1.32506">
        <ele>58.4</ele>
        <time>2017-05-14T06:29:23Z</time>
      </trkpt>
      <trkpt lat="49.15989" lon="1.32492">
        <ele>59.1</ele>
        <time>2017-05-14T06:29:26Z</time>
      </trkpt>
      <trkpt lat="49.15983" lon="1.32477">
        <ele>59.5</ele>
        <time>2017-05-14T06:29:29Z</time>
      </trkpt>
      <trkpt lat="49.15977" lon="1.32464">
        <ele>60.2</ele>
        <time>2017-05-14T06:29:32Z</time>
      </trkpt>
      <trkpt lat="49.15971" lon="1.32451">
        <ele>60.6</ele>
        <time>2017-05-14T06:29:35Z</time>
      </trkpt>
      <trkpt lat="49.15965" lon="1.32437">
        <ele>61.1</ele>
        <time>2017-05-14T06:29:38Z</time>
      </trkpt>
      <trkpt lat="49.15959" lon="1.32423">
        <ele>61.5</ele>
        <time>2017-05-14T06:29:41Z</time>
      </trkpt>
      <trkpt lat="49.15957" lon="1.32409">
        <ele>62</ele>
        <time>2017-05-14T06:29:44Z</time>
      </trkpt>
      <trkpt lat="49.15968" lon="1.32396">
        <ele>62.2</ele>
        <time>2017-05-14T06:29:47Z</time>
      </trkpt>
      <trkpt lat="49.15979" lon="1.32387">
        <ele>61.7</ele>
        <time>2017-05-14T06:29:49Z</time>
      </trkpt>
      <trkpt lat="49.15989" lon="1.32376">
        <ele>61.2</ele>
        <time>2017-05-14T06:29:51Z</time>
      </trkpt>
      <trkpt lat="49.15992" lon="1.32358">
        <ele>60.9</ele>
        <time>2017-05-14T06:29:53Z</time>
      </trkpt>
      <trkpt lat="49.15989" lon="1.32343">
        <ele>60.7</ele>
        <time>2017-05-14T06:29:55Z</time>
      </trkpt>
      <trkpt lat="49.15985" lon="1.32329">
        <ele>60.6</ele>
        <time>2017-05-14T06:29:57Z</time>
      </trkpt>
      <trkpt lat="49.15981" lon="1.32317">
        <ele>60.6</ele>
        <time>2017-05-14T06:29:59Z</time>
      </trkpt>
      <trkpt lat="49.15975" lon="1.32299">
        <ele>61</ele>
        <time>2017-05-14T06:30:02Z</time>
      </trkpt>
      <trkpt lat="49.1597" lon="1.32282">
        <ele>61.1</ele>
        <time>2017-05-14T06:30:05Z</time>
      </trkpt>
      <trkpt lat="49.15969" lon="1.32266">
        <ele>61.4</ele>
        <time>2017-05-14T06:30:08Z</time>
      </trkpt>
      <trkpt lat="49.15964" lon="1.32251">
        <ele>61.9</ele>
        <time>2017-05-14T06:30:11Z</time>
      </trkpt>
      <trkpt lat="49.15962" lon="1.32237">
        <ele>62.3</ele>
        <time>2017-05-14T06:30:14Z</time>
      </trkpt>
      <trkpt lat="49.15962" lon="1.32223">
        <ele>62.5</ele>
        <time>2017-05-14T06:30:17Z</time>
      </trkpt>
      <trkpt lat="49.15965" lon="1.32206">
        <ele>62.8</ele>
        <time>2017-05-14T06:30:21Z</time>
      </trkpt>
      <trkpt lat="49.15963" lon="1.32189">
        <ele>63.3</ele>
        <time>2017-05-14T06:30:25Z</time>
      </trkpt>
      <trkpt lat="49.15964" lon="1.32174">
        <ele>64</ele>
        <time>2017-05-14T06:30:29Z</time>
      </trkpt>
      <trkpt lat="49.15973" lon="1.32174">
        <ele>64.3</ele>
        <time>2017-05-14T06:30:32Z</time>
      </trkpt>
      <trkpt lat="49.15983" lon="1.32173">
        <ele>64.6</ele>
        <time>2017-05-14T06:30:35Z</time>
      </trkpt>
      <trkpt lat="49.15993" lon="1.32173">
        <ele>64.8</ele>
        <time>2017-05-14T06:30:38Z</time>
      </trkpt>
      <trkpt lat="49.16" lon="1.32162">
        <ele>65.3</ele>
        <time>2017-05-14T06:30:41Z</time>
      </trkpt>
      <trkpt lat="49.16004" lon="1.32149">
        <ele>65.9</ele>
        <time>2017-05-14T06:30:44Z</time>
      </trkpt>
      <trkpt lat="49.16007" lon="1.32136">
        <ele>66.5</ele>
        <time>2017-05-14T06:30:48Z</time>
      </trkpt>
      <trkpt lat="49.16012" lon="1.32124">
        <ele>67.8</ele>
        <time>2017-05-14T06:30:53Z</time>
      </trkpt>
      <trkpt lat="49.1602" lon="1.32114">
        <ele>69.2</ele>
        <time>2017-05-14T06:30:59Z</time>
      </trkpt>
      <trkpt lat="49.16026" lon="1.32103">
        <ele>71.3</ele>
        <time>2017-05-14T06:31:05Z</time>
      </trkpt>
      <trkpt lat="49.16033" lon="1.32092">
        <ele>73.1</ele>
        <time>2017-05-14T06:31:11Z</time>
      </trkpt>
      <trkpt lat="49.16038" lon="1.3208">
        <ele>74.5</ele>
        <time>2017-05-14T06:31:17Z</time>
      </trkpt>
      <trkpt lat="49.16036" lon="1.32066">
        <ele>75.1</ele>
        <time>2017-05-14T06:31:22Z</time>
      </trkpt>
      <trkpt lat="49.16035" lon="1.32049">
        <ele>75.3</ele>
        <time>2017-05-14T06:31:27Z</time>
      </trkpt>
      <trkpt lat="49.16034" lon="1.32035">
        <ele>75.6</ele>
        <time>2017-05-14T06:31:32Z</time>
      </trkpt>
      <trkpt lat="49.16043" lon="1.32044">
        <ele>77.3</ele>
        <time>2017-05-14T06:31:44Z</time>
      </trkpt>
      <trkpt lat="49.16051" lon="1.32056">
        <ele>78.4</ele>
        <time>2017-05-14T06:31:49Z</time>
      </trkpt>
      <trkpt lat="49.16058" lon="1.32065">
        <ele>79.7</ele>
        <time>2017-05-14T06:31:54Z</time>
      </trkpt>
      <trkpt lat="49.16064" lon="1.32078">
        <ele>81.3</ele>
        <time>2017-05-14T06:32:00Z</time>
      </trkpt>
      <trkpt lat="49.16069" lon="1.32092">
        <ele>82.1</ele>
        <time>2017-05-14T06:32:05Z</time>
      </trkpt>
      <trkpt lat="49.16074" lon="1.32107">
        <ele>83</ele>
        <time>2017-05-14T06:32:10Z</time>
      </trkpt>
      <trkpt lat="49.16078" lon="1.32121">
        <ele>83.4</ele>
        <time>2017-05-14T06:32:14Z</time>
      </trkpt>
      <trkpt lat="49.16082" lon="1.32134">
        <ele>83.5</ele>
        <time>2017-05-14T06:32:18Z</time>
      </trkpt>
      <trkpt lat="49.16087" lon="1.32145">
        <ele>83.8</ele>
        <time>2017-05-14T06:32:22Z</time>
      </trkpt>
      <trkpt lat="49.16098" lon="1.32143">
        <ele>84.5</ele>
        <time>2017-05-14T06:32:27Z</time>
      </trkpt>
      <trkpt lat="49.16104" lon="1.32131">
        <ele>86.4</ele>
        <time>2017-05-14T06:32:34Z</time>
      </trkpt>
      <trkpt lat="49.16105" lon="1.32117">
        <ele>87.9</ele>
        <time>2017-05-14T06:32:39Z</time>
      </trkpt>
      <trkpt lat="49.16105" lon="1.32101">
        <ele>89.3</ele>
        <time>2017-05-14T06:32:44Z</time>
      </trkpt>
      <trkpt lat="49.16105" lon="1.32087">
        <ele>90.5</ele>
        <time>2017-05-14T06:32:49Z</time>
      </trkpt>
      <trkpt lat="49.16105" lon="1.32073">
        <ele>91.9</ele>
        <time>2017-05-14T06:32:54Z</time>
      </trkpt>
      <trkpt lat="49.16103" lon="1.32058">
        <ele>93.1</ele>
        <time>2017-05-14T06:32:59Z</time>
      </trkpt>
      <trkpt lat="49.16104" lon="1.32042">
        <ele>94.4</ele>
        <time>2017-05-14T06:33:04Z</time>
      </trkpt>
      <trkpt lat="49.16106" lon="1.32026">
        <ele>95.9</ele>
        <time>2017-05-14T06:33:09Z</time>
      </trkpt>
      <trkpt lat="49.16106" lon="1.32012">
        <ele>97</ele>
        <time>2017-05-14T06:33:14Z</time>
      </trkpt>
      <trkpt lat="49.16107" lon="1.31995">
        <ele>98</ele>
        <time>2017-05-14T06:33:19Z</time>
      </trkpt>
      <trkpt lat="49.16107" lon="1.31978">
        <ele>99.2</ele>
        <time>2017-05-14T06:33:24Z</time>
      </trkpt>
      <trkpt lat="49.16106" lon="1.31962">
        <ele>100.9</ele>
        <time>2017-05-14T06:33:29Z</time>
      </trkpt>
      <trkpt lat="49.16103" lon="1.31947">
        <ele>102</ele>
        <time>2017-05-14T06:33:33Z</time>
      </trkpt>
      <trkpt lat="49.16101" lon="1.31931">
        <ele>103</ele>
        <time>2017-05-14T06:33:37Z</time>
      </trkpt>
      <trkpt lat="49.16098" lon="1.31915">
        <ele>103.8</ele>
        <time>2017-05-14T06:33:41Z</time>
      </trkpt>
      <trkpt lat="49.16098" lon="1.319">
        <ele>105</ele>
        <time>2017-05-14T06:33:46Z</time>
      </trkpt>
      <trkpt lat="49.16097" lon="1.31883">
        <ele>105.6</ele>
        <time>2017-05-14T06:33:50Z</time>
      </trkpt>
      <trkpt lat="49.16094" lon="1.31867">
        <ele>106.2</ele>
        <time>2017-05-14T06:33:54Z</time>
      </trkpt>
      <trkpt lat="49.16089" lon="1.31851">
        <ele>106.7</ele>
        <time>2017-05-14T06:33:58Z</time>
      </trkpt>
      <trkpt lat="49.16085" lon="1.31838">
        <ele>107.2</ele>
        <time>2017-05-14T06:34:01Z</time>
      </trkpt>
      <trkpt lat="49.16081" lon="1.31826">
        <ele>107.7</ele>
        <time>2017-05-14T06:34:04Z</time>
      </trkpt>
      <trkpt lat="49.16076" lon="1.31813">
        <ele>108.2</ele>
        <time>2017-05-14T06:34:07Z</time>
      </trkpt>
      <trkpt lat="49.1607" lon="1.31798">
        <ele>108.1</ele>
        <time>2017-05-14T06:34:10Z</time>
      </trkpt>
      <trkpt lat="49.16065" lon="1.3178">
        <ele>108.2</ele>
        <time>2017-05-14T06:34:13Z</time>
      </trkpt>
      <trkpt lat="49.16058" lon="1.31765">
        <ele>108.5</ele>
        <time>2017-05-14T06:34:16Z</time>
      </trkpt>
      <trkpt lat="49.1605" lon="1.31753">
        <ele>109</ele>
        <time>2017-05-14T06:34:19Z</time>
      </trkpt>
      <trkpt lat="49.16044" lon="1.31744">
        <ele>109.3</ele>
        <time>2017-05-14T06:34:21Z</time>
      </trkpt>
      <trkpt lat="49.16035" lon="1.31729">
        <ele>109.6</ele>
        <time>2017-05-14T06:34:24Z</time>
      </trkpt>
      <trkpt lat="49.16026" lon="1.31714">
        <ele>109.9</ele>
        <time>2017-05-14T06:34:27Z</time>
      </trkpt>
      <trkpt lat="49.16018" lon="1.31698">
        <ele>110.2</ele>
        <time>2017-05-14T06:34:30Z</time>
      </trkpt>
      <trkpt lat="49.16012" lon="1.31681">
        <ele>110.8</ele>
        <time>2017-05-14T06:34:33Z</time>
      </trkpt>
      <trkpt lat="49.16011" lon="1.31664">
        <ele>111.4</ele>
        <time>2017-05-14T06:34:36Z</time>
      </trkpt>
      <trkpt lat="49.16013" lon="1.31649">
        <ele>112.1</ele>
        <time>2017-05-14T06:34:39Z</time>
      </trkpt>
      <trkpt lat="49.16015" lon="1.31634">
        <ele>112.8</ele>
        <time>2017-05-14T06:34:42Z</time>
      </trkpt>
      <trkpt lat="49.16019" lon="1.31621">
        <ele>113.7</ele>
        <time>2017-05-14T06:34:45Z</time>
      </trkpt>
      <trkpt lat="49.16021" lon="1.31607">
        <ele>114.5</ele>
        <time>2017-05-14T06:34:48Z</time>
      </trkpt>
      <trkpt lat="49.16022" lon="1.31593">
        <ele>115.3</ele>
        <time>2017-05-14T06:34:51Z</time>
      </trkpt>
      <trkpt lat="49.16021" lon="1.31578">
        <ele>116.1</ele>
        <time>2017-05-14T06:34:54Z</time>
      </trkpt>
      <trkpt lat="49.1602" lon="1.31563">
        <ele>117.1</ele>
        <time>2017-05-14T06:34:57Z</time>
      </trkpt>
      <trkpt lat="49.1602" lon="1.31549">
        <ele>117.8</ele>
        <time>2017-05-14T06:35:00Z</time>
      </trkpt>
      <trkpt lat="49.1602" lon="1.31533">
        <ele>118.5</ele>
        <time>2017-05-14T06:35:03Z</time>
      </trkpt>
      <trkpt lat="49.16024" lon="1.31518">
        <ele>119.2</ele>
        <time>2017-05-14T06:35:06Z</time>
      </trkpt>
      <trkpt lat="49.16031" lon="1.31503">
        <ele>120.3</ele>
        <time>2017-05-14T06:35:10Z</time>
      </trkpt>
      <trkpt lat="49.1604" lon="1.31493">
        <ele>121.2</ele>
        <time>2017-05-14T06:35:14Z</time>
      </trkpt>
      <trkpt lat="49.16049" lon="1.31484">
        <ele>122.3</ele>
        <time>2017-05-14T06:35:18Z</time>
      </trkpt>
      <trkpt lat="49.16059" lon="1.31475">
        <ele>123.4</ele>
        <time>2017-05-14T06:35:22Z</time>
      </trkpt>
      <trkpt lat="49.16068" lon="1.31467">
        <ele>124.5</ele>
        <time>2017-05-14T06:35:26Z</time>
      </trkpt>
      <trkpt lat="49.16075" lon="1.31455">
        <ele>125.5</ele>
        <time>2017-05-14T06:35:30Z</time>
      </trkpt>
      <trkpt lat="49.16077" lon="1.31438">
        <ele>126.6</ele>
        <time>2017-05-14T06:35:34Z</time>
      </trkpt>
      <trkpt lat="49.16076" lon="1.3142">
        <ele>127.4</ele>
        <time>2017-05-14T06:35:38Z</time>
      </trkpt>
      <trkpt lat="49.16075" lon="1.31405">
        <ele>127.8</ele>
        <time>2017-05-14T06:35:41Z</time>
      </trkpt>
      <trkpt lat="49.16075" lon="1.3139">
        <ele>128.2</ele>
        <time>2017-05-14T06:35:44Z</time>
      </trkpt>
      <trkpt lat="49.16075" lon="1.31375">
        <ele>128.5</ele>
        <time>2017-05-14T06:35:47Z</time>
      </trkpt>
      <trkpt lat="49.16075" lon="1.31359">
        <ele>128.9</ele>
        <time>2017-05-14T06:35:50Z</time>
      </trkpt>
      <trkpt lat="49.16074" lon="1.31341">
        <ele>129.2</ele>
        <time>2017-05-14T06:35:53Z</time>
      </trkpt>
      <trkpt lat="49.16074" lon="1.31324">
        <ele>129.6</ele>
        <time>2017-05-14T06:35:56Z</time>
      </trkpt>
      <trkpt lat="49.16073" lon="1.31306">
        <ele>130.1</ele>
        <time>2017-05-14T06:35:59Z</time>
      </trkpt>
      <trkpt lat="49.16071" lon="1.3129">
        <ele>130.4</ele>
        <time>2017-05-14T06:36:02Z</time>
      </trkpt>
      <trkpt lat="49.16068" lon="1.31274">
        <ele>130.9</ele>
        <time>2017-05-14T06:36:05Z</time>
      </trkpt>
      <trkpt lat="49.16064" lon="1.31257">
        <ele>131.3</ele>
        <time>2017-05-14T06:36:08Z</time>
      </trkpt>
      <trkpt lat="49.16059" lon="1.3124">
        <ele>132</ele>
        <time>2017-05-14T06:36:11Z</time>
      </trkpt>
      <trkpt lat="49.16054" lon="1.31224">
        <ele>132.3</ele>
        <time>2017-05-14T06:36:14Z</time>
      </trkpt>
      <trkpt lat="49.1605" lon="1.31209">
        <ele>132.6</ele>
        <time>2017-05-14T06:36:17Z</time>
      </trkpt>
      <trkpt lat="49.16045" lon="1.31192">
        <ele>133.1</ele>
        <time>2017-05-14T06:36:20Z</time>
      </trkpt>
      <trkpt lat="49.1604" lon="1.31177">
        <ele>133.5</ele>
        <time>2017-05-14T06:36:23Z</time>
      </trkpt>
      <trkpt lat="49.16036" lon="1.31162">
        <ele>134</ele>
        <time>2017-05-14T06:36:26Z</time>
      </trkpt>
      <trkpt lat="49.16032" lon="1.31147">
        <ele>134.1</ele>
        <time>2017-05-14T06:36:29Z</time>
      </trkpt>
      <trkpt lat="49.16027" lon="1.3113">
        <ele>134.7</ele>
        <time>2017-05-14T06:36:32Z</time>
      </trkpt>
      <trkpt lat="49.16021" lon="1.31114">
        <ele>135.1</ele>
        <time>2017-05-14T06:36:35Z</time>
      </trkpt>
      <trkpt lat="49.16016" lon="1.31098">
        <ele>135.5</ele>
        <time>2017-05-14T06:36:38Z</time>
      </trkpt>
      <trkpt lat="49.1601" lon="1.31082">
        <ele>135.9</ele>
        <time>2017-05-14T06:36:41Z</time>
      </trkpt>
      <trkpt lat="49.16003" lon="1.31067">
        <ele>136.7</ele>
        <time>2017-05-14T06:36:44Z</time>
      </trkpt>
      <trkpt lat="49.15997" lon="1.31051">
        <ele>137.1</ele>
        <time>2017-05-14T06:36:47Z</time>
      </trkpt>
      <trkpt lat="49.15989" lon="1.31037">
        <ele>137.5</ele>
        <time>2017-05-14T06:36:50Z</time>
      </trkpt>
      <trkpt lat="49.15981" lon="1.31023">
        <ele>137.6</ele>
        <time>2017-05-14T06:36:53Z</time>
      </trkpt>
      <trkpt lat="49.15972" lon="1.3101">
        <ele>137.9</ele>
        <time>2017-05-14T06:36:56Z</time>
      </trkpt>
      <trkpt lat="49.15963" lon="1.30996">
        <ele>138.2</ele>
        <time>2017-05-14T06:36:59Z</time>
      </trkpt>
      <trkpt lat="49.15956" lon="1.30982">
        <ele>138.5</ele>
        <time>2017-05-14T06:37:02Z</time>
      </trkpt>
      <trkpt lat="49.15948" lon="1.30968">
        <ele>138.9</ele>
        <time>2017-05-14T06:37:05Z</time>
      </trkpt>
      <trkpt lat="49.15942" lon="1.30953">
        <ele>139.3</ele>
        <time>2017-05-14T06:37:08Z</time>
      </trkpt>
      <trkpt lat="49.15934" lon="1.30939">
        <ele>139.7</ele>
        <time>2017-05-14T06:37:11Z</time>
      </trkpt>
      <trkpt lat="49.15926" lon="1.30924">
        <ele>139.9</ele>
        <time>2017-05-14T06:37:14Z</time>
      </trkpt>
      <trkpt lat="49.15919" lon="1.30911">
        <ele>140.1</ele>
        <time>2017-05-14T06:37:17Z</time>
      </trkpt>
      <trkpt lat="49.15913" lon="1.30897">
        <ele>140.3</ele>
        <time>2017-05-14T06:37:20Z</time>
      </trkpt>
      <trkpt lat="49.15906" lon="1.30882">
        <ele>140.7</ele>
        <time>2017-05-14T06:37:23Z</time>
      </trkpt>
      <trkpt lat="49.15899" lon="1.30867">
        <ele>140.8</ele>
        <time>2017-05-14T06:37:26Z</time>
      </trkpt>
      <trkpt lat="49.15893" lon="1.30851">
        <ele>141.2</ele>
        <time>2017-05-14T06:37:29Z</time>
      </trkpt>
      <trkpt lat="49.15887" lon="1.30835">
        <ele>141.6</ele>
        <time>2017-05-14T06:37:32Z</time>
      </trkpt>
      <trkpt lat="49.15881" lon="1.30819">
        <ele>141.6</ele>
        <time>2017-05-14T06:37:35Z</time>
      </trkpt>
      <trkpt lat="49.15874" lon="1.30802">
        <ele>141.6</ele>
        <time>2017-05-14T06:37:38Z</time>
      </trkpt>
      <trkpt lat="49.15868" lon="1.30784">
        <ele>141.7</ele>
        <time>2017-05-14T06:37:41Z</time>
      </trkpt>
      <trkpt lat="49.15863" lon="1.30767">
        <ele>142</ele>
        <time>2017-05-14T06:37:44Z</time>
      </trkpt>
      <trkpt lat="49.15863" lon="1.30751">
        <ele>142.1</ele>
        <time>2017-05-14T06:37:47Z</time>
      </trkpt>
      <trkpt lat="49.15859" lon="1.30738">
        <ele>142.1</ele>
        <time>2017-05-14T06:37:50Z</time>
      </trkpt>
      <trkpt lat="49.1585" lon="1.30732">
        <ele>142.2</ele>
        <time>2017-05-14T06:38:23Z</time>
      </trkpt>
      <trkpt lat="49.15841" lon="1.30719">
        <ele>142.3</ele>
        <time>2017-05-14T06:38:27Z</time>
      </trkpt>
      <trkpt lat="49.15832" lon="1.30703">
        <ele>142.4</ele>
        <time>2017-05-14T06:38:30Z</time>
      </trkpt>
      <trkpt lat="49.15827" lon="1.3069">
        <ele>142.4</ele>
        <time>2017-05-14T06:38:32Z</time>
      </trkpt>
      <trkpt lat="49.15822" lon="1.30677">
        <ele>142.4</ele>
        <time>2017-05-14T06:38:34Z</time>
      </trkpt>
      <trkpt lat="49.15817" lon="1.30664">
        <ele>142.6</ele>
        <time>2017-05-14T06:38:36Z</time>
      </trkpt>
      <trkpt lat="49.15812" lon="1.30651">
        <ele>142.7</ele>
        <time>2017-05-14T06:38:38Z</time>
      </trkpt>
      <trkpt lat="49.15808" lon="1.30639">
        <ele>142.7</ele>
        <time>2017-05-14T06:38:40Z</time>
      </trkpt>
      <trkpt lat="49.15803" lon="1.30626">
        <ele>142.7</ele>
        <time>2017-05-14T06:38:42Z</time>
      </trkpt>
      <trkpt lat="49.15799" lon="1.30612">
        <ele>142.8</ele>
        <time>2017-05-14T06:38:44Z</time>
      </trkpt>
      <trkpt lat="49.15795" lon="1.30599">
        <ele>142.7</ele>
        <time>2017-05-14T06:38:46Z</time>
      </trkpt>
      <trkpt lat="49.15791" lon="1.30586">
        <ele>142.9</ele>
        <time>2017-05-14T06:38:48Z</time>
      </trkpt>
      <trkpt lat="49.15786" lon="1.30573">
        <ele>143.1</ele>
        <time>2017-05-14T06:38:50Z</time>
      </trkpt>
      <trkpt lat="49.15782" lon="1.30559">
        <ele>143.3</ele>
        <time>2017-05-14T06:38:52Z</time>
      </trkpt>
      <trkpt lat="49.15778" lon="1.30545">
        <ele>143.4</ele>
        <time>2017-05-14T06:38:54Z</time>
      </trkpt>
      <trkpt lat="49.15774" lon="1.30531">
        <ele>143.6</ele>
        <time>2017-05-14T06:38:56Z</time>
      </trkpt>
      <trkpt lat="49.15768" lon="1.30518">
        <ele>143.9</ele>
        <time>2017-05-14T06:38:58Z</time>
      </trkpt>
      <trkpt lat="49.15763" lon="1.30505">
        <ele>144.3</ele>
        <time>2017-05-14T06:39:00Z</time>
      </trkpt>
      <trkpt lat="49.15758" lon="1.30492">
        <ele>144.6</ele>
        <time>2017-05-14T06:39:02Z</time>
      </trkpt>
      <trkpt lat="49.15752" lon="1.30481">
        <ele>144.8</ele>
        <time>2017-05-14T06:39:04Z</time>
      </trkpt>
      <trkpt lat="49.15747" lon="1.30468">
        <ele>145</ele>
        <time>2017-05-14T06:39:06Z</time>
      </trkpt>
      <trkpt lat="49.15742" lon="1.30456">
        <ele>145</ele>
        <time>2017-05-14T06:39:08Z</time>
      </trkpt>
      <trkpt lat="49.15737" lon="1.30443">
        <ele>144.9</ele>
        <time>2017-05-14T06:39:10Z</time>
      </trkpt>
      <trkpt lat="49.15732" lon="1.30431">
        <ele>144.9</ele>
        <time>2017-05-14T06:39:12Z</time>
      </trkpt>
      <trkpt lat="49.15727" lon="1.30418">
        <ele>145</ele>
        <time>2017-05-14T06:39:14Z</time>
      </trkpt>
      <trkpt lat="49.15722" lon="1.30406">
        <ele>145.2</ele>
        <time>2017-05-14T06:39:16Z</time>
      </trkpt>
      <trkpt lat="49.15717" lon="1.30393">
        <ele>145.4</ele>
        <time>2017-05-14T06:39:18Z</time>
      </trkpt>
      <trkpt lat="49.15712" lon="1.3038">
        <ele>145.6</ele>
        <time>2017-05-14T06:39:20Z</time>
      </trkpt>
      <trkpt lat="49.15708" lon="1.30368">
        <ele>145.9</ele>
        <time>2017-05-14T06:39:22Z</time>
      </trkpt>
      <trkpt lat="49.15703" lon="1.30355">
        <ele>146.3</ele>
        <time>2017-05-14T06:39:24Z</time>
      </trkpt>
      <trkpt lat="49.157" lon="1.30341">
        <ele>146.3</ele>
        <time>2017-05-14T06:39:26Z</time>
      </trkpt>
      <trkpt lat="49.15696" lon="1.30328">
        <ele>146.6</ele>
        <time>2017-05-14T06:39:28Z</time>
      </trkpt>
      <trkpt lat="49.15693" lon="1.30315">
        <ele>146.5</ele>
        <time>2017-05-14T06:39:30Z</time>
      </trkpt>
      <trkpt lat="49.15689" lon="1.30302">
        <ele>146.6</ele>
        <time>2017-05-14T06:39:32Z</time>
      </trkpt>
      <trkpt lat="49.15684" lon="1.30283">
        <ele>147.2</ele>
        <time>2017-05-14T06:39:35Z</time>
      </trkpt>
      <trkpt lat="49.15681" lon="1.3027">
        <ele>147.4</ele>
        <time>2017-05-14T06:39:37Z</time>
      </trkpt>
      <trkpt lat="49.15677" lon="1.30257">
        <ele>147.6</ele>
        <time>2017-05-14T06:39:39Z</time>
      </trkpt>
      <trkpt lat="49.15674" lon="1.30245">
        <ele>147.7</ele>
        <time>2017-05-14T06:39:41Z</time>
      </trkpt>
      <trkpt lat="49.15669" lon="1.30226">
        <ele>148.4</ele>
        <time>2017-05-14T06:39:44Z</time>
      </trkpt>
      <trkpt lat="49.15664" lon="1.30209">
        <ele>149.1</ele>
        <time>2017-05-14T06:39:47Z</time>
      </trkpt>
      <trkpt lat="49.15659" lon="1.3019">
        <ele>149.5</ele>
        <time>2017-05-14T06:39:50Z</time>
      </trkpt>
      <trkpt lat="49.15655" lon="1.30172">
        <ele>150.1</ele>
        <time>2017-05-14T06:39:53Z</time>
      </trkpt>
      <trkpt lat="49.15652" lon="1.30154">
        <ele>150.6</ele>
        <time>2017-05-14T06:39:56Z</time>
      </trkpt>
      <trkpt lat="49.15648" lon="1.30136">
        <ele>151.1</ele>
        <time>2017-05-14T06:39:59Z</time>
      </trkpt>
      <trkpt lat="49.15644" lon="1.30117">
        <ele>151.4</ele>
        <time>2017-05-14T06:40:02Z</time>
      </trkpt>
      <trkpt lat="49.15642" lon="1.301">
        <ele>151.8</ele>
        <time>2017-05-14T06:40:05Z</time>
      </trkpt>
      <trkpt lat="49.15639" lon="1.30082">
        <ele>152.2</ele>
        <time>2017-05-14T06:40:08Z</time>
      </trkpt>
      <trkpt lat="49.15635" lon="1.30062">
        <ele>152.7</ele>
        <time>2017-05-14T06:40:11Z</time>
      </trkpt>
      <trkpt lat="49.1563" lon="1.30043">
        <ele>152.8</ele>
        <time>2017-05-14T06:40:14Z</time>
      </trkpt>
      <trkpt lat="49.15624" lon="1.30027">
        <ele>153.2</ele>
        <time>2017-05-14T06:40:17Z</time>
      </trkpt>
      <trkpt lat="49.15618" lon="1.30009">
        <ele>153.4</ele>
        <time>2017-05-14T06:40:20Z</time>
      </trkpt>
      <trkpt lat="49.1561" lon="1.29996">
        <ele>153.5</ele>
        <time>2017-05-14T06:40:23Z</time>
      </trkpt>
      <trkpt lat="49.15604" lon="1.29981">
        <ele>153.8</ele>
        <time>2017-05-14T06:40:26Z</time>
      </trkpt>
      <trkpt lat="49.15597" lon="1.29964">
        <ele>154.1</ele>
        <time>2017-05-14T06:40:29Z</time>
      </trkpt>
      <trkpt lat="49.15589" lon="1.29949">
        <ele>154.4</ele>
        <time>2017-05-14T06:40:32Z</time>
      </trkpt>
      <trkpt lat="49.15583" lon="1.29933">
        <ele>154.9</ele>
        <time>2017-05-14T06:40:35Z</time>
      </trkpt>
      <trkpt lat="49.15576" lon="1.29918">
        <ele>155.3</ele>
        <time>2017-05-14T06:40:38Z</time>
      </trkpt>
      <trkpt lat="49.15569" lon="1.29901">
        <ele>155.5</ele>
        <time>2017-05-14T06:40:41Z</time>
      </trkpt>
      <trkpt lat="49.15565" lon="1.29887">
        <ele>155.7</ele>
        <time>2017-05-14T06:40:43Z</time>
      </trkpt>
      <trkpt lat="49.1556" lon="1.29873">
        <ele>155.9</ele>
        <time>2017-05-14T06:40:46Z</time>
      </trkpt>
      <trkpt lat="49.15552" lon="1.29859">
        <ele>156.2</ele>
        <time>2017-05-14T06:40:49Z</time>
      </trkpt>
      <trkpt lat="49.15546" lon="1.29848">
        <ele>156.4</ele>
        <time>2017-05-14T06:40:51Z</time>
      </trkpt>
      <trkpt lat="49.15538" lon="1.29836">
        <ele>157</ele>
        <time>2017-05-14T06:40:54Z</time>
      </trkpt>
      <trkpt lat="49.15531" lon="1.29824">
        <ele>157.2</ele>
        <time>2017-05-14T06:40:56Z</time>
      </trkpt>
      <trkpt lat="49.15525" lon="1.29806">
        <ele>157.6</ele>
        <time>2017-05-14T06:40:59Z</time>
      </trkpt>
      <trkpt lat="49.15523" lon="1.29786">
        <ele>157.7</ele>
        <time>2017-05-14T06:41:03Z</time>
      </trkpt>
      <trkpt lat="49.1552" lon="1.29771">
        <ele>158</ele>
        <time>2017-05-14T06:41:06Z</time>
      </trkpt>
      <trkpt lat="49.1552" lon="1.29756">
        <ele>157.9</ele>
        <time>2017-05-14T06:41:08Z</time>
      </trkpt>
      <trkpt lat="49.15517" lon="1.29736">
        <ele>158.2</ele>
        <time>2017-05-14T06:41:11Z</time>
      </trkpt>
      <trkpt lat="49.15515" lon="1.29719">
        <ele>158.3</ele>
        <time>2017-05-14T06:41:14Z</time>
      </trkpt>
      <trkpt lat="49.15511" lon="1.29703">
        <ele>158.4</ele>
        <time>2017-05-14T06:41:16Z</time>
      </trkpt>
      <trkpt lat="49.1551" lon="1.29685">
        <ele>158.4</ele>
        <time>2017-05-14T06:41:19Z</time>
      </trkpt>
      <trkpt lat="49.15508" lon="1.29668">
        <ele>158.6</ele>
        <time>2017-05-14T06:41:22Z</time>
      </trkpt>
      <trkpt lat="49.15506" lon="1.29653">
        <ele>158.6</ele>
        <time>2017-05-14T06:41:24Z</time>
      </trkpt>
      <trkpt lat="49.15503" lon="1.29634">
        <ele>158.7</ele>
        <time>2017-05-14T06:41:27Z</time>
      </trkpt>
      <trkpt lat="49.15501" lon="1.29615">
        <ele>158.7</ele>
        <time>2017-05-14T06:41:30Z</time>
      </trkpt>
      <trkpt lat="49.15498" lon="1.29596">
        <ele>158.9</ele>
        <time>2017-05-14T06:41:33Z</time>
      </trkpt>
      <trkpt lat="49.15496" lon="1.29581">
        <ele>158.9</ele>
        <time>2017-05-14T06:41:35Z</time>
      </trkpt>
      <trkpt lat="49.15493" lon="1.29565">
        <ele>159</ele>
        <time>2017-05-14T06:41:38Z</time>
      </trkpt>
      <trkpt lat="49.1549" lon="1.29547">
        <ele>158.9</ele>
        <time>2017-05-14T06:41:41Z</time>
      </trkpt>
      <trkpt lat="49.15489" lon="1.29529">
        <ele>159.1</ele>
        <time>2017-05-14T06:41:43Z</time>
      </trkpt>
      <trkpt lat="49.15487" lon="1.29516">
        <ele>159.1</ele>
        <time>2017-05-14T06:41:45Z</time>
      </trkpt>
      <trkpt lat="49.15484" lon="1.29498">
        <ele>159.4</ele>
        <time>2017-05-14T06:41:47Z</time>
      </trkpt>
      <trkpt lat="49.15481" lon="1.29484">
        <ele>159.6</ele>
        <time>2017-05-14T06:41:49Z</time>
      </trkpt>
      <trkpt lat="49.15479" lon="1.29468">
        <ele>159.6</ele>
        <time>2017-05-14T06:41:51Z</time>
      </trkpt>
      <trkpt lat="49.15477" lon="1.29454">
        <ele>159.7</ele>
        <time>2017-05-14T06:41:53Z</time>
      </trkpt>
      <trkpt lat="49.15474" lon="1.29439">
        <ele>159.8</ele>
        <time>2017-05-14T06:41:55Z</time>
      </trkpt>
      <trkpt lat="49.1547" lon="1.29422">
        <ele>159.8</ele>
        <time>2017-05-14T06:41:58Z</time>
      </trkpt>
      <trkpt lat="49.15467" lon="1.29408">
        <ele>159.9</ele>
        <time>2017-05-14T06:42:00Z</time>
      </trkpt>
      <trkpt lat="49.15463" lon="1.29389">
        <ele>160.1</ele>
        <time>2017-05-14T06:42:03Z</time>
      </trkpt>
      <trkpt lat="49.1546" lon="1.29375">
        <ele>160.7</ele>
        <time>2017-05-14T06:42:05Z</time>
      </trkpt>
      <trkpt lat="49.15459" lon="1.29361">
        <ele>161.1</ele>
        <time>2017-05-14T06:42:07Z</time>
      </trkpt>
      <trkpt lat="49.15456" lon="1.29344">
        <ele>161.3</ele>
        <time>2017-05-14T06:42:09Z</time>
      </trkpt>
      <trkpt lat="49.15454" lon="1.29329">
        <ele>161.5</ele>
        <time>2017-05-14T06:42:11Z</time>
      </trkpt>
      <trkpt lat="49.15451" lon="1.29315">
        <ele>161.6</ele>
        <time>2017-05-14T06:42:13Z</time>
      </trkpt>
      <trkpt lat="49.15448" lon="1.293">
        <ele>161.6</ele>
        <time>2017-05-14T06:42:15Z</time>
      </trkpt>
      <trkpt lat="49.15444" lon="1.29281">
        <ele>161.7</ele>
        <time>2017-05-14T06:42:18Z</time>
      </trkpt>
      <trkpt lat="49.15441" lon="1.29267">
        <ele>161.8</ele>
        <time>2017-05-14T06:42:20Z</time>
      </trkpt>
      <trkpt lat="49.15439" lon="1.29254">
        <ele>161.8</ele>
        <time>2017-05-14T06:42:22Z</time>
      </trkpt>
      <trkpt lat="49.15436" lon="1.29239">
        <ele>162</ele>
        <time>2017-05-14T06:42:24Z</time>
      </trkpt>
      <trkpt lat="49.15434" lon="1.29224">
        <ele>162.2</ele>
        <time>2017-05-14T06:42:26Z</time>
      </trkpt>
      <trkpt lat="49.15432" lon="1.29206">
        <ele>162.3</ele>
        <time>2017-05-14T06:42:28Z</time>
      </trkpt>
      <trkpt lat="49.1543" lon="1.29191">
        <ele>162.3</ele>
        <time>2017-05-14T06:42:30Z</time>
      </trkpt>
      <trkpt lat="49.15426" lon="1.29173">
        <ele>162.4</ele>
        <time>2017-05-14T06:42:33Z</time>
      </trkpt>
      <trkpt lat="49.15423" lon="1.29159">
        <ele>162.3</ele>
        <time>2017-05-14T06:42:35Z</time>
      </trkpt>
      <trkpt lat="49.15421" lon="1.29146">
        <ele>162.2</ele>
        <time>2017-05-14T06:42:37Z</time>
      </trkpt>
      <trkpt lat="49.15412" lon="1.2913">
        <ele>162.2</ele>
        <time>2017-05-14T06:42:40Z</time>
      </trkpt>
      <trkpt lat="49.154" lon="1.29123">
        <ele>162.6</ele>
        <time>2017-05-14T06:42:43Z</time>
      </trkpt>
      <trkpt lat="49.15388" lon="1.29121">
        <ele>162.7</ele>
        <time>2017-05-14T06:42:46Z</time>
      </trkpt>
      <trkpt lat="49.15377" lon="1.29118">
        <ele>163</ele>
        <time>2017-05-14T06:42:49Z</time>
      </trkpt>
      <trkpt lat="49.15365" lon="1.29118">
        <ele>163.2</ele>
        <time>2017-05-14T06:42:52Z</time>
      </trkpt>
      <trkpt lat="49.15355" lon="1.29117">
        <ele>163.3</ele>
        <time>2017-05-14T06:42:54Z</time>
      </trkpt>
      <trkpt lat="49.15346" lon="1.29117">
        <ele>163.6</ele>
        <time>2017-05-14T06:42:56Z</time>
      </trkpt>
      <trkpt lat="49.15333" lon="1.29117">
        <ele>163.9</ele>
        <time>2017-05-14T06:42:59Z</time>
      </trkpt>
      <trkpt lat="49.15324" lon="1.29116">
        <ele>163.9</ele>
        <time>2017-05-14T06:43:01Z</time>
      </trkpt>
      <trkpt lat="49.15313" lon="1.29111">
        <ele>164</ele>
        <time>2017-05-14T06:43:03Z</time>
      </trkpt>
      <trkpt lat="49.15301" lon="1.29106">
        <ele>164.2</ele>
        <time>2017-05-14T06:43:06Z</time>
      </trkpt>
      <trkpt lat="49.15287" lon="1.29105">
        <ele>164.6</ele>
        <time>2017-05-14T06:43:09Z</time>
      </trkpt>
      <trkpt lat="49.15278" lon="1.29104">
        <ele>164.6</ele>
        <time>2017-05-14T06:43:11Z</time>
      </trkpt>
      <trkpt lat="49.15269" lon="1.29108">
        <ele>164.6</ele>
        <time>2017-05-14T06:43:13Z</time>
      </trkpt>
      <trkpt lat="49.1526" lon="1.29108">
        <ele>164.6</ele>
        <time>2017-05-14T06:43:15Z</time>
      </trkpt>
      <trkpt lat="49.15251" lon="1.29111">
        <ele>164.7</ele>
        <time>2017-05-14T06:43:17Z</time>
      </trkpt>
      <trkpt lat="49.15241" lon="1.2911">
        <ele>164.8</ele>
        <time>2017-05-14T06:43:19Z</time>
      </trkpt>
      <trkpt lat="49.15231" lon="1.29113">
        <ele>164.8</ele>
        <time>2017-05-14T06:43:21Z</time>
      </trkpt>
      <trkpt lat="49.15222" lon="1.29117">
        <ele>164.8</ele>
        <time>2017-05-14T06:43:23Z</time>
      </trkpt>
      <trkpt lat="49.15211" lon="1.29122">
        <ele>164.7</ele>
        <time>2017-05-14T06:43:26Z</time>
      </trkpt>
      <trkpt lat="49.152" lon="1.29116">
        <ele>164.6</ele>
        <time>2017-05-14T06:43:29Z</time>
      </trkpt>
      <trkpt lat="49.152" lon="1.291">
        <ele>164.6</ele>
        <time>2017-05-14T06:43:32Z</time>
      </trkpt>
      <trkpt lat="49.15199" lon="1.29086">
        <ele>164.7</ele>
        <time>2017-05-14T06:43:34Z</time>
      </trkpt>
      <trkpt lat="49.15197" lon="1.29072">
        <ele>165</ele>
        <time>2017-05-14T06:43:36Z</time>
      </trkpt>
      <trkpt lat="49.15192" lon="1.29052">
        <ele>164.9</ele>
        <time>2017-05-14T06:43:39Z</time>
      </trkpt>
      <trkpt lat="49.15189" lon="1.29039">
        <ele>164.9</ele>
        <time>2017-05-14T06:43:41Z</time>
      </trkpt>
      <trkpt lat="49.15184" lon="1.29021">
        <ele>165</ele>
        <time>2017-05-14T06:43:44Z</time>
      </trkpt>
      <trkpt lat="49.1518" lon="1.29009">
        <ele>165.2</ele>
        <time>2017-05-14T06:43:46Z</time>
      </trkpt>
      <trkpt lat="49.15176" lon="1.28995">
        <ele>165.2</ele>
        <time>2017-05-14T06:43:48Z</time>
      </trkpt>
      <trkpt lat="49.15173" lon="1.28982">
        <ele>165.3</ele>
        <time>2017-05-14T06:43:50Z</time>
      </trkpt>
      <trkpt lat="49.1517" lon="1.28969">
        <ele>165.4</ele>
        <time>2017-05-14T06:43:52Z</time>
      </trkpt>
      <trkpt lat="49.15168" lon="1.28955">
        <ele>165.6</ele>
        <time>2017-05-14T06:43:54Z</time>
      </trkpt>
      <trkpt lat="49.15165" lon="1.28943">
        <ele>165.6</ele>
        <time>2017-05-14T06:43:56Z</time>
      </trkpt>
      <trkpt lat="49.15161" lon="1.28929">
        <ele>165.6</ele>
        <time>2017-05-14T06:43:58Z</time>
      </trkpt>
      <trkpt lat="49.15158" lon="1.28916">
        <ele>165.7</ele>
        <time>2017-05-14T06:44:00Z</time>
      </trkpt>
      <trkpt lat="49.15155" lon="1.28902">
        <ele>166.2</ele>
        <time>2017-05-14T06:44:02Z</time>
      </trkpt>
      <trkpt lat="49.15153" lon="1.28888">
        <ele>166.4</ele>
        <time>2017-05-14T06:44:04Z</time>
      </trkpt>
      <trkpt lat="49.15151" lon="1.28874">
        <ele>166.3</ele>
        <time>2017-05-14T06:44:06Z</time>
      </trkpt>
      <trkpt lat="49.15148" lon="1.28861">
        <ele>166.3</ele>
        <time>2017-05-14T06:44:08Z</time>
      </trkpt>
      <trkpt lat="49.15145" lon="1.28848">
        <ele>166.5</ele>
        <time>2017-05-14T06:44:10Z</time>
      </trkpt>
      <trkpt lat="49.15142" lon="1.28834">
        <ele>166.6</ele>
        <time>2017-05-14T06:44:12Z</time>
      </trkpt>
      <trkpt lat="49.15139" lon="1.28821">
        <ele>166.7</ele>
        <time>2017-05-14T06:44:14Z</time>
      </trkpt>
      <trkpt lat="49.15134" lon="1.28803">
        <ele>166.8</ele>
        <time>2017-05-14T06:44:17Z</time>
      </trkpt>
      <trkpt lat="49.1513" lon="1.28783">
        <ele>166.7</ele>
        <time>2017-05-14T06:44:20Z</time>
      </trkpt>
      <trkpt lat="49.15127" lon="1.2877">
        <ele>166.9</ele>
        <time>2017-05-14T06:44:22Z</time>
      </trkpt>
      <trkpt lat="49.15124" lon="1.28751">
        <ele>167.2</ele>
        <time>2017-05-14T06:44:25Z</time>
      </trkpt>
      <trkpt lat="49.15121" lon="1.28732">
        <ele>167.4</ele>
        <time>2017-05-14T06:44:28Z</time>
      </trkpt>
      <trkpt lat="49.15117" lon="1.28716">
        <ele>167.4</ele>
        <time>2017-05-14T06:44:31Z</time>
      </trkpt>
      <trkpt lat="49.15108" lon="1.28705">
        <ele>167.4</ele>
        <time>2017-05-14T06:44:34Z</time>
      </trkpt>
      <trkpt lat="49.15098" lon="1.28699">
        <ele>167.6</ele>
        <time>2017-05-14T06:44:38Z</time>
      </trkpt>
      <trkpt lat="49.15099" lon="1.28684">
        <ele>167.7</ele>
        <time>2017-05-14T06:44:41Z</time>
      </trkpt>
      <trkpt lat="49.15105" lon="1.28669">
        <ele>167.8</ele>
        <time>2017-05-14T06:44:44Z</time>
      </trkpt>
      <trkpt lat="49.1511" lon="1.28655">
        <ele>167.9</ele>
        <time>2017-05-14T06:44:47Z</time>
      </trkpt>
      <trkpt lat="49.15116" lon="1.28642">
        <ele>168</ele>
        <time>2017-05-14T06:44:50Z</time>
      </trkpt>
      <trkpt lat="49.1512" lon="1.28626">
        <ele>168</ele>
        <time>2017-05-14T06:44:53Z</time>
      </trkpt>
      <trkpt lat="49.15126" lon="1.28612">
        <ele>167.8</ele>
        <time>2017-05-14T06:44:56Z</time>
      </trkpt>
      <trkpt lat="49.15132" lon="1.28597">
        <ele>167.7</ele>
        <time>2017-05-14T06:45:00Z</time>
      </trkpt>
      <trkpt lat="49.15139" lon="1.28583">
        <ele>167.6</ele>
        <time>2017-05-14T06:45:04Z</time>
      </trkpt>
      <trkpt lat="49.15146" lon="1.28569">
        <ele>167.6</ele>
        <time>2017-05-14T06:45:08Z</time>
      </trkpt>
      <trkpt lat="49.15151" lon="1.28554">
        <ele>167.7</ele>
        <time>2017-05-14T06:45:12Z</time>
      </trkpt>
      <trkpt lat="49.15156" lon="1.28541">
        <ele>167.7</ele>
        <time>2017-05-14T06:45:17Z</time>
      </trkpt>
      <trkpt lat="49.15163" lon="1.28532">
        <ele>167.6</ele>
        <time>2017-05-14T06:45:27Z</time>
      </trkpt>
      <trkpt lat="49.15168" lon="1.28518">
        <ele>167.6</ele>
        <time>2017-05-14T06:45:36Z</time>
      </trkpt>
      <trkpt lat="49.15174" lon="1.28504">
        <ele>167.6</ele>
        <time>2017-05-14T06:45:42Z</time>
      </trkpt>
      <trkpt lat="49.15179" lon="1.28492">
        <ele>167.7</ele>
        <time>2017-05-14T06:45:45Z</time>
      </trkpt>
      <trkpt lat="49.15186" lon="1.28479">
        <ele>167.9</ele>
        <time>2017-05-14T06:45:48Z</time>
      </trkpt>
      <trkpt lat="49.15194" lon="1.28463">
        <ele>168</ele>
        <time>2017-05-14T06:45:51Z</time>
      </trkpt>
      <trkpt lat="49.15199" lon="1.28451">
        <ele>168.1</ele>
        <time>2017-05-14T06:45:53Z</time>
      </trkpt>
      <trkpt lat="49.15205" lon="1.28438">
        <ele>168.3</ele>
        <time>2017-05-14T06:45:55Z</time>
      </trkpt>
      <trkpt lat="49.15213" lon="1.28425">
        <ele>168.6</ele>
        <time>2017-05-14T06:45:58Z</time>
      </trkpt>
      <trkpt lat="49.15218" lon="1.28412">
        <ele>168.7</ele>
        <time>2017-05-14T06:46:00Z</time>
      </trkpt>
      <trkpt lat="49.15226" lon="1.28396">
        <ele>168.7</ele>
        <time>2017-05-14T06:46:03Z</time>
      </trkpt>
      <trkpt lat="49.15231" lon="1.28382">
        <ele>168.7</ele>
        <time>2017-05-14T06:46:05Z</time>
      </trkpt>
      <trkpt lat="49.15236" lon="1.28369">
        <ele>168.8</ele>
        <time>2017-05-14T06:46:07Z</time>
      </trkpt>
      <trkpt lat="49.15241" lon="1.28355">
        <ele>168.6</ele>
        <time>2017-05-14T06:46:09Z</time>
      </trkpt>
      <trkpt lat="49.15245" lon="1.28342">
        <ele>168.5</ele>
        <time>2017-05-14T06:46:11Z</time>
      </trkpt>
      <trkpt lat="49.1525" lon="1.28331">
        <ele>168.4</ele>
        <time>2017-05-14T06:46:13Z</time>
      </trkpt>
      <trkpt lat="49.15255" lon="1.28317">
        <ele>168.1</ele>
        <time>2017-05-14T06:46:15Z</time>
      </trkpt>
      <trkpt lat="49.15261" lon="1.28304">
        <ele>168</ele>
        <time>2017-05-14T06:46:17Z</time>
      </trkpt>
      <trkpt lat="49.15266" lon="1.2829">
        <ele>167.6</ele>
        <time>2017-05-14T06:46:19Z</time>
      </trkpt>
      <trkpt lat="49.15271" lon="1.28276">
        <ele>167.3</ele>
        <time>2017-05-14T06:46:21Z</time>
      </trkpt>
      <trkpt lat="49.15277" lon="1.28262">
        <ele>166.6</ele>
        <time>2017-05-14T06:46:23Z</time>
      </trkpt>
      <trkpt lat="49.15282" lon="1.28247">
        <ele>166.2</ele>
        <time>2017-05-14T06:46:25Z</time>
      </trkpt>
      <trkpt lat="49.15288" lon="1.28233">
        <ele>166.1</ele>
        <time>2017-05-14T06:46:27Z</time>
      </trkpt>
      <trkpt lat="49.15294" lon="1.2822">
        <ele>165.7</ele>
        <time>2017-05-14T06:46:29Z</time>
      </trkpt>
      <trkpt lat="49.153" lon="1.28207">
        <ele>165.3</ele>
        <time>2017-05-14T06:46:31Z</time>
      </trkpt>
      <trkpt lat="49.15306" lon="1.28194">
        <ele>165</ele>
        <time>2017-05-14T06:46:33Z</time>
      </trkpt>
      <trkpt lat="49.15311" lon="1.2818">
        <ele>164.8</ele>
        <time>2017-05-14T06:46:35Z</time>
      </trkpt>
      <trkpt lat="49.15316" lon="1.28168">
        <ele>164.4</ele>
        <time>2017-05-14T06:46:37Z</time>
      </trkpt>
      <trkpt lat="49.15321" lon="1.28154">
        <ele>164.2</ele>
        <time>2017-05-14T06:46:39Z</time>
      </trkpt>
      <trkpt lat="49.15327" lon="1.2814">
        <ele>163.9</ele>
        <time>2017-05-14T06:46:41Z</time>
      </trkpt>
      <trkpt lat="49.15332" lon="1.28128">
        <ele>163.9</ele>
        <time>2017-05-14T06:46:43Z</time>
      </trkpt>
      <trkpt lat="49.15337" lon="1.28114">
        <ele>163.9</ele>
        <time>2017-05-14T06:46:45Z</time>
      </trkpt>
      <trkpt lat="49.15342" lon="1.281">
        <ele>163.8</ele>
        <time>2017-05-14T06:46:47Z</time>
      </trkpt>
      <trkpt lat="49.15348" lon="1.28087">
        <ele>163.7</ele>
        <time>2017-05-14T06:46:49Z</time>
      </trkpt>
      <trkpt lat="49.15354" lon="1.28073">
        <ele>163.8</ele>
        <time>2017-05-14T06:46:51Z</time>
      </trkpt>
      <trkpt lat="49.15361" lon="1.28059">
        <ele>163.6</ele>
        <time>2017-05-14T06:46:53Z</time>
      </trkpt>
      <trkpt lat="49.15367" lon="1.28044">
        <ele>163.4</ele>
        <time>2017-05-14T06:46:55Z</time>
      </trkpt>
      <trkpt lat="49.15373" lon="1.28031">
        <ele>163.1</ele>
        <time>2017-05-14T06:46:57Z</time>
      </trkpt>
      <trkpt lat="49.1538" lon="1.28018">
        <ele>162.6</ele>
        <time>2017-05-14T06:46:59Z</time>
      </trkpt>
      <trkpt lat="49.15387" lon="1.28007">
        <ele>162.3</ele>
        <time>2017-05-14T06:47:01Z</time>
      </trkpt>
      <trkpt lat="49.15392" lon="1.27995">
        <ele>161.7</ele>
        <time>2017-05-14T06:47:03Z</time>
      </trkpt>
      <trkpt lat="49.15398" lon="1.27978">
        <ele>160.7</ele>
        <time>2017-05-14T06:47:06Z</time>
      </trkpt>
      <trkpt lat="49.15402" lon="1.27965">
        <ele>159.3</ele>
        <time>2017-05-14T06:47:12Z</time>
      </trkpt>
      <trkpt lat="49.15409" lon="1.27954">
        <ele>158.8</ele>
        <time>2017-05-14T06:47:16Z</time>
      </trkpt>
      <trkpt lat="49.15418" lon="1.27942">
        <ele>157.8</ele>
        <time>2017-05-14T06:47:20Z</time>
      </trkpt>
      <trkpt lat="49.15428" lon="1.27932">
        <ele>156.4</ele>
        <time>2017-05-14T06:47:26Z</time>
      </trkpt>
      <trkpt lat="49.15437" lon="1.27919">
        <ele>155.4</ele>
        <time>2017-05-14T06:47:30Z</time>
      </trkpt>
      <trkpt lat="49.15447" lon="1.27906">
        <ele>154.4</ele>
        <time>2017-05-14T06:47:33Z</time>
      </trkpt>
      <trkpt lat="49.15453" lon="1.27895">
        <ele>153.6</ele>
        <time>2017-05-14T06:47:35Z</time>
      </trkpt>
      <trkpt lat="49.15461" lon="1.27882">
        <ele>152.2</ele>
        <time>2017-05-14T06:47:38Z</time>
      </trkpt>
      <trkpt lat="49.15467" lon="1.27869">
        <ele>150.9</ele>
        <time>2017-05-14T06:47:42Z</time>
      </trkpt>
      <trkpt lat="49.15473" lon="1.27856">
        <ele>150.3</ele>
        <time>2017-05-14T06:47:45Z</time>
      </trkpt>
      <trkpt lat="49.1548" lon="1.27843">
        <ele>150.3</ele>
        <time>2017-05-14T06:47:48Z</time>
      </trkpt>
      <trkpt lat="49.15486" lon="1.27829">
        <ele>150.8</ele>
        <time>2017-05-14T06:47:51Z</time>
      </trkpt>
      <trkpt lat="49.15491" lon="1.27815">
        <ele>151.3</ele>
        <time>2017-05-14T06:47:54Z</time>
      </trkpt>
      <trkpt lat="49.15496" lon="1.278">
        <ele>151.8</ele>
        <time>2017-05-14T06:47:58Z</time>
      </trkpt>
      <trkpt lat="49.155" lon="1.27783">
        <ele>152.6</ele>
        <time>2017-05-14T06:48:02Z</time>
      </trkpt>
      <trkpt lat="49.15504" lon="1.27771">
        <ele>153.2</ele>
        <time>2017-05-14T06:48:05Z</time>
      </trkpt>
      <trkpt lat="49.1551" lon="1.27755">
        <ele>154.1</ele>
        <time>2017-05-14T06:48:09Z</time>
      </trkpt>
      <trkpt lat="49.15515" lon="1.2774">
        <ele>155</ele>
        <time>2017-05-14T06:48:13Z</time>
      </trkpt>
      <trkpt lat="49.15521" lon="1.27726">
        <ele>155.8</ele>
        <time>2017-05-14T06:48:17Z</time>
      </trkpt>
      <trkpt lat="49.15525" lon="1.27712">
        <ele>156.8</ele>
        <time>2017-05-14T06:48:21Z</time>
      </trkpt>
      <trkpt lat="49.1553" lon="1.27698">
        <ele>157.7</ele>
        <time>2017-05-14T06:48:25Z</time>
      </trkpt>
      <trkpt lat="49.15534" lon="1.27685">
        <ele>158.7</ele>
        <time>2017-05-14T06:48:29Z</time>
      </trkpt>
      <trkpt lat="49.1554" lon="1.27671">
        <ele>159.4</ele>
        <time>2017-05-14T06:48:33Z</time>
      </trkpt>
      <trkpt lat="49.15544" lon="1.27657">
        <ele>160</ele>
        <time>2017-05-14T06:48:36Z</time>
      </trkpt>
      <trkpt lat="49.15549" lon="1.27645">
        <ele>160.6</ele>
        <time>2017-05-14T06:48:39Z</time>
      </trkpt>
      <trkpt lat="49.15554" lon="1.27633">
        <ele>161.3</ele>
        <time>2017-05-14T06:48:42Z</time>
      </trkpt>
      <trkpt lat="49.15559" lon="1.2762">
        <ele>162.2</ele>
        <time>2017-05-14T06:48:46Z</time>
      </trkpt>
      <trkpt lat="49.15565" lon="1.27609">
        <ele>162.9</ele>
        <time>2017-05-14T06:48:50Z</time>
      </trkpt>
      <trkpt lat="49.15571" lon="1.27598">
        <ele>163.5</ele>
        <time>2017-05-14T06:48:54Z</time>
      </trkpt>
      <trkpt lat="49.15578" lon="1.27584">
        <ele>164.1</ele>
        <time>2017-05-14T06:48:59Z</time>
      </trkpt>
      <trkpt lat="49.15583" lon="1.27574">
        <ele>164.7</ele>
        <time>2017-05-14T06:49:07Z</time>
      </trkpt>
      <trkpt lat="49.1559" lon="1.2756">
        <ele>164.8</ele>
        <time>2017-05-14T06:49:12Z</time>
      </trkpt>
      <trkpt lat="49.15597" lon="1.27549">
        <ele>165</ele>
        <time>2017-05-14T06:49:16Z</time>
      </trkpt>
      <trkpt lat="49.15603" lon="1.27536">
        <ele>165.4</ele>
        <time>2017-05-14T06:49:20Z</time>
      </trkpt>
      <trkpt lat="49.15609" lon="1.27525">
        <ele>165.5</ele>
        <time>2017-05-14T06:49:24Z</time>
      </trkpt>
      <trkpt lat="49.15615" lon="1.27513">
        <ele>165.6</ele>
        <time>2017-05-14T06:49:27Z</time>
      </trkpt>
      <trkpt lat="49.15622" lon="1.275">
        <ele>165.6</ele>
        <time>2017-05-14T06:49:30Z</time>
      </trkpt>
      <trkpt lat="49.15629" lon="1.27485">
        <ele>165.6</ele>
        <time>2017-05-14T06:49:33Z</time>
      </trkpt>
      <trkpt lat="49.15637" lon="1.27469">
        <ele>165.8</ele>
        <time>2017-05-14T06:49:36Z</time>
      </trkpt>
      <trkpt lat="49.15643" lon="1.27458">
        <ele>165.7</ele>
        <time>2017-05-14T06:49:38Z</time>
      </trkpt>
      <trkpt lat="49.15648" lon="1.27447">
        <ele>165.7</ele>
        <time>2017-05-14T06:49:40Z</time>
      </trkpt>
      <trkpt lat="49.15654" lon="1.27436">
        <ele>165.8</ele>
        <time>2017-05-14T06:49:42Z</time>
      </trkpt>
      <trkpt lat="49.15659" lon="1.27425">
        <ele>165.7</ele>
        <time>2017-05-14T06:49:44Z</time>
      </trkpt>
      <trkpt lat="49.15665" lon="1.27414">
        <ele>165.6</ele>
        <time>2017-05-14T06:49:46Z</time>
      </trkpt>
      <trkpt lat="49.1567" lon="1.27403">
        <ele>165.8</ele>
        <time>2017-05-14T06:49:48Z</time>
      </trkpt>
      <trkpt lat="49.15678" lon="1.27386">
        <ele>166</ele>
        <time>2017-05-14T06:49:51Z</time>
      </trkpt>
      <trkpt lat="49.15684" lon="1.27375">
        <ele>166.2</ele>
        <time>2017-05-14T06:49:53Z</time>
      </trkpt>
      <trkpt lat="49.1569" lon="1.27364">
        <ele>166.2</ele>
        <time>2017-05-14T06:49:55Z</time>
      </trkpt>
      <trkpt lat="49.15696" lon="1.27353">
        <ele>166.4</ele>
        <time>2017-05-14T06:49:57Z</time>
      </trkpt>
      <trkpt lat="49.15701" lon="1.27341">
        <ele>166.3</ele>
        <time>2017-05-14T06:49:59Z</time>
      </trkpt>
      <trkpt lat="49.15707" lon="1.2733">
        <ele>166.3</ele>
        <time>2017-05-14T06:50:01Z</time>
      </trkpt>
      <trkpt lat="49.15713" lon="1.27319">
        <ele>166.5</ele>
        <time>2017-05-14T06:50:03Z</time>
      </trkpt>
      <trkpt lat="49.15718" lon="1.27307">
        <ele>166.7</ele>
        <time>2017-05-14T06:50:05Z</time>
      </trkpt>
      <trkpt lat="49.15724" lon="1.27296">
        <ele>166.8</ele>
        <time>2017-05-14T06:50:07Z</time>
      </trkpt>
      <trkpt lat="49.1573" lon="1.27284">
        <ele>167</ele>
        <time>2017-05-14T06:50:09Z</time>
      </trkpt>
      <trkpt lat="49.15736" lon="1.27273">
        <ele>167.1</ele>
        <time>2017-05-14T06:50:11Z</time>
      </trkpt>
      <trkpt lat="49.15742" lon="1.27261">
        <ele>167.2</ele>
        <time>2017-05-14T06:50:13Z</time>
      </trkpt>
      <trkpt lat="49.15747" lon="1.27249">
        <ele>167.5</ele>
        <time>2017-05-14T06:50:15Z</time>
      </trkpt>
      <trkpt lat="49.15753" lon="1.27237">
        <ele>167.5</ele>
        <time>2017-05-14T06:50:17Z</time>
      </trkpt>
      <trkpt lat="49.15759" lon="1.27226">
        <ele>167.5</ele>
        <time>2017-05-14T06:50:19Z</time>
      </trkpt>
      <trkpt lat="49.15764" lon="1.27215">
        <ele>167.6</ele>
        <time>2017-05-14T06:50:21Z</time>
      </trkpt>
      <trkpt lat="49.1577" lon="1.27204">
        <ele>167.6</ele>
        <time>2017-05-14T06:50:23Z</time>
      </trkpt>
      <trkpt lat="49.15775" lon="1.27192">
        <ele>167.7</ele>
        <time>2017-05-14T06:50:25Z</time>
      </trkpt>
      <trkpt lat="49.15781" lon="1.27181">
        <ele>168</ele>
        <time>2017-05-14T06:50:27Z</time>
      </trkpt>
      <trkpt lat="49.15786" lon="1.2717">
        <ele>167.9</ele>
        <time>2017-05-14T06:50:29Z</time>
      </trkpt>
      <trkpt lat="49.15794" lon="1.27154">
        <ele>167.9</ele>
        <time>2017-05-14T06:50:32Z</time>
      </trkpt>
      <trkpt lat="49.158" lon="1.27143">
        <ele>167.9</ele>
        <time>2017-05-14T06:50:34Z</time>
      </trkpt>
      <trkpt lat="49.15808" lon="1.27126">
        <ele>167.7</ele>
        <time>2017-05-14T06:50:37Z</time>
      </trkpt>
      <trkpt lat="49.15813" lon="1.27115">
        <ele>167.8</ele>
        <time>2017-05-14T06:50:39Z</time>
      </trkpt>
      <trkpt lat="49.15819" lon="1.27104">
        <ele>167.9</ele>
        <time>2017-05-14T06:50:41Z</time>
      </trkpt>
      <trkpt lat="49.15825" lon="1.27092">
        <ele>168</ele>
        <time>2017-05-14T06:50:43Z</time>
      </trkpt>
      <trkpt lat="49.1583" lon="1.27081">
        <ele>167.9</ele>
        <time>2017-05-14T06:50:45Z</time>
      </trkpt>
      <trkpt lat="49.15836" lon="1.27069">
        <ele>167.8</ele>
        <time>2017-05-14T06:50:47Z</time>
      </trkpt>
      <trkpt lat="49.15842" lon="1.27057">
        <ele>167.9</ele>
        <time>2017-05-14T06:50:49Z</time>
      </trkpt>
      <trkpt lat="49.15848" lon="1.27045">
        <ele>168.1</ele>
        <time>2017-05-14T06:50:51Z</time>
      </trkpt>
      <trkpt lat="49.15854" lon="1.27033">
        <ele>168.1</ele>
        <time>2017-05-14T06:50:53Z</time>
      </trkpt>
      <trkpt lat="49.15859" lon="1.27022">
        <ele>168.2</ele>
        <time>2017-05-14T06:50:55Z</time>
      </trkpt>
      <trkpt lat="49.15865" lon="1.27009">
        <ele>168.2</ele>
        <time>2017-05-14T06:50:57Z</time>
      </trkpt>
      <trkpt lat="49.15871" lon="1.26997">
        <ele>168</ele>
        <time>2017-05-14T06:50:59Z</time>
      </trkpt>
      <trkpt lat="49.15877" lon="1.26985">
        <ele>168.1</ele>
        <time>2017-05-14T06:51:01Z</time>
      </trkpt>
      <trkpt lat="49.15883" lon="1.26972">
        <ele>168</ele>
        <time>2017-05-14T06:51:03Z</time>
      </trkpt>
      <trkpt lat="49.15889" lon="1.2696">
        <ele>167.8</ele>
        <time>2017-05-14T06:51:05Z</time>
      </trkpt>
      <trkpt lat="49.15895" lon="1.26947">
        <ele>167.8</ele>
        <time>2017-05-14T06:51:07Z</time>
      </trkpt>
      <trkpt lat="49.15901" lon="1.26934">
        <ele>167.8</ele>
        <time>2017-05-14T06:51:09Z</time>
      </trkpt>
      <trkpt lat="49.15907" lon="1.26922">
        <ele>167.7</ele>
        <time>2017-05-14T06:51:11Z</time>
      </trkpt>
      <trkpt lat="49.15913" lon="1.2691">
        <ele>167.5</ele>
        <time>2017-05-14T06:51:13Z</time>
      </trkpt>
      <trkpt lat="49.15918" lon="1.26898">
        <ele>167.4</ele>
        <time>2017-05-14T06:51:15Z</time>
      </trkpt>
      <trkpt lat="49.15924" lon="1.26885">
        <ele>167.3</ele>
        <time>2017-05-14T06:51:17Z</time>
      </trkpt>
      <trkpt lat="49.1593" lon="1.26872">
        <ele>167.1</ele>
        <time>2017-05-14T06:51:19Z</time>
      </trkpt>
      <trkpt lat="49.15937" lon="1.2686">
        <ele>167.2</ele>
        <time>2017-05-14T06:51:21Z</time>
      </trkpt>
      <trkpt lat="49.15944" lon="1.2685">
        <ele>167.7</ele>
        <time>2017-05-14T06:51:23Z</time>
      </trkpt>
      <trkpt lat="49.15951" lon="1.26841">
        <ele>167.9</ele>
        <time>2017-05-14T06:51:25Z</time>
      </trkpt>
      <trkpt lat="49.15961" lon="1.26829">
        <ele>168.2</ele>
        <time>2017-05-14T06:51:28Z</time>
      </trkpt>
      <trkpt lat="49.15971" lon="1.2682">
        <ele>168.6</ele>
        <time>2017-05-14T06:51:31Z</time>
      </trkpt>
      <trkpt lat="49.15972" lon="1.26807">
        <ele>169.1</ele>
        <time>2017-05-14T06:51:34Z</time>
      </trkpt>
      <trkpt lat="49.15969" lon="1.26789">
        <ele>169.5</ele>
        <time>2017-05-14T06:51:37Z</time>
      </trkpt>
      <trkpt lat="49.15963" lon="1.26771">
        <ele>169.8</ele>
        <time>2017-05-14T06:51:40Z</time>
      </trkpt>
      <trkpt lat="49.15959" lon="1.26758">
        <ele>170.1</ele>
        <time>2017-05-14T06:51:42Z</time>
      </trkpt>
      <trkpt lat="49.15955" lon="1.26745">
        <ele>170.5</ele>
        <time>2017-05-14T06:51:44Z</time>
      </trkpt>
      <trkpt lat="49.1595" lon="1.26733">
        <ele>170.5</ele>
        <time>2017-05-14T06:51:46Z</time>
      </trkpt>
      <trkpt lat="49.15946" lon="1.2672">
        <ele>170.7</ele>
        <time>2017-05-14T06:51:48Z</time>
      </trkpt>
      <trkpt lat="49.15942" lon="1.26706">
        <ele>170.8</ele>
        <time>2017-05-14T06:51:50Z</time>
      </trkpt>
      <trkpt lat="49.15938" lon="1.26691">
        <ele>170.7</ele>
        <time>2017-05-14T06:51:52Z</time>
      </trkpt>
      <trkpt lat="49.15933" lon="1.26676">
        <ele>170.6</ele>
        <time>2017-05-14T06:51:54Z</time>
      </trkpt>
      <trkpt lat="49.15928" lon="1.26661">
        <ele>170.5</ele>
        <time>2017-05-14T06:51:56Z</time>
      </trkpt>
      <trkpt lat="49.15922" lon="1.26644">
        <ele>170.2</ele>
        <time>2017-05-14T06:51:58Z</time>
      </trkpt>
      <trkpt lat="49.15916" lon="1.26626">
        <ele>169.5</ele>
        <time>2017-05-14T06:52:00Z</time>
      </trkpt>
      <trkpt lat="49.1591" lon="1.26606">
        <ele>168.7</ele>
        <time>2017-05-14T06:52:02Z</time>
      </trkpt>
      <trkpt lat="49.15903" lon="1.26586">
        <ele>167.8</ele>
        <time>2017-05-14T06:52:04Z</time>
      </trkpt>
      <trkpt lat="49.15897" lon="1.26565">
        <ele>167</ele>
        <time>2017-05-14T06:52:06Z</time>
      </trkpt>
      <trkpt lat="49.1589" lon="1.26544">
        <ele>166</ele>
        <time>2017-05-14T06:52:08Z</time>
      </trkpt>
      <trkpt lat="49.15883" lon="1.26525">
        <ele>165.1</ele>
        <time>2017-05-14T06:52:10Z</time>
      </trkpt>
      <trkpt lat="49.15875" lon="1.26508">
        <ele>164.6</ele>
        <time>2017-05-14T06:52:12Z</time>
      </trkpt>
      <trkpt lat="49.15866" lon="1.26493">
        <ele>164.1</ele>
        <time>2017-05-14T06:52:14Z</time>
      </trkpt>
      <trkpt lat="49.15857" lon="1.26479">
        <ele>163.8</ele>
        <time>2017-05-14T06:52:16Z</time>
      </trkpt>
      <trkpt lat="49.15848" lon="1.26466">
        <ele>163.7</ele>
        <time>2017-05-14T06:52:18Z</time>
      </trkpt>
      <trkpt lat="49.15839" lon="1.26456">
        <ele>163.8</ele>
        <time>2017-05-14T06:52:20Z</time>
      </trkpt>
      <trkpt lat="49.15828" lon="1.26448">
        <ele>163.7</ele>
        <time>2017-05-14T06:52:22Z</time>
      </trkpt>
      <trkpt lat="49.15818" lon="1.26442">
        <ele>164</ele>
        <time>2017-05-14T06:52:24Z</time>
      </trkpt>
      <trkpt lat="49.15807" lon="1.26437">
        <ele>164.4</ele>
        <time>2017-05-14T06:52:26Z</time>
      </trkpt>
      <trkpt lat="49.15796" lon="1.26433">
        <ele>164.3</ele>
        <time>2017-05-14T06:52:28Z</time>
      </trkpt>
      <trkpt lat="49.15786" lon="1.26429">
        <ele>164.1</ele>
        <time>2017-05-14T06:52:30Z</time>
      </trkpt>
      <trkpt lat="49.15776" lon="1.26424">
        <ele>164.2</ele>
        <time>2017-05-14T06:52:32Z</time>
      </trkpt>
      <trkpt lat="49.15769" lon="1.26413">
        <ele>164.3</ele>
        <time>2017-05-14T06:52:34Z</time>
      </trkpt>
      <trkpt lat="49.15769" lon="1.26398">
        <ele>164.4</ele>
        <time>2017-05-14T06:52:36Z</time>
      </trkpt>
      <trkpt lat="49.15772" lon="1.26383">
        <ele>164.4</ele>
        <time>2017-05-14T06:52:38Z</time>
      </trkpt>
      <trkpt lat="49.15775" lon="1.26367">
        <ele>164.3</ele>
        <time>2017-05-14T06:52:40Z</time>
      </trkpt>
      <trkpt lat="49.15775" lon="1.2635">
        <ele>164.3</ele>
        <time>2017-05-14T06:52:42Z</time>
      </trkpt>
      <trkpt lat="49.15774" lon="1.26333">
        <ele>164.3</ele>
        <time>2017-05-14T06:52:44Z</time>
      </trkpt>
      <trkpt lat="49.1577" lon="1.26315">
        <ele>164.3</ele>
        <time>2017-05-14T06:52:46Z</time>
      </trkpt>
      <trkpt lat="49.15768" lon="1.26297">
        <ele>164.3</ele>
        <time>2017-05-14T06:52:48Z</time>
      </trkpt>
      <trkpt lat="49.15766" lon="1.26278">
        <ele>164</ele>
        <time>2017-05-14T06:52:50Z</time>
      </trkpt>
      <trkpt lat="49.15765" lon="1.26257">
        <ele>163.6</ele>
        <time>2017-05-14T06:52:52Z</time>
      </trkpt>
      <trkpt lat="49.15766" lon="1.26236">
        <ele>163.1</ele>
        <time>2017-05-14T06:52:54Z</time>
      </trkpt>
      <trkpt lat="49.15772" lon="1.26215">
        <ele>162.7</ele>
        <time>2017-05-14T06:52:56Z</time>
      </trkpt>
      <trkpt lat="49.15779" lon="1.26196">
        <ele>162.4</ele>
        <time>2017-05-14T06:52:58Z</time>
      </trkpt>
      <trkpt lat="49.15786" lon="1.26177">
        <ele>162</ele>
        <time>2017-05-14T06:53:00Z</time>
      </trkpt>
      <trkpt lat="49.15789" lon="1.26157">
        <ele>161.8</ele>
        <time>2017-05-14T06:53:02Z</time>
      </trkpt>
      <trkpt lat="49.15789" lon="1.26138">
        <ele>161.7</ele>
        <time>2017-05-14T06:53:04Z</time>
      </trkpt>
      <trkpt lat="49.15789" lon="1.2612">
        <ele>161.3</ele>
        <time>2017-05-14T06:53:06Z</time>
      </trkpt>
      <trkpt lat="49.15788" lon="1.26102">
        <ele>161.2</ele>
        <time>2017-05-14T06:53:08Z</time>
      </trkpt>
      <trkpt lat="49.15784" lon="1.26087">
        <ele>161.3</ele>
        <time>2017-05-14T06:53:10Z</time>
      </trkpt>
      <trkpt lat="49.15779" lon="1.26074">
        <ele>161.5</ele>
        <time>2017-05-14T06:53:12Z</time>
      </trkpt>
      <trkpt lat="49.15778" lon="1.2606">
        <ele>161.8</ele>
        <time>2017-05-14T06:53:14Z</time>
      </trkpt>
      <trkpt lat="49.15777" lon="1.2604">
        <ele>162</ele>
        <time>2017-05-14T06:53:17Z</time>
      </trkpt>
      <trkpt lat="49.15776" lon="1.26026">
        <ele>162.1</ele>
        <time>2017-05-14T06:53:19Z</time>
      </trkpt>
      <trkpt lat="49.15775" lon="1.26013">
        <ele>162.1</ele>
        <time>2017-05-14T06:53:21Z</time>
      </trkpt>
      <trkpt lat="49.15775" lon="1.25999">
        <ele>162.1</ele>
        <time>2017-05-14T06:53:23Z</time>
      </trkpt>
      <trkpt lat="49.15775" lon="1.25979">
        <ele>162.2</ele>
        <time>2017-05-14T06:53:26Z</time>
      </trkpt>
      <trkpt lat="49.15775" lon="1.25958">
        <ele>162.7</ele>
        <time>2017-05-14T06:53:29Z</time>
      </trkpt>
      <trkpt lat="49.15774" lon="1.25939">
        <ele>163.3</ele>
        <time>2017-05-14T06:53:32Z</time>
      </trkpt>
      <trkpt lat="49.15774" lon="1.2592">
        <ele>163.6</ele>
        <time>2017-05-14T06:53:35Z</time>
      </trkpt>
      <trkpt lat="49.15773" lon="1.25901">
        <ele>164</ele>
        <time>2017-05-14T06:53:38Z</time>
      </trkpt>
      <trkpt lat="49.15773" lon="1.25881">
        <ele>164</ele>
        <time>2017-05-14T06:53:41Z</time>
      </trkpt>
      <trkpt lat="49.15773" lon="1.25863">
        <ele>164.3</ele>
        <time>2017-05-14T06:53:44Z</time>
      </trkpt>
      <trkpt lat="49.15772" lon="1.25844">
        <ele>164.8</ele>
        <time>2017-05-14T06:53:47Z</time>
      </trkpt>
      <trkpt lat="49.15772" lon="1.25825">
        <ele>165</ele>
        <time>2017-05-14T06:53:50Z</time>
      </trkpt>
      <trkpt lat="49.15772" lon="1.25808">
        <ele>165.4</ele>
        <time>2017-05-14T06:53:53Z</time>
      </trkpt>
      <trkpt lat="49.15771" lon="1.2579">
        <ele>165.7</ele>
        <time>2017-05-14T06:53:56Z</time>
      </trkpt>
      <trkpt lat="49.15771" lon="1.25772">
        <ele>166.2</ele>
        <time>2017-05-14T06:53:59Z</time>
      </trkpt>
      <trkpt lat="49.15771" lon="1.25754">
        <ele>166.6</ele>
        <time>2017-05-14T06:54:02Z</time>
      </trkpt>
      <trkpt lat="49.1577" lon="1.25736">
        <ele>166.8</ele>
        <time>2017-05-14T06:54:05Z</time>
      </trkpt>
      <trkpt lat="49.15769" lon="1.25719">
        <ele>167.2</ele>
        <time>2017-05-14T06:54:08Z</time>
      </trkpt>
      <trkpt lat="49.15759" lon="1.25713">
        <ele>167.6</ele>
        <time>2017-05-14T06:54:12Z</time>
      </trkpt>
      <trkpt lat="49.15752" lon="1.25727">
        <ele>167.7</ele>
        <time>2017-05-14T06:54:15Z</time>
      </trkpt>
      <trkpt lat="49.15744" lon="1.25743">
        <ele>167.9</ele>
        <time>2017-05-14T06:54:18Z</time>
      </trkpt>
      <trkpt lat="49.15738" lon="1.25756">
        <ele>167.8</ele>
        <time>2017-05-14T06:54:20Z</time>
      </trkpt>
      <trkpt lat="49.15732" lon="1.25768">
        <ele>167.7</ele>
        <time>2017-05-14T06:54:22Z</time>
      </trkpt>
      <trkpt lat="49.15727" lon="1.25781">
        <ele>167.4</ele>
        <time>2017-05-14T06:54:24Z</time>
      </trkpt>
      <trkpt lat="49.15718" lon="1.25771">
        <ele>166.9</ele>
        <time>2017-05-14T06:54:29Z</time>
      </trkpt>
      <trkpt lat="49.15718" lon="1.25753">
        <ele>166.8</ele>
        <time>2017-05-14T06:54:32Z</time>
      </trkpt>
      <trkpt lat="49.15717" lon="1.25734">
        <ele>167</ele>
        <time>2017-05-14T06:54:35Z</time>
      </trkpt>
      <trkpt lat="49.15716" lon="1.25714">
        <ele>167</ele>
        <time>2017-05-14T06:54:38Z</time>
      </trkpt>
      <trkpt lat="49.15715" lon="1.25694">
        <ele>166.9</ele>
        <time>2017-05-14T06:54:41Z</time>
      </trkpt>
      <trkpt lat="49.15713" lon="1.25675">
        <ele>167.2</ele>
        <time>2017-05-14T06:54:44Z</time>
      </trkpt>
      <trkpt lat="49.15712" lon="1.25656">
        <ele>167.5</ele>
        <time>2017-05-14T06:54:47Z</time>
      </trkpt>
      <trkpt lat="49.15711" lon="1.25638">
        <ele>167.7</ele>
        <time>2017-05-14T06:54:50Z</time>
      </trkpt>
      <trkpt lat="49.1571" lon="1.25619">
        <ele>167.9</ele>
        <time>2017-05-14T06:54:53Z</time>
      </trkpt>
      <trkpt lat="49.1571" lon="1.25601">
        <ele>168.3</ele>
        <time>2017-05-14T06:54:56Z</time>
      </trkpt>
      <trkpt lat="49.15709" lon="1.25582">
        <ele>168.7</ele>
        <time>2017-05-14T06:54:59Z</time>
      </trkpt>
      <trkpt lat="49.15709" lon="1.25564">
        <ele>169.1</ele>
        <time>2017-05-14T06:55:02Z</time>
      </trkpt>
      <trkpt lat="49.15708" lon="1.25546">
        <ele>169.5</ele>
        <time>2017-05-14T06:55:05Z</time>
      </trkpt>
      <trkpt lat="49.15707" lon="1.25528">
        <ele>170.1</ele>
        <time>2017-05-14T06:55:08Z</time>
      </trkpt>
      <trkpt lat="49.15707" lon="1.2551">
        <ele>170.5</ele>
        <time>2017-05-14T06:55:11Z</time>
      </trkpt>
      <trkpt lat="49.15706" lon="1.25491">
        <ele>170.9</ele>
        <time>2017-05-14T06:55:14Z</time>
      </trkpt>
      <trkpt lat="49.15705" lon="1.25473">
        <ele>171.1</ele>
        <time>2017-05-14T06:55:17Z</time>
      </trkpt>
      <trkpt lat="49.15704" lon="1.25453">
        <ele>171.3</ele>
        <time>2017-05-14T06:55:20Z</time>
      </trkpt>
      <trkpt lat="49.15701" lon="1.25435">
        <ele>171.1</ele>
        <time>2017-05-14T06:55:23Z</time>
      </trkpt>
      <trkpt lat="49.15699" lon="1.25417">
        <ele>171.2</ele>
        <time>2017-05-14T06:55:26Z</time>
      </trkpt>
      <trkpt lat="49.15696" lon="1.25398">
        <ele>171.4</ele>
        <time>2017-05-14T06:55:29Z</time>
      </trkpt>
      <trkpt lat="49.15693" lon="1.2538">
        <ele>171.8</ele>
        <time>2017-05-14T06:55:32Z</time>
      </trkpt>
      <trkpt lat="49.1569" lon="1.25362">
        <ele>172</ele>
        <time>2017-05-14T06:55:35Z</time>
      </trkpt>
      <trkpt lat="49.15686" lon="1.25344">
        <ele>172.4</ele>
        <time>2017-05-14T06:55:38Z</time>
      </trkpt>
      <trkpt lat="49.15681" lon="1.25326">
        <ele>172.6</ele>
        <time>2017-05-14T06:55:41Z</time>
      </trkpt>
      <trkpt lat="49.15676" lon="1.25307">
        <ele>172.7</ele>
        <time>2017-05-14T06:55:44Z</time>
      </trkpt>
      <trkpt lat="49.15671" lon="1.25289">
        <ele>173</ele>
        <time>2017-05-14T06:55:47Z</time>
      </trkpt>
      <trkpt lat="49.15666" lon="1.25271">
        <ele>172.8</ele>
        <time>2017-05-14T06:55:50Z</time>
      </trkpt>
      <trkpt lat="49.1566" lon="1.25253">
        <ele>172.6</ele>
        <time>2017-05-14T06:55:53Z</time>
      </trkpt>
      <trkpt lat="49.15654" lon="1.25235">
        <ele>172.5</ele>
        <time>2017-05-14T06:55:56Z</time>
      </trkpt>
      <trkpt lat="49.15647" lon="1.25218">
        <ele>172.6</ele>
        <time>2017-05-14T06:55:59Z</time>
      </trkpt>
      <trkpt lat="49.15639" lon="1.25201">
        <ele>173</ele>
        <time>2017-05-14T06:56:02Z</time>
      </trkpt>
      <trkpt lat="49.15634" lon="1.2519">
        <ele>173</ele>
        <time>2017-05-14T06:56:04Z</time>
      </trkpt>
      <trkpt lat="49.15628" lon="1.25179">
        <ele>173</ele>
        <time>2017-05-14T06:56:06Z</time>
      </trkpt>
      <trkpt lat="49.15622" lon="1.25168">
        <ele>173</ele>
        <time>2017-05-14T06:56:08Z</time>
      </trkpt>
      <trkpt lat="49.15616" lon="1.25156">
        <ele>172.8</ele>
        <time>2017-05-14T06:56:10Z</time>
      </trkpt>
      <trkpt lat="49.1561" lon="1.25145">
        <ele>172.7</ele>
        <time>2017-05-14T06:56:12Z</time>
      </trkpt>
      <trkpt lat="49.15603" lon="1.25134">
        <ele>172.5</ele>
        <time>2017-05-14T06:56:14Z</time>
      </trkpt>
      <trkpt lat="49.15597" lon="1.25122">
        <ele>172.4</ele>
        <time>2017-05-14T06:56:16Z</time>
      </trkpt>
      <trkpt lat="49.1559" lon="1.25111">
        <ele>172.4</ele>
        <time>2017-05-14T06:56:18Z</time>
      </trkpt>
      <trkpt lat="49.15584" lon="1.251">
        <ele>172.2</ele>
        <time>2017-05-14T06:56:20Z</time>
      </trkpt>
      <trkpt lat="49.15579" lon="1.25087">
        <ele>171.9</ele>
        <time>2017-05-14T06:56:22Z</time>
      </trkpt>
      <trkpt lat="49.15574" lon="1.25073">
        <ele>171.7</ele>
        <time>2017-05-14T06:56:24Z</time>
      </trkpt>
      <trkpt lat="49.1557" lon="1.25059">
        <ele>171.6</ele>
        <time>2017-05-14T06:56:26Z</time>
      </trkpt>
      <trkpt lat="49.15566" lon="1.25044">
        <ele>171.4</ele>
        <time>2017-05-14T06:56:28Z</time>
      </trkpt>
      <trkpt lat="49.15562" lon="1.25029">
        <ele>171.2</ele>
        <time>2017-05-14T06:56:30Z</time>
      </trkpt>
      <trkpt lat="49.15559" lon="1.25013">
        <ele>171</ele>
        <time>2017-05-14T06:56:32Z</time>
      </trkpt>
      <trkpt lat="49.15556" lon="1.24997">
        <ele>170.9</ele>
        <time>2017-05-14T06:56:34Z</time>
      </trkpt>
      <trkpt lat="49.15553" lon="1.24982">
        <ele>170.8</ele>
        <time>2017-05-14T06:56:36Z</time>
      </trkpt>
      <trkpt lat="49.1555" lon="1.24966">
        <ele>170.6</ele>
        <time>2017-05-14T06:56:38Z</time>
      </trkpt>
      <trkpt lat="49.15547" lon="1.24951">
        <ele>170.5</ele>
        <time>2017-05-14T06:56:40Z</time>
      </trkpt>
      <trkpt lat="49.15544" lon="1.24936">
        <ele>170.4</ele>
        <time>2017-05-14T06:56:42Z</time>
      </trkpt>
      <trkpt lat="49.15541" lon="1.24921">
        <ele>170.5</ele>
        <time>2017-05-14T06:56:44Z</time>
      </trkpt>
      <trkpt lat="49.15538" lon="1.24906">
        <ele>170.2</ele>
        <time>2017-05-14T06:56:46Z</time>
      </trkpt>
      <trkpt lat="49.15535" lon="1.24891">
        <ele>169.9</ele>
        <time>2017-05-14T06:56:48Z</time>
      </trkpt>
      <trkpt lat="49.15533" lon="1.24876">
        <ele>169.9</ele>
        <time>2017-05-14T06:56:50Z</time>
      </trkpt>
      <trkpt lat="49.15531" lon="1.24863">
        <ele>169.4</ele>
        <time>2017-05-14T06:56:52Z</time>
      </trkpt>
      <trkpt lat="49.15531" lon="1.24849">
        <ele>169</ele>
        <time>2017-05-14T06:56:55Z</time>
      </trkpt>
      <trkpt lat="49.15531" lon="1.24835">
        <ele>168.9</ele>
        <time>2017-05-14T06:56:58Z</time>
      </trkpt>
      <trkpt lat="49.15531" lon="1.2482">
        <ele>168.8</ele>
        <time>2017-05-14T06:57:00Z</time>
      </trkpt>
      <trkpt lat="49.15531" lon="1.24806">
        <ele>168.6</ele>
        <time>2017-05-14T06:57:02Z</time>
      </trkpt>
      <trkpt lat="49.15531" lon="1.24791">
        <ele>168.3</ele>
        <time>2017-05-14T06:57:04Z</time>
      </trkpt>
      <trkpt lat="49.1553" lon="1.24776">
        <ele>168.2</ele>
        <time>2017-05-14T06:57:06Z</time>
      </trkpt>
      <trkpt lat="49.1553" lon="1.2476">
        <ele>167.9</ele>
        <time>2017-05-14T06:57:08Z</time>
      </trkpt>
      <trkpt lat="49.1553" lon="1.24745">
        <ele>167.8</ele>
        <time>2017-05-14T06:57:10Z</time>
      </trkpt>
      <trkpt lat="49.15528" lon="1.24728">
        <ele>167.4</ele>
        <time>2017-05-14T06:57:12Z</time>
      </trkpt>
      <trkpt lat="49.15527" lon="1.24713">
        <ele>167.1</ele>
        <time>2017-05-14T06:57:14Z</time>
      </trkpt>
      <trkpt lat="49.15525" lon="1.24697">
        <ele>167</ele>
        <time>2017-05-14T06:57:16Z</time>
      </trkpt>
      <trkpt lat="49.15524" lon="1.24682">
        <ele>166.7</ele>
        <time>2017-05-14T06:57:18Z</time>
      </trkpt>
      <trkpt lat="49.15519" lon="1.24669">
        <ele>166</ele>
        <time>2017-05-14T06:57:21Z</time>
      </trkpt>
      <trkpt lat="49.15509" lon="1.24674">
        <ele>165.6</ele>
        <time>2017-05-14T06:57:24Z</time>
      </trkpt>
      <trkpt lat="49.15498" lon="1.24683">
        <ele>165.7</ele>
        <time>2017-05-14T06:57:27Z</time>
      </trkpt>
      <trkpt lat="49.15485" lon="1.24692">
        <ele>165.8</ele>
        <time>2017-05-14T06:57:30Z</time>
      </trkpt>
      <trkpt lat="49.15476" lon="1.24698">
        <ele>166</ele>
        <time>2017-05-14T06:57:32Z</time>
      </trkpt>
      <trkpt lat="49.15466" lon="1.24704">
        <ele>166.3</ele>
        <time>2017-05-14T06:57:34Z</time>
      </trkpt>
      <trkpt lat="49.15457" lon="1.24709">
        <ele>166.7</ele>
        <time>2017-05-14T06:57:36Z</time>
      </trkpt>
      <trkpt lat="49.15447" lon="1.24714">
        <ele>166.8</ele>
        <time>2017-05-14T06:57:38Z</time>
      </trkpt>
      <trkpt lat="49.15437" lon="1.24719">
        <ele>166.7</ele>
        <time>2017-05-14T06:57:40Z</time>
      </trkpt>
      <trkpt lat="49.15427" lon="1.24725">
        <ele>166.6</ele>
        <time>2017-05-14T06:57:42Z</time>
      </trkpt>
      <trkpt lat="49.15417" lon="1.24729">
        <ele>166.6</ele>
        <time>2017-05-14T06:57:44Z</time>
      </trkpt>
      <trkpt lat="49.15406" lon="1.24734">
        <ele>166.7</ele>
        <time>2017-05-14T06:57:46Z</time>
      </trkpt>
      <trkpt lat="49.15396" lon="1.24738">
        <ele>166.6</ele>
        <time>2017-05-14T06:57:48Z</time>
      </trkpt>
      <trkpt lat="49.15385" lon="1.24742">
        <ele>166.4</ele>
        <time>2017-05-14T06:57:50Z</time>
      </trkpt>
      <trkpt lat="49.15376" lon="1.24739">
        <ele>166.3</ele>
        <time>2017-05-14T06:57:52Z</time>
      </trkpt>
      <trkpt lat="49.15367" lon="1.24731">
        <ele>165.9</ele>
        <time>2017-05-14T06:57:54Z</time>
      </trkpt>
      <trkpt lat="49.15358" lon="1.24723">
        <ele>165.7</ele>
        <time>2017-05-14T06:57:56Z</time>
      </trkpt>
      <trkpt lat="49.15348" lon="1.24714">
        <ele>165.1</ele>
        <time>2017-05-14T06:57:58Z</time>
      </trkpt>
      <trkpt lat="49.15339" lon="1.24705">
        <ele>164.6</ele>
        <time>2017-05-14T06:58:00Z</time>
      </trkpt>
      <trkpt lat="49.1533" lon="1.24698">
        <ele>164.2</ele>
        <time>2017-05-14T06:58:02Z</time>
      </trkpt>
      <trkpt lat="49.15321" lon="1.24691">
        <ele>163.9</ele>
        <time>2017-05-14T06:58:04Z</time>
      </trkpt>
      <trkpt lat="49.15313" lon="1.24683">
        <ele>163.3</ele>
        <time>2017-05-14T06:58:06Z</time>
      </trkpt>
      <trkpt lat="49.15304" lon="1.24676">
        <ele>162.9</ele>
        <time>2017-05-14T06:58:08Z</time>
      </trkpt>
      <trkpt lat="49.15295" lon="1.24669">
        <ele>162.7</ele>
        <time>2017-05-14T06:58:10Z</time>
      </trkpt>
      <trkpt lat="49.15287" lon="1.24662">
        <ele>162.2</ele>
        <time>2017-05-14T06:58:12Z</time>
      </trkpt>
      <trkpt lat="49.15276" lon="1.24653">
        <ele>161.6</ele>
        <time>2017-05-14T06:58:15Z</time>
      </trkpt>
      <trkpt lat="49.15266" lon="1.24646">
        <ele>161.1</ele>
        <time>2017-05-14T06:58:18Z</time>
      </trkpt>
      <trkpt lat="49.15255" lon="1.24639">
        <ele>160.5</ele>
        <time>2017-05-14T06:58:21Z</time>
      </trkpt>
      <trkpt lat="49.15244" lon="1.24634">
        <ele>159.8</ele>
        <time>2017-05-14T06:58:24Z</time>
      </trkpt>
      <trkpt lat="49.15233" lon="1.24631">
        <ele>159.6</ele>
        <time>2017-05-14T06:58:27Z</time>
      </trkpt>
      <trkpt lat="49.15222" lon="1.24628">
        <ele>159.4</ele>
        <time>2017-05-14T06:58:30Z</time>
      </trkpt>
      <trkpt lat="49.15209" lon="1.24625">
        <ele>159.3</ele>
        <time>2017-05-14T06:58:33Z</time>
      </trkpt>
      <trkpt lat="49.15196" lon="1.24624">
        <ele>159.2</ele>
        <time>2017-05-14T06:58:36Z</time>
      </trkpt>
      <trkpt lat="49.15185" lon="1.24623">
        <ele>159.1</ele>
        <time>2017-05-14T06:58:38Z</time>
      </trkpt>
      <trkpt lat="49.15176" lon="1.24623">
        <ele>159.4</ele>
        <time>2017-05-14T06:58:40Z</time>
      </trkpt>
      <trkpt lat="49.15166" lon="1.24625">
        <ele>159.2</ele>
        <time>2017-05-14T06:58:42Z</time>
      </trkpt>
      <trkpt lat="49.15156" lon="1.24628">
        <ele>159.3</ele>
        <time>2017-05-14T06:58:44Z</time>
      </trkpt>
      <trkpt lat="49.15146" lon="1.2463">
        <ele>159.2</ele>
        <time>2017-05-14T06:58:46Z</time>
      </trkpt>
      <trkpt lat="49.15136" lon="1.24632">
        <ele>159.2</ele>
        <time>2017-05-14T06:58:48Z</time>
      </trkpt>
      <trkpt lat="49.15126" lon="1.24634">
        <ele>159.1</ele>
        <time>2017-05-14T06:58:50Z</time>
      </trkpt>
      <trkpt lat="49.15117" lon="1.24638">
        <ele>159.1</ele>
        <time>2017-05-14T06:58:52Z</time>
      </trkpt>
      <trkpt lat="49.15107" lon="1.24641">
        <ele>159</ele>
        <time>2017-05-14T06:58:54Z</time>
      </trkpt>
      <trkpt lat="49.15097" lon="1.24643">
        <ele>158.9</ele>
        <time>2017-05-14T06:58:56Z</time>
      </trkpt>
      <trkpt lat="49.15088" lon="1.24648">
        <ele>158.6</ele>
        <time>2017-05-14T06:58:58Z</time>
      </trkpt>
      <trkpt lat="49.15079" lon="1.24652">
        <ele>158.3</ele>
        <time>2017-05-14T06:59:00Z</time>
      </trkpt>
      <trkpt lat="49.15068" lon="1.24652">
        <ele>158.2</ele>
        <time>2017-05-14T06:59:02Z</time>
      </trkpt>
      <trkpt lat="49.15059" lon="1.24654">
        <ele>157.9</ele>
        <time>2017-05-14T06:59:04Z</time>
      </trkpt>
      <trkpt lat="49.15049" lon="1.24657">
        <ele>157.7</ele>
        <time>2017-05-14T06:59:06Z</time>
      </trkpt>
      <trkpt lat="49.1504" lon="1.24661">
        <ele>157.7</ele>
        <time>2017-05-14T06:59:08Z</time>
      </trkpt>
      <trkpt lat="49.15031" lon="1.24665">
        <ele>157.5</ele>
        <time>2017-05-14T06:59:10Z</time>
      </trkpt>
      <trkpt lat="49.15022" lon="1.2467">
        <ele>157.8</ele>
        <time>2017-05-14T06:59:12Z</time>
      </trkpt>
      <trkpt lat="49.15012" lon="1.24674">
        <ele>158</ele>
        <time>2017-05-14T06:59:14Z</time>
      </trkpt>
      <trkpt lat="49.15003" lon="1.24679">
        <ele>158.1</ele>
        <time>2017-05-14T06:59:16Z</time>
      </trkpt>
      <trkpt lat="49.14994" lon="1.24684">
        <ele>158.4</ele>
        <time>2017-05-14T06:59:18Z</time>
      </trkpt>
      <trkpt lat="49.14984" lon="1.24685">
        <ele>158.8</ele>
        <time>2017-05-14T06:59:21Z</time>
      </trkpt>
      <trkpt lat="49.1498" lon="1.24672">
        <ele>158.8</ele>
        <time>2017-05-14T06:59:24Z</time>
      </trkpt>
      <trkpt lat="49.14977" lon="1.24658">
        <ele>158.6</ele>
        <time>2017-05-14T06:59:26Z</time>
      </trkpt>
      <trkpt lat="49.14974" lon="1.24642">
        <ele>158.6</ele>
        <time>2017-05-14T06:59:28Z</time>
      </trkpt>
      <trkpt lat="49.14971" lon="1.24625">
        <ele>158.5</ele>
        <time>2017-05-14T06:59:30Z</time>
      </trkpt>
      <trkpt lat="49.14968" lon="1.2461">
        <ele>158.3</ele>
        <time>2017-05-14T06:59:32Z</time>
      </trkpt>
      <trkpt lat="49.14965" lon="1.24594">
        <ele>158</ele>
        <time>2017-05-14T06:59:34Z</time>
      </trkpt>
      <trkpt lat="49.14962" lon="1.24578">
        <ele>157.7</ele>
        <time>2017-05-14T06:59:36Z</time>
      </trkpt>
      <trkpt lat="49.14959" lon="1.24562">
        <ele>157.1</ele>
        <time>2017-05-14T06:59:38Z</time>
      </trkpt>
      <trkpt lat="49.14956" lon="1.24546">
        <ele>157.1</ele>
        <time>2017-05-14T06:59:40Z</time>
      </trkpt>
      <trkpt lat="49.14953" lon="1.2453">
        <ele>157</ele>
        <time>2017-05-14T06:59:42Z</time>
      </trkpt>
      <trkpt lat="49.1495" lon="1.24515">
        <ele>156.9</ele>
        <time>2017-05-14T06:59:44Z</time>
      </trkpt>
      <trkpt lat="49.14947" lon="1.24498">
        <ele>156.7</ele>
        <time>2017-05-14T06:59:46Z</time>
      </trkpt>
      <trkpt lat="49.14943" lon="1.24482">
        <ele>156.5</ele>
        <time>2017-05-14T06:59:48Z</time>
      </trkpt>
      <trkpt lat="49.1494" lon="1.24466">
        <ele>156.4</ele>
        <time>2017-05-14T06:59:50Z</time>
      </trkpt>
      <trkpt lat="49.14937" lon="1.2445">
        <ele>156.2</ele>
        <time>2017-05-14T06:59:52Z</time>
      </trkpt>
      <trkpt lat="49.14934" lon="1.24434">
        <ele>155.9</ele>
        <time>2017-05-14T06:59:54Z</time>
      </trkpt>
      <trkpt lat="49.14931" lon="1.24418">
        <ele>155.5</ele>
        <time>2017-05-14T06:59:56Z</time>
      </trkpt>
      <trkpt lat="49.14928" lon="1.24402">
        <ele>155.1</ele>
        <time>2017-05-14T06:59:58Z</time>
      </trkpt>
      <trkpt lat="49.14925" lon="1.24386">
        <ele>154.9</ele>
        <time>2017-05-14T07:00:00Z</time>
      </trkpt>
      <trkpt lat="49.14922" lon="1.24371">
        <ele>154.6</ele>
        <time>2017-05-14T07:00:02Z</time>
      </trkpt>
      <trkpt lat="49.14928" lon="1.24353">
        <ele>154.1</ele>
        <time>2017-05-14T07:00:05Z</time>
      </trkpt>
      <trkpt lat="49.1494" lon="1.24349">
        <ele>153.7</ele>
        <time>2017-05-14T07:00:08Z</time>
      </trkpt>
      <trkpt lat="49.14951" lon="1.24348">
        <ele>153.6</ele>
        <time>2017-05-14T07:00:10Z</time>
      </trkpt>
      <trkpt lat="49.14962" lon="1.24346">
        <ele>153.5</ele>
        <time>2017-05-14T07:00:12Z</time>
      </trkpt>
      <trkpt lat="49.14973" lon="1.24345">
        <ele>153.6</ele>
        <time>2017-05-14T07:00:14Z</time>
      </trkpt>
      <trkpt lat="49.14984" lon="1.24344">
        <ele>153.9</ele>
        <time>2017-05-14T07:00:16Z</time>
      </trkpt>
      <trkpt lat="49.14995" lon="1.24343">
        <ele>154</ele>
        <time>2017-05-14T07:00:18Z</time>
      </trkpt>
      <trkpt lat="49.15005" lon="1.24342">
        <ele>154.2</ele>
        <time>2017-05-14T07:00:20Z</time>
      </trkpt>
      <trkpt lat="49.15015" lon="1.24341">
        <ele>154.4</ele>
        <time>2017-05-14T07:00:22Z</time>
      </trkpt>
      <trkpt lat="49.15026" lon="1.2434">
        <ele>154.7</ele>
        <time>2017-05-14T07:00:24Z</time>
      </trkpt>
      <trkpt lat="49.15036" lon="1.24339">
        <ele>154.8</ele>
        <time>2017-05-14T07:00:26Z</time>
      </trkpt>
      <trkpt lat="49.15047" lon="1.24338">
        <ele>154.9</ele>
        <time>2017-05-14T07:00:28Z</time>
      </trkpt>
      <trkpt lat="49.15057" lon="1.24337">
        <ele>155.1</ele>
        <time>2017-05-14T07:00:30Z</time>
      </trkpt>
      <trkpt lat="49.15067" lon="1.24336">
        <ele>155.3</ele>
        <time>2017-05-14T07:00:32Z</time>
      </trkpt>
      <trkpt lat="49.15077" lon="1.24335">
        <ele>155.9</ele>
        <time>2017-05-14T07:00:34Z</time>
      </trkpt>
      <trkpt lat="49.15088" lon="1.24334">
        <ele>156.2</ele>
        <time>2017-05-14T07:00:36Z</time>
      </trkpt>
      <trkpt lat="49.15098" lon="1.24333">
        <ele>156.5</ele>
        <time>2017-05-14T07:00:38Z</time>
      </trkpt>
      <trkpt lat="49.15108" lon="1.24332">
        <ele>156.5</ele>
        <time>2017-05-14T07:00:40Z</time>
      </trkpt>
      <trkpt lat="49.15119" lon="1.24331">
        <ele>156.4</ele>
        <time>2017-05-14T07:00:42Z</time>
      </trkpt>
      <trkpt lat="49.1513" lon="1.24329">
        <ele>156.6</ele>
        <time>2017-05-14T07:00:44Z</time>
      </trkpt>
      <trkpt lat="49.1514" lon="1.24328">
        <ele>156.7</ele>
        <time>2017-05-14T07:00:46Z</time>
      </trkpt>
      <trkpt lat="49.15151" lon="1.24327">
        <ele>157</ele>
        <time>2017-05-14T07:00:48Z</time>
      </trkpt>
      <trkpt lat="49.15162" lon="1.24326">
        <ele>157.3</ele>
        <time>2017-05-14T07:00:50Z</time>
      </trkpt>
      <trkpt lat="49.15172" lon="1.24326">
        <ele>157.5</ele>
        <time>2017-05-14T07:00:52Z</time>
      </trkpt>
      <trkpt lat="49.15183" lon="1.24324">
        <ele>157.7</ele>
        <time>2017-05-14T07:00:54Z</time>
      </trkpt>
      <trkpt lat="49.15194" lon="1.24323">
        <ele>157.8</ele>
        <time>2017-05-14T07:00:56Z</time>
      </trkpt>
      <trkpt lat="49.15204" lon="1.24322">
        <ele>157.9</ele>
        <time>2017-05-14T07:00:58Z</time>
      </trkpt>
      <trkpt lat="49.15215" lon="1.24321">
        <ele>157.9</ele>
        <time>2017-05-14T07:01:00Z</time>
      </trkpt>
      <trkpt lat="49.15226" lon="1.24321">
        <ele>158.2</ele>
        <time>2017-05-14T07:01:02Z</time>
      </trkpt>
      <trkpt lat="49.15237" lon="1.24319">
        <ele>158.3</ele>
        <time>2017-05-14T07:01:04Z</time>
      </trkpt>
      <trkpt lat="49.15248" lon="1.24318">
        <ele>158.5</ele>
        <time>2017-05-14T07:01:06Z</time>
      </trkpt>
      <trkpt lat="49.15259" lon="1.24316">
        <ele>158.5</ele>
        <time>2017-05-14T07:01:08Z</time>
      </trkpt>
      <trkpt lat="49.1527" lon="1.24315">
        <ele>158.4</ele>
        <time>2017-05-14T07:01:10Z</time>
      </trkpt>
      <trkpt lat="49.15281" lon="1.24314">
        <ele>158.6</ele>
        <time>2017-05-14T07:01:12Z</time>
      </trkpt>
      <trkpt lat="49.15291" lon="1.24313">
        <ele>158.8</ele>
        <time>2017-05-14T07:01:14Z</time>
      </trkpt>
      <trkpt lat="49.15302" lon="1.24311">
        <ele>158.8</ele>
        <time>2017-05-14T07:01:16Z</time>
      </trkpt>
      <trkpt lat="49.15313" lon="1.2431">
        <ele>158.5</ele>
        <time>2017-05-14T07:01:18Z</time>
      </trkpt>
      <trkpt lat="49.15323" lon="1.24309">
        <ele>158.6</ele>
        <time>2017-05-14T07:01:20Z</time>
      </trkpt>
      <trkpt lat="49.15334" lon="1.24308">
        <ele>158.6</ele>
        <time>2017-05-14T07:01:22Z</time>
      </trkpt>
      <trkpt lat="49.15344" lon="1.24307">
        <ele>158.6</ele>
        <time>2017-05-14T07:01:24Z</time>
      </trkpt>
      <trkpt lat="49.15354" lon="1.24307">
        <ele>158.8</ele>
        <time>2017-05-14T07:01:26Z</time>
      </trkpt>
      <trkpt lat="49.15364" lon="1.24306">
        <ele>158.9</ele>
        <time>2017-05-14T07:01:28Z</time>
      </trkpt>
      <trkpt lat="49.15371" lon="1.24296">
        <ele>159.3</ele>
        <time>2017-05-14T07:01:31Z</time>
      </trkpt>
      <trkpt lat="49.15367" lon="1.24277">
        <ele>159.7</ele>
        <time>2017-05-14T07:01:34Z</time>
      </trkpt>
      <trkpt lat="49.15365" lon="1.24263">
        <ele>159.9</ele>
        <time>2017-05-14T07:01:36Z</time>
      </trkpt>
      <trkpt lat="49.15362" lon="1.24249">
        <ele>160.3</ele>
        <time>2017-05-14T07:01:38Z</time>
      </trkpt>
      <trkpt lat="49.15359" lon="1.24236">
        <ele>160.5</ele>
        <time>2017-05-14T07:01:40Z</time>
      </trkpt>
      <trkpt lat="49.15357" lon="1.24222">
        <ele>160.7</ele>
        <time>2017-05-14T07:01:42Z</time>
      </trkpt>
      <trkpt lat="49.15354" lon="1.24209">
        <ele>161</ele>
        <time>2017-05-14T07:01:44Z</time>
      </trkpt>
      <trkpt lat="49.15351" lon="1.24195">
        <ele>161.2</ele>
        <time>2017-05-14T07:01:46Z</time>
      </trkpt>
      <trkpt lat="49.15347" lon="1.24176">
        <ele>161.4</ele>
        <time>2017-05-14T07:01:49Z</time>
      </trkpt>
      <trkpt lat="49.15344" lon="1.24157">
        <ele>161.8</ele>
        <time>2017-05-14T07:01:52Z</time>
      </trkpt>
      <trkpt lat="49.1534" lon="1.24138">
        <ele>162</ele>
        <time>2017-05-14T07:01:55Z</time>
      </trkpt>
      <trkpt lat="49.15336" lon="1.24119">
        <ele>162.4</ele>
        <time>2017-05-14T07:01:58Z</time>
      </trkpt>
      <trkpt lat="49.15332" lon="1.24101">
        <ele>162.6</ele>
        <time>2017-05-14T07:02:01Z</time>
      </trkpt>
      <trkpt lat="49.15329" lon="1.24082">
        <ele>162.9</ele>
        <time>2017-05-14T07:02:04Z</time>
      </trkpt>
      <trkpt lat="49.15325" lon="1.24064">
        <ele>163.2</ele>
        <time>2017-05-14T07:02:07Z</time>
      </trkpt>
      <trkpt lat="49.15321" lon="1.24044">
        <ele>163.5</ele>
        <time>2017-05-14T07:02:10Z</time>
      </trkpt>
      <trkpt lat="49.15317" lon="1.24025">
        <ele>163.8</ele>
        <time>2017-05-14T07:02:13Z</time>
      </trkpt>
      <trkpt lat="49.15314" lon="1.24006">
        <ele>164.1</ele>
        <time>2017-05-14T07:02:16Z</time>
      </trkpt>
      <trkpt lat="49.1531" lon="1.23987">
        <ele>164.2</ele>
        <time>2017-05-14T07:02:19Z</time>
      </trkpt>
      <trkpt lat="49.15306" lon="1.23967">
        <ele>164.6</ele>
        <time>2017-05-14T07:02:22Z</time>
      </trkpt>
      <trkpt lat="49.15302" lon="1.23948">
        <ele>164.8</ele>
        <time>2017-05-14T07:02:25Z</time>
      </trkpt>
      <trkpt lat="49.15298" lon="1.23929">
        <ele>164.9</ele>
        <time>2017-05-14T07:02:28Z</time>
      </trkpt>
      <trkpt lat="49.15295" lon="1.2391">
        <ele>165</ele>
        <time>2017-05-14T07:02:31Z</time>
      </trkpt>
      <trkpt lat="49.15291" lon="1.23892">
        <ele>165.1</ele>
        <time>2017-05-14T07:02:34Z</time>
      </trkpt>
      <trkpt lat="49.15288" lon="1.23873">
        <ele>165.2</ele>
        <time>2017-05-14T07:02:37Z</time>
      </trkpt>
      <trkpt lat="49.15285" lon="1.23856">
        <ele>165.2</ele>
        <time>2017-05-14T07:02:40Z</time>
      </trkpt>
      <trkpt lat="49.1528" lon="1.2384">
        <ele>165.1</ele>
        <time>2017-05-14T07:02:43Z</time>
      </trkpt>
      <trkpt lat="49.15275" lon="1.23826">
        <ele>165.1</ele>
        <time>2017-05-14T07:02:45Z</time>
      </trkpt>
      <trkpt lat="49.1527" lon="1.23812">
        <ele>165.1</ele>
        <time>2017-05-14T07:02:47Z</time>
      </trkpt>
      <trkpt lat="49.15266" lon="1.23796">
        <ele>164.8</ele>
        <time>2017-05-14T07:02:49Z</time>
      </trkpt>
      <trkpt lat="49.15262" lon="1.23781">
        <ele>164.8</ele>
        <time>2017-05-14T07:02:51Z</time>
      </trkpt>
      <trkpt lat="49.15258" lon="1.23765">
        <ele>164.6</ele>
        <time>2017-05-14T07:02:53Z</time>
      </trkpt>
      <trkpt lat="49.15255" lon="1.23749">
        <ele>164.6</ele>
        <time>2017-05-14T07:02:55Z</time>
      </trkpt>
      <trkpt lat="49.15252" lon="1.23732">
        <ele>164.5</ele>
        <time>2017-05-14T07:02:57Z</time>
      </trkpt>
      <trkpt lat="49.15248" lon="1.23716">
        <ele>164.5</ele>
        <time>2017-05-14T07:02:59Z</time>
      </trkpt>
      <trkpt lat="49.15244" lon="1.237">
        <ele>164.4</ele>
        <time>2017-05-14T07:03:01Z</time>
      </trkpt>
      <trkpt lat="49.1524" lon="1.23683">
        <ele>164.3</ele>
        <time>2017-05-14T07:03:03Z</time>
      </trkpt>
      <trkpt lat="49.15237" lon="1.23667">
        <ele>164.1</ele>
        <time>2017-05-14T07:03:05Z</time>
      </trkpt>
      <trkpt lat="49.15233" lon="1.2365">
        <ele>164</ele>
        <time>2017-05-14T07:03:07Z</time>
      </trkpt>
      <trkpt lat="49.15229" lon="1.23634">
        <ele>163.8</ele>
        <time>2017-05-14T07:03:09Z</time>
      </trkpt>
      <trkpt lat="49.15225" lon="1.23618">
        <ele>163.7</ele>
        <time>2017-05-14T07:03:11Z</time>
      </trkpt>
      <trkpt lat="49.15222" lon="1.23601">
        <ele>163.5</ele>
        <time>2017-05-14T07:03:13Z</time>
      </trkpt>
      <trkpt lat="49.15219" lon="1.23585">
        <ele>163.3</ele>
        <time>2017-05-14T07:03:15Z</time>
      </trkpt>
      <trkpt lat="49.15216" lon="1.23568">
        <ele>163.2</ele>
        <time>2017-05-14T07:03:17Z</time>
      </trkpt>
      <trkpt lat="49.15213" lon="1.23551">
        <ele>163</ele>
        <time>2017-05-14T07:03:19Z</time>
      </trkpt>
      <trkpt lat="49.1521" lon="1.23533">
        <ele>162.9</ele>
        <time>2017-05-14T07:03:21Z</time>
      </trkpt>
      <trkpt lat="49.15207" lon="1.23514">
        <ele>162.7</ele>
        <time>2017-05-14T07:03:23Z</time>
      </trkpt>
      <trkpt lat="49.15204" lon="1.23497">
        <ele>162.4</ele>
        <time>2017-05-14T07:03:25Z</time>
      </trkpt>
      <trkpt lat="49.152" lon="1.23479">
        <ele>162.2</ele>
        <time>2017-05-14T07:03:27Z</time>
      </trkpt>
      <trkpt lat="49.15197" lon="1.2346">
        <ele>162</ele>
        <time>2017-05-14T07:03:29Z</time>
      </trkpt>
      <trkpt lat="49.15194" lon="1.23442">
        <ele>161.8</ele>
        <time>2017-05-14T07:03:31Z</time>
      </trkpt>
      <trkpt lat="49.15191" lon="1.23423">
        <ele>161.7</ele>
        <time>2017-05-14T07:03:33Z</time>
      </trkpt>
      <trkpt lat="49.15189" lon="1.23404">
        <ele>161.2</ele>
        <time>2017-05-14T07:03:35Z</time>
      </trkpt>
      <trkpt lat="49.15186" lon="1.23384">
        <ele>160.9</ele>
        <time>2017-05-14T07:03:37Z</time>
      </trkpt>
      <trkpt lat="49.15184" lon="1.23364">
        <ele>160.6</ele>
        <time>2017-05-14T07:03:39Z</time>
      </trkpt>
      <trkpt lat="49.15182" lon="1.23344">
        <ele>160.3</ele>
        <time>2017-05-14T07:03:41Z</time>
      </trkpt>
      <trkpt lat="49.1518" lon="1.23324">
        <ele>160</ele>
        <time>2017-05-14T07:03:43Z</time>
      </trkpt>
      <trkpt lat="49.15178" lon="1.23304">
        <ele>159.6</ele>
        <time>2017-05-14T07:03:45Z</time>
      </trkpt>
      <trkpt lat="49.15177" lon="1.23285">
        <ele>159.3</ele>
        <time>2017-05-14T07:03:47Z</time>
      </trkpt>
      <trkpt lat="49.15175" lon="1.23265">
        <ele>158.7</ele>
        <time>2017-05-14T07:03:49Z</time>
      </trkpt>
      <trkpt lat="49.15174" lon="1.23245">
        <ele>158.5</ele>
        <time>2017-05-14T07:03:51Z</time>
      </trkpt>
      <trkpt lat="49.15171" lon="1.23226">
        <ele>158.1</ele>
        <time>2017-05-14T07:03:53Z</time>
      </trkpt>
      <trkpt lat="49.15165" lon="1.23209">
        <ele>157.8</ele>
        <time>2017-05-14T07:03:55Z</time>
      </trkpt>
      <trkpt lat="49.1516" lon="1.23191">
        <ele>157.5</ele>
        <time>2017-05-14T07:03:57Z</time>
      </trkpt>
      <trkpt lat="49.15155" lon="1.23174">
        <ele>157.3</ele>
        <time>2017-05-14T07:03:59Z</time>
      </trkpt>
      <trkpt lat="49.1515" lon="1.23156">
        <ele>157.2</ele>
        <time>2017-05-14T07:04:01Z</time>
      </trkpt>
      <trkpt lat="49.15145" lon="1.23139">
        <ele>156.8</ele>
        <time>2017-05-14T07:04:03Z</time>
      </trkpt>
      <trkpt lat="49.15139" lon="1.23122">
        <ele>156.4</ele>
        <time>2017-05-14T07:04:05Z</time>
      </trkpt>
      <trkpt lat="49.15133" lon="1.23106">
        <ele>156.2</ele>
        <time>2017-05-14T07:04:07Z</time>
      </trkpt>
      <trkpt lat="49.15126" lon="1.2309">
        <ele>155.9</ele>
        <time>2017-05-14T07:04:09Z</time>
      </trkpt>
      <trkpt lat="49.15119" lon="1.23076">
        <ele>155.8</ele>
        <time>2017-05-14T07:04:11Z</time>
      </trkpt>
      <trkpt lat="49.15113" lon="1.2306">
        <ele>155.7</ele>
        <time>2017-05-14T07:04:13Z</time>
      </trkpt>
      <trkpt lat="49.15106" lon="1.23045">
        <ele>155.3</ele>
        <time>2017-05-14T07:04:15Z</time>
      </trkpt>
      <trkpt lat="49.15099" lon="1.23029">
        <ele>155.1</ele>
        <time>2017-05-14T07:04:17Z</time>
      </trkpt>
      <trkpt lat="49.15093" lon="1.23013">
        <ele>155</ele>
        <time>2017-05-14T07:04:19Z</time>
      </trkpt>
      <trkpt lat="49.15086" lon="1.22997">
        <ele>154.7</ele>
        <time>2017-05-14T07:04:21Z</time>
      </trkpt>
      <trkpt lat="49.15079" lon="1.2298">
        <ele>154.5</ele>
        <time>2017-05-14T07:04:23Z</time>
      </trkpt>
      <trkpt lat="49.15072" lon="1.22964">
        <ele>153.9</ele>
        <time>2017-05-14T07:04:25Z</time>
      </trkpt>
      <trkpt lat="49.15065" lon="1.22948">
        <ele>153.8</ele>
        <time>2017-05-14T07:04:27Z</time>
      </trkpt>
      <trkpt lat="49.15058" lon="1.22932">
        <ele>153.3</ele>
        <time>2017-05-14T07:04:29Z</time>
      </trkpt>
      <trkpt lat="49.15051" lon="1.22917">
        <ele>153.3</ele>
        <time>2017-05-14T07:04:31Z</time>
      </trkpt>
      <trkpt lat="49.15048" lon="1.22902">
        <ele>153.4</ele>
        <time>2017-05-14T07:04:33Z</time>
      </trkpt>
      <trkpt lat="49.15048" lon="1.22888">
        <ele>153.3</ele>
        <time>2017-05-14T07:04:35Z</time>
      </trkpt>
      <trkpt lat="49.15053" lon="1.22875">
        <ele>153.3</ele>
        <time>2017-05-14T07:04:37Z</time>
      </trkpt>
      <trkpt lat="49.1506" lon="1.22866">
        <ele>152.8</ele>
        <time>2017-05-14T07:04:39Z</time>
      </trkpt>
      <trkpt lat="49.1507" lon="1.2286">
        <ele>152.4</ele>
        <time>2017-05-14T07:04:41Z</time>
      </trkpt>
      <trkpt lat="49.15082" lon="1.22853">
        <ele>151.8</ele>
        <time>2017-05-14T07:04:43Z</time>
      </trkpt>
      <trkpt lat="49.15095" lon="1.22841">
        <ele>151.2</ele>
        <time>2017-05-14T07:04:45Z</time>
      </trkpt>
      <trkpt lat="49.15104" lon="1.22828">
        <ele>150.3</ele>
        <time>2017-05-14T07:04:47Z</time>
      </trkpt>
      <trkpt lat="49.15111" lon="1.22817">
        <ele>149.5</ele>
        <time>2017-05-14T07:04:49Z</time>
      </trkpt>
      <trkpt lat="49.15118" lon="1.22807">
        <ele>149.2</ele>
        <time>2017-05-14T07:04:51Z</time>
      </trkpt>
      <trkpt lat="49.15124" lon="1.22795">
        <ele>149.5</ele>
        <time>2017-05-14T07:04:54Z</time>
      </trkpt>
      <trkpt lat="49.15132" lon="1.22782">
        <ele>150</ele>
        <time>2017-05-14T07:04:57Z</time>
      </trkpt>
      <trkpt lat="49.15141" lon="1.22767">
        <ele>150.8</ele>
        <time>2017-05-14T07:05:00Z</time>
      </trkpt>
      <trkpt lat="49.15146" lon="1.22755">
        <ele>151.2</ele>
        <time>2017-05-14T07:05:02Z</time>
      </trkpt>
      <trkpt lat="49.15149" lon="1.22741">
        <ele>151.6</ele>
        <time>2017-05-14T07:05:04Z</time>
      </trkpt>
      <trkpt lat="49.1515" lon="1.22727">
        <ele>152.2</ele>
        <time>2017-05-14T07:05:06Z</time>
      </trkpt>
      <trkpt lat="49.15143" lon="1.2271">
        <ele>152.6</ele>
        <time>2017-05-14T07:05:09Z</time>
      </trkpt>
      <trkpt lat="49.15136" lon="1.22693">
        <ele>152.8</ele>
        <time>2017-05-14T07:05:12Z</time>
      </trkpt>
      <trkpt lat="49.15131" lon="1.22674">
        <ele>152.7</ele>
        <time>2017-05-14T07:05:15Z</time>
      </trkpt>
      <trkpt lat="49.15127" lon="1.22657">
        <ele>152.5</ele>
        <time>2017-05-14T07:05:18Z</time>
      </trkpt>
      <trkpt lat="49.15124" lon="1.22644">
        <ele>152.5</ele>
        <time>2017-05-14T07:05:20Z</time>
      </trkpt>
      <trkpt lat="49.1512" lon="1.22626">
        <ele>152.6</ele>
        <time>2017-05-14T07:05:23Z</time>
      </trkpt>
      <trkpt lat="49.15117" lon="1.22606">
        <ele>152.7</ele>
        <time>2017-05-14T07:05:26Z</time>
      </trkpt>
      <trkpt lat="49.15116" lon="1.22589">
        <ele>152.8</ele>
        <time>2017-05-14T07:05:28Z</time>
      </trkpt>
      <trkpt lat="49.15112" lon="1.22572">
        <ele>152.8</ele>
        <time>2017-05-14T07:05:30Z</time>
      </trkpt>
      <trkpt lat="49.15111" lon="1.22558">
        <ele>152.8</ele>
        <time>2017-05-14T07:05:32Z</time>
      </trkpt>
      <trkpt lat="49.15108" lon="1.22544">
        <ele>152.9</ele>
        <time>2017-05-14T07:05:34Z</time>
      </trkpt>
      <trkpt lat="49.15103" lon="1.2253">
        <ele>153</ele>
        <time>2017-05-14T07:05:36Z</time>
      </trkpt>
      <trkpt lat="49.15099" lon="1.22516">
        <ele>153</ele>
        <time>2017-05-14T07:05:38Z</time>
      </trkpt>
      <trkpt lat="49.15098" lon="1.22496">
        <ele>152.9</ele>
        <time>2017-05-14T07:05:40Z</time>
      </trkpt>
      <trkpt lat="49.15098" lon="1.22474">
        <ele>152.7</ele>
        <time>2017-05-14T07:05:43Z</time>
      </trkpt>
      <trkpt lat="49.15097" lon="1.22459">
        <ele>152.5</ele>
        <time>2017-05-14T07:05:44Z</time>
      </trkpt>
      <trkpt lat="49.15097" lon="1.2244">
        <ele>152.5</ele>
        <time>2017-05-14T07:05:46Z</time>
      </trkpt>
      <trkpt lat="49.15097" lon="1.22422">
        <ele>152.4</ele>
        <time>2017-05-14T07:05:48Z</time>
      </trkpt>
      <trkpt lat="49.15096" lon="1.22402">
        <ele>152.3</ele>
        <time>2017-05-14T07:05:50Z</time>
      </trkpt>
      <trkpt lat="49.15096" lon="1.22384">
        <ele>151.6</ele>
        <time>2017-05-14T07:05:52Z</time>
      </trkpt>
      <trkpt lat="49.15096" lon="1.22365">
        <ele>151.4</ele>
        <time>2017-05-14T07:05:54Z</time>
      </trkpt>
      <trkpt lat="49.15095" lon="1.22347">
        <ele>151.4</ele>
        <time>2017-05-14T07:05:56Z</time>
      </trkpt>
      <trkpt lat="49.15095" lon="1.22327">
        <ele>151.8</ele>
        <time>2017-05-14T07:05:58Z</time>
      </trkpt>
      <trkpt lat="49.15096" lon="1.22311">
        <ele>151.5</ele>
        <time>2017-05-14T07:06:00Z</time>
      </trkpt>
      <trkpt lat="49.15097" lon="1.22297">
        <ele>151.7</ele>
        <time>2017-05-14T07:06:02Z</time>
      </trkpt>
      <trkpt lat="49.15095" lon="1.22278">
        <ele>152</ele>
        <time>2017-05-14T07:06:04Z</time>
      </trkpt>
      <trkpt lat="49.15094" lon="1.22262">
        <ele>152.1</ele>
        <time>2017-05-14T07:06:06Z</time>
      </trkpt>
      <trkpt lat="49.15093" lon="1.22247">
        <ele>152.2</ele>
        <time>2017-05-14T07:06:08Z</time>
      </trkpt>
      <trkpt lat="49.15092" lon="1.22231">
        <ele>152.2</ele>
        <time>2017-05-14T07:06:10Z</time>
      </trkpt>
      <trkpt lat="49.15091" lon="1.22216">
        <ele>152.1</ele>
        <time>2017-05-14T07:06:12Z</time>
      </trkpt>
      <trkpt lat="49.15089" lon="1.22199">
        <ele>152.2</ele>
        <time>2017-05-14T07:06:14Z</time>
      </trkpt>
      <trkpt lat="49.15089" lon="1.22183">
        <ele>152.1</ele>
        <time>2017-05-14T07:06:16Z</time>
      </trkpt>
      <trkpt lat="49.15088" lon="1.22166">
        <ele>152.1</ele>
        <time>2017-05-14T07:06:18Z</time>
      </trkpt>
      <trkpt lat="49.15088" lon="1.22149">
        <ele>151.8</ele>
        <time>2017-05-14T07:06:20Z</time>
      </trkpt>
      <trkpt lat="49.1509" lon="1.22134">
        <ele>151.6</ele>
        <time>2017-05-14T07:06:22Z</time>
      </trkpt>
      <trkpt lat="49.15094" lon="1.22117">
        <ele>151.3</ele>
        <time>2017-05-14T07:06:24Z</time>
      </trkpt>
      <trkpt lat="49.15098" lon="1.22102">
        <ele>151.1</ele>
        <time>2017-05-14T07:06:26Z</time>
      </trkpt>
      <trkpt lat="49.15103" lon="1.22088">
        <ele>150.8</ele>
        <time>2017-05-14T07:06:28Z</time>
      </trkpt>
      <trkpt lat="49.15108" lon="1.22073">
        <ele>150.8</ele>
        <time>2017-05-14T07:06:30Z</time>
      </trkpt>
      <trkpt lat="49.15113" lon="1.22057">
        <ele>150.6</ele>
        <time>2017-05-14T07:06:32Z</time>
      </trkpt>
      <trkpt lat="49.15118" lon="1.22042">
        <ele>150.5</ele>
        <time>2017-05-14T07:06:34Z</time>
      </trkpt>
      <trkpt lat="49.15122" lon="1.22026">
        <ele>150.1</ele>
        <time>2017-05-14T07:06:36Z</time>
      </trkpt>
      <trkpt lat="49.15115" lon="1.22014">
        <ele>149.6</ele>
        <time>2017-05-14T07:06:39Z</time>
      </trkpt>
      <trkpt lat="49.15102" lon="1.22008">
        <ele>149.1</ele>
        <time>2017-05-14T07:06:42Z</time>
      </trkpt>
      <trkpt lat="49.15094" lon="1.22001">
        <ele>148.7</ele>
        <time>2017-05-14T07:06:44Z</time>
      </trkpt>
      <trkpt lat="49.15084" lon="1.21993">
        <ele>148.3</ele>
        <time>2017-05-14T07:06:46Z</time>
      </trkpt>
      <trkpt lat="49.15075" lon="1.21986">
        <ele>147.9</ele>
        <time>2017-05-14T07:06:49Z</time>
      </trkpt>
      <trkpt lat="49.15063" lon="1.21981">
        <ele>147.3</ele>
        <time>2017-05-14T07:06:52Z</time>
      </trkpt>
      <trkpt lat="49.15055" lon="1.21975">
        <ele>146.7</ele>
        <time>2017-05-14T07:06:54Z</time>
      </trkpt>
      <trkpt lat="49.15045" lon="1.21969">
        <ele>145.6</ele>
        <time>2017-05-14T07:06:57Z</time>
      </trkpt>
      <trkpt lat="49.15034" lon="1.21969">
        <ele>143.7</ele>
        <time>2017-05-14T07:07:02Z</time>
      </trkpt>
      <trkpt lat="49.15024" lon="1.21961">
        <ele>142.5</ele>
        <time>2017-05-14T07:07:05Z</time>
      </trkpt>
      <trkpt lat="49.15014" lon="1.21958">
        <ele>140.5</ele>
        <time>2017-05-14T07:07:08Z</time>
      </trkpt>
      <trkpt lat="49.15005" lon="1.21954">
        <ele>137.9</ele>
        <time>2017-05-14T07:07:11Z</time>
      </trkpt>
      <trkpt lat="49.14994" lon="1.2195">
        <ele>134.9</ele>
        <time>2017-05-14T07:07:14Z</time>
      </trkpt>
      <trkpt lat="49.14986" lon="1.21945">
        <ele>131.8</ele>
        <time>2017-05-14T07:07:17Z</time>
      </trkpt>
      <trkpt lat="49.14976" lon="1.21939">
        <ele>128.5</ele>
        <time>2017-05-14T07:07:20Z</time>
      </trkpt>
      <trkpt lat="49.14963" lon="1.21934">
        <ele>124.8</ele>
        <time>2017-05-14T07:07:23Z</time>
      </trkpt>
      <trkpt lat="49.14953" lon="1.21929">
        <ele>122.1</ele>
        <time>2017-05-14T07:07:25Z</time>
      </trkpt>
      <trkpt lat="49.14939" lon="1.21924">
        <ele>119</ele>
        <time>2017-05-14T07:07:27Z</time>
      </trkpt>
      <trkpt lat="49.14924" lon="1.21916">
        <ele>116.1</ele>
        <time>2017-05-14T07:07:29Z</time>
      </trkpt>
      <trkpt lat="49.14909" lon="1.21909">
        <ele>113.7</ele>
        <time>2017-05-14T07:07:31Z</time>
      </trkpt>
      <trkpt lat="49.14894" lon="1.21901">
        <ele>111.9</ele>
        <time>2017-05-14T07:07:33Z</time>
      </trkpt>
      <trkpt lat="49.14881" lon="1.21894">
        <ele>110.3</ele>
        <time>2017-05-14T07:07:35Z</time>
      </trkpt>
      <trkpt lat="49.14869" lon="1.21886">
        <ele>109</ele>
        <time>2017-05-14T07:07:37Z</time>
      </trkpt>
      <trkpt lat="49.14857" lon="1.21879">
        <ele>107.9</ele>
        <time>2017-05-14T07:07:39Z</time>
      </trkpt>
      <trkpt lat="49.14847" lon="1.21873">
        <ele>107.2</ele>
        <time>2017-05-14T07:07:41Z</time>
      </trkpt>
      <trkpt lat="49.14837" lon="1.21868">
        <ele>106.9</ele>
        <time>2017-05-14T07:07:43Z</time>
      </trkpt>
      <trkpt lat="49.14829" lon="1.21864">
        <ele>106.9</ele>
        <time>2017-05-14T07:07:45Z</time>
      </trkpt>
      <trkpt lat="49.14817" lon="1.21858">
        <ele>107.1</ele>
        <time>2017-05-14T07:07:48Z</time>
      </trkpt>
      <trkpt lat="49.14806" lon="1.21854">
        <ele>107.7</ele>
        <time>2017-05-14T07:07:51Z</time>
      </trkpt>
      <trkpt lat="49.14796" lon="1.21849">
        <ele>108.5</ele>
        <time>2017-05-14T07:07:54Z</time>
      </trkpt>
      <trkpt lat="49.14786" lon="1.21845">
        <ele>109.2</ele>
        <time>2017-05-14T07:07:57Z</time>
      </trkpt>
      <trkpt lat="49.14777" lon="1.21841">
        <ele>110</ele>
        <time>2017-05-14T07:08:00Z</time>
      </trkpt>
      <trkpt lat="49.14767" lon="1.21838">
        <ele>110.7</ele>
        <time>2017-05-14T07:08:03Z</time>
      </trkpt>
      <trkpt lat="49.14759" lon="1.21835">
        <ele>111.5</ele>
        <time>2017-05-14T07:08:06Z</time>
      </trkpt>
      <trkpt lat="49.1475" lon="1.21833">
        <ele>112.3</ele>
        <time>2017-05-14T07:08:09Z</time>
      </trkpt>
      <trkpt lat="49.14738" lon="1.21831">
        <ele>113.3</ele>
        <time>2017-05-14T07:08:13Z</time>
      </trkpt>
      <trkpt lat="49.14728" lon="1.21829">
        <ele>114.4</ele>
        <time>2017-05-14T07:08:17Z</time>
      </trkpt>
      <trkpt lat="49.14718" lon="1.21827">
        <ele>115.6</ele>
        <time>2017-05-14T07:08:22Z</time>
      </trkpt>
      <trkpt lat="49.14708" lon="1.21825">
        <ele>117.3</ele>
        <time>2017-05-14T07:08:27Z</time>
      </trkpt>
      <trkpt lat="49.14699" lon="1.21823">
        <ele>119.1</ele>
        <time>2017-05-14T07:08:32Z</time>
      </trkpt>
      <trkpt lat="49.1469" lon="1.21821">
        <ele>120.3</ele>
        <time>2017-05-14T07:08:37Z</time>
      </trkpt>
      <trkpt lat="49.1468" lon="1.21818">
        <ele>121.9</ele>
        <time>2017-05-14T07:08:43Z</time>
      </trkpt>
      <trkpt lat="49.14671" lon="1.21816">
        <ele>123.7</ele>
        <time>2017-05-14T07:08:49Z</time>
      </trkpt>
      <trkpt lat="49.14662" lon="1.21811">
        <ele>125.6</ele>
        <time>2017-05-14T07:08:55Z</time>
      </trkpt>
      <trkpt lat="49.14653" lon="1.21808">
        <ele>127</ele>
        <time>2017-05-14T07:09:01Z</time>
      </trkpt>
      <trkpt lat="49.14643" lon="1.21803">
        <ele>129</ele>
        <time>2017-05-14T07:09:08Z</time>
      </trkpt>
      <trkpt lat="49.14633" lon="1.21799">
        <ele>130.9</ele>
        <time>2017-05-14T07:09:14Z</time>
      </trkpt>
      <trkpt lat="49.14623" lon="1.21793">
        <ele>132.7</ele>
        <time>2017-05-14T07:09:21Z</time>
      </trkpt>
      <trkpt lat="49.14614" lon="1.21785">
        <ele>134.6</ele>
        <time>2017-05-14T07:09:29Z</time>
      </trkpt>
      <trkpt lat="49.14606" lon="1.21778">
        <ele>136.7</ele>
        <time>2017-05-14T07:09:37Z</time>
      </trkpt>
      <trkpt lat="49.14596" lon="1.21772">
        <ele>138.2</ele>
        <time>2017-05-14T07:09:43Z</time>
      </trkpt>
      <trkpt lat="49.14587" lon="1.21768">
        <ele>139.3</ele>
        <time>2017-05-14T07:09:47Z</time>
      </trkpt>
      <trkpt lat="49.14578" lon="1.21762">
        <ele>140.3</ele>
        <time>2017-05-14T07:09:51Z</time>
      </trkpt>
      <trkpt lat="49.14569" lon="1.21755">
        <ele>141.4</ele>
        <time>2017-05-14T07:09:56Z</time>
      </trkpt>
      <trkpt lat="49.14559" lon="1.21747">
        <ele>142.5</ele>
        <time>2017-05-14T07:10:00Z</time>
      </trkpt>
      <trkpt lat="49.14552" lon="1.21737">
        <ele>143.2</ele>
        <time>2017-05-14T07:10:03Z</time>
      </trkpt>
      <trkpt lat="49.14543" lon="1.21727">
        <ele>144</ele>
        <time>2017-05-14T07:10:07Z</time>
      </trkpt>
      <trkpt lat="49.14536" lon="1.21719">
        <ele>144.4</ele>
        <time>2017-05-14T07:10:10Z</time>
      </trkpt>
      <trkpt lat="49.14528" lon="1.21706">
        <ele>144.7</ele>
        <time>2017-05-14T07:10:14Z</time>
      </trkpt>
      <trkpt lat="49.14522" lon="1.21694">
        <ele>145.1</ele>
        <time>2017-05-14T07:10:17Z</time>
      </trkpt>
      <trkpt lat="49.14516" lon="1.2168">
        <ele>145.6</ele>
        <time>2017-05-14T07:10:21Z</time>
      </trkpt>
      <trkpt lat="49.14518" lon="1.21663">
        <ele>145.8</ele>
        <time>2017-05-14T07:10:25Z</time>
      </trkpt>
      <trkpt lat="49.1452" lon="1.21647">
        <ele>145.9</ele>
        <time>2017-05-14T07:10:28Z</time>
      </trkpt>
      <trkpt lat="49.14523" lon="1.21634">
        <ele>146.2</ele>
        <time>2017-05-14T07:10:31Z</time>
      </trkpt>
      <trkpt lat="49.14525" lon="1.21619">
        <ele>146.5</ele>
        <time>2017-05-14T07:10:34Z</time>
      </trkpt>
      <trkpt lat="49.14527" lon="1.21605">
        <ele>146.8</ele>
        <time>2017-05-14T07:10:37Z</time>
      </trkpt>
      <trkpt lat="49.14528" lon="1.21591">
        <ele>147.5</ele>
        <time>2017-05-14T07:10:40Z</time>
      </trkpt>
      <trkpt lat="49.14527" lon="1.21575">
        <ele>148</ele>
        <time>2017-05-14T07:10:43Z</time>
      </trkpt>
      <trkpt lat="49.14527" lon="1.21558">
        <ele>148.7</ele>
        <time>2017-05-14T07:10:46Z</time>
      </trkpt>
      <trkpt lat="49.14527" lon="1.21541">
        <ele>148.9</ele>
        <time>2017-05-14T07:10:49Z</time>
      </trkpt>
      <trkpt lat="49.14527" lon="1.21523">
        <ele>149.1</ele>
        <time>2017-05-14T07:10:52Z</time>
      </trkpt>
      <trkpt lat="49.14526" lon="1.21506">
        <ele>149.3</ele>
        <time>2017-05-14T07:10:55Z</time>
      </trkpt>
      <trkpt lat="49.1452" lon="1.21489">
        <ele>149.3</ele>
        <time>2017-05-14T07:10:58Z</time>
      </trkpt>
      <trkpt lat="49.14513" lon="1.21473">
        <ele>149.4</ele>
        <time>2017-05-14T07:11:01Z</time>
      </trkpt>
      <trkpt lat="49.14508" lon="1.21462">
        <ele>149.6</ele>
        <time>2017-05-14T07:11:03Z</time>
      </trkpt>
      <trkpt lat="49.14501" lon="1.21447">
        <ele>149.8</ele>
        <time>2017-05-14T07:11:06Z</time>
      </trkpt>
      <trkpt lat="49.14493" lon="1.21431">
        <ele>149.9</ele>
        <time>2017-05-14T07:11:09Z</time>
      </trkpt>
      <trkpt lat="49.14485" lon="1.21416">
        <ele>150.1</ele>
        <time>2017-05-14T07:11:12Z</time>
      </trkpt>
      <trkpt lat="49.14475" lon="1.21401">
        <ele>150.3</ele>
        <time>2017-05-14T07:11:15Z</time>
      </trkpt>
      <trkpt lat="49.14468" lon="1.21393">
        <ele>150.5</ele>
        <time>2017-05-14T07:11:17Z</time>
      </trkpt>
      <trkpt lat="49.1446" lon="1.21385">
        <ele>150.6</ele>
        <time>2017-05-14T07:11:19Z</time>
      </trkpt>
      <trkpt lat="49.14451" lon="1.2138">
        <ele>150.7</ele>
        <time>2017-05-14T07:11:21Z</time>
      </trkpt>
      <trkpt lat="49.14442" lon="1.21377">
        <ele>150.8</ele>
        <time>2017-05-14T07:11:23Z</time>
      </trkpt>
      <trkpt lat="49.14433" lon="1.21373">
        <ele>150.8</ele>
        <time>2017-05-14T07:11:25Z</time>
      </trkpt>
      <trkpt lat="49.14423" lon="1.21368">
        <ele>151</ele>
        <time>2017-05-14T07:11:27Z</time>
      </trkpt>
      <trkpt lat="49.14414" lon="1.21361">
        <ele>151.2</ele>
        <time>2017-05-14T07:11:29Z</time>
      </trkpt>
      <trkpt lat="49.14406" lon="1.21353">
        <ele>151.2</ele>
        <time>2017-05-14T07:11:31Z</time>
      </trkpt>
      <trkpt lat="49.14398" lon="1.21344">
        <ele>151.3</ele>
        <time>2017-05-14T07:11:33Z</time>
      </trkpt>
      <trkpt lat="49.1439" lon="1.21334">
        <ele>151.3</ele>
        <time>2017-05-14T07:11:35Z</time>
      </trkpt>
      <trkpt lat="49.14384" lon="1.21324">
        <ele>151.3</ele>
        <time>2017-05-14T07:11:37Z</time>
      </trkpt>
      <trkpt lat="49.14378" lon="1.21312">
        <ele>151.4</ele>
        <time>2017-05-14T07:11:39Z</time>
      </trkpt>
      <trkpt lat="49.14371" lon="1.21299">
        <ele>151.6</ele>
        <time>2017-05-14T07:11:41Z</time>
      </trkpt>
      <trkpt lat="49.14365" lon="1.21287">
        <ele>151.8</ele>
        <time>2017-05-14T07:11:43Z</time>
      </trkpt>
      <trkpt lat="49.14359" lon="1.21277">
        <ele>151.8</ele>
        <time>2017-05-14T07:11:45Z</time>
      </trkpt>
      <trkpt lat="49.14353" lon="1.21261">
        <ele>151.7</ele>
        <time>2017-05-14T07:11:48Z</time>
      </trkpt>
      <trkpt lat="49.14349" lon="1.21242">
        <ele>151.7</ele>
        <time>2017-05-14T07:11:51Z</time>
      </trkpt>
      <trkpt lat="49.14346" lon="1.21228">
        <ele>151.6</ele>
        <time>2017-05-14T07:11:53Z</time>
      </trkpt>
      <trkpt lat="49.14345" lon="1.21213">
        <ele>151.7</ele>
        <time>2017-05-14T07:11:55Z</time>
      </trkpt>
      <trkpt lat="49.14345" lon="1.21197">
        <ele>151.7</ele>
        <time>2017-05-14T07:11:57Z</time>
      </trkpt>
      <trkpt lat="49.14345" lon="1.21182">
        <ele>151.6</ele>
        <time>2017-05-14T07:11:59Z</time>
      </trkpt>
      <trkpt lat="49.14347" lon="1.21164">
        <ele>151.5</ele>
        <time>2017-05-14T07:12:02Z</time>
      </trkpt>
      <trkpt lat="49.14352" lon="1.21151">
        <ele>151.3</ele>
        <time>2017-05-14T07:12:05Z</time>
      </trkpt>
      <trkpt lat="49.14357" lon="1.21135">
        <ele>151</ele>
        <time>2017-05-14T07:12:08Z</time>
      </trkpt>
      <trkpt lat="49.14364" lon="1.21126">
        <ele>151.1</ele>
        <time>2017-05-14T07:12:10Z</time>
      </trkpt>
      <trkpt lat="49.14371" lon="1.21116">
        <ele>150.9</ele>
        <time>2017-05-14T07:12:12Z</time>
      </trkpt>
      <trkpt lat="49.14377" lon="1.21106">
        <ele>150.8</ele>
        <time>2017-05-14T07:12:14Z</time>
      </trkpt>
      <trkpt lat="49.14385" lon="1.21095">
        <ele>150.7</ele>
        <time>2017-05-14T07:12:16Z</time>
      </trkpt>
      <trkpt lat="49.14395" lon="1.21078">
        <ele>150.4</ele>
        <time>2017-05-14T07:12:19Z</time>
      </trkpt>
      <trkpt lat="49.14401" lon="1.21067">
        <ele>149.9</ele>
        <time>2017-05-14T07:12:21Z</time>
      </trkpt>
      <trkpt lat="49.14415" lon="1.21051">
        <ele>149.6</ele>
        <time>2017-05-14T07:12:24Z</time>
      </trkpt>
      <trkpt lat="49.14424" lon="1.21039">
        <ele>149.3</ele>
        <time>2017-05-14T07:12:26Z</time>
      </trkpt>
      <trkpt lat="49.14434" lon="1.21026">
        <ele>148.9</ele>
        <time>2017-05-14T07:12:28Z</time>
      </trkpt>
      <trkpt lat="49.14445" lon="1.21016">
        <ele>148.7</ele>
        <time>2017-05-14T07:12:30Z</time>
      </trkpt>
      <trkpt lat="49.14454" lon="1.21006">
        <ele>148.6</ele>
        <time>2017-05-14T07:12:32Z</time>
      </trkpt>
      <trkpt lat="49.14462" lon="1.20998">
        <ele>148.6</ele>
        <time>2017-05-14T07:12:34Z</time>
      </trkpt>
      <trkpt lat="49.14471" lon="1.20989">
        <ele>148.5</ele>
        <time>2017-05-14T07:12:36Z</time>
      </trkpt>
      <trkpt lat="49.14481" lon="1.20978">
        <ele>148.6</ele>
        <time>2017-05-14T07:12:38Z</time>
      </trkpt>
      <trkpt lat="49.14489" lon="1.20968">
        <ele>148.5</ele>
        <time>2017-05-14T07:12:40Z</time>
      </trkpt>
      <trkpt lat="49.14497" lon="1.20957">
        <ele>148.4</ele>
        <time>2017-05-14T07:12:42Z</time>
      </trkpt>
      <trkpt lat="49.14507" lon="1.20951">
        <ele>148.4</ele>
        <time>2017-05-14T07:12:44Z</time>
      </trkpt>
      <trkpt lat="49.1452" lon="1.20945">
        <ele>148.3</ele>
        <time>2017-05-14T07:12:46Z</time>
      </trkpt>
      <trkpt lat="49.14528" lon="1.20936">
        <ele>148.3</ele>
        <time>2017-05-14T07:12:48Z</time>
      </trkpt>
      <trkpt lat="49.14537" lon="1.20923">
        <ele>148.2</ele>
        <time>2017-05-14T07:12:50Z</time>
      </trkpt>
      <trkpt lat="49.14544" lon="1.20911">
        <ele>147.9</ele>
        <time>2017-05-14T07:12:52Z</time>
      </trkpt>
      <trkpt lat="49.14552" lon="1.20894">
        <ele>148.1</ele>
        <time>2017-05-14T07:12:55Z</time>
      </trkpt>
      <trkpt lat="49.14556" lon="1.2088">
        <ele>148</ele>
        <time>2017-05-14T07:12:57Z</time>
      </trkpt>
      <trkpt lat="49.14559" lon="1.20866">
        <ele>148</ele>
        <time>2017-05-14T07:12:59Z</time>
      </trkpt>
      <trkpt lat="49.14562" lon="1.20852">
        <ele>147.9</ele>
        <time>2017-05-14T07:13:01Z</time>
      </trkpt>
      <trkpt lat="49.14564" lon="1.20834">
        <ele>147.6</ele>
        <time>2017-05-14T07:13:03Z</time>
      </trkpt>
      <trkpt lat="49.14567" lon="1.20818">
        <ele>147.4</ele>
        <time>2017-05-14T07:13:05Z</time>
      </trkpt>
      <trkpt lat="49.14571" lon="1.20801">
        <ele>147.5</ele>
        <time>2017-05-14T07:13:07Z</time>
      </trkpt>
      <trkpt lat="49.14573" lon="1.20786">
        <ele>147.3</ele>
        <time>2017-05-14T07:13:09Z</time>
      </trkpt>
      <trkpt lat="49.14575" lon="1.20771">
        <ele>147.2</ele>
        <time>2017-05-14T07:13:11Z</time>
      </trkpt>
      <trkpt lat="49.14575" lon="1.20754">
        <ele>147</ele>
        <time>2017-05-14T07:13:13Z</time>
      </trkpt>
      <trkpt lat="49.14575" lon="1.20736">
        <ele>146.8</ele>
        <time>2017-05-14T07:13:15Z</time>
      </trkpt>
      <trkpt lat="49.14574" lon="1.20717">
        <ele>146.3</ele>
        <time>2017-05-14T07:13:17Z</time>
      </trkpt>
      <trkpt lat="49.14574" lon="1.20696">
        <ele>145.7</ele>
        <time>2017-05-14T07:13:19Z</time>
      </trkpt>
      <trkpt lat="49.14574" lon="1.20675">
        <ele>145.2</ele>
        <time>2017-05-14T07:13:21Z</time>
      </trkpt>
      <trkpt lat="49.14575" lon="1.20656">
        <ele>144.7</ele>
        <time>2017-05-14T07:13:23Z</time>
      </trkpt>
      <trkpt lat="49.14576" lon="1.20638">
        <ele>144.3</ele>
        <time>2017-05-14T07:13:25Z</time>
      </trkpt>
      <trkpt lat="49.14577" lon="1.20621">
        <ele>144.3</ele>
        <time>2017-05-14T07:13:27Z</time>
      </trkpt>
      <trkpt lat="49.14579" lon="1.20606">
        <ele>144.5</ele>
        <time>2017-05-14T07:13:29Z</time>
      </trkpt>
      <trkpt lat="49.14581" lon="1.20592">
        <ele>144.8</ele>
        <time>2017-05-14T07:13:31Z</time>
      </trkpt>
      <trkpt lat="49.14585" lon="1.20575">
        <ele>145.2</ele>
        <time>2017-05-14T07:13:33Z</time>
      </trkpt>
      <trkpt lat="49.14589" lon="1.2056">
        <ele>145.6</ele>
        <time>2017-05-14T07:13:35Z</time>
      </trkpt>
      <trkpt lat="49.14596" lon="1.20547">
        <ele>146</ele>
        <time>2017-05-14T07:13:37Z</time>
      </trkpt>
      <trkpt lat="49.14604" lon="1.20535">
        <ele>146.2</ele>
        <time>2017-05-14T07:13:39Z</time>
      </trkpt>
      <trkpt lat="49.14612" lon="1.20521">
        <ele>146.3</ele>
        <time>2017-05-14T07:13:41Z</time>
      </trkpt>
      <trkpt lat="49.14618" lon="1.2051">
        <ele>146.5</ele>
        <time>2017-05-14T07:13:43Z</time>
      </trkpt>
      <trkpt lat="49.14625" lon="1.20496">
        <ele>146.7</ele>
        <time>2017-05-14T07:13:45Z</time>
      </trkpt>
      <trkpt lat="49.14631" lon="1.20483">
        <ele>146.7</ele>
        <time>2017-05-14T07:13:47Z</time>
      </trkpt>
      <trkpt lat="49.14636" lon="1.20468">
        <ele>146.8</ele>
        <time>2017-05-14T07:13:49Z</time>
      </trkpt>
      <trkpt lat="49.14639" lon="1.20453">
        <ele>147.1</ele>
        <time>2017-05-14T07:13:51Z</time>
      </trkpt>
      <trkpt lat="49.14642" lon="1.2044">
        <ele>147.4</ele>
        <time>2017-05-14T07:13:53Z</time>
      </trkpt>
      <trkpt lat="49.14645" lon="1.20425">
        <ele>147.5</ele>
        <time>2017-05-14T07:13:55Z</time>
      </trkpt>
      <trkpt lat="49.14647" lon="1.20405">
        <ele>147.7</ele>
        <time>2017-05-14T07:13:58Z</time>
      </trkpt>
      <trkpt lat="49.14651" lon="1.20392">
        <ele>147.8</ele>
        <time>2017-05-14T07:14:00Z</time>
      </trkpt>
      <trkpt lat="49.14656" lon="1.20374">
        <ele>148.1</ele>
        <time>2017-05-14T07:14:03Z</time>
      </trkpt>
      <trkpt lat="49.14661" lon="1.20357">
        <ele>148.4</ele>
        <time>2017-05-14T07:14:06Z</time>
      </trkpt>
      <trkpt lat="49.14667" lon="1.20343">
        <ele>148.5</ele>
        <time>2017-05-14T07:14:08Z</time>
      </trkpt>
      <trkpt lat="49.14672" lon="1.20328">
        <ele>148.7</ele>
        <time>2017-05-14T07:14:11Z</time>
      </trkpt>
      <trkpt lat="49.14679" lon="1.20314">
        <ele>149</ele>
        <time>2017-05-14T07:14:14Z</time>
      </trkpt>
      <trkpt lat="49.14686" lon="1.20296">
        <ele>149.2</ele>
        <time>2017-05-14T07:14:17Z</time>
      </trkpt>
      <trkpt lat="49.14694" lon="1.20286">
        <ele>149.2</ele>
        <time>2017-05-14T07:14:19Z</time>
      </trkpt>
      <trkpt lat="49.147" lon="1.20275">
        <ele>149.3</ele>
        <time>2017-05-14T07:14:21Z</time>
      </trkpt>
      <trkpt lat="49.14706" lon="1.20265">
        <ele>149.1</ele>
        <time>2017-05-14T07:14:23Z</time>
      </trkpt>
      <trkpt lat="49.14713" lon="1.20254">
        <ele>149</ele>
        <time>2017-05-14T07:14:25Z</time>
      </trkpt>
      <trkpt lat="49.14723" lon="1.20237">
        <ele>148.7</ele>
        <time>2017-05-14T07:14:28Z</time>
      </trkpt>
      <trkpt lat="49.1473" lon="1.20226">
        <ele>148.6</ele>
        <time>2017-05-14T07:14:30Z</time>
      </trkpt>
      <trkpt lat="49.14738" lon="1.20214">
        <ele>148.5</ele>
        <time>2017-05-14T07:14:32Z</time>
      </trkpt>
      <trkpt lat="49.14748" lon="1.20198">
        <ele>148.1</ele>
        <time>2017-05-14T07:14:35Z</time>
      </trkpt>
      <trkpt lat="49.14756" lon="1.20186">
        <ele>147.9</ele>
        <time>2017-05-14T07:14:37Z</time>
      </trkpt>
      <trkpt lat="49.14766" lon="1.20171">
        <ele>147.4</ele>
        <time>2017-05-14T07:14:40Z</time>
      </trkpt>
      <trkpt lat="49.14773" lon="1.20162">
        <ele>147</ele>
        <time>2017-05-14T07:14:42Z</time>
      </trkpt>
      <trkpt lat="49.14782" lon="1.20146">
        <ele>146.2</ele>
        <time>2017-05-14T07:14:45Z</time>
      </trkpt>
      <trkpt lat="49.14791" lon="1.20133">
        <ele>145.7</ele>
        <time>2017-05-14T07:14:47Z</time>
      </trkpt>
      <trkpt lat="49.148" lon="1.20117">
        <ele>144.8</ele>
        <time>2017-05-14T07:14:49Z</time>
      </trkpt>
      <trkpt lat="49.14809" lon="1.20101">
        <ele>144.3</ele>
        <time>2017-05-14T07:14:51Z</time>
      </trkpt>
      <trkpt lat="49.14818" lon="1.20086">
        <ele>143.8</ele>
        <time>2017-05-14T07:14:53Z</time>
      </trkpt>
      <trkpt lat="49.14828" lon="1.20072">
        <ele>143.2</ele>
        <time>2017-05-14T07:14:55Z</time>
      </trkpt>
      <trkpt lat="49.14841" lon="1.2006">
        <ele>142.8</ele>
        <time>2017-05-14T07:14:57Z</time>
      </trkpt>
      <trkpt lat="49.14852" lon="1.20048">
        <ele>142.3</ele>
        <time>2017-05-14T07:14:59Z</time>
      </trkpt>
      <trkpt lat="49.14862" lon="1.20038">
        <ele>141.9</ele>
        <time>2017-05-14T07:15:01Z</time>
      </trkpt>
      <trkpt lat="49.14873" lon="1.2003">
        <ele>141.7</ele>
        <time>2017-05-14T07:15:03Z</time>
      </trkpt>
      <trkpt lat="49.14883" lon="1.20021">
        <ele>141.6</ele>
        <time>2017-05-14T07:15:05Z</time>
      </trkpt>
      <trkpt lat="49.14891" lon="1.20013">
        <ele>141.5</ele>
        <time>2017-05-14T07:15:07Z</time>
      </trkpt>
      <trkpt lat="49.14899" lon="1.20005">
        <ele>141.5</ele>
        <time>2017-05-14T07:15:09Z</time>
      </trkpt>
      <trkpt lat="49.1491" lon="1.19995">
        <ele>141.8</ele>
        <time>2017-05-14T07:15:11Z</time>
      </trkpt>
      <trkpt lat="49.14918" lon="1.19988">
        <ele>141.8</ele>
        <time>2017-05-14T07:15:13Z</time>
      </trkpt>
      <trkpt lat="49.1493" lon="1.19977">
        <ele>142</ele>
        <time>2017-05-14T07:15:16Z</time>
      </trkpt>
      <trkpt lat="49.14942" lon="1.19966">
        <ele>142.2</ele>
        <time>2017-05-14T07:15:19Z</time>
      </trkpt>
      <trkpt lat="49.14952" lon="1.19957">
        <ele>142.1</ele>
        <time>2017-05-14T07:15:21Z</time>
      </trkpt>
      <trkpt lat="49.14965" lon="1.19946">
        <ele>142.1</ele>
        <time>2017-05-14T07:15:24Z</time>
      </trkpt>
      <trkpt lat="49.14975" lon="1.19937">
        <ele>142</ele>
        <time>2017-05-14T07:15:26Z</time>
      </trkpt>
      <trkpt lat="49.14985" lon="1.19929">
        <ele>142.2</ele>
        <time>2017-05-14T07:15:28Z</time>
      </trkpt>
      <trkpt lat="49.14995" lon="1.19921">
        <ele>142.3</ele>
        <time>2017-05-14T07:15:30Z</time>
      </trkpt>
      <trkpt lat="49.15004" lon="1.19914">
        <ele>142.4</ele>
        <time>2017-05-14T07:15:32Z</time>
      </trkpt>
      <trkpt lat="49.15013" lon="1.19906">
        <ele>142.6</ele>
        <time>2017-05-14T07:15:34Z</time>
      </trkpt>
      <trkpt lat="49.15021" lon="1.19899">
        <ele>142.8</ele>
        <time>2017-05-14T07:15:36Z</time>
      </trkpt>
      <trkpt lat="49.15028" lon="1.1989">
        <ele>143</ele>
        <time>2017-05-14T07:15:38Z</time>
      </trkpt>
      <trkpt lat="49.15036" lon="1.19883">
        <ele>143.2</ele>
        <time>2017-05-14T07:15:40Z</time>
      </trkpt>
      <trkpt lat="49.15046" lon="1.19875">
        <ele>143.1</ele>
        <time>2017-05-14T07:15:42Z</time>
      </trkpt>
      <trkpt lat="49.15055" lon="1.19866">
        <ele>143.2</ele>
        <time>2017-05-14T07:15:44Z</time>
      </trkpt>
      <trkpt lat="49.15067" lon="1.1986">
        <ele>143.2</ele>
        <time>2017-05-14T07:15:47Z</time>
      </trkpt>
      <trkpt lat="49.15076" lon="1.19857">
        <ele>143.3</ele>
        <time>2017-05-14T07:15:49Z</time>
      </trkpt>
      <trkpt lat="49.15085" lon="1.19853">
        <ele>143.2</ele>
        <time>2017-05-14T07:15:51Z</time>
      </trkpt>
      <trkpt lat="49.15096" lon="1.19848">
        <ele>143.5</ele>
        <time>2017-05-14T07:15:54Z</time>
      </trkpt>
      <trkpt lat="49.15104" lon="1.19839">
        <ele>143.6</ele>
        <time>2017-05-14T07:15:56Z</time>
      </trkpt>
      <trkpt lat="49.15113" lon="1.1983">
        <ele>143.9</ele>
        <time>2017-05-14T07:15:58Z</time>
      </trkpt>
      <trkpt lat="49.15122" lon="1.19822">
        <ele>144.1</ele>
        <time>2017-05-14T07:16:00Z</time>
      </trkpt>
      <trkpt lat="49.15131" lon="1.19815">
        <ele>144.4</ele>
        <time>2017-05-14T07:16:02Z</time>
      </trkpt>
      <trkpt lat="49.1514" lon="1.1981">
        <ele>144.8</ele>
        <time>2017-05-14T07:16:04Z</time>
      </trkpt>
      <trkpt lat="49.1515" lon="1.19805">
        <ele>145.1</ele>
        <time>2017-05-14T07:16:06Z</time>
      </trkpt>
      <trkpt lat="49.15162" lon="1.19799">
        <ele>145.6</ele>
        <time>2017-05-14T07:16:09Z</time>
      </trkpt>
      <trkpt lat="49.1517" lon="1.19795">
        <ele>146</ele>
        <time>2017-05-14T07:16:11Z</time>
      </trkpt>
      <trkpt lat="49.15183" lon="1.19791">
        <ele>146.1</ele>
        <time>2017-05-14T07:16:14Z</time>
      </trkpt>
      <trkpt lat="49.15194" lon="1.19787">
        <ele>146.2</ele>
        <time>2017-05-14T07:16:16Z</time>
      </trkpt>
      <trkpt lat="49.15204" lon="1.19786">
        <ele>146.3</ele>
        <time>2017-05-14T07:16:18Z</time>
      </trkpt>
      <trkpt lat="49.15218" lon="1.19788">
        <ele>146.2</ele>
        <time>2017-05-14T07:16:21Z</time>
      </trkpt>
      <trkpt lat="49.15229" lon="1.19788">
        <ele>146.3</ele>
        <time>2017-05-14T07:16:23Z</time>
      </trkpt>
      <trkpt lat="49.1524" lon="1.19788">
        <ele>146.4</ele>
        <time>2017-05-14T07:16:25Z</time>
      </trkpt>
      <trkpt lat="49.15252" lon="1.19789">
        <ele>146.4</ele>
        <time>2017-05-14T07:16:27Z</time>
      </trkpt>
      <trkpt lat="49.15263" lon="1.19789">
        <ele>146.5</ele>
        <time>2017-05-14T07:16:29Z</time>
      </trkpt>
      <trkpt lat="49.15274" lon="1.19788">
        <ele>146.5</ele>
        <time>2017-05-14T07:16:31Z</time>
      </trkpt>
      <trkpt lat="49.15284" lon="1.19786">
        <ele>146.5</ele>
        <time>2017-05-14T07:16:33Z</time>
      </trkpt>
      <trkpt lat="49.15293" lon="1.19783">
        <ele>146.4</ele>
        <time>2017-05-14T07:16:35Z</time>
      </trkpt>
      <trkpt lat="49.15304" lon="1.19779">
        <ele>146.3</ele>
        <time>2017-05-14T07:16:37Z</time>
      </trkpt>
      <trkpt lat="49.15314" lon="1.19776">
        <ele>146.2</ele>
        <time>2017-05-14T07:16:39Z</time>
      </trkpt>
      <trkpt lat="49.15325" lon="1.1977">
        <ele>146.1</ele>
        <time>2017-05-14T07:16:41Z</time>
      </trkpt>
      <trkpt lat="49.15335" lon="1.19765">
        <ele>146.1</ele>
        <time>2017-05-14T07:16:43Z</time>
      </trkpt>
      <trkpt lat="49.15344" lon="1.1976">
        <ele>146</ele>
        <time>2017-05-14T07:16:45Z</time>
      </trkpt>
      <trkpt lat="49.15356" lon="1.19755">
        <ele>145.8</ele>
        <time>2017-05-14T07:16:47Z</time>
      </trkpt>
      <trkpt lat="49.15367" lon="1.1975">
        <ele>145.5</ele>
        <time>2017-05-14T07:16:49Z</time>
      </trkpt>
      <trkpt lat="49.15377" lon="1.19747">
        <ele>145.3</ele>
        <time>2017-05-14T07:16:51Z</time>
      </trkpt>
      <trkpt lat="49.15389" lon="1.19744">
        <ele>145</ele>
        <time>2017-05-14T07:16:53Z</time>
      </trkpt>
      <trkpt lat="49.15403" lon="1.19742">
        <ele>144.6</ele>
        <time>2017-05-14T07:16:55Z</time>
      </trkpt>
      <trkpt lat="49.15417" lon="1.19741">
        <ele>144.3</ele>
        <time>2017-05-14T07:16:57Z</time>
      </trkpt>
      <trkpt lat="49.15428" lon="1.19739">
        <ele>144.1</ele>
        <time>2017-05-14T07:16:59Z</time>
      </trkpt>
      <trkpt lat="49.15439" lon="1.19734">
        <ele>143.9</ele>
        <time>2017-05-14T07:17:01Z</time>
      </trkpt>
      <trkpt lat="49.15452" lon="1.19726">
        <ele>143.6</ele>
        <time>2017-05-14T07:17:03Z</time>
      </trkpt>
      <trkpt lat="49.15464" lon="1.19719">
        <ele>143.2</ele>
        <time>2017-05-14T07:17:05Z</time>
      </trkpt>
      <trkpt lat="49.15479" lon="1.19717">
        <ele>142.6</ele>
        <time>2017-05-14T07:17:07Z</time>
      </trkpt>
      <trkpt lat="49.15492" lon="1.19715">
        <ele>142</ele>
        <time>2017-05-14T07:17:09Z</time>
      </trkpt>
      <trkpt lat="49.15505" lon="1.19712">
        <ele>141.6</ele>
        <time>2017-05-14T07:17:11Z</time>
      </trkpt>
      <trkpt lat="49.15519" lon="1.19708">
        <ele>141.1</ele>
        <time>2017-05-14T07:17:13Z</time>
      </trkpt>
      <trkpt lat="49.15532" lon="1.19702">
        <ele>140.5</ele>
        <time>2017-05-14T07:17:15Z</time>
      </trkpt>
      <trkpt lat="49.15545" lon="1.1969">
        <ele>139.8</ele>
        <time>2017-05-14T07:17:17Z</time>
      </trkpt>
      <trkpt lat="49.15558" lon="1.19678">
        <ele>139.2</ele>
        <time>2017-05-14T07:17:19Z</time>
      </trkpt>
      <trkpt lat="49.15572" lon="1.19667">
        <ele>138.5</ele>
        <time>2017-05-14T07:17:21Z</time>
      </trkpt>
      <trkpt lat="49.15585" lon="1.19663">
        <ele>137.7</ele>
        <time>2017-05-14T07:17:23Z</time>
      </trkpt>
      <trkpt lat="49.15598" lon="1.19659">
        <ele>136.8</ele>
        <time>2017-05-14T07:17:25Z</time>
      </trkpt>
      <trkpt lat="49.1561" lon="1.19657">
        <ele>135.7</ele>
        <time>2017-05-14T07:17:27Z</time>
      </trkpt>
      <trkpt lat="49.15619" lon="1.19663">
        <ele>134.7</ele>
        <time>2017-05-14T07:17:29Z</time>
      </trkpt>
      <trkpt lat="49.15627" lon="1.19678">
        <ele>133.7</ele>
        <time>2017-05-14T07:17:31Z</time>
      </trkpt>
      <trkpt lat="49.15628" lon="1.19698">
        <ele>132.6</ele>
        <time>2017-05-14T07:17:34Z</time>
      </trkpt>
      <trkpt lat="49.15627" lon="1.19716">
        <ele>131.9</ele>
        <time>2017-05-14T07:17:37Z</time>
      </trkpt>
      <trkpt lat="49.15625" lon="1.19737">
        <ele>131.6</ele>
        <time>2017-05-14T07:17:40Z</time>
      </trkpt>
      <trkpt lat="49.15619" lon="1.19749">
        <ele>131.6</ele>
        <time>2017-05-14T07:17:42Z</time>
      </trkpt>
      <trkpt lat="49.15615" lon="1.19764">
        <ele>131.5</ele>
        <time>2017-05-14T07:17:44Z</time>
      </trkpt>
      <trkpt lat="49.15613" lon="1.19777">
        <ele>131.2</ele>
        <time>2017-05-14T07:17:46Z</time>
      </trkpt>
      <trkpt lat="49.15608" lon="1.19795">
        <ele>130.8</ele>
        <time>2017-05-14T07:17:48Z</time>
      </trkpt>
      <trkpt lat="49.15602" lon="1.19814">
        <ele>130.3</ele>
        <time>2017-05-14T07:17:50Z</time>
      </trkpt>
      <trkpt lat="49.15598" lon="1.1983">
        <ele>129.9</ele>
        <time>2017-05-14T07:17:52Z</time>
      </trkpt>
      <trkpt lat="49.1559" lon="1.19846">
        <ele>129.7</ele>
        <time>2017-05-14T07:17:54Z</time>
      </trkpt>
      <trkpt lat="49.15582" lon="1.1986">
        <ele>129.2</ele>
        <time>2017-05-14T07:17:56Z</time>
      </trkpt>
      <trkpt lat="49.15574" lon="1.19872">
        <ele>128.9</ele>
        <time>2017-05-14T07:17:58Z</time>
      </trkpt>
      <trkpt lat="49.15563" lon="1.19881">
        <ele>128.9</ele>
        <time>2017-05-14T07:18:00Z</time>
      </trkpt>
      <trkpt lat="49.15553" lon="1.19889">
        <ele>129.1</ele>
        <time>2017-05-14T07:18:02Z</time>
      </trkpt>
      <trkpt lat="49.15545" lon="1.19899">
        <ele>129.3</ele>
        <time>2017-05-14T07:18:04Z</time>
      </trkpt>
      <trkpt lat="49.15538" lon="1.19911">
        <ele>129.2</ele>
        <time>2017-05-14T07:18:06Z</time>
      </trkpt>
      <trkpt lat="49.15534" lon="1.19929">
        <ele>128.7</ele>
        <time>2017-05-14T07:18:08Z</time>
      </trkpt>
      <trkpt lat="49.15529" lon="1.19954">
        <ele>127.5</ele>
        <time>2017-05-14T07:18:10Z</time>
      </trkpt>
      <trkpt lat="49.15525" lon="1.19981">
        <ele>126.3</ele>
        <time>2017-05-14T07:18:12Z</time>
      </trkpt>
      <trkpt lat="49.15528" lon="1.20004">
        <ele>125.2</ele>
        <time>2017-05-14T07:18:14Z</time>
      </trkpt>
      <trkpt lat="49.15527" lon="1.20024">
        <ele>124.1</ele>
        <time>2017-05-14T07:18:16Z</time>
      </trkpt>
      <trkpt lat="49.15528" lon="1.20039">
        <ele>123.5</ele>
        <time>2017-05-14T07:18:18Z</time>
      </trkpt>
      <trkpt lat="49.1553" lon="1.20052">
        <ele>122.9</ele>
        <time>2017-05-14T07:18:20Z</time>
      </trkpt>
      <trkpt lat="49.15531" lon="1.20069">
        <ele>122.2</ele>
        <time>2017-05-14T07:18:22Z</time>
      </trkpt>
      <trkpt lat="49.15533" lon="1.20086">
        <ele>121.1</ele>
        <time>2017-05-14T07:18:24Z</time>
      </trkpt>
      <trkpt lat="49.15539" lon="1.20101">
        <ele>119.5</ele>
        <time>2017-05-14T07:18:26Z</time>
      </trkpt>
      <trkpt lat="49.15542" lon="1.20117">
        <ele>118.2</ele>
        <time>2017-05-14T07:18:28Z</time>
      </trkpt>
      <trkpt lat="49.15542" lon="1.20133">
        <ele>116.8</ele>
        <time>2017-05-14T07:18:30Z</time>
      </trkpt>
      <trkpt lat="49.15551" lon="1.20144">
        <ele>114.6</ele>
        <time>2017-05-14T07:18:33Z</time>
      </trkpt>
      <trkpt lat="49.15561" lon="1.20143">
        <ele>112.9</ele>
        <time>2017-05-14T07:18:35Z</time>
      </trkpt>
      <trkpt lat="49.15578" lon="1.20138">
        <ele>111.2</ele>
        <time>2017-05-14T07:18:37Z</time>
      </trkpt>
      <trkpt lat="49.15589" lon="1.20127">
        <ele>109.4</ele>
        <time>2017-05-14T07:18:39Z</time>
      </trkpt>
      <trkpt lat="49.15596" lon="1.20111">
        <ele>107.6</ele>
        <time>2017-05-14T07:18:41Z</time>
      </trkpt>
      <trkpt lat="49.15601" lon="1.20092">
        <ele>105.9</ele>
        <time>2017-05-14T07:18:43Z</time>
      </trkpt>
      <trkpt lat="49.15606" lon="1.20073">
        <ele>103.6</ele>
        <time>2017-05-14T07:18:45Z</time>
      </trkpt>
      <trkpt lat="49.15615" lon="1.20061">
        <ele>101.9</ele>
        <time>2017-05-14T07:18:47Z</time>
      </trkpt>
      <trkpt lat="49.15624" lon="1.20056">
        <ele>100.4</ele>
        <time>2017-05-14T07:18:49Z</time>
      </trkpt>
      <trkpt lat="49.15634" lon="1.20051">
        <ele>99.3</ele>
        <time>2017-05-14T07:18:51Z</time>
      </trkpt>
      <trkpt lat="49.15645" lon="1.20045">
        <ele>98.2</ele>
        <time>2017-05-14T07:18:53Z</time>
      </trkpt>
      <trkpt lat="49.15652" lon="1.20035">
        <ele>97.3</ele>
        <time>2017-05-14T07:18:55Z</time>
      </trkpt>
      <trkpt lat="49.15658" lon="1.20022">
        <ele>96.6</ele>
        <time>2017-05-14T07:18:57Z</time>
      </trkpt>
      <trkpt lat="49.15665" lon="1.20007">
        <ele>96.1</ele>
        <time>2017-05-14T07:18:59Z</time>
      </trkpt>
      <trkpt lat="49.15669" lon="1.19992">
        <ele>95.7</ele>
        <time>2017-05-14T07:19:01Z</time>
      </trkpt>
      <trkpt lat="49.15675" lon="1.19976">
        <ele>95</ele>
        <time>2017-05-14T07:19:03Z</time>
      </trkpt>
      <trkpt lat="49.15684" lon="1.1996">
        <ele>93.5</ele>
        <time>2017-05-14T07:19:06Z</time>
      </trkpt>
      <trkpt lat="49.15693" lon="1.19948">
        <ele>92.6</ele>
        <time>2017-05-14T07:19:08Z</time>
      </trkpt>
      <trkpt lat="49.157" lon="1.19935">
        <ele>92</ele>
        <time>2017-05-14T07:19:10Z</time>
      </trkpt>
      <trkpt lat="49.1571" lon="1.1992">
        <ele>91</ele>
        <time>2017-05-14T07:19:12Z</time>
      </trkpt>
      <trkpt lat="49.15723" lon="1.19905">
        <ele>89.9</ele>
        <time>2017-05-14T07:19:14Z</time>
      </trkpt>
      <trkpt lat="49.15738" lon="1.19887">
        <ele>88.6</ele>
        <time>2017-05-14T07:19:16Z</time>
      </trkpt>
      <trkpt lat="49.1575" lon="1.19871">
        <ele>87.4</ele>
        <time>2017-05-14T07:19:18Z</time>
      </trkpt>
      <trkpt lat="49.15766" lon="1.19857">
        <ele>85.8</ele>
        <time>2017-05-14T07:19:20Z</time>
      </trkpt>
      <trkpt lat="49.15776" lon="1.19851">
        <ele>85.1</ele>
        <time>2017-05-14T07:19:21Z</time>
      </trkpt>
      <trkpt lat="49.15786" lon="1.19847">
        <ele>84.4</ele>
        <time>2017-05-14T07:19:22Z</time>
      </trkpt>
      <trkpt lat="49.15802" lon="1.19845">
        <ele>82.6</ele>
        <time>2017-05-14T07:19:24Z</time>
      </trkpt>
      <trkpt lat="49.15819" lon="1.19849">
        <ele>80.9</ele>
        <time>2017-05-14T07:19:26Z</time>
      </trkpt>
      <trkpt lat="49.15829" lon="1.1985">
        <ele>80</ele>
        <time>2017-05-14T07:19:27Z</time>
      </trkpt>
      <trkpt lat="49.15839" lon="1.1985">
        <ele>78.9</ele>
        <time>2017-05-14T07:19:28Z</time>
      </trkpt>
      <trkpt lat="49.15849" lon="1.19853">
        <ele>77.9</ele>
        <time>2017-05-14T07:19:29Z</time>
      </trkpt>
      <trkpt lat="49.1586" lon="1.19853">
        <ele>76.1</ele>
        <time>2017-05-14T07:19:30Z</time>
      </trkpt>
      <trkpt lat="49.15871" lon="1.19852">
        <ele>75</ele>
        <time>2017-05-14T07:19:31Z</time>
      </trkpt>
      <trkpt lat="49.15881" lon="1.19851">
        <ele>74.1</ele>
        <time>2017-05-14T07:19:32Z</time>
      </trkpt>
      <trkpt lat="49.15892" lon="1.19849">
        <ele>73.1</ele>
        <time>2017-05-14T07:19:33Z</time>
      </trkpt>
      <trkpt lat="49.15902" lon="1.19847">
        <ele>72.3</ele>
        <time>2017-05-14T07:19:34Z</time>
      </trkpt>
      <trkpt lat="49.15912" lon="1.19846">
        <ele>71.7</ele>
        <time>2017-05-14T07:19:35Z</time>
      </trkpt>
      <trkpt lat="49.15929" lon="1.19846">
        <ele>70.8</ele>
        <time>2017-05-14T07:19:37Z</time>
      </trkpt>
      <trkpt lat="49.15938" lon="1.19846">
        <ele>69.9</ele>
        <time>2017-05-14T07:19:38Z</time>
      </trkpt>
      <trkpt lat="49.15953" lon="1.19847">
        <ele>69.1</ele>
        <time>2017-05-14T07:19:40Z</time>
      </trkpt>
      <trkpt lat="49.15967" lon="1.19848">
        <ele>68.6</ele>
        <time>2017-05-14T07:19:42Z</time>
      </trkpt>
      <trkpt lat="49.15979" lon="1.1985">
        <ele>68.2</ele>
        <time>2017-05-14T07:19:44Z</time>
      </trkpt>
      <trkpt lat="49.1599" lon="1.19851">
        <ele>67.9</ele>
        <time>2017-05-14T07:19:46Z</time>
      </trkpt>
      <trkpt lat="49.16002" lon="1.19852">
        <ele>67.8</ele>
        <time>2017-05-14T07:19:48Z</time>
      </trkpt>
      <trkpt lat="49.16013" lon="1.19852">
        <ele>67.7</ele>
        <time>2017-05-14T07:19:50Z</time>
      </trkpt>
      <trkpt lat="49.16023" lon="1.19852">
        <ele>67.8</ele>
        <time>2017-05-14T07:19:52Z</time>
      </trkpt>
      <trkpt lat="49.16034" lon="1.1985">
        <ele>67.5</ele>
        <time>2017-05-14T07:19:54Z</time>
      </trkpt>
      <trkpt lat="49.16046" lon="1.19847">
        <ele>67.2</ele>
        <time>2017-05-14T07:19:56Z</time>
      </trkpt>
      <trkpt lat="49.16057" lon="1.19843">
        <ele>66.8</ele>
        <time>2017-05-14T07:19:58Z</time>
      </trkpt>
      <trkpt lat="49.16069" lon="1.1984">
        <ele>66.9</ele>
        <time>2017-05-14T07:20:00Z</time>
      </trkpt>
      <trkpt lat="49.16078" lon="1.19836">
        <ele>66.9</ele>
        <time>2017-05-14T07:20:02Z</time>
      </trkpt>
      <trkpt lat="49.16089" lon="1.19832">
        <ele>66.7</ele>
        <time>2017-05-14T07:20:04Z</time>
      </trkpt>
      <trkpt lat="49.161" lon="1.19828">
        <ele>66.6</ele>
        <time>2017-05-14T07:20:06Z</time>
      </trkpt>
      <trkpt lat="49.16114" lon="1.19825">
        <ele>66.7</ele>
        <time>2017-05-14T07:20:08Z</time>
      </trkpt>
      <trkpt lat="49.16125" lon="1.19824">
        <ele>66.7</ele>
        <time>2017-05-14T07:20:10Z</time>
      </trkpt>
      <trkpt lat="49.16137" lon="1.19822">
        <ele>66.4</ele>
        <time>2017-05-14T07:20:12Z</time>
      </trkpt>
      <trkpt lat="49.16148" lon="1.19822">
        <ele>66</ele>
        <time>2017-05-14T07:20:14Z</time>
      </trkpt>
      <trkpt lat="49.16163" lon="1.19821">
        <ele>66</ele>
        <time>2017-05-14T07:20:16Z</time>
      </trkpt>
      <trkpt lat="49.16176" lon="1.1982">
        <ele>65.7</ele>
        <time>2017-05-14T07:20:18Z</time>
      </trkpt>
      <trkpt lat="49.16189" lon="1.19817">
        <ele>65.2</ele>
        <time>2017-05-14T07:20:20Z</time>
      </trkpt>
      <trkpt lat="49.16203" lon="1.19812">
        <ele>64.5</ele>
        <time>2017-05-14T07:20:22Z</time>
      </trkpt>
      <trkpt lat="49.16215" lon="1.19807">
        <ele>64.5</ele>
        <time>2017-05-14T07:20:24Z</time>
      </trkpt>
      <trkpt lat="49.16226" lon="1.198">
        <ele>64.4</ele>
        <time>2017-05-14T07:20:26Z</time>
      </trkpt>
      <trkpt lat="49.16237" lon="1.1979">
        <ele>64.2</ele>
        <time>2017-05-14T07:20:28Z</time>
      </trkpt>
      <trkpt lat="49.16244" lon="1.19779">
        <ele>63.8</ele>
        <time>2017-05-14T07:20:30Z</time>
      </trkpt>
      <trkpt lat="49.16254" lon="1.19772">
        <ele>63</ele>
        <time>2017-05-14T07:20:33Z</time>
      </trkpt>
      <trkpt lat="49.16259" lon="1.19788">
        <ele>62.5</ele>
        <time>2017-05-14T07:20:36Z</time>
      </trkpt>
      <trkpt lat="49.16265" lon="1.19806">
        <ele>62.3</ele>
        <time>2017-05-14T07:20:39Z</time>
      </trkpt>
      <trkpt lat="49.16269" lon="1.1982">
        <ele>62.2</ele>
        <time>2017-05-14T07:20:41Z</time>
      </trkpt>
      <trkpt lat="49.16274" lon="1.19832">
        <ele>62.2</ele>
        <time>2017-05-14T07:20:43Z</time>
      </trkpt>
      <trkpt lat="49.16281" lon="1.19841">
        <ele>62.6</ele>
        <time>2017-05-14T07:20:46Z</time>
      </trkpt>
      <trkpt lat="49.16289" lon="1.19849">
        <ele>63.6</ele>
        <time>2017-05-14T07:20:50Z</time>
      </trkpt>
      <trkpt lat="49.16298" lon="1.19856">
        <ele>65.9</ele>
        <time>2017-05-14T07:20:55Z</time>
      </trkpt>
      <trkpt lat="49.16306" lon="1.19862">
        <ele>67.5</ele>
        <time>2017-05-14T07:21:00Z</time>
      </trkpt>
      <trkpt lat="49.1631" lon="1.19876">
        <ele>69</ele>
        <time>2017-05-14T07:21:05Z</time>
      </trkpt>
      <trkpt lat="49.16312" lon="1.19891">
        <ele>70.5</ele>
        <time>2017-05-14T07:21:10Z</time>
      </trkpt>
      <trkpt lat="49.16312" lon="1.19906">
        <ele>72.8</ele>
        <time>2017-05-14T07:21:18Z</time>
      </trkpt>
      <trkpt lat="49.16307" lon="1.1992">
        <ele>75.7</ele>
        <time>2017-05-14T07:21:26Z</time>
      </trkpt>
      <trkpt lat="49.16305" lon="1.19935">
        <ele>77.1</ele>
        <time>2017-05-14T07:21:31Z</time>
      </trkpt>
      <trkpt lat="49.16303" lon="1.1995">
        <ele>78.6</ele>
        <time>2017-05-14T07:21:37Z</time>
      </trkpt>
      <trkpt lat="49.16304" lon="1.19965">
        <ele>79.6</ele>
        <time>2017-05-14T07:21:42Z</time>
      </trkpt>
      <trkpt lat="49.16305" lon="1.1998">
        <ele>81.2</ele>
        <time>2017-05-14T07:21:49Z</time>
      </trkpt>
      <trkpt lat="49.16304" lon="1.19998">
        <ele>82.3</ele>
        <time>2017-05-14T07:21:54Z</time>
      </trkpt>
      <trkpt lat="49.16303" lon="1.20013">
        <ele>82.9</ele>
        <time>2017-05-14T07:21:58Z</time>
      </trkpt>
      <trkpt lat="49.16303" lon="1.2003">
        <ele>83.5</ele>
        <time>2017-05-14T07:22:03Z</time>
      </trkpt>
      <trkpt lat="49.16301" lon="1.20046">
        <ele>84.8</ele>
        <time>2017-05-14T07:22:08Z</time>
      </trkpt>
      <trkpt lat="49.16303" lon="1.2006">
        <ele>85.8</ele>
        <time>2017-05-14T07:22:13Z</time>
      </trkpt>
      <trkpt lat="49.163" lon="1.20074">
        <ele>86.8</ele>
        <time>2017-05-14T07:22:20Z</time>
      </trkpt>
      <trkpt lat="49.16297" lon="1.20089">
        <ele>88.3</ele>
        <time>2017-05-14T07:22:26Z</time>
      </trkpt>
      <trkpt lat="49.16294" lon="1.20104">
        <ele>89.6</ele>
        <time>2017-05-14T07:22:32Z</time>
      </trkpt>
      <trkpt lat="49.16293" lon="1.20119">
        <ele>91.2</ele>
        <time>2017-05-14T07:22:38Z</time>
      </trkpt>
      <trkpt lat="49.16292" lon="1.20134">
        <ele>92.9</ele>
        <time>2017-05-14T07:22:44Z</time>
      </trkpt>
      <trkpt lat="49.16287" lon="1.20148">
        <ele>94.4</ele>
        <time>2017-05-14T07:22:50Z</time>
      </trkpt>
      <trkpt lat="49.16286" lon="1.20164">
        <ele>95.8</ele>
        <time>2017-05-14T07:22:56Z</time>
      </trkpt>
      <trkpt lat="49.16286" lon="1.2018">
        <ele>97</ele>
        <time>2017-05-14T07:23:01Z</time>
      </trkpt>
      <trkpt lat="49.16282" lon="1.20195">
        <ele>98.3</ele>
        <time>2017-05-14T07:23:06Z</time>
      </trkpt>
      <trkpt lat="49.16284" lon="1.20209">
        <ele>98.9</ele>
        <time>2017-05-14T07:23:10Z</time>
      </trkpt>
      <trkpt lat="49.16283" lon="1.20224">
        <ele>99.9</ele>
        <time>2017-05-14T07:23:15Z</time>
      </trkpt>
      <trkpt lat="49.1628" lon="1.20239">
        <ele>101</ele>
        <time>2017-05-14T07:23:20Z</time>
      </trkpt>
      <trkpt lat="49.16278" lon="1.20255">
        <ele>102.2</ele>
        <time>2017-05-14T07:23:25Z</time>
      </trkpt>
      <trkpt lat="49.16277" lon="1.20269">
        <ele>103.5</ele>
        <time>2017-05-14T07:23:30Z</time>
      </trkpt>
      <trkpt lat="49.16274" lon="1.20285">
        <ele>105.2</ele>
        <time>2017-05-14T07:23:36Z</time>
      </trkpt>
      <trkpt lat="49.1627" lon="1.20301">
        <ele>106.6</ele>
        <time>2017-05-14T07:23:42Z</time>
      </trkpt>
      <trkpt lat="49.16266" lon="1.20316">
        <ele>107.7</ele>
        <time>2017-05-14T07:23:47Z</time>
      </trkpt>
      <trkpt lat="49.16265" lon="1.2033">
        <ele>109.4</ele>
        <time>2017-05-14T07:23:53Z</time>
      </trkpt>
      <trkpt lat="49.16261" lon="1.20344">
        <ele>110.9</ele>
        <time>2017-05-14T07:23:59Z</time>
      </trkpt>
      <trkpt lat="49.16256" lon="1.20357">
        <ele>113</ele>
        <time>2017-05-14T07:24:06Z</time>
      </trkpt>
      <trkpt lat="49.16251" lon="1.20368">
        <ele>114.2</ele>
        <time>2017-05-14T07:24:11Z</time>
      </trkpt>
      <trkpt lat="49.16243" lon="1.20378">
        <ele>115.8</ele>
        <time>2017-05-14T07:24:17Z</time>
      </trkpt>
      <trkpt lat="49.16235" lon="1.20383">
        <ele>118</ele>
        <time>2017-05-14T07:24:23Z</time>
      </trkpt>
      <trkpt lat="49.16228" lon="1.20392">
        <ele>119.5</ele>
        <time>2017-05-14T07:24:29Z</time>
      </trkpt>
      <trkpt lat="49.16227" lon="1.20406">
        <ele>120.6</ele>
        <time>2017-05-14T07:24:35Z</time>
      </trkpt>
      <trkpt lat="49.16227" lon="1.2042">
        <ele>121</ele>
        <time>2017-05-14T07:24:41Z</time>
      </trkpt>
      <trkpt lat="49.1622" lon="1.20432">
        <ele>121.8</ele>
        <time>2017-05-14T07:24:46Z</time>
      </trkpt>
      <trkpt lat="49.16214" lon="1.20444">
        <ele>123</ele>
        <time>2017-05-14T07:24:52Z</time>
      </trkpt>
      <trkpt lat="49.1621" lon="1.20457">
        <ele>124.3</ele>
        <time>2017-05-14T07:24:57Z</time>
      </trkpt>
      <trkpt lat="49.16208" lon="1.2047">
        <ele>125.6</ele>
        <time>2017-05-14T07:25:03Z</time>
      </trkpt>
      <trkpt lat="49.16205" lon="1.20485">
        <ele>127.4</ele>
        <time>2017-05-14T07:25:09Z</time>
      </trkpt>
      <trkpt lat="49.16202" lon="1.20499">
        <ele>128.8</ele>
        <time>2017-05-14T07:25:15Z</time>
      </trkpt>
      <trkpt lat="49.16201" lon="1.20513">
        <ele>130.5</ele>
        <time>2017-05-14T07:25:21Z</time>
      </trkpt>
      <trkpt lat="49.162" lon="1.20529">
        <ele>131.7</ele>
        <time>2017-05-14T07:25:27Z</time>
      </trkpt>
      <trkpt lat="49.16198" lon="1.20544">
        <ele>133.1</ele>
        <time>2017-05-14T07:25:33Z</time>
      </trkpt>
      <trkpt lat="49.16196" lon="1.20559">
        <ele>135</ele>
        <time>2017-05-14T07:25:40Z</time>
      </trkpt>
      <trkpt lat="49.16195" lon="1.20574">
        <ele>137.2</ele>
        <time>2017-05-14T07:25:47Z</time>
      </trkpt>
      <trkpt lat="49.16193" lon="1.20587">
        <ele>139</ele>
        <time>2017-05-14T07:25:53Z</time>
      </trkpt>
      <trkpt lat="49.1619" lon="1.20601">
        <ele>140.9</ele>
        <time>2017-05-14T07:26:00Z</time>
      </trkpt>
      <trkpt lat="49.16189" lon="1.20617">
        <ele>142.9</ele>
        <time>2017-05-14T07:26:08Z</time>
      </trkpt>
      <trkpt lat="49.16188" lon="1.20632">
        <ele>144.4</ele>
        <time>2017-05-14T07:26:14Z</time>
      </trkpt>
      <trkpt lat="49.16186" lon="1.20648">
        <ele>145.9</ele>
        <time>2017-05-14T07:26:20Z</time>
      </trkpt>
      <trkpt lat="49.16185" lon="1.20664">
        <ele>147.6</ele>
        <time>2017-05-14T07:26:26Z</time>
      </trkpt>
      <trkpt lat="49.16184" lon="1.20679">
        <ele>149</ele>
        <time>2017-05-14T07:26:31Z</time>
      </trkpt>
      <trkpt lat="49.16185" lon="1.20693">
        <ele>150.2</ele>
        <time>2017-05-14T07:26:36Z</time>
      </trkpt>
      <trkpt lat="49.16183" lon="1.20707">
        <ele>151.2</ele>
        <time>2017-05-14T07:26:41Z</time>
      </trkpt>
      <trkpt lat="49.16181" lon="1.20722">
        <ele>152.1</ele>
        <time>2017-05-14T07:26:46Z</time>
      </trkpt>
      <trkpt lat="49.16181" lon="1.20736">
        <ele>152.6</ele>
        <time>2017-05-14T07:26:51Z</time>
      </trkpt>
      <trkpt lat="49.16182" lon="1.20751">
        <ele>153.1</ele>
        <time>2017-05-14T07:26:56Z</time>
      </trkpt>
      <trkpt lat="49.16174" lon="1.20744">
        <ele>153</ele>
        <time>2017-05-14T07:27:27Z</time>
      </trkpt>
      <trkpt lat="49.16165" lon="1.20745">
        <ele>152.9</ele>
        <time>2017-05-14T07:29:08Z</time>
      </trkpt>
      <trkpt lat="49.16174" lon="1.20749">
        <ele>152.6</ele>
        <time>2017-05-14T07:30:49Z</time>
      </trkpt>
      <trkpt lat="49.16175" lon="1.20764">
        <ele>152.9</ele>
        <time>2017-05-14T07:31:01Z</time>
      </trkpt>
      <trkpt lat="49.16186" lon="1.20765">
        <ele>153.3</ele>
        <time>2017-05-14T07:31:07Z</time>
      </trkpt>
      <trkpt lat="49.16197" lon="1.20758">
        <ele>153.5</ele>
        <time>2017-05-14T07:31:10Z</time>
      </trkpt>
      <trkpt lat="49.16207" lon="1.20751">
        <ele>153.7</ele>
        <time>2017-05-14T07:31:13Z</time>
      </trkpt>
      <trkpt lat="49.16216" lon="1.20742">
        <ele>153.8</ele>
        <time>2017-05-14T07:31:16Z</time>
      </trkpt>
      <trkpt lat="49.16226" lon="1.20734">
        <ele>153.7</ele>
        <time>2017-05-14T07:31:19Z</time>
      </trkpt>
      <trkpt lat="49.16236" lon="1.20726">
        <ele>153.8</ele>
        <time>2017-05-14T07:31:22Z</time>
      </trkpt>
      <trkpt lat="49.16247" lon="1.2072">
        <ele>153.9</ele>
        <time>2017-05-14T07:31:25Z</time>
      </trkpt>
      <trkpt lat="49.16258" lon="1.20711">
        <ele>153.9</ele>
        <time>2017-05-14T07:31:28Z</time>
      </trkpt>
      <trkpt lat="49.16267" lon="1.20704">
        <ele>154.1</ele>
        <time>2017-05-14T07:31:30Z</time>
      </trkpt>
      <trkpt lat="49.16275" lon="1.20698">
        <ele>154.3</ele>
        <time>2017-05-14T07:31:32Z</time>
      </trkpt>
      <trkpt lat="49.16285" lon="1.20691">
        <ele>154.4</ele>
        <time>2017-05-14T07:31:34Z</time>
      </trkpt>
      <trkpt lat="49.16297" lon="1.20681">
        <ele>154.3</ele>
        <time>2017-05-14T07:31:37Z</time>
      </trkpt>
      <trkpt lat="49.16306" lon="1.20675">
        <ele>154.3</ele>
        <time>2017-05-14T07:31:39Z</time>
      </trkpt>
      <trkpt lat="49.16315" lon="1.20668">
        <ele>154.3</ele>
        <time>2017-05-14T07:31:41Z</time>
      </trkpt>
      <trkpt lat="49.16324" lon="1.20663">
        <ele>154.2</ele>
        <time>2017-05-14T07:31:43Z</time>
      </trkpt>
      <trkpt lat="49.16334" lon="1.20656">
        <ele>154.1</ele>
        <time>2017-05-14T07:31:46Z</time>
      </trkpt>
      <trkpt lat="49.16344" lon="1.20648">
        <ele>154.1</ele>
        <time>2017-05-14T07:31:48Z</time>
      </trkpt>
      <trkpt lat="49.16352" lon="1.20638">
        <ele>153.9</ele>
        <time>2017-05-14T07:31:50Z</time>
      </trkpt>
      <trkpt lat="49.16357" lon="1.20624">
        <ele>153.8</ele>
        <time>2017-05-14T07:31:52Z</time>
      </trkpt>
      <trkpt lat="49.16361" lon="1.20609">
        <ele>153.7</ele>
        <time>2017-05-14T07:31:54Z</time>
      </trkpt>
      <trkpt lat="49.16366" lon="1.20595">
        <ele>153.7</ele>
        <time>2017-05-14T07:31:56Z</time>
      </trkpt>
      <trkpt lat="49.16375" lon="1.20581">
        <ele>153.6</ele>
        <time>2017-05-14T07:31:58Z</time>
      </trkpt>
      <trkpt lat="49.16384" lon="1.20567">
        <ele>153.4</ele>
        <time>2017-05-14T07:32:00Z</time>
      </trkpt>
      <trkpt lat="49.1639" lon="1.20552">
        <ele>153</ele>
        <time>2017-05-14T07:32:02Z</time>
      </trkpt>
      <trkpt lat="49.16395" lon="1.20535">
        <ele>152.6</ele>
        <time>2017-05-14T07:32:04Z</time>
      </trkpt>
      <trkpt lat="49.16399" lon="1.20517">
        <ele>152.5</ele>
        <time>2017-05-14T07:32:06Z</time>
      </trkpt>
      <trkpt lat="49.16404" lon="1.20499">
        <ele>152</ele>
        <time>2017-05-14T07:32:08Z</time>
      </trkpt>
      <trkpt lat="49.16411" lon="1.20481">
        <ele>151.4</ele>
        <time>2017-05-14T07:32:10Z</time>
      </trkpt>
      <trkpt lat="49.16416" lon="1.20464">
        <ele>150.7</ele>
        <time>2017-05-14T07:32:12Z</time>
      </trkpt>
      <trkpt lat="49.16423" lon="1.20448">
        <ele>150.3</ele>
        <time>2017-05-14T07:32:14Z</time>
      </trkpt>
      <trkpt lat="49.16429" lon="1.20434">
        <ele>149.8</ele>
        <time>2017-05-14T07:32:16Z</time>
      </trkpt>
      <trkpt lat="49.16427" lon="1.20413">
        <ele>149.3</ele>
        <time>2017-05-14T07:32:19Z</time>
      </trkpt>
      <trkpt lat="49.16426" lon="1.20395">
        <ele>148.6</ele>
        <time>2017-05-14T07:32:21Z</time>
      </trkpt>
      <trkpt lat="49.16428" lon="1.2038">
        <ele>147.5</ele>
        <time>2017-05-14T07:32:23Z</time>
      </trkpt>
      <trkpt lat="49.16431" lon="1.20365">
        <ele>146.5</ele>
        <time>2017-05-14T07:32:25Z</time>
      </trkpt>
      <trkpt lat="49.16433" lon="1.20349">
        <ele>145.6</ele>
        <time>2017-05-14T07:32:27Z</time>
      </trkpt>
      <trkpt lat="49.16434" lon="1.20334">
        <ele>144.8</ele>
        <time>2017-05-14T07:32:29Z</time>
      </trkpt>
      <trkpt lat="49.16439" lon="1.20318">
        <ele>143.6</ele>
        <time>2017-05-14T07:32:32Z</time>
      </trkpt>
      <trkpt lat="49.16441" lon="1.20302">
        <ele>143</ele>
        <time>2017-05-14T07:32:34Z</time>
      </trkpt>
      <trkpt lat="49.16442" lon="1.20287">
        <ele>142.3</ele>
        <time>2017-05-14T07:32:36Z</time>
      </trkpt>
      <trkpt lat="49.16443" lon="1.20271">
        <ele>141.8</ele>
        <time>2017-05-14T07:32:38Z</time>
      </trkpt>
      <trkpt lat="49.16445" lon="1.20253">
        <ele>140.6</ele>
        <time>2017-05-14T07:32:41Z</time>
      </trkpt>
      <trkpt lat="49.16447" lon="1.20238">
        <ele>139.5</ele>
        <time>2017-05-14T07:32:44Z</time>
      </trkpt>
      <trkpt lat="49.16451" lon="1.20222">
        <ele>138.7</ele>
        <time>2017-05-14T07:32:46Z</time>
      </trkpt>
      <trkpt lat="49.16453" lon="1.20203">
        <ele>137.4</ele>
        <time>2017-05-14T07:32:48Z</time>
      </trkpt>
      <trkpt lat="49.16455" lon="1.20181">
        <ele>136.2</ele>
        <time>2017-05-14T07:32:50Z</time>
      </trkpt>
      <trkpt lat="49.16454" lon="1.20162">
        <ele>134.6</ele>
        <time>2017-05-14T07:32:52Z</time>
      </trkpt>
      <trkpt lat="49.1645" lon="1.20146">
        <ele>133</ele>
        <time>2017-05-14T07:32:54Z</time>
      </trkpt>
      <trkpt lat="49.16443" lon="1.20135">
        <ele>130</ele>
        <time>2017-05-14T07:32:58Z</time>
      </trkpt>
      <trkpt lat="49.16441" lon="1.2012">
        <ele>127.8</ele>
        <time>2017-05-14T07:33:01Z</time>
      </trkpt>
      <trkpt lat="49.16442" lon="1.20101">
        <ele>125.6</ele>
        <time>2017-05-14T07:33:04Z</time>
      </trkpt>
      <trkpt lat="49.16443" lon="1.20087">
        <ele>124.7</ele>
        <time>2017-05-14T07:33:06Z</time>
      </trkpt>
      <trkpt lat="49.16443" lon="1.20071">
        <ele>123.8</ele>
        <time>2017-05-14T07:33:08Z</time>
      </trkpt>
      <trkpt lat="49.16443" lon="1.20052">
        <ele>123.2</ele>
        <time>2017-05-14T07:33:10Z</time>
      </trkpt>
      <trkpt lat="49.16443" lon="1.20038">
        <ele>122.3</ele>
        <time>2017-05-14T07:33:12Z</time>
      </trkpt>
      <trkpt lat="49.16442" lon="1.20023">
        <ele>121.4</ele>
        <time>2017-05-14T07:33:14Z</time>
      </trkpt>
      <trkpt lat="49.16443" lon="1.20007">
        <ele>120.3</ele>
        <time>2017-05-14T07:33:16Z</time>
      </trkpt>
      <trkpt lat="49.16442" lon="1.19988">
        <ele>118.9</ele>
        <time>2017-05-14T07:33:18Z</time>
      </trkpt>
      <trkpt lat="49.16443" lon="1.19968">
        <ele>117.7</ele>
        <time>2017-05-14T07:33:20Z</time>
      </trkpt>
      <trkpt lat="49.16446" lon="1.19951">
        <ele>116.9</ele>
        <time>2017-05-14T07:33:22Z</time>
      </trkpt>
      <trkpt lat="49.16451" lon="1.19939">
        <ele>116</ele>
        <time>2017-05-14T07:33:26Z</time>
      </trkpt>
      <trkpt lat="49.16458" lon="1.1993">
        <ele>116.2</ele>
        <time>2017-05-14T07:33:30Z</time>
      </trkpt>
      <trkpt lat="49.1647" lon="1.19927">
        <ele>117.1</ele>
        <time>2017-05-14T07:33:35Z</time>
      </trkpt>
      <trkpt lat="49.1648" lon="1.1993">
        <ele>118.3</ele>
        <time>2017-05-14T07:33:39Z</time>
      </trkpt>
      <trkpt lat="49.16489" lon="1.19933">
        <ele>119.5</ele>
        <time>2017-05-14T07:33:43Z</time>
      </trkpt>
      <trkpt lat="49.165" lon="1.19939">
        <ele>120.7</ele>
        <time>2017-05-14T07:33:47Z</time>
      </trkpt>
      <trkpt lat="49.1651" lon="1.19947">
        <ele>121.8</ele>
        <time>2017-05-14T07:33:52Z</time>
      </trkpt>
      <trkpt lat="49.16517" lon="1.1996">
        <ele>122.6</ele>
        <time>2017-05-14T07:33:56Z</time>
      </trkpt>
      <trkpt lat="49.16525" lon="1.19974">
        <ele>123.3</ele>
        <time>2017-05-14T07:34:00Z</time>
      </trkpt>
      <trkpt lat="49.1653" lon="1.19985">
        <ele>124.3</ele>
        <time>2017-05-14T07:34:04Z</time>
      </trkpt>
      <trkpt lat="49.16538" lon="1.19998">
        <ele>124.9</ele>
        <time>2017-05-14T07:34:08Z</time>
      </trkpt>
      <trkpt lat="49.16547" lon="1.20009">
        <ele>125.5</ele>
        <time>2017-05-14T07:34:13Z</time>
      </trkpt>
      <trkpt lat="49.16555" lon="1.20017">
        <ele>125.8</ele>
        <time>2017-05-14T07:34:16Z</time>
      </trkpt>
      <trkpt lat="49.16563" lon="1.20024">
        <ele>126.5</ele>
        <time>2017-05-14T07:34:20Z</time>
      </trkpt>
      <trkpt lat="49.16574" lon="1.20032">
        <ele>127</ele>
        <time>2017-05-14T07:34:24Z</time>
      </trkpt>
      <trkpt lat="49.16585" lon="1.20041">
        <ele>127.1</ele>
        <time>2017-05-14T07:34:27Z</time>
      </trkpt>
      <trkpt lat="49.16594" lon="1.20047">
        <ele>127.6</ele>
        <time>2017-05-14T07:34:30Z</time>
      </trkpt>
      <trkpt lat="49.16603" lon="1.20051">
        <ele>128</ele>
        <time>2017-05-14T07:34:33Z</time>
      </trkpt>
      <trkpt lat="49.16613" lon="1.20057">
        <ele>128.5</ele>
        <time>2017-05-14T07:34:36Z</time>
      </trkpt>
      <trkpt lat="49.16622" lon="1.20062">
        <ele>128.7</ele>
        <time>2017-05-14T07:34:39Z</time>
      </trkpt>
      <trkpt lat="49.16634" lon="1.20066">
        <ele>129</ele>
        <time>2017-05-14T07:34:42Z</time>
      </trkpt>
      <trkpt lat="49.16644" lon="1.20067">
        <ele>129.2</ele>
        <time>2017-05-14T07:34:44Z</time>
      </trkpt>
      <trkpt lat="49.16654" lon="1.20067">
        <ele>129.6</ele>
        <time>2017-05-14T07:34:47Z</time>
      </trkpt>
      <trkpt lat="49.16664" lon="1.20067">
        <ele>129.8</ele>
        <time>2017-05-14T07:34:50Z</time>
      </trkpt>
      <trkpt lat="49.16675" lon="1.20065">
        <ele>129.9</ele>
        <time>2017-05-14T07:34:53Z</time>
      </trkpt>
      <trkpt lat="49.16685" lon="1.20064">
        <ele>130.1</ele>
        <time>2017-05-14T07:34:56Z</time>
      </trkpt>
      <trkpt lat="49.16695" lon="1.20063">
        <ele>130.3</ele>
        <time>2017-05-14T07:34:59Z</time>
      </trkpt>
      <trkpt lat="49.16705" lon="1.20064">
        <ele>130.6</ele>
        <time>2017-05-14T07:35:02Z</time>
      </trkpt>
      <trkpt lat="49.16714" lon="1.20068">
        <ele>130.9</ele>
        <time>2017-05-14T07:35:05Z</time>
      </trkpt>
      <trkpt lat="49.16725" lon="1.20071">
        <ele>131.2</ele>
        <time>2017-05-14T07:35:09Z</time>
      </trkpt>
      <trkpt lat="49.16735" lon="1.20073">
        <ele>131.5</ele>
        <time>2017-05-14T07:35:12Z</time>
      </trkpt>
      <trkpt lat="49.16746" lon="1.20074">
        <ele>131.5</ele>
        <time>2017-05-14T07:35:15Z</time>
      </trkpt>
      <trkpt lat="49.16756" lon="1.20075">
        <ele>131.7</ele>
        <time>2017-05-14T07:35:18Z</time>
      </trkpt>
      <trkpt lat="49.16768" lon="1.20075">
        <ele>131.8</ele>
        <time>2017-05-14T07:35:22Z</time>
      </trkpt>
      <trkpt lat="49.1678" lon="1.20077">
        <ele>131.6</ele>
        <time>2017-05-14T07:35:26Z</time>
      </trkpt>
      <trkpt lat="49.16789" lon="1.20065">
        <ele>131.3</ele>
        <time>2017-05-14T07:35:29Z</time>
      </trkpt>
      <trkpt lat="49.16794" lon="1.20046">
        <ele>130.6</ele>
        <time>2017-05-14T07:35:32Z</time>
      </trkpt>
      <trkpt lat="49.16801" lon="1.20032">
        <ele>130.2</ele>
        <time>2017-05-14T07:35:34Z</time>
      </trkpt>
      <trkpt lat="49.16807" lon="1.20018">
        <ele>129.7</ele>
        <time>2017-05-14T07:35:36Z</time>
      </trkpt>
      <trkpt lat="49.16815" lon="1.20005">
        <ele>129.2</ele>
        <time>2017-05-14T07:35:38Z</time>
      </trkpt>
      <trkpt lat="49.16822" lon="1.19995">
        <ele>128.2</ele>
        <time>2017-05-14T07:35:40Z</time>
      </trkpt>
      <trkpt lat="49.16834" lon="1.19992">
        <ele>127.2</ele>
        <time>2017-05-14T07:35:43Z</time>
      </trkpt>
      <trkpt lat="49.16844" lon="1.19997">
        <ele>126.9</ele>
        <time>2017-05-14T07:35:46Z</time>
      </trkpt>
      <trkpt lat="49.16854" lon="1.2">
        <ele>127</ele>
        <time>2017-05-14T07:35:49Z</time>
      </trkpt>
      <trkpt lat="49.16867" lon="1.20001">
        <ele>127.2</ele>
        <time>2017-05-14T07:35:52Z</time>
      </trkpt>
      <trkpt lat="49.16878" lon="1.20004">
        <ele>127.2</ele>
        <time>2017-05-14T07:35:55Z</time>
      </trkpt>
      <trkpt lat="49.16888" lon="1.20011">
        <ele>127.4</ele>
        <time>2017-05-14T07:35:58Z</time>
      </trkpt>
      <trkpt lat="49.16895" lon="1.20019">
        <ele>127.5</ele>
        <time>2017-05-14T07:36:00Z</time>
      </trkpt>
      <trkpt lat="49.16903" lon="1.20031">
        <ele>127.6</ele>
        <time>2017-05-14T07:36:03Z</time>
      </trkpt>
      <trkpt lat="49.16913" lon="1.20042">
        <ele>127.9</ele>
        <time>2017-05-14T07:36:06Z</time>
      </trkpt>
      <trkpt lat="49.16922" lon="1.20047">
        <ele>128</ele>
        <time>2017-05-14T07:36:08Z</time>
      </trkpt>
      <trkpt lat="49.16934" lon="1.2006">
        <ele>128.2</ele>
        <time>2017-05-14T07:36:11Z</time>
      </trkpt>
      <trkpt lat="49.16943" lon="1.20069">
        <ele>128.2</ele>
        <time>2017-05-14T07:36:13Z</time>
      </trkpt>
      <trkpt lat="49.16952" lon="1.20081">
        <ele>128.2</ele>
        <time>2017-05-14T07:36:15Z</time>
      </trkpt>
      <trkpt lat="49.16959" lon="1.20092">
        <ele>127.9</ele>
        <time>2017-05-14T07:36:17Z</time>
      </trkpt>
      <trkpt lat="49.16966" lon="1.20101">
        <ele>127.8</ele>
        <time>2017-05-14T07:36:19Z</time>
      </trkpt>
      <trkpt lat="49.16973" lon="1.20112">
        <ele>127.1</ele>
        <time>2017-05-14T07:36:26Z</time>
      </trkpt>
      <trkpt lat="49.16984" lon="1.20105">
        <ele>126.1</ele>
        <time>2017-05-14T07:41:45Z</time>
      </trkpt>
      <trkpt lat="49.16993" lon="1.20098">
        <ele>125.8</ele>
        <time>2017-05-14T07:41:48Z</time>
      </trkpt>
      <trkpt lat="49.17004" lon="1.20091">
        <ele>125.1</ele>
        <time>2017-05-14T07:41:51Z</time>
      </trkpt>
      <trkpt lat="49.17013" lon="1.20086">
        <ele>124.4</ele>
        <time>2017-05-14T07:41:53Z</time>
      </trkpt>
      <trkpt lat="49.17026" lon="1.20079">
        <ele>122.5</ele>
        <time>2017-05-14T07:41:56Z</time>
      </trkpt>
      <trkpt lat="49.17035" lon="1.20075">
        <ele>122.1</ele>
        <time>2017-05-14T07:41:58Z</time>
      </trkpt>
      <trkpt lat="49.17048" lon="1.20069">
        <ele>121.1</ele>
        <time>2017-05-14T07:42:00Z</time>
      </trkpt>
      <trkpt lat="49.17058" lon="1.20066">
        <ele>120.6</ele>
        <time>2017-05-14T07:42:02Z</time>
      </trkpt>
      <trkpt lat="49.17068" lon="1.20062">
        <ele>119.3</ele>
        <time>2017-05-14T07:42:04Z</time>
      </trkpt>
      <trkpt lat="49.1708" lon="1.20057">
        <ele>118.6</ele>
        <time>2017-05-14T07:42:06Z</time>
      </trkpt>
      <trkpt lat="49.17094" lon="1.20051">
        <ele>117.8</ele>
        <time>2017-05-14T07:42:08Z</time>
      </trkpt>
      <trkpt lat="49.17105" lon="1.20042">
        <ele>116.7</ele>
        <time>2017-05-14T07:42:10Z</time>
      </trkpt>
      <trkpt lat="49.17114" lon="1.2003">
        <ele>115.7</ele>
        <time>2017-05-14T07:42:12Z</time>
      </trkpt>
      <trkpt lat="49.17121" lon="1.20015">
        <ele>115</ele>
        <time>2017-05-14T07:42:14Z</time>
      </trkpt>
      <trkpt lat="49.17129" lon="1.19999">
        <ele>114.1</ele>
        <time>2017-05-14T07:42:16Z</time>
      </trkpt>
      <trkpt lat="49.17133" lon="1.19984">
        <ele>113.2</ele>
        <time>2017-05-14T07:42:18Z</time>
      </trkpt>
      <trkpt lat="49.17135" lon="1.19966">
        <ele>111.6</ele>
        <time>2017-05-14T07:42:21Z</time>
      </trkpt>
      <trkpt lat="49.1714" lon="1.1995">
        <ele>110.3</ele>
        <time>2017-05-14T07:42:24Z</time>
      </trkpt>
      <trkpt lat="49.17147" lon="1.19934">
        <ele>109.2</ele>
        <time>2017-05-14T07:42:27Z</time>
      </trkpt>
      <trkpt lat="49.17153" lon="1.19916">
        <ele>107.8</ele>
        <time>2017-05-14T07:42:30Z</time>
      </trkpt>
      <trkpt lat="49.17153" lon="1.19901">
        <ele>106.9</ele>
        <time>2017-05-14T07:42:32Z</time>
      </trkpt>
      <trkpt lat="49.17153" lon="1.19887">
        <ele>105.7</ele>
        <time>2017-05-14T07:42:34Z</time>
      </trkpt>
      <trkpt lat="49.17153" lon="1.19873">
        <ele>104.4</ele>
        <time>2017-05-14T07:42:36Z</time>
      </trkpt>
      <trkpt lat="49.17149" lon="1.19856">
        <ele>102.6</ele>
        <time>2017-05-14T07:42:39Z</time>
      </trkpt>
      <trkpt lat="49.17149" lon="1.19837">
        <ele>100.4</ele>
        <time>2017-05-14T07:42:43Z</time>
      </trkpt>
      <trkpt lat="49.17151" lon="1.1982">
        <ele>99.1</ele>
        <time>2017-05-14T07:42:46Z</time>
      </trkpt>
      <trkpt lat="49.17151" lon="1.19805">
        <ele>97.6</ele>
        <time>2017-05-14T07:42:49Z</time>
      </trkpt>
      <trkpt lat="49.17153" lon="1.19791">
        <ele>96.4</ele>
        <time>2017-05-14T07:42:51Z</time>
      </trkpt>
      <trkpt lat="49.17155" lon="1.19773">
        <ele>94.5</ele>
        <time>2017-05-14T07:42:54Z</time>
      </trkpt>
      <trkpt lat="49.17157" lon="1.1975">
        <ele>93.4</ele>
        <time>2017-05-14T07:42:57Z</time>
      </trkpt>
      <trkpt lat="49.1716" lon="1.19737">
        <ele>92.4</ele>
        <time>2017-05-14T07:42:59Z</time>
      </trkpt>
      <trkpt lat="49.1716" lon="1.19723">
        <ele>91</ele>
        <time>2017-05-14T07:43:01Z</time>
      </trkpt>
      <trkpt lat="49.17162" lon="1.19708">
        <ele>89.9</ele>
        <time>2017-05-14T07:43:03Z</time>
      </trkpt>
      <trkpt lat="49.17163" lon="1.19685">
        <ele>88.2</ele>
        <time>2017-05-14T07:43:06Z</time>
      </trkpt>
      <trkpt lat="49.17162" lon="1.19667">
        <ele>87</ele>
        <time>2017-05-14T07:43:08Z</time>
      </trkpt>
      <trkpt lat="49.17163" lon="1.1965">
        <ele>85.6</ele>
        <time>2017-05-14T07:43:10Z</time>
      </trkpt>
      <trkpt lat="49.17166" lon="1.19637">
        <ele>84.6</ele>
        <time>2017-05-14T07:43:12Z</time>
      </trkpt>
      <trkpt lat="49.17171" lon="1.19625">
        <ele>83.4</ele>
        <time>2017-05-14T07:43:14Z</time>
      </trkpt>
      <trkpt lat="49.17176" lon="1.19608">
        <ele>81.4</ele>
        <time>2017-05-14T07:43:17Z</time>
      </trkpt>
      <trkpt lat="49.17182" lon="1.19593">
        <ele>80.1</ele>
        <time>2017-05-14T07:43:19Z</time>
      </trkpt>
      <trkpt lat="49.17188" lon="1.19577">
        <ele>78.6</ele>
        <time>2017-05-14T07:43:21Z</time>
      </trkpt>
      <trkpt lat="49.17192" lon="1.19563">
        <ele>77.2</ele>
        <time>2017-05-14T07:43:23Z</time>
      </trkpt>
      <trkpt lat="49.17197" lon="1.19547">
        <ele>75.6</ele>
        <time>2017-05-14T07:43:25Z</time>
      </trkpt>
      <trkpt lat="49.17203" lon="1.19527">
        <ele>74.2</ele>
        <time>2017-05-14T07:43:27Z</time>
      </trkpt>
      <trkpt lat="49.1721" lon="1.1951">
        <ele>73.1</ele>
        <time>2017-05-14T07:43:29Z</time>
      </trkpt>
      <trkpt lat="49.17216" lon="1.1949">
        <ele>71.9</ele>
        <time>2017-05-14T07:43:31Z</time>
      </trkpt>
      <trkpt lat="49.17223" lon="1.19469">
        <ele>71</ele>
        <time>2017-05-14T07:43:33Z</time>
      </trkpt>
      <trkpt lat="49.17229" lon="1.19447">
        <ele>70</ele>
        <time>2017-05-14T07:43:35Z</time>
      </trkpt>
      <trkpt lat="49.17238" lon="1.19426">
        <ele>69.1</ele>
        <time>2017-05-14T07:43:37Z</time>
      </trkpt>
      <trkpt lat="49.17247" lon="1.19404">
        <ele>68.2</ele>
        <time>2017-05-14T07:43:39Z</time>
      </trkpt>
      <trkpt lat="49.17253" lon="1.19393">
        <ele>67.7</ele>
        <time>2017-05-14T07:43:40Z</time>
      </trkpt>
      <trkpt lat="49.17264" lon="1.19372">
        <ele>66.7</ele>
        <time>2017-05-14T07:43:42Z</time>
      </trkpt>
      <trkpt lat="49.17275" lon="1.19353">
        <ele>65.7</ele>
        <time>2017-05-14T07:43:44Z</time>
      </trkpt>
      <trkpt lat="49.17288" lon="1.19335">
        <ele>64.8</ele>
        <time>2017-05-14T07:43:46Z</time>
      </trkpt>
      <trkpt lat="49.17301" lon="1.19318">
        <ele>63.5</ele>
        <time>2017-05-14T07:43:48Z</time>
      </trkpt>
      <trkpt lat="49.17315" lon="1.19302">
        <ele>62.3</ele>
        <time>2017-05-14T07:43:50Z</time>
      </trkpt>
      <trkpt lat="49.17325" lon="1.19294">
        <ele>61.7</ele>
        <time>2017-05-14T07:43:51Z</time>
      </trkpt>
      <trkpt lat="49.17333" lon="1.19287">
        <ele>61.2</ele>
        <time>2017-05-14T07:43:52Z</time>
      </trkpt>
      <trkpt lat="49.17344" lon="1.19278">
        <ele>59.9</ele>
        <time>2017-05-14T07:43:54Z</time>
      </trkpt>
      <trkpt lat="49.1734" lon="1.19295">
        <ele>57.1</ele>
        <time>2017-05-14T07:44:00Z</time>
      </trkpt>
      <trkpt lat="49.17333" lon="1.19312">
        <ele>56.8</ele>
        <time>2017-05-14T07:44:03Z</time>
      </trkpt>
      <trkpt lat="49.17324" lon="1.19328">
        <ele>56.7</ele>
        <time>2017-05-14T07:44:06Z</time>
      </trkpt>
      <trkpt lat="49.17319" lon="1.19339">
        <ele>56.7</ele>
        <time>2017-05-14T07:44:08Z</time>
      </trkpt>
      <trkpt lat="49.17311" lon="1.19355">
        <ele>56.8</ele>
        <time>2017-05-14T07:44:11Z</time>
      </trkpt>
      <trkpt lat="49.17303" lon="1.19363">
        <ele>57.2</ele>
        <time>2017-05-14T07:44:15Z</time>
      </trkpt>
      <trkpt lat="49.17297" lon="1.19373">
        <ele>57.5</ele>
        <time>2017-05-14T07:44:18Z</time>
      </trkpt>
      <trkpt lat="49.17295" lon="1.19389">
        <ele>57.8</ele>
        <time>2017-05-14T07:44:22Z</time>
      </trkpt>
      <trkpt lat="49.17292" lon="1.19405">
        <ele>58.4</ele>
        <time>2017-05-14T07:44:26Z</time>
      </trkpt>
      <trkpt lat="49.17286" lon="1.19418">
        <ele>58.9</ele>
        <time>2017-05-14T07:44:29Z</time>
      </trkpt>
      <trkpt lat="49.17284" lon="1.19432">
        <ele>59.3</ele>
        <time>2017-05-14T07:44:32Z</time>
      </trkpt>
      <trkpt lat="49.17281" lon="1.19448">
        <ele>59.9</ele>
        <time>2017-05-14T07:44:36Z</time>
      </trkpt>
      <trkpt lat="49.17274" lon="1.19467">
        <ele>60.6</ele>
        <time>2017-05-14T07:44:39Z</time>
      </trkpt>
      <trkpt lat="49.17269" lon="1.19485">
        <ele>60.9</ele>
        <time>2017-05-14T07:44:42Z</time>
      </trkpt>
      <trkpt lat="49.17264" lon="1.19502">
        <ele>61.2</ele>
        <time>2017-05-14T07:44:45Z</time>
      </trkpt>
      <trkpt lat="49.17264" lon="1.19518">
        <ele>61.4</ele>
        <time>2017-05-14T07:44:48Z</time>
      </trkpt>
      <trkpt lat="49.17263" lon="1.19535">
        <ele>61.7</ele>
        <time>2017-05-14T07:44:51Z</time>
      </trkpt>
      <trkpt lat="49.17259" lon="1.19549">
        <ele>62</ele>
        <time>2017-05-14T07:44:54Z</time>
      </trkpt>
      <trkpt lat="49.17257" lon="1.19565">
        <ele>62.4</ele>
        <time>2017-05-14T07:44:57Z</time>
      </trkpt>
      <trkpt lat="49.17257" lon="1.19583">
        <ele>62.7</ele>
        <time>2017-05-14T07:45:00Z</time>
      </trkpt>
      <trkpt lat="49.17256" lon="1.19603">
        <ele>63.2</ele>
        <time>2017-05-14T07:45:03Z</time>
      </trkpt>
      <trkpt lat="49.17257" lon="1.1962">
        <ele>63.7</ele>
        <time>2017-05-14T07:45:06Z</time>
      </trkpt>
      <trkpt lat="49.17258" lon="1.19636">
        <ele>64</ele>
        <time>2017-05-14T07:45:09Z</time>
      </trkpt>
      <trkpt lat="49.17257" lon="1.19654">
        <ele>64.3</ele>
        <time>2017-05-14T07:45:12Z</time>
      </trkpt>
      <trkpt lat="49.17255" lon="1.19671">
        <ele>64.9</ele>
        <time>2017-05-14T07:45:15Z</time>
      </trkpt>
      <trkpt lat="49.17255" lon="1.19688">
        <ele>65.4</ele>
        <time>2017-05-14T07:45:18Z</time>
      </trkpt>
      <trkpt lat="49.17254" lon="1.19705">
        <ele>65.7</ele>
        <time>2017-05-14T07:45:21Z</time>
      </trkpt>
      <trkpt lat="49.17258" lon="1.19718">
        <ele>65.9</ele>
        <time>2017-05-14T07:45:24Z</time>
      </trkpt>
      <trkpt lat="49.17263" lon="1.19733">
        <ele>66.2</ele>
        <time>2017-05-14T07:45:27Z</time>
      </trkpt>
      <trkpt lat="49.17269" lon="1.19746">
        <ele>66.6</ele>
        <time>2017-05-14T07:45:30Z</time>
      </trkpt>
      <trkpt lat="49.1727" lon="1.1976">
        <ele>66.6</ele>
        <time>2017-05-14T07:45:32Z</time>
      </trkpt>
      <trkpt lat="49.17276" lon="1.19776">
        <ele>67</ele>
        <time>2017-05-14T07:45:35Z</time>
      </trkpt>
      <trkpt lat="49.17283" lon="1.1979">
        <ele>67.5</ele>
        <time>2017-05-14T07:45:38Z</time>
      </trkpt>
      <trkpt lat="49.17291" lon="1.19802">
        <ele>68</ele>
        <time>2017-05-14T07:45:41Z</time>
      </trkpt>
      <trkpt lat="49.17299" lon="1.19813">
        <ele>68.3</ele>
        <time>2017-05-14T07:45:44Z</time>
      </trkpt>
      <trkpt lat="49.17307" lon="1.19823">
        <ele>68.5</ele>
        <time>2017-05-14T07:45:47Z</time>
      </trkpt>
      <trkpt lat="49.17318" lon="1.19831">
        <ele>69</ele>
        <time>2017-05-14T07:45:50Z</time>
      </trkpt>
      <trkpt lat="49.17326" lon="1.19842">
        <ele>69.3</ele>
        <time>2017-05-14T07:45:53Z</time>
      </trkpt>
      <trkpt lat="49.17333" lon="1.19851">
        <ele>69.7</ele>
        <time>2017-05-14T07:45:56Z</time>
      </trkpt>
      <trkpt lat="49.1734" lon="1.1986">
        <ele>69.9</ele>
        <time>2017-05-14T07:45:59Z</time>
      </trkpt>
      <trkpt lat="49.17346" lon="1.19871">
        <ele>70.6</ele>
        <time>2017-05-14T07:46:03Z</time>
      </trkpt>
      <trkpt lat="49.17358" lon="1.19879">
        <ele>70.8</ele>
        <time>2017-05-14T07:46:05Z</time>
      </trkpt>
      <trkpt lat="49.17367" lon="1.19886">
        <ele>71</ele>
        <time>2017-05-14T07:46:07Z</time>
      </trkpt>
      <trkpt lat="49.17377" lon="1.19897">
        <ele>71.4</ele>
        <time>2017-05-14T07:46:10Z</time>
      </trkpt>
      <trkpt lat="49.17387" lon="1.19907">
        <ele>71.7</ele>
        <time>2017-05-14T07:46:13Z</time>
      </trkpt>
      <trkpt lat="49.17395" lon="1.1992">
        <ele>72.1</ele>
        <time>2017-05-14T07:46:16Z</time>
      </trkpt>
      <trkpt lat="49.17399" lon="1.19935">
        <ele>72.6</ele>
        <time>2017-05-14T07:46:19Z</time>
      </trkpt>
      <trkpt lat="49.17405" lon="1.19948">
        <ele>73.3</ele>
        <time>2017-05-14T07:46:22Z</time>
      </trkpt>
      <trkpt lat="49.17408" lon="1.19962">
        <ele>73.7</ele>
        <time>2017-05-14T07:46:25Z</time>
      </trkpt>
      <trkpt lat="49.17411" lon="1.19977">
        <ele>73.9</ele>
        <time>2017-05-14T07:46:28Z</time>
      </trkpt>
      <trkpt lat="49.17415" lon="1.19991">
        <ele>74.3</ele>
        <time>2017-05-14T07:46:31Z</time>
      </trkpt>
      <trkpt lat="49.17424" lon="1.20001">
        <ele>74.6</ele>
        <time>2017-05-14T07:46:33Z</time>
      </trkpt>
      <trkpt lat="49.1743" lon="1.20018">
        <ele>75.1</ele>
        <time>2017-05-14T07:46:36Z</time>
      </trkpt>
      <trkpt lat="49.17437" lon="1.20028">
        <ele>75.5</ele>
        <time>2017-05-14T07:46:38Z</time>
      </trkpt>
      <trkpt lat="49.17442" lon="1.20045">
        <ele>76</ele>
        <time>2017-05-14T07:46:41Z</time>
      </trkpt>
      <trkpt lat="49.17446" lon="1.20059">
        <ele>76.3</ele>
        <time>2017-05-14T07:46:44Z</time>
      </trkpt>
      <trkpt lat="49.1745" lon="1.20072">
        <ele>76.9</ele>
        <time>2017-05-14T07:46:47Z</time>
      </trkpt>
      <trkpt lat="49.17457" lon="1.20087">
        <ele>77.4</ele>
        <time>2017-05-14T07:46:51Z</time>
      </trkpt>
      <trkpt lat="49.17459" lon="1.201">
        <ele>78.4</ele>
        <time>2017-05-14T07:46:56Z</time>
      </trkpt>
      <trkpt lat="49.17465" lon="1.20111">
        <ele>79.2</ele>
        <time>2017-05-14T07:47:00Z</time>
      </trkpt>
      <trkpt lat="49.1747" lon="1.20124">
        <ele>80.1</ele>
        <time>2017-05-14T07:47:05Z</time>
      </trkpt>
      <trkpt lat="49.17479" lon="1.20137">
        <ele>80.6</ele>
        <time>2017-05-14T07:47:08Z</time>
      </trkpt>
      <trkpt lat="49.17488" lon="1.20147">
        <ele>81.7</ele>
        <time>2017-05-14T07:47:12Z</time>
      </trkpt>
      <trkpt lat="49.17495" lon="1.20155">
        <ele>82.7</ele>
        <time>2017-05-14T07:47:16Z</time>
      </trkpt>
      <trkpt lat="49.17503" lon="1.20162">
        <ele>83.5</ele>
        <time>2017-05-14T07:47:20Z</time>
      </trkpt>
      <trkpt lat="49.17511" lon="1.20172">
        <ele>84</ele>
        <time>2017-05-14T07:47:24Z</time>
      </trkpt>
      <trkpt lat="49.17523" lon="1.20183">
        <ele>84.9</ele>
        <time>2017-05-14T07:47:30Z</time>
      </trkpt>
      <trkpt lat="49.17533" lon="1.20186">
        <ele>85.5</ele>
        <time>2017-05-14T07:47:33Z</time>
      </trkpt>
      <trkpt lat="49.17542" lon="1.20191">
        <ele>86.2</ele>
        <time>2017-05-14T07:47:37Z</time>
      </trkpt>
      <trkpt lat="49.17552" lon="1.20194">
        <ele>87.4</ele>
        <time>2017-05-14T07:47:41Z</time>
      </trkpt>
      <trkpt lat="49.17561" lon="1.202">
        <ele>88.4</ele>
        <time>2017-05-14T07:47:45Z</time>
      </trkpt>
      <trkpt lat="49.1757" lon="1.20209">
        <ele>90.3</ele>
        <time>2017-05-14T07:47:52Z</time>
      </trkpt>
      <trkpt lat="49.17579" lon="1.20215">
        <ele>91.5</ele>
        <time>2017-05-14T07:47:57Z</time>
      </trkpt>
      <trkpt lat="49.17588" lon="1.20223">
        <ele>92.6</ele>
        <time>2017-05-14T07:48:02Z</time>
      </trkpt>
      <trkpt lat="49.17598" lon="1.20231">
        <ele>93.7</ele>
        <time>2017-05-14T07:48:07Z</time>
      </trkpt>
      <trkpt lat="49.17607" lon="1.20236">
        <ele>94.5</ele>
        <time>2017-05-14T07:48:11Z</time>
      </trkpt>
      <trkpt lat="49.17616" lon="1.20241">
        <ele>95.4</ele>
        <time>2017-05-14T07:48:16Z</time>
      </trkpt>
      <trkpt lat="49.17625" lon="1.20249">
        <ele>96.4</ele>
        <time>2017-05-14T07:48:20Z</time>
      </trkpt>
      <trkpt lat="49.17637" lon="1.20257">
        <ele>97.3</ele>
        <time>2017-05-14T07:48:25Z</time>
      </trkpt>
      <trkpt lat="49.17642" lon="1.20268">
        <ele>98.3</ele>
        <time>2017-05-14T07:48:31Z</time>
      </trkpt>
      <trkpt lat="49.17651" lon="1.20282">
        <ele>99.8</ele>
        <time>2017-05-14T07:48:37Z</time>
      </trkpt>
      <trkpt lat="49.17659" lon="1.20295">
        <ele>100.5</ele>
        <time>2017-05-14T07:48:41Z</time>
      </trkpt>
      <trkpt lat="49.17667" lon="1.20306">
        <ele>101.2</ele>
        <time>2017-05-14T07:48:45Z</time>
      </trkpt>
      <trkpt lat="49.17672" lon="1.20318">
        <ele>101.9</ele>
        <time>2017-05-14T07:48:49Z</time>
      </trkpt>
      <trkpt lat="49.1768" lon="1.20332">
        <ele>102.8</ele>
        <time>2017-05-14T07:48:54Z</time>
      </trkpt>
      <trkpt lat="49.17686" lon="1.20344">
        <ele>103.7</ele>
        <time>2017-05-14T07:48:58Z</time>
      </trkpt>
      <trkpt lat="49.17694" lon="1.20355">
        <ele>104.3</ele>
        <time>2017-05-14T07:49:01Z</time>
      </trkpt>
      <trkpt lat="49.17699" lon="1.20367">
        <ele>105</ele>
        <time>2017-05-14T07:49:05Z</time>
      </trkpt>
      <trkpt lat="49.17705" lon="1.20381">
        <ele>105.7</ele>
        <time>2017-05-14T07:49:09Z</time>
      </trkpt>
      <trkpt lat="49.1771" lon="1.20395">
        <ele>106.6</ele>
        <time>2017-05-14T07:49:14Z</time>
      </trkpt>
      <trkpt lat="49.17713" lon="1.2041">
        <ele>107.5</ele>
        <time>2017-05-14T07:49:18Z</time>
      </trkpt>
      <trkpt lat="49.17718" lon="1.20424">
        <ele>108.3</ele>
        <time>2017-05-14T07:49:22Z</time>
      </trkpt>
      <trkpt lat="49.17725" lon="1.20438">
        <ele>109</ele>
        <time>2017-05-14T07:49:26Z</time>
      </trkpt>
      <trkpt lat="49.17728" lon="1.20451">
        <ele>110</ele>
        <time>2017-05-14T07:49:30Z</time>
      </trkpt>
      <trkpt lat="49.17734" lon="1.20464">
        <ele>110.8</ele>
        <time>2017-05-14T07:49:34Z</time>
      </trkpt>
      <trkpt lat="49.17741" lon="1.20476">
        <ele>111.5</ele>
        <time>2017-05-14T07:49:38Z</time>
      </trkpt>
      <trkpt lat="49.17748" lon="1.20487">
        <ele>112.1</ele>
        <time>2017-05-14T07:49:42Z</time>
      </trkpt>
      <trkpt lat="49.17755" lon="1.20497">
        <ele>113.1</ele>
        <time>2017-05-14T07:49:47Z</time>
      </trkpt>
      <trkpt lat="49.17763" lon="1.20508">
        <ele>113.7</ele>
        <time>2017-05-14T07:49:51Z</time>
      </trkpt>
      <trkpt lat="49.17769" lon="1.20518">
        <ele>115.1</ele>
        <time>2017-05-14T07:49:56Z</time>
      </trkpt>
      <trkpt lat="49.17771" lon="1.20532">
        <ele>116.4</ele>
        <time>2017-05-14T07:50:01Z</time>
      </trkpt>
      <trkpt lat="49.17774" lon="1.20547">
        <ele>117.9</ele>
        <time>2017-05-14T07:50:07Z</time>
      </trkpt>
      <trkpt lat="49.17773" lon="1.20561">
        <ele>119.9</ele>
        <time>2017-05-14T07:50:14Z</time>
      </trkpt>
      <trkpt lat="49.17769" lon="1.20574">
        <ele>121.6</ele>
        <time>2017-05-14T07:50:20Z</time>
      </trkpt>
      <trkpt lat="49.17765" lon="1.20589">
        <ele>123.7</ele>
        <time>2017-05-14T07:50:27Z</time>
      </trkpt>
      <trkpt lat="49.17761" lon="1.20602">
        <ele>126.3</ele>
        <time>2017-05-14T07:50:35Z</time>
      </trkpt>
      <trkpt lat="49.17758" lon="1.20617">
        <ele>128.3</ele>
        <time>2017-05-14T07:50:42Z</time>
      </trkpt>
      <trkpt lat="49.17757" lon="1.20632">
        <ele>129.8</ele>
        <time>2017-05-14T07:50:48Z</time>
      </trkpt>
      <trkpt lat="49.17756" lon="1.20646">
        <ele>131.4</ele>
        <time>2017-05-14T07:50:54Z</time>
      </trkpt>
      <trkpt lat="49.17752" lon="1.20659">
        <ele>132.6</ele>
        <time>2017-05-14T07:51:00Z</time>
      </trkpt>
      <trkpt lat="49.17744" lon="1.20666">
        <ele>133.3</ele>
        <time>2017-05-14T07:51:05Z</time>
      </trkpt>
      <trkpt lat="49.17735" lon="1.2067">
        <ele>134</ele>
        <time>2017-05-14T07:51:10Z</time>
      </trkpt>
      <trkpt lat="49.17724" lon="1.2067">
        <ele>135</ele>
        <time>2017-05-14T07:51:16Z</time>
      </trkpt>
      <trkpt lat="49.17714" lon="1.20668">
        <ele>135.5</ele>
        <time>2017-05-14T07:51:21Z</time>
      </trkpt>
      <trkpt lat="49.17704" lon="1.20667">
        <ele>136</ele>
        <time>2017-05-14T07:51:25Z</time>
      </trkpt>
      <trkpt lat="49.17693" lon="1.20663">
        <ele>136.3</ele>
        <time>2017-05-14T07:51:29Z</time>
      </trkpt>
      <trkpt lat="49.17683" lon="1.2066">
        <ele>136.2</ele>
        <time>2017-05-14T07:51:33Z</time>
      </trkpt>
      <trkpt lat="49.17673" lon="1.20657">
        <ele>136.1</ele>
        <time>2017-05-14T07:51:37Z</time>
      </trkpt>
      <trkpt lat="49.17664" lon="1.20652">
        <ele>136.1</ele>
        <time>2017-05-14T07:51:40Z</time>
      </trkpt>
      <trkpt lat="49.17653" lon="1.20644">
        <ele>136.1</ele>
        <time>2017-05-14T07:51:44Z</time>
      </trkpt>
      <trkpt lat="49.17642" lon="1.20639">
        <ele>136.2</ele>
        <time>2017-05-14T07:51:48Z</time>
      </trkpt>
      <trkpt lat="49.17632" lon="1.20633">
        <ele>136.3</ele>
        <time>2017-05-14T07:51:52Z</time>
      </trkpt>
      <trkpt lat="49.17622" lon="1.20629">
        <ele>136.2</ele>
        <time>2017-05-14T07:51:56Z</time>
      </trkpt>
      <trkpt lat="49.17612" lon="1.20625">
        <ele>136.1</ele>
        <time>2017-05-14T07:52:00Z</time>
      </trkpt>
      <trkpt lat="49.17603" lon="1.20624">
        <ele>136.1</ele>
        <time>2017-05-14T07:52:04Z</time>
      </trkpt>
      <trkpt lat="49.17591" lon="1.20622">
        <ele>136</ele>
        <time>2017-05-14T07:52:08Z</time>
      </trkpt>
      <trkpt lat="49.17581" lon="1.20615">
        <ele>136</ele>
        <time>2017-05-14T07:52:12Z</time>
      </trkpt>
      <trkpt lat="49.17573" lon="1.2061">
        <ele>135.5</ele>
        <time>2017-05-14T07:52:15Z</time>
      </trkpt>
      <trkpt lat="49.17562" lon="1.20603">
        <ele>135.2</ele>
        <time>2017-05-14T07:52:18Z</time>
      </trkpt>
      <trkpt lat="49.17552" lon="1.20599">
        <ele>134.7</ele>
        <time>2017-05-14T07:52:21Z</time>
      </trkpt>
      <trkpt lat="49.17543" lon="1.20596">
        <ele>134.4</ele>
        <time>2017-05-14T07:52:24Z</time>
      </trkpt>
      <trkpt lat="49.17534" lon="1.20591">
        <ele>133.4</ele>
        <time>2017-05-14T07:53:29Z</time>
      </trkpt>
      <trkpt lat="49.17523" lon="1.20588">
        <ele>133.4</ele>
        <time>2017-05-14T07:53:34Z</time>
      </trkpt>
      <trkpt lat="49.17514" lon="1.20581">
        <ele>133.6</ele>
        <time>2017-05-14T07:53:38Z</time>
      </trkpt>
      <trkpt lat="49.17503" lon="1.20577">
        <ele>133.3</ele>
        <time>2017-05-14T07:53:41Z</time>
      </trkpt>
      <trkpt lat="49.1749" lon="1.20572">
        <ele>132.9</ele>
        <time>2017-05-14T07:53:44Z</time>
      </trkpt>
      <trkpt lat="49.17478" lon="1.20568">
        <ele>132.5</ele>
        <time>2017-05-14T07:53:47Z</time>
      </trkpt>
      <trkpt lat="49.17467" lon="1.20561">
        <ele>131.6</ele>
        <time>2017-05-14T07:53:50Z</time>
      </trkpt>
      <trkpt lat="49.17458" lon="1.20556">
        <ele>129.4</ele>
        <time>2017-05-14T07:53:55Z</time>
      </trkpt>
      <trkpt lat="49.17449" lon="1.20551">
        <ele>126.9</ele>
        <time>2017-05-14T07:54:02Z</time>
      </trkpt>
      <trkpt lat="49.1744" lon="1.20544">
        <ele>124.5</ele>
        <time>2017-05-14T07:54:10Z</time>
      </trkpt>
      <trkpt lat="49.17431" lon="1.20539">
        <ele>125.7</ele>
        <time>2017-05-14T07:54:21Z</time>
      </trkpt>
      <trkpt lat="49.17421" lon="1.20537">
        <ele>128.3</ele>
        <time>2017-05-14T07:54:32Z</time>
      </trkpt>
      <trkpt lat="49.17412" lon="1.20532">
        <ele>129.7</ele>
        <time>2017-05-14T07:54:40Z</time>
      </trkpt>
      <trkpt lat="49.17403" lon="1.20527">
        <ele>131.1</ele>
        <time>2017-05-14T07:55:03Z</time>
      </trkpt>
      <trkpt lat="49.17393" lon="1.20526">
        <ele>131.7</ele>
        <time>2017-05-14T07:55:07Z</time>
      </trkpt>
      <trkpt lat="49.17385" lon="1.20521">
        <ele>132.5</ele>
        <time>2017-05-14T07:55:12Z</time>
      </trkpt>
      <trkpt lat="49.17374" lon="1.20516">
        <ele>132.9</ele>
        <time>2017-05-14T07:55:16Z</time>
      </trkpt>
      <trkpt lat="49.17365" lon="1.2051">
        <ele>133.5</ele>
        <time>2017-05-14T07:55:26Z</time>
      </trkpt>
      <trkpt lat="49.17356" lon="1.20506">
        <ele>133.6</ele>
        <time>2017-05-14T07:55:32Z</time>
      </trkpt>
      <trkpt lat="49.17345" lon="1.205">
        <ele>133.9</ele>
        <time>2017-05-14T07:55:36Z</time>
      </trkpt>
      <trkpt lat="49.17336" lon="1.20495">
        <ele>134.2</ele>
        <time>2017-05-14T07:55:39Z</time>
      </trkpt>
      <trkpt lat="49.17325" lon="1.2049">
        <ele>134.5</ele>
        <time>2017-05-14T07:55:42Z</time>
      </trkpt>
      <trkpt lat="49.17314" lon="1.20486">
        <ele>134.6</ele>
        <time>2017-05-14T07:55:46Z</time>
      </trkpt>
      <trkpt lat="49.17304" lon="1.20481">
        <ele>134.1</ele>
        <time>2017-05-14T07:55:49Z</time>
      </trkpt>
      <trkpt lat="49.17292" lon="1.20478">
        <ele>134.1</ele>
        <time>2017-05-14T07:55:52Z</time>
      </trkpt>
      <trkpt lat="49.17282" lon="1.20479">
        <ele>134</ele>
        <time>2017-05-14T07:55:54Z</time>
      </trkpt>
      <trkpt lat="49.17275" lon="1.20488">
        <ele>134.1</ele>
        <time>2017-05-14T07:55:57Z</time>
      </trkpt>
      <trkpt lat="49.1727" lon="1.20499">
        <ele>134.4</ele>
        <time>2017-05-14T07:56:00Z</time>
      </trkpt>
      <trkpt lat="49.17261" lon="1.20508">
        <ele>135</ele>
        <time>2017-05-14T07:56:03Z</time>
      </trkpt>
      <trkpt lat="49.1725" lon="1.20515">
        <ele>135.4</ele>
        <time>2017-05-14T07:56:06Z</time>
      </trkpt>
      <trkpt lat="49.17243" lon="1.20524">
        <ele>135.7</ele>
        <time>2017-05-14T07:56:08Z</time>
      </trkpt>
      <trkpt lat="49.17237" lon="1.20535">
        <ele>135.9</ele>
        <time>2017-05-14T07:56:10Z</time>
      </trkpt>
      <trkpt lat="49.17232" lon="1.20551">
        <ele>136.3</ele>
        <time>2017-05-14T07:56:13Z</time>
      </trkpt>
      <trkpt lat="49.17229" lon="1.20568">
        <ele>136.4</ele>
        <time>2017-05-14T07:56:16Z</time>
      </trkpt>
      <trkpt lat="49.17226" lon="1.20581">
        <ele>136.4</ele>
        <time>2017-05-14T07:56:18Z</time>
      </trkpt>
      <trkpt lat="49.17225" lon="1.20597">
        <ele>136.8</ele>
        <time>2017-05-14T07:56:21Z</time>
      </trkpt>
      <trkpt lat="49.17222" lon="1.20614">
        <ele>137.3</ele>
        <time>2017-05-14T07:56:24Z</time>
      </trkpt>
      <trkpt lat="49.17219" lon="1.20631">
        <ele>137.5</ele>
        <time>2017-05-14T07:56:27Z</time>
      </trkpt>
      <trkpt lat="49.17217" lon="1.20648">
        <ele>138.2</ele>
        <time>2017-05-14T07:56:30Z</time>
      </trkpt>
      <trkpt lat="49.17217" lon="1.20663">
        <ele>138.5</ele>
        <time>2017-05-14T07:56:33Z</time>
      </trkpt>
      <trkpt lat="49.17216" lon="1.20682">
        <ele>138.7</ele>
        <time>2017-05-14T07:56:36Z</time>
      </trkpt>
      <trkpt lat="49.17216" lon="1.20702">
        <ele>138.5</ele>
        <time>2017-05-14T07:56:39Z</time>
      </trkpt>
      <trkpt lat="49.17218" lon="1.2072">
        <ele>138.8</ele>
        <time>2017-05-14T07:56:42Z</time>
      </trkpt>
      <trkpt lat="49.17218" lon="1.20736">
        <ele>139.5</ele>
        <time>2017-05-14T07:56:45Z</time>
      </trkpt>
      <trkpt lat="49.17217" lon="1.20754">
        <ele>140.3</ele>
        <time>2017-05-14T07:56:49Z</time>
      </trkpt>
      <trkpt lat="49.17216" lon="1.2077">
        <ele>141.9</ele>
        <time>2017-05-14T07:56:54Z</time>
      </trkpt>
      <trkpt lat="49.17212" lon="1.20787">
        <ele>143.3</ele>
        <time>2017-05-14T07:56:58Z</time>
      </trkpt>
      <trkpt lat="49.17206" lon="1.20802">
        <ele>144.2</ele>
        <time>2017-05-14T07:57:01Z</time>
      </trkpt>
      <trkpt lat="49.172" lon="1.20815">
        <ele>144.8</ele>
        <time>2017-05-14T07:57:04Z</time>
      </trkpt>
      <trkpt lat="49.17196" lon="1.20832">
        <ele>145.4</ele>
        <time>2017-05-14T07:57:08Z</time>
      </trkpt>
      <trkpt lat="49.17192" lon="1.20848">
        <ele>145.8</ele>
        <time>2017-05-14T07:57:11Z</time>
      </trkpt>
      <trkpt lat="49.17191" lon="1.20863">
        <ele>146.4</ele>
        <time>2017-05-14T07:57:14Z</time>
      </trkpt>
      <trkpt lat="49.17192" lon="1.20881">
        <ele>147.1</ele>
        <time>2017-05-14T07:57:18Z</time>
      </trkpt>
      <trkpt lat="49.17193" lon="1.20896">
        <ele>147.3</ele>
        <time>2017-05-14T07:57:21Z</time>
      </trkpt>
      <trkpt lat="49.17194" lon="1.2091">
        <ele>147.6</ele>
        <time>2017-05-14T07:57:24Z</time>
      </trkpt>
      <trkpt lat="49.17194" lon="1.20924">
        <ele>148</ele>
        <time>2017-05-14T07:57:27Z</time>
      </trkpt>
      <trkpt lat="49.17196" lon="1.2094">
        <ele>148.2</ele>
        <time>2017-05-14T07:57:30Z</time>
      </trkpt>
      <trkpt lat="49.17196" lon="1.20953">
        <ele>148.6</ele>
        <time>2017-05-14T07:57:33Z</time>
      </trkpt>
      <trkpt lat="49.17197" lon="1.20972">
        <ele>148.9</ele>
        <time>2017-05-14T07:57:37Z</time>
      </trkpt>
      <trkpt lat="49.17194" lon="1.20987">
        <ele>149.1</ele>
        <time>2017-05-14T07:57:40Z</time>
      </trkpt>
      <trkpt lat="49.17188" lon="1.21002">
        <ele>149.3</ele>
        <time>2017-05-14T07:57:43Z</time>
      </trkpt>
      <trkpt lat="49.17185" lon="1.21016">
        <ele>149.4</ele>
        <time>2017-05-14T07:57:46Z</time>
      </trkpt>
      <trkpt lat="49.17183" lon="1.21031">
        <ele>149.7</ele>
        <time>2017-05-14T07:57:49Z</time>
      </trkpt>
      <trkpt lat="49.17179" lon="1.21044">
        <ele>149.8</ele>
        <time>2017-05-14T07:57:51Z</time>
      </trkpt>
      <trkpt lat="49.17176" lon="1.21058">
        <ele>149.9</ele>
        <time>2017-05-14T07:57:54Z</time>
      </trkpt>
      <trkpt lat="49.17171" lon="1.21073">
        <ele>150.2</ele>
        <time>2017-05-14T07:57:57Z</time>
      </trkpt>
      <trkpt lat="49.17168" lon="1.2109">
        <ele>150.5</ele>
        <time>2017-05-14T07:58:00Z</time>
      </trkpt>
      <trkpt lat="49.17165" lon="1.21109">
        <ele>150.7</ele>
        <time>2017-05-14T07:58:03Z</time>
      </trkpt>
      <trkpt lat="49.17164" lon="1.21127">
        <ele>150.7</ele>
        <time>2017-05-14T07:58:06Z</time>
      </trkpt>
      <trkpt lat="49.17162" lon="1.2114">
        <ele>150.9</ele>
        <time>2017-05-14T07:58:09Z</time>
      </trkpt>
      <trkpt lat="49.1716" lon="1.21157">
        <ele>151.2</ele>
        <time>2017-05-14T07:58:12Z</time>
      </trkpt>
      <trkpt lat="49.17157" lon="1.21176">
        <ele>151.4</ele>
        <time>2017-05-14T07:58:15Z</time>
      </trkpt>
      <trkpt lat="49.17155" lon="1.21191">
        <ele>151.8</ele>
        <time>2017-05-14T07:58:18Z</time>
      </trkpt>
      <trkpt lat="49.17155" lon="1.21206">
        <ele>151.5</ele>
        <time>2017-05-14T07:58:21Z</time>
      </trkpt>
      <trkpt lat="49.17156" lon="1.21224">
        <ele>151.7</ele>
        <time>2017-05-14T07:58:24Z</time>
      </trkpt>
      <trkpt lat="49.17157" lon="1.21239">
        <ele>151.9</ele>
        <time>2017-05-14T07:58:26Z</time>
      </trkpt>
      <trkpt lat="49.17157" lon="1.21255">
        <ele>152</ele>
        <time>2017-05-14T07:58:28Z</time>
      </trkpt>
      <trkpt lat="49.17159" lon="1.21271">
        <ele>152.1</ele>
        <time>2017-05-14T07:58:31Z</time>
      </trkpt>
      <trkpt lat="49.17161" lon="1.21288">
        <ele>152.2</ele>
        <time>2017-05-14T07:58:34Z</time>
      </trkpt>
      <trkpt lat="49.17162" lon="1.21303">
        <ele>152.2</ele>
        <time>2017-05-14T07:58:36Z</time>
      </trkpt>
      <trkpt lat="49.17162" lon="1.21317">
        <ele>152.3</ele>
        <time>2017-05-14T07:58:38Z</time>
      </trkpt>
      <trkpt lat="49.17162" lon="1.21332">
        <ele>152.1</ele>
        <time>2017-05-14T07:58:40Z</time>
      </trkpt>
      <trkpt lat="49.17165" lon="1.21352">
        <ele>152.1</ele>
        <time>2017-05-14T07:58:43Z</time>
      </trkpt>
      <trkpt lat="49.17169" lon="1.21366">
        <ele>152.2</ele>
        <time>2017-05-14T07:58:45Z</time>
      </trkpt>
      <trkpt lat="49.17172" lon="1.21382">
        <ele>152</ele>
        <time>2017-05-14T07:58:47Z</time>
      </trkpt>
      <trkpt lat="49.17174" lon="1.21397">
        <ele>152.1</ele>
        <time>2017-05-14T07:58:49Z</time>
      </trkpt>
      <trkpt lat="49.17172" lon="1.21411">
        <ele>151.9</ele>
        <time>2017-05-14T07:58:52Z</time>
      </trkpt>
      <trkpt lat="49.17163" lon="1.21417">
        <ele>151.9</ele>
        <time>2017-05-14T07:58:55Z</time>
      </trkpt>
      <trkpt lat="49.17153" lon="1.21418">
        <ele>152.1</ele>
        <time>2017-05-14T07:58:59Z</time>
      </trkpt>
      <trkpt lat="49.17142" lon="1.21423">
        <ele>151.9</ele>
        <time>2017-05-14T07:59:02Z</time>
      </trkpt>
      <trkpt lat="49.17132" lon="1.21433">
        <ele>151.8</ele>
        <time>2017-05-14T07:59:05Z</time>
      </trkpt>
      <trkpt lat="49.1712" lon="1.21444">
        <ele>151.5</ele>
        <time>2017-05-14T07:59:08Z</time>
      </trkpt>
      <trkpt lat="49.17111" lon="1.21454">
        <ele>151.2</ele>
        <time>2017-05-14T07:59:10Z</time>
      </trkpt>
      <trkpt lat="49.17101" lon="1.21461">
        <ele>151</ele>
        <time>2017-05-14T07:59:12Z</time>
      </trkpt>
      <trkpt lat="49.17091" lon="1.2147">
        <ele>150.6</ele>
        <time>2017-05-14T07:59:14Z</time>
      </trkpt>
      <trkpt lat="49.17081" lon="1.21482">
        <ele>150.1</ele>
        <time>2017-05-14T07:59:16Z</time>
      </trkpt>
      <trkpt lat="49.17072" lon="1.21488">
        <ele>149.1</ele>
        <time>2017-05-14T07:59:18Z</time>
      </trkpt>
      <trkpt lat="49.17062" lon="1.21493">
        <ele>148.1</ele>
        <time>2017-05-14T07:59:20Z</time>
      </trkpt>
      <trkpt lat="49.17048" lon="1.21497">
        <ele>146.6</ele>
        <time>2017-05-14T07:59:22Z</time>
      </trkpt>
      <trkpt lat="49.17037" lon="1.21503">
        <ele>144.4</ele>
        <time>2017-05-14T07:59:24Z</time>
      </trkpt>
      <trkpt lat="49.17023" lon="1.21508">
        <ele>141.1</ele>
        <time>2017-05-14T07:59:27Z</time>
      </trkpt>
      <trkpt lat="49.17013" lon="1.21521">
        <ele>138.3</ele>
        <time>2017-05-14T07:59:30Z</time>
      </trkpt>
      <trkpt lat="49.17008" lon="1.21532">
        <ele>137.4</ele>
        <time>2017-05-14T07:59:32Z</time>
      </trkpt>
      <trkpt lat="49.17002" lon="1.21544">
        <ele>136.9</ele>
        <time>2017-05-14T07:59:34Z</time>
      </trkpt>
      <trkpt lat="49.17" lon="1.21558">
        <ele>136.5</ele>
        <time>2017-05-14T07:59:38Z</time>
      </trkpt>
      <trkpt lat="49.16994" lon="1.21574">
        <ele>136.9</ele>
        <time>2017-05-14T07:59:42Z</time>
      </trkpt>
      <trkpt lat="49.16989" lon="1.21588">
        <ele>137</ele>
        <time>2017-05-14T07:59:45Z</time>
      </trkpt>
      <trkpt lat="49.16983" lon="1.216">
        <ele>137.2</ele>
        <time>2017-05-14T07:59:48Z</time>
      </trkpt>
      <trkpt lat="49.16973" lon="1.21606">
        <ele>137.3</ele>
        <time>2017-05-14T07:59:51Z</time>
      </trkpt>
      <trkpt lat="49.16968" lon="1.21594">
        <ele>136.7</ele>
        <time>2017-05-14T07:59:57Z</time>
      </trkpt>
      <trkpt lat="49.1696" lon="1.21588">
        <ele>137.6</ele>
        <time>2017-05-14T08:00:01Z</time>
      </trkpt>
      <trkpt lat="49.16951" lon="1.2158">
        <ele>140.3</ele>
        <time>2017-05-14T08:00:07Z</time>
      </trkpt>
      <trkpt lat="49.16944" lon="1.21572">
        <ele>142.3</ele>
        <time>2017-05-14T08:00:11Z</time>
      </trkpt>
      <trkpt lat="49.16937" lon="1.21563">
        <ele>144.1</ele>
        <time>2017-05-14T08:00:16Z</time>
      </trkpt>
      <trkpt lat="49.1693" lon="1.21551">
        <ele>145.9</ele>
        <time>2017-05-14T08:00:22Z</time>
      </trkpt>
      <trkpt lat="49.16928" lon="1.21537">
        <ele>147</ele>
        <time>2017-05-14T08:00:28Z</time>
      </trkpt>
      <trkpt lat="49.16927" lon="1.21523">
        <ele>147.4</ele>
        <time>2017-05-14T08:00:32Z</time>
      </trkpt>
      <trkpt lat="49.16924" lon="1.21508">
        <ele>147.3</ele>
        <time>2017-05-14T08:00:35Z</time>
      </trkpt>
      <trkpt lat="49.1692" lon="1.21495">
        <ele>147.1</ele>
        <time>2017-05-14T08:00:38Z</time>
      </trkpt>
      <trkpt lat="49.16915" lon="1.2148">
        <ele>146.9</ele>
        <time>2017-05-14T08:00:42Z</time>
      </trkpt>
      <trkpt lat="49.1691" lon="1.21467">
        <ele>146.8</ele>
        <time>2017-05-14T08:00:45Z</time>
      </trkpt>
      <trkpt lat="49.16903" lon="1.21454">
        <ele>146.9</ele>
        <time>2017-05-14T08:00:48Z</time>
      </trkpt>
      <trkpt lat="49.16893" lon="1.21446">
        <ele>147.2</ele>
        <time>2017-05-14T08:00:51Z</time>
      </trkpt>
      <trkpt lat="49.16884" lon="1.2144">
        <ele>147.5</ele>
        <time>2017-05-14T08:00:54Z</time>
      </trkpt>
      <trkpt lat="49.16874" lon="1.21433">
        <ele>147.9</ele>
        <time>2017-05-14T08:00:57Z</time>
      </trkpt>
      <trkpt lat="49.16864" lon="1.2143">
        <ele>148.4</ele>
        <time>2017-05-14T08:01:00Z</time>
      </trkpt>
      <trkpt lat="49.16856" lon="1.21424">
        <ele>148.7</ele>
        <time>2017-05-14T08:01:03Z</time>
      </trkpt>
      <trkpt lat="49.16846" lon="1.21421">
        <ele>149.1</ele>
        <time>2017-05-14T08:01:06Z</time>
      </trkpt>
      <trkpt lat="49.16836" lon="1.21423">
        <ele>149.2</ele>
        <time>2017-05-14T08:01:09Z</time>
      </trkpt>
      <trkpt lat="49.16826" lon="1.21426">
        <ele>149.6</ele>
        <time>2017-05-14T08:01:12Z</time>
      </trkpt>
      <trkpt lat="49.16816" lon="1.21429">
        <ele>150</ele>
        <time>2017-05-14T08:01:15Z</time>
      </trkpt>
      <trkpt lat="49.16805" lon="1.21432">
        <ele>150.1</ele>
        <time>2017-05-14T08:01:18Z</time>
      </trkpt>
      <trkpt lat="49.16795" lon="1.21436">
        <ele>150.4</ele>
        <time>2017-05-14T08:01:21Z</time>
      </trkpt>
      <trkpt lat="49.16786" lon="1.21439">
        <ele>150.5</ele>
        <time>2017-05-14T08:01:24Z</time>
      </trkpt>
      <trkpt lat="49.16775" lon="1.21441">
        <ele>150.6</ele>
        <time>2017-05-14T08:01:27Z</time>
      </trkpt>
      <trkpt lat="49.16764" lon="1.21444">
        <ele>150.6</ele>
        <time>2017-05-14T08:01:30Z</time>
      </trkpt>
      <trkpt lat="49.16753" lon="1.21448">
        <ele>150.5</ele>
        <time>2017-05-14T08:01:33Z</time>
      </trkpt>
      <trkpt lat="49.16742" lon="1.21452">
        <ele>150.6</ele>
        <time>2017-05-14T08:01:36Z</time>
      </trkpt>
      <trkpt lat="49.16732" lon="1.21458">
        <ele>150.7</ele>
        <time>2017-05-14T08:01:39Z</time>
      </trkpt>
      <trkpt lat="49.16724" lon="1.21468">
        <ele>150.7</ele>
        <time>2017-05-14T08:01:42Z</time>
      </trkpt>
      <trkpt lat="49.16716" lon="1.21481">
        <ele>150.8</ele>
        <time>2017-05-14T08:01:45Z</time>
      </trkpt>
      <trkpt lat="49.16708" lon="1.21493">
        <ele>151</ele>
        <time>2017-05-14T08:01:48Z</time>
      </trkpt>
      <trkpt lat="49.167" lon="1.21506">
        <ele>151</ele>
        <time>2017-05-14T08:01:51Z</time>
      </trkpt>
      <trkpt lat="49.16692" lon="1.21519">
        <ele>151.1</ele>
        <time>2017-05-14T08:01:54Z</time>
      </trkpt>
      <trkpt lat="49.16685" lon="1.21531">
        <ele>151.4</ele>
        <time>2017-05-14T08:01:57Z</time>
      </trkpt>
      <trkpt lat="49.16677" lon="1.21542">
        <ele>151.6</ele>
        <time>2017-05-14T08:02:00Z</time>
      </trkpt>
      <trkpt lat="49.16669" lon="1.21554">
        <ele>151.9</ele>
        <time>2017-05-14T08:02:03Z</time>
      </trkpt>
      <trkpt lat="49.16662" lon="1.21566">
        <ele>152.1</ele>
        <time>2017-05-14T08:02:06Z</time>
      </trkpt>
      <trkpt lat="49.16655" lon="1.2158">
        <ele>152.5</ele>
        <time>2017-05-14T08:02:09Z</time>
      </trkpt>
      <trkpt lat="49.16649" lon="1.21591">
        <ele>153</ele>
        <time>2017-05-14T08:02:12Z</time>
      </trkpt>
      <trkpt lat="49.16642" lon="1.21603">
        <ele>153.4</ele>
        <time>2017-05-14T08:02:15Z</time>
      </trkpt>
      <trkpt lat="49.16635" lon="1.21616">
        <ele>153.8</ele>
        <time>2017-05-14T08:02:18Z</time>
      </trkpt>
      <trkpt lat="49.16628" lon="1.21627">
        <ele>154.2</ele>
        <time>2017-05-14T08:02:21Z</time>
      </trkpt>
      <trkpt lat="49.16622" lon="1.2164">
        <ele>154.6</ele>
        <time>2017-05-14T08:02:24Z</time>
      </trkpt>
      <trkpt lat="49.16616" lon="1.21652">
        <ele>154.8</ele>
        <time>2017-05-14T08:02:27Z</time>
      </trkpt>
      <trkpt lat="49.1661" lon="1.21663">
        <ele>155.1</ele>
        <time>2017-05-14T08:02:30Z</time>
      </trkpt>
      <trkpt lat="49.16603" lon="1.21676">
        <ele>155.5</ele>
        <time>2017-05-14T08:02:33Z</time>
      </trkpt>
      <trkpt lat="49.16598" lon="1.21689">
        <ele>155.9</ele>
        <time>2017-05-14T08:02:36Z</time>
      </trkpt>
      <trkpt lat="49.16593" lon="1.21704">
        <ele>156.1</ele>
        <time>2017-05-14T08:02:39Z</time>
      </trkpt>
      <trkpt lat="49.16589" lon="1.21719">
        <ele>156.6</ele>
        <time>2017-05-14T08:02:42Z</time>
      </trkpt>
      <trkpt lat="49.16584" lon="1.21734">
        <ele>156.9</ele>
        <time>2017-05-14T08:02:45Z</time>
      </trkpt>
      <trkpt lat="49.16581" lon="1.21748">
        <ele>157.1</ele>
        <time>2017-05-14T08:02:48Z</time>
      </trkpt>
      <trkpt lat="49.16577" lon="1.21763">
        <ele>157.2</ele>
        <time>2017-05-14T08:02:51Z</time>
      </trkpt>
      <trkpt lat="49.16573" lon="1.21777">
        <ele>157.7</ele>
        <time>2017-05-14T08:02:54Z</time>
      </trkpt>
      <trkpt lat="49.16568" lon="1.21789">
        <ele>158.2</ele>
        <time>2017-05-14T08:02:57Z</time>
      </trkpt>
      <trkpt lat="49.16564" lon="1.21804">
        <ele>158.3</ele>
        <time>2017-05-14T08:03:00Z</time>
      </trkpt>
      <trkpt lat="49.16559" lon="1.21817">
        <ele>158.5</ele>
        <time>2017-05-14T08:03:03Z</time>
      </trkpt>
      <trkpt lat="49.16554" lon="1.21831">
        <ele>158.7</ele>
        <time>2017-05-14T08:03:06Z</time>
      </trkpt>
      <trkpt lat="49.16551" lon="1.21845">
        <ele>159</ele>
        <time>2017-05-14T08:03:09Z</time>
      </trkpt>
      <trkpt lat="49.16553" lon="1.21861">
        <ele>159.3</ele>
        <time>2017-05-14T08:03:12Z</time>
      </trkpt>
      <trkpt lat="49.16553" lon="1.21878">
        <ele>159.5</ele>
        <time>2017-05-14T08:03:16Z</time>
      </trkpt>
      <trkpt lat="49.16557" lon="1.21891">
        <ele>159.8</ele>
        <time>2017-05-14T08:03:21Z</time>
      </trkpt>
      <trkpt lat="49.16567" lon="1.21896">
        <ele>159.9</ele>
        <time>2017-05-14T08:03:28Z</time>
      </trkpt>
      <trkpt lat="49.16577" lon="1.21896">
        <ele>159.4</ele>
        <time>2017-05-14T08:04:29Z</time>
      </trkpt>
      <trkpt lat="49.16589" lon="1.21901">
        <ele>159.2</ele>
        <time>2017-05-14T08:04:33Z</time>
      </trkpt>
      <trkpt lat="49.16598" lon="1.21905">
        <ele>159.3</ele>
        <time>2017-05-14T08:04:36Z</time>
      </trkpt>
      <trkpt lat="49.16607" lon="1.21909">
        <ele>159.2</ele>
        <time>2017-05-14T08:04:39Z</time>
      </trkpt>
      <trkpt lat="49.16618" lon="1.21914">
        <ele>159.1</ele>
        <time>2017-05-14T08:04:42Z</time>
      </trkpt>
      <trkpt lat="49.16628" lon="1.21919">
        <ele>158.8</ele>
        <time>2017-05-14T08:04:45Z</time>
      </trkpt>
      <trkpt lat="49.1664" lon="1.21925">
        <ele>158.6</ele>
        <time>2017-05-14T08:04:48Z</time>
      </trkpt>
      <trkpt lat="49.16652" lon="1.21931">
        <ele>158.5</ele>
        <time>2017-05-14T08:04:51Z</time>
      </trkpt>
      <trkpt lat="49.16665" lon="1.21939">
        <ele>158.4</ele>
        <time>2017-05-14T08:04:54Z</time>
      </trkpt>
      <trkpt lat="49.16673" lon="1.21945">
        <ele>158.2</ele>
        <time>2017-05-14T08:04:56Z</time>
      </trkpt>
      <trkpt lat="49.16683" lon="1.21951">
        <ele>158.1</ele>
        <time>2017-05-14T08:04:58Z</time>
      </trkpt>
      <trkpt lat="49.16693" lon="1.21958">
        <ele>158</ele>
        <time>2017-05-14T08:05:00Z</time>
      </trkpt>
      <trkpt lat="49.16703" lon="1.21965">
        <ele>157.8</ele>
        <time>2017-05-14T08:05:02Z</time>
      </trkpt>
      <trkpt lat="49.16712" lon="1.21972">
        <ele>157.4</ele>
        <time>2017-05-14T08:05:04Z</time>
      </trkpt>
      <trkpt lat="49.16723" lon="1.21979">
        <ele>157.2</ele>
        <time>2017-05-14T08:05:06Z</time>
      </trkpt>
      <trkpt lat="49.16733" lon="1.21987">
        <ele>157</ele>
        <time>2017-05-14T08:05:08Z</time>
      </trkpt>
      <trkpt lat="49.16743" lon="1.21995">
        <ele>156.9</ele>
        <time>2017-05-14T08:05:10Z</time>
      </trkpt>
      <trkpt lat="49.16754" lon="1.22003">
        <ele>156.8</ele>
        <time>2017-05-14T08:05:12Z</time>
      </trkpt>
      <trkpt lat="49.16765" lon="1.22011">
        <ele>156.5</ele>
        <time>2017-05-14T08:05:14Z</time>
      </trkpt>
      <trkpt lat="49.16776" lon="1.22019">
        <ele>156.2</ele>
        <time>2017-05-14T08:05:16Z</time>
      </trkpt>
      <trkpt lat="49.16788" lon="1.22027">
        <ele>156.1</ele>
        <time>2017-05-14T08:05:18Z</time>
      </trkpt>
      <trkpt lat="49.16801" lon="1.22034">
        <ele>155.9</ele>
        <time>2017-05-14T08:05:20Z</time>
      </trkpt>
      <trkpt lat="49.16814" lon="1.22041">
        <ele>155.7</ele>
        <time>2017-05-14T08:05:22Z</time>
      </trkpt>
      <trkpt lat="49.16827" lon="1.22048">
        <ele>155.6</ele>
        <time>2017-05-14T08:05:24Z</time>
      </trkpt>
      <trkpt lat="49.1684" lon="1.22054">
        <ele>155.2</ele>
        <time>2017-05-14T08:05:26Z</time>
      </trkpt>
      <trkpt lat="49.16854" lon="1.22061">
        <ele>155.1</ele>
        <time>2017-05-14T08:05:28Z</time>
      </trkpt>
      <trkpt lat="49.16867" lon="1.22067">
        <ele>154.9</ele>
        <time>2017-05-14T08:05:30Z</time>
      </trkpt>
      <trkpt lat="49.1688" lon="1.22073">
        <ele>154.8</ele>
        <time>2017-05-14T08:05:32Z</time>
      </trkpt>
      <trkpt lat="49.16893" lon="1.22079">
        <ele>154.5</ele>
        <time>2017-05-14T08:05:34Z</time>
      </trkpt>
      <trkpt lat="49.16906" lon="1.22085">
        <ele>154.3</ele>
        <time>2017-05-14T08:05:36Z</time>
      </trkpt>
      <trkpt lat="49.16918" lon="1.22091">
        <ele>154.1</ele>
        <time>2017-05-14T08:05:38Z</time>
      </trkpt>
      <trkpt lat="49.16931" lon="1.22098">
        <ele>154.1</ele>
        <time>2017-05-14T08:05:40Z</time>
      </trkpt>
      <trkpt lat="49.16944" lon="1.22104">
        <ele>154.1</ele>
        <time>2017-05-14T08:05:42Z</time>
      </trkpt>
      <trkpt lat="49.16956" lon="1.2211">
        <ele>154.1</ele>
        <time>2017-05-14T08:05:44Z</time>
      </trkpt>
      <trkpt lat="49.16969" lon="1.22115">
        <ele>154.2</ele>
        <time>2017-05-14T08:05:46Z</time>
      </trkpt>
      <trkpt lat="49.16981" lon="1.2212">
        <ele>154.5</ele>
        <time>2017-05-14T08:05:48Z</time>
      </trkpt>
      <trkpt lat="49.16993" lon="1.22125">
        <ele>154.6</ele>
        <time>2017-05-14T08:05:50Z</time>
      </trkpt>
      <trkpt lat="49.17005" lon="1.2213">
        <ele>154.6</ele>
        <time>2017-05-14T08:05:52Z</time>
      </trkpt>
      <trkpt lat="49.17016" lon="1.22134">
        <ele>154.9</ele>
        <time>2017-05-14T08:05:54Z</time>
      </trkpt>
      <trkpt lat="49.17027" lon="1.22138">
        <ele>155.2</ele>
        <time>2017-05-14T08:05:56Z</time>
      </trkpt>
      <trkpt lat="49.17038" lon="1.22142">
        <ele>155.2</ele>
        <time>2017-05-14T08:05:58Z</time>
      </trkpt>
      <trkpt lat="49.1705" lon="1.22147">
        <ele>155.4</ele>
        <time>2017-05-14T08:06:00Z</time>
      </trkpt>
      <trkpt lat="49.1706" lon="1.22152">
        <ele>155.8</ele>
        <time>2017-05-14T08:06:02Z</time>
      </trkpt>
      <trkpt lat="49.17071" lon="1.22159">
        <ele>156</ele>
        <time>2017-05-14T08:06:04Z</time>
      </trkpt>
      <trkpt lat="49.17081" lon="1.22165">
        <ele>156.2</ele>
        <time>2017-05-14T08:06:06Z</time>
      </trkpt>
      <trkpt lat="49.17092" lon="1.22172">
        <ele>156.4</ele>
        <time>2017-05-14T08:06:08Z</time>
      </trkpt>
      <trkpt lat="49.17102" lon="1.22177">
        <ele>156.8</ele>
        <time>2017-05-14T08:06:10Z</time>
      </trkpt>
      <trkpt lat="49.17113" lon="1.22177">
        <ele>157</ele>
        <time>2017-05-14T08:06:12Z</time>
      </trkpt>
      <trkpt lat="49.17123" lon="1.22171">
        <ele>157.2</ele>
        <time>2017-05-14T08:06:14Z</time>
      </trkpt>
      <trkpt lat="49.1713" lon="1.2216">
        <ele>157.3</ele>
        <time>2017-05-14T08:06:16Z</time>
      </trkpt>
      <trkpt lat="49.17136" lon="1.22146">
        <ele>157.3</ele>
        <time>2017-05-14T08:06:18Z</time>
      </trkpt>
      <trkpt lat="49.17142" lon="1.22131">
        <ele>157.3</ele>
        <time>2017-05-14T08:06:20Z</time>
      </trkpt>
      <trkpt lat="49.17147" lon="1.22115">
        <ele>157.5</ele>
        <time>2017-05-14T08:06:22Z</time>
      </trkpt>
      <trkpt lat="49.17153" lon="1.221">
        <ele>157.5</ele>
        <time>2017-05-14T08:06:24Z</time>
      </trkpt>
      <trkpt lat="49.17159" lon="1.22085">
        <ele>157.4</ele>
        <time>2017-05-14T08:06:26Z</time>
      </trkpt>
      <trkpt lat="49.17164" lon="1.22071">
        <ele>157.2</ele>
        <time>2017-05-14T08:06:28Z</time>
      </trkpt>
      <trkpt lat="49.17169" lon="1.22056">
        <ele>157</ele>
        <time>2017-05-14T08:06:30Z</time>
      </trkpt>
      <trkpt lat="49.17174" lon="1.22041">
        <ele>156.8</ele>
        <time>2017-05-14T08:06:32Z</time>
      </trkpt>
      <trkpt lat="49.17178" lon="1.22026">
        <ele>156.6</ele>
        <time>2017-05-14T08:06:34Z</time>
      </trkpt>
      <trkpt lat="49.17182" lon="1.22011">
        <ele>156.6</ele>
        <time>2017-05-14T08:06:36Z</time>
      </trkpt>
      <trkpt lat="49.17187" lon="1.21996">
        <ele>156.6</ele>
        <time>2017-05-14T08:06:38Z</time>
      </trkpt>
      <trkpt lat="49.1719" lon="1.2198">
        <ele>156.5</ele>
        <time>2017-05-14T08:06:40Z</time>
      </trkpt>
      <trkpt lat="49.17194" lon="1.21965">
        <ele>156.3</ele>
        <time>2017-05-14T08:06:42Z</time>
      </trkpt>
      <trkpt lat="49.172" lon="1.2195">
        <ele>156.2</ele>
        <time>2017-05-14T08:06:44Z</time>
      </trkpt>
      <trkpt lat="49.17208" lon="1.21935">
        <ele>156</ele>
        <time>2017-05-14T08:06:46Z</time>
      </trkpt>
      <trkpt lat="49.17214" lon="1.2192">
        <ele>155.7</ele>
        <time>2017-05-14T08:06:48Z</time>
      </trkpt>
      <trkpt lat="49.1722" lon="1.21906">
        <ele>155.4</ele>
        <time>2017-05-14T08:06:50Z</time>
      </trkpt>
      <trkpt lat="49.17225" lon="1.21894">
        <ele>155</ele>
        <time>2017-05-14T08:06:52Z</time>
      </trkpt>
      <trkpt lat="49.17231" lon="1.21882">
        <ele>154.7</ele>
        <time>2017-05-14T08:06:54Z</time>
      </trkpt>
      <trkpt lat="49.17236" lon="1.21867">
        <ele>154.2</ele>
        <time>2017-05-14T08:06:57Z</time>
      </trkpt>
      <trkpt lat="49.17241" lon="1.2185">
        <ele>154</ele>
        <time>2017-05-14T08:07:00Z</time>
      </trkpt>
      <trkpt lat="49.17247" lon="1.21838">
        <ele>153.9</ele>
        <time>2017-05-14T08:07:02Z</time>
      </trkpt>
      <trkpt lat="49.17252" lon="1.21824">
        <ele>153.8</ele>
        <time>2017-05-14T08:07:04Z</time>
      </trkpt>
      <trkpt lat="49.17258" lon="1.21809">
        <ele>153.7</ele>
        <time>2017-05-14T08:07:06Z</time>
      </trkpt>
      <trkpt lat="49.17266" lon="1.21796">
        <ele>153.4</ele>
        <time>2017-05-14T08:07:08Z</time>
      </trkpt>
      <trkpt lat="49.17271" lon="1.21782">
        <ele>153.2</ele>
        <time>2017-05-14T08:07:10Z</time>
      </trkpt>
      <trkpt lat="49.17278" lon="1.21767">
        <ele>152.9</ele>
        <time>2017-05-14T08:07:12Z</time>
      </trkpt>
      <trkpt lat="49.17283" lon="1.21753">
        <ele>152.6</ele>
        <time>2017-05-14T08:07:14Z</time>
      </trkpt>
      <trkpt lat="49.17287" lon="1.2174">
        <ele>152.7</ele>
        <time>2017-05-14T08:07:16Z</time>
      </trkpt>
      <trkpt lat="49.17293" lon="1.21724">
        <ele>152.6</ele>
        <time>2017-05-14T08:07:19Z</time>
      </trkpt>
      <trkpt lat="49.17296" lon="1.21709">
        <ele>152.5</ele>
        <time>2017-05-14T08:07:21Z</time>
      </trkpt>
      <trkpt lat="49.173" lon="1.21694">
        <ele>152.2</ele>
        <time>2017-05-14T08:07:23Z</time>
      </trkpt>
      <trkpt lat="49.17304" lon="1.21681">
        <ele>151.7</ele>
        <time>2017-05-14T08:07:25Z</time>
      </trkpt>
      <trkpt lat="49.17306" lon="1.21665">
        <ele>151.5</ele>
        <time>2017-05-14T08:07:27Z</time>
      </trkpt>
      <trkpt lat="49.17309" lon="1.21651">
        <ele>151.3</ele>
        <time>2017-05-14T08:07:29Z</time>
      </trkpt>
      <trkpt lat="49.17311" lon="1.21634">
        <ele>151.1</ele>
        <time>2017-05-14T08:07:31Z</time>
      </trkpt>
      <trkpt lat="49.17314" lon="1.21619">
        <ele>151.1</ele>
        <time>2017-05-14T08:07:33Z</time>
      </trkpt>
      <trkpt lat="49.17319" lon="1.21598">
        <ele>150.6</ele>
        <time>2017-05-14T08:07:36Z</time>
      </trkpt>
      <trkpt lat="49.17324" lon="1.21584">
        <ele>150.3</ele>
        <time>2017-05-14T08:07:38Z</time>
      </trkpt>
      <trkpt lat="49.1733" lon="1.2157">
        <ele>150</ele>
        <time>2017-05-14T08:07:40Z</time>
      </trkpt>
      <trkpt lat="49.17339" lon="1.2156">
        <ele>149.7</ele>
        <time>2017-05-14T08:07:42Z</time>
      </trkpt>
      <trkpt lat="49.17348" lon="1.21552">
        <ele>149.5</ele>
        <time>2017-05-14T08:07:44Z</time>
      </trkpt>
      <trkpt lat="49.17358" lon="1.21541">
        <ele>149.3</ele>
        <time>2017-05-14T08:07:46Z</time>
      </trkpt>
      <trkpt lat="49.17368" lon="1.21531">
        <ele>148.7</ele>
        <time>2017-05-14T08:07:48Z</time>
      </trkpt>
      <trkpt lat="49.17378" lon="1.21523">
        <ele>148.5</ele>
        <time>2017-05-14T08:07:50Z</time>
      </trkpt>
      <trkpt lat="49.17389" lon="1.21514">
        <ele>148</ele>
        <time>2017-05-14T08:07:52Z</time>
      </trkpt>
      <trkpt lat="49.174" lon="1.21506">
        <ele>147.6</ele>
        <time>2017-05-14T08:07:54Z</time>
      </trkpt>
      <trkpt lat="49.17409" lon="1.215">
        <ele>147.3</ele>
        <time>2017-05-14T08:07:56Z</time>
      </trkpt>
      <trkpt lat="49.17417" lon="1.21492">
        <ele>147</ele>
        <time>2017-05-14T08:07:58Z</time>
      </trkpt>
      <trkpt lat="49.17426" lon="1.21479">
        <ele>146.9</ele>
        <time>2017-05-14T08:08:00Z</time>
      </trkpt>
      <trkpt lat="49.17434" lon="1.21466">
        <ele>146.8</ele>
        <time>2017-05-14T08:08:02Z</time>
      </trkpt>
      <trkpt lat="49.17441" lon="1.21456">
        <ele>146.5</ele>
        <time>2017-05-14T08:08:04Z</time>
      </trkpt>
      <trkpt lat="49.17448" lon="1.21446">
        <ele>146.3</ele>
        <time>2017-05-14T08:08:06Z</time>
      </trkpt>
      <trkpt lat="49.17457" lon="1.21435">
        <ele>146.1</ele>
        <time>2017-05-14T08:08:08Z</time>
      </trkpt>
      <trkpt lat="49.17466" lon="1.21424">
        <ele>145.8</ele>
        <time>2017-05-14T08:08:10Z</time>
      </trkpt>
      <trkpt lat="49.17478" lon="1.21413">
        <ele>145.6</ele>
        <time>2017-05-14T08:08:12Z</time>
      </trkpt>
      <trkpt lat="49.17488" lon="1.21402">
        <ele>145.4</ele>
        <time>2017-05-14T08:08:14Z</time>
      </trkpt>
      <trkpt lat="49.17501" lon="1.21393">
        <ele>145.1</ele>
        <time>2017-05-14T08:08:16Z</time>
      </trkpt>
      <trkpt lat="49.1751" lon="1.21382">
        <ele>144.8</ele>
        <time>2017-05-14T08:08:18Z</time>
      </trkpt>
      <trkpt lat="49.1752" lon="1.21371">
        <ele>144.6</ele>
        <time>2017-05-14T08:08:20Z</time>
      </trkpt>
      <trkpt lat="49.17533" lon="1.21359">
        <ele>144.2</ele>
        <time>2017-05-14T08:08:22Z</time>
      </trkpt>
      <trkpt lat="49.17546" lon="1.21347">
        <ele>144</ele>
        <time>2017-05-14T08:08:24Z</time>
      </trkpt>
      <trkpt lat="49.17559" lon="1.21333">
        <ele>143.7</ele>
        <time>2017-05-14T08:08:26Z</time>
      </trkpt>
      <trkpt lat="49.17572" lon="1.21321">
        <ele>143.2</ele>
        <time>2017-05-14T08:08:28Z</time>
      </trkpt>
      <trkpt lat="49.17582" lon="1.21308">
        <ele>142.7</ele>
        <time>2017-05-14T08:08:30Z</time>
      </trkpt>
      <trkpt lat="49.17593" lon="1.21296">
        <ele>142.3</ele>
        <time>2017-05-14T08:08:32Z</time>
      </trkpt>
      <trkpt lat="49.17605" lon="1.21286">
        <ele>141.6</ele>
        <time>2017-05-14T08:08:34Z</time>
      </trkpt>
      <trkpt lat="49.17617" lon="1.21275">
        <ele>141.1</ele>
        <time>2017-05-14T08:08:36Z</time>
      </trkpt>
      <trkpt lat="49.17629" lon="1.21265">
        <ele>140.5</ele>
        <time>2017-05-14T08:08:38Z</time>
      </trkpt>
      <trkpt lat="49.17643" lon="1.21254">
        <ele>140</ele>
        <time>2017-05-14T08:08:40Z</time>
      </trkpt>
      <trkpt lat="49.17657" lon="1.21246">
        <ele>139.6</ele>
        <time>2017-05-14T08:08:42Z</time>
      </trkpt>
      <trkpt lat="49.17668" lon="1.21239">
        <ele>139.1</ele>
        <time>2017-05-14T08:08:44Z</time>
      </trkpt>
      <trkpt lat="49.17681" lon="1.21233">
        <ele>138.7</ele>
        <time>2017-05-14T08:08:46Z</time>
      </trkpt>
      <trkpt lat="49.17691" lon="1.21225">
        <ele>138.3</ele>
        <time>2017-05-14T08:08:48Z</time>
      </trkpt>
      <trkpt lat="49.177" lon="1.21217">
        <ele>137.8</ele>
        <time>2017-05-14T08:08:50Z</time>
      </trkpt>
      <trkpt lat="49.17709" lon="1.21208">
        <ele>137.6</ele>
        <time>2017-05-14T08:08:52Z</time>
      </trkpt>
      <trkpt lat="49.1772" lon="1.212">
        <ele>137.5</ele>
        <time>2017-05-14T08:08:54Z</time>
      </trkpt>
      <trkpt lat="49.17731" lon="1.21189">
        <ele>137.6</ele>
        <time>2017-05-14T08:08:56Z</time>
      </trkpt>
      <trkpt lat="49.17741" lon="1.21179">
        <ele>137.5</ele>
        <time>2017-05-14T08:08:58Z</time>
      </trkpt>
      <trkpt lat="49.1775" lon="1.21168">
        <ele>137.8</ele>
        <time>2017-05-14T08:09:00Z</time>
      </trkpt>
      <trkpt lat="49.17759" lon="1.21157">
        <ele>137.8</ele>
        <time>2017-05-14T08:09:02Z</time>
      </trkpt>
      <trkpt lat="49.17765" lon="1.21143">
        <ele>137.7</ele>
        <time>2017-05-14T08:09:04Z</time>
      </trkpt>
      <trkpt lat="49.17768" lon="1.21127">
        <ele>137.6</ele>
        <time>2017-05-14T08:09:06Z</time>
      </trkpt>
      <trkpt lat="49.17772" lon="1.21113">
        <ele>137.5</ele>
        <time>2017-05-14T08:09:08Z</time>
      </trkpt>
      <trkpt lat="49.17775" lon="1.21098">
        <ele>137.4</ele>
        <time>2017-05-14T08:09:10Z</time>
      </trkpt>
      <trkpt lat="49.1778" lon="1.21085">
        <ele>137.3</ele>
        <time>2017-05-14T08:09:12Z</time>
      </trkpt>
      <trkpt lat="49.17787" lon="1.21071">
        <ele>137.2</ele>
        <time>2017-05-14T08:09:14Z</time>
      </trkpt>
      <trkpt lat="49.17794" lon="1.21058">
        <ele>137.1</ele>
        <time>2017-05-14T08:09:16Z</time>
      </trkpt>
      <trkpt lat="49.17802" lon="1.21047">
        <ele>137</ele>
        <time>2017-05-14T08:09:18Z</time>
      </trkpt>
      <trkpt lat="49.1781" lon="1.21035">
        <ele>136.9</ele>
        <time>2017-05-14T08:09:20Z</time>
      </trkpt>
      <trkpt lat="49.17817" lon="1.21023">
        <ele>136.8</ele>
        <time>2017-05-14T08:09:22Z</time>
      </trkpt>
      <trkpt lat="49.17822" lon="1.21011">
        <ele>136.7</ele>
        <time>2017-05-14T08:09:24Z</time>
      </trkpt>
      <trkpt lat="49.17829" lon="1.20997">
        <ele>136.6</ele>
        <time>2017-05-14T08:09:26Z</time>
      </trkpt>
      <trkpt lat="49.17837" lon="1.20983">
        <ele>136.2</ele>
        <time>2017-05-14T08:09:28Z</time>
      </trkpt>
      <trkpt lat="49.17845" lon="1.20967">
        <ele>136.1</ele>
        <time>2017-05-14T08:09:30Z</time>
      </trkpt>
      <trkpt lat="49.17852" lon="1.20952">
        <ele>135.8</ele>
        <time>2017-05-14T08:09:32Z</time>
      </trkpt>
      <trkpt lat="49.17858" lon="1.20937">
        <ele>135.5</ele>
        <time>2017-05-14T08:09:34Z</time>
      </trkpt>
      <trkpt lat="49.17864" lon="1.20921">
        <ele>135.2</ele>
        <time>2017-05-14T08:09:36Z</time>
      </trkpt>
      <trkpt lat="49.1787" lon="1.20907">
        <ele>135</ele>
        <time>2017-05-14T08:09:38Z</time>
      </trkpt>
      <trkpt lat="49.17876" lon="1.20893">
        <ele>134.9</ele>
        <time>2017-05-14T08:09:40Z</time>
      </trkpt>
      <trkpt lat="49.17883" lon="1.20879">
        <ele>134.8</ele>
        <time>2017-05-14T08:09:42Z</time>
      </trkpt>
      <trkpt lat="49.17888" lon="1.20863">
        <ele>134.6</ele>
        <time>2017-05-14T08:09:44Z</time>
      </trkpt>
      <trkpt lat="49.17891" lon="1.20847">
        <ele>134.3</ele>
        <time>2017-05-14T08:09:46Z</time>
      </trkpt>
      <trkpt lat="49.17895" lon="1.20828">
        <ele>133.8</ele>
        <time>2017-05-14T08:09:49Z</time>
      </trkpt>
      <trkpt lat="49.17901" lon="1.20812">
        <ele>133.6</ele>
        <time>2017-05-14T08:09:51Z</time>
      </trkpt>
      <trkpt lat="49.17906" lon="1.20795">
        <ele>133.3</ele>
        <time>2017-05-14T08:09:53Z</time>
      </trkpt>
      <trkpt lat="49.17909" lon="1.20776">
        <ele>133.4</ele>
        <time>2017-05-14T08:09:55Z</time>
      </trkpt>
      <trkpt lat="49.17915" lon="1.20762">
        <ele>133.4</ele>
        <time>2017-05-14T08:09:57Z</time>
      </trkpt>
      <trkpt lat="49.17925" lon="1.20767">
        <ele>133.5</ele>
        <time>2017-05-14T08:10:02Z</time>
      </trkpt>
      <trkpt lat="49.17931" lon="1.2078">
        <ele>133.7</ele>
        <time>2017-05-14T08:10:05Z</time>
      </trkpt>
      <trkpt lat="49.17937" lon="1.20794">
        <ele>133.8</ele>
        <time>2017-05-14T08:10:08Z</time>
      </trkpt>
      <trkpt lat="49.17939" lon="1.20814">
        <ele>134.1</ele>
        <time>2017-05-14T08:10:11Z</time>
      </trkpt>
      <trkpt lat="49.17941" lon="1.2083">
        <ele>134.4</ele>
        <time>2017-05-14T08:10:14Z</time>
      </trkpt>
      <trkpt lat="49.17945" lon="1.2085">
        <ele>134.8</ele>
        <time>2017-05-14T08:10:17Z</time>
      </trkpt>
      <trkpt lat="49.17948" lon="1.20866">
        <ele>135.3</ele>
        <time>2017-05-14T08:10:20Z</time>
      </trkpt>
      <trkpt lat="49.17951" lon="1.20883">
        <ele>135.6</ele>
        <time>2017-05-14T08:10:23Z</time>
      </trkpt>
      <trkpt lat="49.17956" lon="1.209">
        <ele>136.1</ele>
        <time>2017-05-14T08:10:26Z</time>
      </trkpt>
      <trkpt lat="49.17962" lon="1.20919">
        <ele>136.6</ele>
        <time>2017-05-14T08:10:29Z</time>
      </trkpt>
      <trkpt lat="49.17966" lon="1.20932">
        <ele>136.9</ele>
        <time>2017-05-14T08:10:31Z</time>
      </trkpt>
      <trkpt lat="49.17971" lon="1.20944">
        <ele>137</ele>
        <time>2017-05-14T08:10:33Z</time>
      </trkpt>
      <trkpt lat="49.17977" lon="1.20956">
        <ele>137.1</ele>
        <time>2017-05-14T08:10:35Z</time>
      </trkpt>
      <trkpt lat="49.17983" lon="1.20969">
        <ele>137.1</ele>
        <time>2017-05-14T08:10:37Z</time>
      </trkpt>
      <trkpt lat="49.17989" lon="1.20984">
        <ele>137.2</ele>
        <time>2017-05-14T08:10:39Z</time>
      </trkpt>
      <trkpt lat="49.17993" lon="1.20997">
        <ele>137.2</ele>
        <time>2017-05-14T08:10:41Z</time>
      </trkpt>
      <trkpt lat="49.18" lon="1.21011">
        <ele>137.2</ele>
        <time>2017-05-14T08:10:43Z</time>
      </trkpt>
      <trkpt lat="49.18005" lon="1.21026">
        <ele>137.2</ele>
        <time>2017-05-14T08:10:45Z</time>
      </trkpt>
      <trkpt lat="49.18011" lon="1.21039">
        <ele>137.2</ele>
        <time>2017-05-14T08:10:47Z</time>
      </trkpt>
      <trkpt lat="49.18016" lon="1.21053">
        <ele>137.1</ele>
        <time>2017-05-14T08:10:49Z</time>
      </trkpt>
      <trkpt lat="49.18021" lon="1.21068">
        <ele>137.1</ele>
        <time>2017-05-14T08:10:51Z</time>
      </trkpt>
      <trkpt lat="49.18025" lon="1.21082">
        <ele>137.1</ele>
        <time>2017-05-14T08:10:53Z</time>
      </trkpt>
      <trkpt lat="49.18025" lon="1.21099">
        <ele>137.1</ele>
        <time>2017-05-14T08:10:55Z</time>
      </trkpt>
      <trkpt lat="49.18025" lon="1.21113">
        <ele>137.1</ele>
        <time>2017-05-14T08:10:57Z</time>
      </trkpt>
      <trkpt lat="49.18034" lon="1.21116">
        <ele>136.6</ele>
        <time>2017-05-14T08:11:00Z</time>
      </trkpt>
      <trkpt lat="49.18046" lon="1.21106">
        <ele>136.3</ele>
        <time>2017-05-14T08:11:03Z</time>
      </trkpt>
      <trkpt lat="49.18054" lon="1.21097">
        <ele>136.1</ele>
        <time>2017-05-14T08:11:05Z</time>
      </trkpt>
      <trkpt lat="49.18062" lon="1.21086">
        <ele>136.1</ele>
        <time>2017-05-14T08:11:07Z</time>
      </trkpt>
      <trkpt lat="49.1807" lon="1.21073">
        <ele>136.1</ele>
        <time>2017-05-14T08:11:09Z</time>
      </trkpt>
      <trkpt lat="49.18076" lon="1.2106">
        <ele>136</ele>
        <time>2017-05-14T08:11:11Z</time>
      </trkpt>
      <trkpt lat="49.18083" lon="1.21045">
        <ele>135.8</ele>
        <time>2017-05-14T08:11:13Z</time>
      </trkpt>
      <trkpt lat="49.18089" lon="1.2103">
        <ele>135.5</ele>
        <time>2017-05-14T08:11:15Z</time>
      </trkpt>
      <trkpt lat="49.18095" lon="1.21015">
        <ele>135.4</ele>
        <time>2017-05-14T08:11:17Z</time>
      </trkpt>
      <trkpt lat="49.181" lon="1.21">
        <ele>135.4</ele>
        <time>2017-05-14T08:11:19Z</time>
      </trkpt>
      <trkpt lat="49.18106" lon="1.20987">
        <ele>135.3</ele>
        <time>2017-05-14T08:11:21Z</time>
      </trkpt>
      <trkpt lat="49.18114" lon="1.20973">
        <ele>135.1</ele>
        <time>2017-05-14T08:11:23Z</time>
      </trkpt>
      <trkpt lat="49.1812" lon="1.20959">
        <ele>135.1</ele>
        <time>2017-05-14T08:11:25Z</time>
      </trkpt>
      <trkpt lat="49.18126" lon="1.20946">
        <ele>134.7</ele>
        <time>2017-05-14T08:11:27Z</time>
      </trkpt>
      <trkpt lat="49.18133" lon="1.20933">
        <ele>134.8</ele>
        <time>2017-05-14T08:11:29Z</time>
      </trkpt>
      <trkpt lat="49.18139" lon="1.20919">
        <ele>134.5</ele>
        <time>2017-05-14T08:11:31Z</time>
      </trkpt>
      <trkpt lat="49.18146" lon="1.20905">
        <ele>134.3</ele>
        <time>2017-05-14T08:11:33Z</time>
      </trkpt>
      <trkpt lat="49.18153" lon="1.2089">
        <ele>134.1</ele>
        <time>2017-05-14T08:11:35Z</time>
      </trkpt>
      <trkpt lat="49.18159" lon="1.20876">
        <ele>133.9</ele>
        <time>2017-05-14T08:11:37Z</time>
      </trkpt>
      <trkpt lat="49.18165" lon="1.20861">
        <ele>133.7</ele>
        <time>2017-05-14T08:11:39Z</time>
      </trkpt>
      <trkpt lat="49.18169" lon="1.20844">
        <ele>133.1</ele>
        <time>2017-05-14T08:11:41Z</time>
      </trkpt>
      <trkpt lat="49.18175" lon="1.20827">
        <ele>132.7</ele>
        <time>2017-05-14T08:11:43Z</time>
      </trkpt>
      <trkpt lat="49.1818" lon="1.20811">
        <ele>132.3</ele>
        <time>2017-05-14T08:11:45Z</time>
      </trkpt>
      <trkpt lat="49.18186" lon="1.2079">
        <ele>131.8</ele>
        <time>2017-05-14T08:11:47Z</time>
      </trkpt>
      <trkpt lat="49.18191" lon="1.20772">
        <ele>131.3</ele>
        <time>2017-05-14T08:11:49Z</time>
      </trkpt>
      <trkpt lat="49.18196" lon="1.20753">
        <ele>130.8</ele>
        <time>2017-05-14T08:11:51Z</time>
      </trkpt>
      <trkpt lat="49.18201" lon="1.20733">
        <ele>130.2</ele>
        <time>2017-05-14T08:11:53Z</time>
      </trkpt>
      <trkpt lat="49.18206" lon="1.20713">
        <ele>129.4</ele>
        <time>2017-05-14T08:11:55Z</time>
      </trkpt>
      <trkpt lat="49.18211" lon="1.2069">
        <ele>128.4</ele>
        <time>2017-05-14T08:11:57Z</time>
      </trkpt>
      <trkpt lat="49.18216" lon="1.20666">
        <ele>127.6</ele>
        <time>2017-05-14T08:11:59Z</time>
      </trkpt>
      <trkpt lat="49.1822" lon="1.20641">
        <ele>126.6</ele>
        <time>2017-05-14T08:12:01Z</time>
      </trkpt>
      <trkpt lat="49.18219" lon="1.20618">
        <ele>126</ele>
        <time>2017-05-14T08:12:03Z</time>
      </trkpt>
      <trkpt lat="49.18212" lon="1.20598">
        <ele>125.2</ele>
        <time>2017-05-14T08:12:05Z</time>
      </trkpt>
      <trkpt lat="49.18205" lon="1.2058">
        <ele>124.5</ele>
        <time>2017-05-14T08:12:07Z</time>
      </trkpt>
      <trkpt lat="49.182" lon="1.20565">
        <ele>124</ele>
        <time>2017-05-14T08:12:09Z</time>
      </trkpt>
      <trkpt lat="49.18197" lon="1.20548">
        <ele>123.3</ele>
        <time>2017-05-14T08:12:11Z</time>
      </trkpt>
      <trkpt lat="49.18196" lon="1.2053">
        <ele>122.8</ele>
        <time>2017-05-14T08:12:13Z</time>
      </trkpt>
      <trkpt lat="49.18196" lon="1.20508">
        <ele>122.2</ele>
        <time>2017-05-14T08:12:15Z</time>
      </trkpt>
      <trkpt lat="49.18197" lon="1.20485">
        <ele>121.6</ele>
        <time>2017-05-14T08:12:17Z</time>
      </trkpt>
      <trkpt lat="49.18198" lon="1.20462">
        <ele>120.7</ele>
        <time>2017-05-14T08:12:19Z</time>
      </trkpt>
      <trkpt lat="49.18198" lon="1.20441">
        <ele>119.8</ele>
        <time>2017-05-14T08:12:21Z</time>
      </trkpt>
      <trkpt lat="49.18202" lon="1.20426">
        <ele>119</ele>
        <time>2017-05-14T08:12:23Z</time>
      </trkpt>
      <trkpt lat="49.18208" lon="1.20414">
        <ele>117.7</ele>
        <time>2017-05-14T08:12:25Z</time>
      </trkpt>
      <trkpt lat="49.18217" lon="1.20399">
        <ele>116.3</ele>
        <time>2017-05-14T08:12:27Z</time>
      </trkpt>
      <trkpt lat="49.18226" lon="1.20392">
        <ele>114.8</ele>
        <time>2017-05-14T08:12:29Z</time>
      </trkpt>
      <trkpt lat="49.1824" lon="1.20391">
        <ele>112.1</ele>
        <time>2017-05-14T08:12:32Z</time>
      </trkpt>
      <trkpt lat="49.18253" lon="1.20393">
        <ele>110.2</ele>
        <time>2017-05-14T08:12:34Z</time>
      </trkpt>
      <trkpt lat="49.18265" lon="1.20396">
        <ele>108.2</ele>
        <time>2017-05-14T08:12:36Z</time>
      </trkpt>
      <trkpt lat="49.18281" lon="1.20397">
        <ele>106.5</ele>
        <time>2017-05-14T08:12:38Z</time>
      </trkpt>
      <trkpt lat="49.18295" lon="1.20396">
        <ele>105.2</ele>
        <time>2017-05-14T08:12:40Z</time>
      </trkpt>
      <trkpt lat="49.1831" lon="1.2039">
        <ele>103.9</ele>
        <time>2017-05-14T08:12:42Z</time>
      </trkpt>
      <trkpt lat="49.18327" lon="1.20382">
        <ele>102.6</ele>
        <time>2017-05-14T08:12:44Z</time>
      </trkpt>
      <trkpt lat="49.18336" lon="1.2038">
        <ele>102</ele>
        <time>2017-05-14T08:12:45Z</time>
      </trkpt>
      <trkpt lat="49.18351" lon="1.20374">
        <ele>100.6</ele>
        <time>2017-05-14T08:12:47Z</time>
      </trkpt>
      <trkpt lat="49.18364" lon="1.20368">
        <ele>99.1</ele>
        <time>2017-05-14T08:12:49Z</time>
      </trkpt>
      <trkpt lat="49.18377" lon="1.20363">
        <ele>97.5</ele>
        <time>2017-05-14T08:12:51Z</time>
      </trkpt>
      <trkpt lat="49.18389" lon="1.2036">
        <ele>96.8</ele>
        <time>2017-05-14T08:12:52Z</time>
      </trkpt>
      <trkpt lat="49.18403" lon="1.20358">
        <ele>95.4</ele>
        <time>2017-05-14T08:12:54Z</time>
      </trkpt>
      <trkpt lat="49.18412" lon="1.20354">
        <ele>94.6</ele>
        <time>2017-05-14T08:12:55Z</time>
      </trkpt>
      <trkpt lat="49.18427" lon="1.20347">
        <ele>93.2</ele>
        <time>2017-05-14T08:12:57Z</time>
      </trkpt>
      <trkpt lat="49.18441" lon="1.20341">
        <ele>91.8</ele>
        <time>2017-05-14T08:12:59Z</time>
      </trkpt>
      <trkpt lat="49.18454" lon="1.20335">
        <ele>90.6</ele>
        <time>2017-05-14T08:13:01Z</time>
      </trkpt>
      <trkpt lat="49.18472" lon="1.20323">
        <ele>89.5</ele>
        <time>2017-05-14T08:13:03Z</time>
      </trkpt>
      <trkpt lat="49.18482" lon="1.20315">
        <ele>89</ele>
        <time>2017-05-14T08:13:04Z</time>
      </trkpt>
      <trkpt lat="49.1849" lon="1.20307">
        <ele>88.6</ele>
        <time>2017-05-14T08:13:05Z</time>
      </trkpt>
      <trkpt lat="49.185" lon="1.20299">
        <ele>88.2</ele>
        <time>2017-05-14T08:13:06Z</time>
      </trkpt>
      <trkpt lat="49.18509" lon="1.20292">
        <ele>87.9</ele>
        <time>2017-05-14T08:13:07Z</time>
      </trkpt>
      <trkpt lat="49.18517" lon="1.20284">
        <ele>87.6</ele>
        <time>2017-05-14T08:13:08Z</time>
      </trkpt>
      <trkpt lat="49.18535" lon="1.20269">
        <ele>86.6</ele>
        <time>2017-05-14T08:13:10Z</time>
      </trkpt>
      <trkpt lat="49.18544" lon="1.20263">
        <ele>86.1</ele>
        <time>2017-05-14T08:13:11Z</time>
      </trkpt>
      <trkpt lat="49.18553" lon="1.20259">
        <ele>85.7</ele>
        <time>2017-05-14T08:13:12Z</time>
      </trkpt>
      <trkpt lat="49.18568" lon="1.20254">
        <ele>85.1</ele>
        <time>2017-05-14T08:13:14Z</time>
      </trkpt>
      <trkpt lat="49.18578" lon="1.20249">
        <ele>84.9</ele>
        <time>2017-05-14T08:13:15Z</time>
      </trkpt>
      <trkpt lat="49.18586" lon="1.20242">
        <ele>84.8</ele>
        <time>2017-05-14T08:13:16Z</time>
      </trkpt>
      <trkpt lat="49.18601" lon="1.20233">
        <ele>84.5</ele>
        <time>2017-05-14T08:13:18Z</time>
      </trkpt>
      <trkpt lat="49.18613" lon="1.20226">
        <ele>84.3</ele>
        <time>2017-05-14T08:13:20Z</time>
      </trkpt>
      <trkpt lat="49.18629" lon="1.20218">
        <ele>84.2</ele>
        <time>2017-05-14T08:13:22Z</time>
      </trkpt>
      <trkpt lat="49.18641" lon="1.20217">
        <ele>84.4</ele>
        <time>2017-05-14T08:13:24Z</time>
      </trkpt>
      <trkpt lat="49.18653" lon="1.20218">
        <ele>84.7</ele>
        <time>2017-05-14T08:13:26Z</time>
      </trkpt>
      <trkpt lat="49.18665" lon="1.20218">
        <ele>84.9</ele>
        <time>2017-05-14T08:13:28Z</time>
      </trkpt>
      <trkpt lat="49.18675" lon="1.20218">
        <ele>85.4</ele>
        <time>2017-05-14T08:13:30Z</time>
      </trkpt>
      <trkpt lat="49.18686" lon="1.20219">
        <ele>85.8</ele>
        <time>2017-05-14T08:13:32Z</time>
      </trkpt>
      <trkpt lat="49.18695" lon="1.2022">
        <ele>86.2</ele>
        <time>2017-05-14T08:13:34Z</time>
      </trkpt>
      <trkpt lat="49.18709" lon="1.20222">
        <ele>86.9</ele>
        <time>2017-05-14T08:13:37Z</time>
      </trkpt>
      <trkpt lat="49.18719" lon="1.20224">
        <ele>87.8</ele>
        <time>2017-05-14T08:13:40Z</time>
      </trkpt>
      <trkpt lat="49.1873" lon="1.20227">
        <ele>88.9</ele>
        <time>2017-05-14T08:13:44Z</time>
      </trkpt>
      <trkpt lat="49.1874" lon="1.20229">
        <ele>90.7</ele>
        <time>2017-05-14T08:13:51Z</time>
      </trkpt>
      <trkpt lat="49.1875" lon="1.20235">
        <ele>91.5</ele>
        <time>2017-05-14T08:13:55Z</time>
      </trkpt>
      <trkpt lat="49.18757" lon="1.20245">
        <ele>92.8</ele>
        <time>2017-05-14T08:14:00Z</time>
      </trkpt>
      <trkpt lat="49.18763" lon="1.20256">
        <ele>94.1</ele>
        <time>2017-05-14T08:14:06Z</time>
      </trkpt>
      <trkpt lat="49.1877" lon="1.20265">
        <ele>95.1</ele>
        <time>2017-05-14T08:14:11Z</time>
      </trkpt>
      <trkpt lat="49.18776" lon="1.20277">
        <ele>96.6</ele>
        <time>2017-05-14T08:14:17Z</time>
      </trkpt>
      <trkpt lat="49.18782" lon="1.20289">
        <ele>98.1</ele>
        <time>2017-05-14T08:14:24Z</time>
      </trkpt>
      <trkpt lat="49.18786" lon="1.20301">
        <ele>99.9</ele>
        <time>2017-05-14T08:14:32Z</time>
      </trkpt>
      <trkpt lat="49.18791" lon="1.20312">
        <ele>101.1</ele>
        <time>2017-05-14T08:14:37Z</time>
      </trkpt>
      <trkpt lat="49.18795" lon="1.20325">
        <ele>102.9</ele>
        <time>2017-05-14T08:14:43Z</time>
      </trkpt>
      <trkpt lat="49.18801" lon="1.20337">
        <ele>104.4</ele>
        <time>2017-05-14T08:14:49Z</time>
      </trkpt>
      <trkpt lat="49.18805" lon="1.2035">
        <ele>105.1</ele>
        <time>2017-05-14T08:14:54Z</time>
      </trkpt>
      <trkpt lat="49.18811" lon="1.20361">
        <ele>105.9</ele>
        <time>2017-05-14T08:14:59Z</time>
      </trkpt>
      <trkpt lat="49.18816" lon="1.20375">
        <ele>107</ele>
        <time>2017-05-14T08:15:04Z</time>
      </trkpt>
      <trkpt lat="49.18822" lon="1.20388">
        <ele>108.6</ele>
        <time>2017-05-14T08:15:10Z</time>
      </trkpt>
      <trkpt lat="49.1883" lon="1.20398">
        <ele>110.3</ele>
        <time>2017-05-14T08:15:16Z</time>
      </trkpt>
      <trkpt lat="49.18838" lon="1.20404">
        <ele>112</ele>
        <time>2017-05-14T08:15:22Z</time>
      </trkpt>
      <trkpt lat="49.18848" lon="1.20406">
        <ele>114</ele>
        <time>2017-05-14T08:15:29Z</time>
      </trkpt>
      <trkpt lat="49.18858" lon="1.20405">
        <ele>115.7</ele>
        <time>2017-05-14T08:15:35Z</time>
      </trkpt>
      <trkpt lat="49.18867" lon="1.20397">
        <ele>117.6</ele>
        <time>2017-05-14T08:15:41Z</time>
      </trkpt>
      <trkpt lat="49.18872" lon="1.20385">
        <ele>119.2</ele>
        <time>2017-05-14T08:15:47Z</time>
      </trkpt>
      <trkpt lat="49.18878" lon="1.20372">
        <ele>121</ele>
        <time>2017-05-14T08:15:53Z</time>
      </trkpt>
      <trkpt lat="49.18886" lon="1.2036">
        <ele>122.7</ele>
        <time>2017-05-14T08:15:59Z</time>
      </trkpt>
      <trkpt lat="49.18893" lon="1.20349">
        <ele>124.5</ele>
        <time>2017-05-14T08:16:05Z</time>
      </trkpt>
      <trkpt lat="49.189" lon="1.2034">
        <ele>125.7</ele>
        <time>2017-05-14T08:16:10Z</time>
      </trkpt>
      <trkpt lat="49.18907" lon="1.20329">
        <ele>127</ele>
        <time>2017-05-14T08:16:16Z</time>
      </trkpt>
      <trkpt lat="49.18914" lon="1.20319">
        <ele>128</ele>
        <time>2017-05-14T08:16:21Z</time>
      </trkpt>
      <trkpt lat="49.18921" lon="1.20305">
        <ele>129.1</ele>
        <time>2017-05-14T08:16:27Z</time>
      </trkpt>
      <trkpt lat="49.18929" lon="1.20297">
        <ele>129.9</ele>
        <time>2017-05-14T08:16:32Z</time>
      </trkpt>
      <trkpt lat="49.18933" lon="1.2031">
        <ele>130.8</ele>
        <time>2017-05-14T08:16:37Z</time>
      </trkpt>
      <trkpt lat="49.18938" lon="1.20326">
        <ele>131.2</ele>
        <time>2017-05-14T08:16:42Z</time>
      </trkpt>
      <trkpt lat="49.18944" lon="1.2034">
        <ele>131.8</ele>
        <time>2017-05-14T08:16:47Z</time>
      </trkpt>
      <trkpt lat="49.1895" lon="1.20352">
        <ele>132.5</ele>
        <time>2017-05-14T08:16:51Z</time>
      </trkpt>
      <trkpt lat="49.18956" lon="1.20365">
        <ele>133.2</ele>
        <time>2017-05-14T08:16:55Z</time>
      </trkpt>
      <trkpt lat="49.1896" lon="1.20378">
        <ele>133.8</ele>
        <time>2017-05-14T08:16:58Z</time>
      </trkpt>
      <trkpt lat="49.18964" lon="1.20391">
        <ele>134.5</ele>
        <time>2017-05-14T08:17:01Z</time>
      </trkpt>
      <trkpt lat="49.1897" lon="1.20406">
        <ele>135.3</ele>
        <time>2017-05-14T08:17:05Z</time>
      </trkpt>
      <trkpt lat="49.18975" lon="1.20421">
        <ele>135.9</ele>
        <time>2017-05-14T08:17:09Z</time>
      </trkpt>
      <trkpt lat="49.18981" lon="1.20435">
        <ele>136.5</ele>
        <time>2017-05-14T08:17:13Z</time>
      </trkpt>
      <trkpt lat="49.18985" lon="1.20447">
        <ele>136.9</ele>
        <time>2017-05-14T08:17:16Z</time>
      </trkpt>
      <trkpt lat="49.1899" lon="1.2046">
        <ele>137.2</ele>
        <time>2017-05-14T08:17:19Z</time>
      </trkpt>
      <trkpt lat="49.18994" lon="1.20473">
        <ele>137.4</ele>
        <time>2017-05-14T08:17:23Z</time>
      </trkpt>
      <trkpt lat="49.19" lon="1.20488">
        <ele>137.9</ele>
        <time>2017-05-14T08:17:27Z</time>
      </trkpt>
      <trkpt lat="49.19004" lon="1.20501">
        <ele>138.6</ele>
        <time>2017-05-14T08:17:30Z</time>
      </trkpt>
      <trkpt lat="49.19009" lon="1.20514">
        <ele>139</ele>
        <time>2017-05-14T08:17:33Z</time>
      </trkpt>
      <trkpt lat="49.19014" lon="1.20528">
        <ele>139.5</ele>
        <time>2017-05-14T08:17:37Z</time>
      </trkpt>
      <trkpt lat="49.19019" lon="1.20545">
        <ele>139.9</ele>
        <time>2017-05-14T08:17:42Z</time>
      </trkpt>
      <trkpt lat="49.19023" lon="1.20557">
        <ele>140.3</ele>
        <time>2017-05-14T08:17:47Z</time>
      </trkpt>
      <trkpt lat="49.19027" lon="1.2057">
        <ele>141</ele>
        <time>2017-05-14T08:17:57Z</time>
      </trkpt>
      <trkpt lat="49.19033" lon="1.20581">
        <ele>141.1</ele>
        <time>2017-05-14T08:18:32Z</time>
      </trkpt>
      <trkpt lat="49.19036" lon="1.20594">
        <ele>141.2</ele>
        <time>2017-05-14T08:18:37Z</time>
      </trkpt>
      <trkpt lat="49.1904" lon="1.20609">
        <ele>141.4</ele>
        <time>2017-05-14T08:18:41Z</time>
      </trkpt>
      <trkpt lat="49.19045" lon="1.2062">
        <ele>141.7</ele>
        <time>2017-05-14T08:18:44Z</time>
      </trkpt>
      <trkpt lat="49.19053" lon="1.20632">
        <ele>141.8</ele>
        <time>2017-05-14T08:18:47Z</time>
      </trkpt>
      <trkpt lat="49.19062" lon="1.20645">
        <ele>141.9</ele>
        <time>2017-05-14T08:18:51Z</time>
      </trkpt>
      <trkpt lat="49.1907" lon="1.20657">
        <ele>141.7</ele>
        <time>2017-05-14T08:18:55Z</time>
      </trkpt>
      <trkpt lat="49.19077" lon="1.20667">
        <ele>141.6</ele>
        <time>2017-05-14T08:18:58Z</time>
      </trkpt>
      <trkpt lat="49.19088" lon="1.20676">
        <ele>141.6</ele>
        <time>2017-05-14T08:19:01Z</time>
      </trkpt>
      <trkpt lat="49.19098" lon="1.20681">
        <ele>141.5</ele>
        <time>2017-05-14T08:19:04Z</time>
      </trkpt>
      <trkpt lat="49.19109" lon="1.20685">
        <ele>141.6</ele>
        <time>2017-05-14T08:19:07Z</time>
      </trkpt>
      <trkpt lat="49.19119" lon="1.20693">
        <ele>141.5</ele>
        <time>2017-05-14T08:19:10Z</time>
      </trkpt>
      <trkpt lat="49.1913" lon="1.20696">
        <ele>141.1</ele>
        <time>2017-05-14T08:19:14Z</time>
      </trkpt>
      <trkpt lat="49.19139" lon="1.207">
        <ele>140.9</ele>
        <time>2017-05-14T08:19:16Z</time>
      </trkpt>
      <trkpt lat="49.19151" lon="1.20705">
        <ele>140.4</ele>
        <time>2017-05-14T08:19:18Z</time>
      </trkpt>
      <trkpt lat="49.1916" lon="1.2071">
        <ele>140.1</ele>
        <time>2017-05-14T08:19:20Z</time>
      </trkpt>
      <trkpt lat="49.19173" lon="1.20716">
        <ele>140</ele>
        <time>2017-05-14T08:19:23Z</time>
      </trkpt>
      <trkpt lat="49.19186" lon="1.20722">
        <ele>139.9</ele>
        <time>2017-05-14T08:19:26Z</time>
      </trkpt>
      <trkpt lat="49.19195" lon="1.20729">
        <ele>139.6</ele>
        <time>2017-05-14T08:19:28Z</time>
      </trkpt>
      <trkpt lat="49.19207" lon="1.20737">
        <ele>139.4</ele>
        <time>2017-05-14T08:19:30Z</time>
      </trkpt>
      <trkpt lat="49.19219" lon="1.20744">
        <ele>138.9</ele>
        <time>2017-05-14T08:19:32Z</time>
      </trkpt>
      <trkpt lat="49.19229" lon="1.20751">
        <ele>138.7</ele>
        <time>2017-05-14T08:19:34Z</time>
      </trkpt>
      <trkpt lat="49.1924" lon="1.2076">
        <ele>138.6</ele>
        <time>2017-05-14T08:19:36Z</time>
      </trkpt>
      <trkpt lat="49.19248" lon="1.20769">
        <ele>138.6</ele>
        <time>2017-05-14T08:19:38Z</time>
      </trkpt>
      <trkpt lat="49.19261" lon="1.20778">
        <ele>138.3</ele>
        <time>2017-05-14T08:19:41Z</time>
      </trkpt>
      <trkpt lat="49.19273" lon="1.20787">
        <ele>138.2</ele>
        <time>2017-05-14T08:19:43Z</time>
      </trkpt>
      <trkpt lat="49.19287" lon="1.20795">
        <ele>138.1</ele>
        <time>2017-05-14T08:19:45Z</time>
      </trkpt>
      <trkpt lat="49.19296" lon="1.20801">
        <ele>138.2</ele>
        <time>2017-05-14T08:19:47Z</time>
      </trkpt>
      <trkpt lat="49.19306" lon="1.20809">
        <ele>138.2</ele>
        <time>2017-05-14T08:19:49Z</time>
      </trkpt>
      <trkpt lat="49.19315" lon="1.20816">
        <ele>138.2</ele>
        <time>2017-05-14T08:19:51Z</time>
      </trkpt>
      <trkpt lat="49.19325" lon="1.20826">
        <ele>138</ele>
        <time>2017-05-14T08:19:53Z</time>
      </trkpt>
      <trkpt lat="49.19336" lon="1.20837">
        <ele>137.9</ele>
        <time>2017-05-14T08:19:55Z</time>
      </trkpt>
      <trkpt lat="49.19348" lon="1.20848">
        <ele>137.8</ele>
        <time>2017-05-14T08:19:57Z</time>
      </trkpt>
      <trkpt lat="49.19358" lon="1.20854">
        <ele>137.8</ele>
        <time>2017-05-14T08:19:59Z</time>
      </trkpt>
      <trkpt lat="49.19368" lon="1.20864">
        <ele>137.8</ele>
        <time>2017-05-14T08:20:01Z</time>
      </trkpt>
      <trkpt lat="49.19381" lon="1.20873">
        <ele>137.6</ele>
        <time>2017-05-14T08:20:03Z</time>
      </trkpt>
      <trkpt lat="49.19392" lon="1.20879">
        <ele>137.5</ele>
        <time>2017-05-14T08:20:05Z</time>
      </trkpt>
      <trkpt lat="49.19403" lon="1.20882">
        <ele>137.4</ele>
        <time>2017-05-14T08:20:07Z</time>
      </trkpt>
      <trkpt lat="49.19412" lon="1.20886">
        <ele>137.5</ele>
        <time>2017-05-14T08:20:09Z</time>
      </trkpt>
      <trkpt lat="49.19423" lon="1.20889">
        <ele>137.5</ele>
        <time>2017-05-14T08:20:11Z</time>
      </trkpt>
      <trkpt lat="49.19436" lon="1.2089">
        <ele>137.4</ele>
        <time>2017-05-14T08:20:13Z</time>
      </trkpt>
      <trkpt lat="49.19449" lon="1.2089">
        <ele>137.5</ele>
        <time>2017-05-14T08:20:15Z</time>
      </trkpt>
      <trkpt lat="49.19463" lon="1.20888">
        <ele>137.6</ele>
        <time>2017-05-14T08:20:17Z</time>
      </trkpt>
      <trkpt lat="49.19477" lon="1.20886">
        <ele>137.7</ele>
        <time>2017-05-14T08:20:19Z</time>
      </trkpt>
      <trkpt lat="49.1949" lon="1.20884">
        <ele>137.8</ele>
        <time>2017-05-14T08:20:21Z</time>
      </trkpt>
      <trkpt lat="49.19503" lon="1.20884">
        <ele>138</ele>
        <time>2017-05-14T08:20:23Z</time>
      </trkpt>
      <trkpt lat="49.19515" lon="1.20885">
        <ele>137.9</ele>
        <time>2017-05-14T08:20:25Z</time>
      </trkpt>
      <trkpt lat="49.19525" lon="1.20889">
        <ele>138.1</ele>
        <time>2017-05-14T08:20:27Z</time>
      </trkpt>
      <trkpt lat="49.19538" lon="1.20892">
        <ele>138</ele>
        <time>2017-05-14T08:20:29Z</time>
      </trkpt>
      <trkpt lat="49.19551" lon="1.20895">
        <ele>138</ele>
        <time>2017-05-14T08:20:31Z</time>
      </trkpt>
      <trkpt lat="49.19564" lon="1.20896">
        <ele>137.8</ele>
        <time>2017-05-14T08:20:33Z</time>
      </trkpt>
      <trkpt lat="49.19575" lon="1.20896">
        <ele>137.8</ele>
        <time>2017-05-14T08:20:35Z</time>
      </trkpt>
      <trkpt lat="49.19586" lon="1.20895">
        <ele>138.5</ele>
        <time>2017-05-14T08:20:37Z</time>
      </trkpt>
      <trkpt lat="49.19596" lon="1.20893">
        <ele>139</ele>
        <time>2017-05-14T08:20:39Z</time>
      </trkpt>
      <trkpt lat="49.19606" lon="1.20888">
        <ele>139.3</ele>
        <time>2017-05-14T08:20:41Z</time>
      </trkpt>
      <trkpt lat="49.19617" lon="1.20884">
        <ele>139.7</ele>
        <time>2017-05-14T08:20:43Z</time>
      </trkpt>
      <trkpt lat="49.19628" lon="1.20881">
        <ele>139.8</ele>
        <time>2017-05-14T08:20:45Z</time>
      </trkpt>
      <trkpt lat="49.1964" lon="1.20881">
        <ele>139.8</ele>
        <time>2017-05-14T08:20:47Z</time>
      </trkpt>
      <trkpt lat="49.19651" lon="1.20882">
        <ele>139.8</ele>
        <time>2017-05-14T08:20:49Z</time>
      </trkpt>
      <trkpt lat="49.19663" lon="1.20884">
        <ele>139.9</ele>
        <time>2017-05-14T08:20:51Z</time>
      </trkpt>
      <trkpt lat="49.19675" lon="1.20886">
        <ele>140</ele>
        <time>2017-05-14T08:20:53Z</time>
      </trkpt>
      <trkpt lat="49.19686" lon="1.20887">
        <ele>140.1</ele>
        <time>2017-05-14T08:20:55Z</time>
      </trkpt>
      <trkpt lat="49.19697" lon="1.20889">
        <ele>140.1</ele>
        <time>2017-05-14T08:20:57Z</time>
      </trkpt>
      <trkpt lat="49.19708" lon="1.20891">
        <ele>140.4</ele>
        <time>2017-05-14T08:20:59Z</time>
      </trkpt>
      <trkpt lat="49.19718" lon="1.20894">
        <ele>140.5</ele>
        <time>2017-05-14T08:21:01Z</time>
      </trkpt>
      <trkpt lat="49.19728" lon="1.20898">
        <ele>140.6</ele>
        <time>2017-05-14T08:21:03Z</time>
      </trkpt>
      <trkpt lat="49.19738" lon="1.20903">
        <ele>140.6</ele>
        <time>2017-05-14T08:21:05Z</time>
      </trkpt>
      <trkpt lat="49.19748" lon="1.20908">
        <ele>140.8</ele>
        <time>2017-05-14T08:21:07Z</time>
      </trkpt>
      <trkpt lat="49.19758" lon="1.20914">
        <ele>141</ele>
        <time>2017-05-14T08:21:09Z</time>
      </trkpt>
      <trkpt lat="49.19767" lon="1.2092">
        <ele>141.1</ele>
        <time>2017-05-14T08:21:11Z</time>
      </trkpt>
      <trkpt lat="49.19778" lon="1.20929">
        <ele>141.2</ele>
        <time>2017-05-14T08:21:14Z</time>
      </trkpt>
      <trkpt lat="49.19785" lon="1.20938">
        <ele>140.8</ele>
        <time>2017-05-14T08:21:17Z</time>
      </trkpt>
      <trkpt lat="49.19792" lon="1.20949">
        <ele>140.5</ele>
        <time>2017-05-14T08:21:20Z</time>
      </trkpt>
      <trkpt lat="49.19801" lon="1.20958">
        <ele>140.4</ele>
        <time>2017-05-14T08:21:23Z</time>
      </trkpt>
      <trkpt lat="49.1981" lon="1.20966">
        <ele>140.8</ele>
        <time>2017-05-14T08:21:26Z</time>
      </trkpt>
      <trkpt lat="49.19818" lon="1.20976">
        <ele>141.2</ele>
        <time>2017-05-14T08:21:29Z</time>
      </trkpt>
      <trkpt lat="49.19827" lon="1.2099">
        <ele>141.6</ele>
        <time>2017-05-14T08:21:32Z</time>
      </trkpt>
      <trkpt lat="49.19837" lon="1.21003">
        <ele>142.1</ele>
        <time>2017-05-14T08:21:35Z</time>
      </trkpt>
      <trkpt lat="49.19846" lon="1.21017">
        <ele>142.3</ele>
        <time>2017-05-14T08:21:38Z</time>
      </trkpt>
      <trkpt lat="49.19856" lon="1.21031">
        <ele>142.4</ele>
        <time>2017-05-14T08:21:41Z</time>
      </trkpt>
      <trkpt lat="49.19863" lon="1.2104">
        <ele>142.6</ele>
        <time>2017-05-14T08:21:43Z</time>
      </trkpt>
      <trkpt lat="49.1987" lon="1.2105">
        <ele>142.7</ele>
        <time>2017-05-14T08:21:45Z</time>
      </trkpt>
      <trkpt lat="49.19877" lon="1.21061">
        <ele>142.8</ele>
        <time>2017-05-14T08:21:47Z</time>
      </trkpt>
      <trkpt lat="49.19884" lon="1.21071">
        <ele>143</ele>
        <time>2017-05-14T08:21:49Z</time>
      </trkpt>
      <trkpt lat="49.19892" lon="1.21081">
        <ele>143.2</ele>
        <time>2017-05-14T08:21:51Z</time>
      </trkpt>
      <trkpt lat="49.19899" lon="1.21091">
        <ele>143.4</ele>
        <time>2017-05-14T08:21:53Z</time>
      </trkpt>
      <trkpt lat="49.19906" lon="1.21102">
        <ele>143.6</ele>
        <time>2017-05-14T08:21:55Z</time>
      </trkpt>
      <trkpt lat="49.19913" lon="1.21112">
        <ele>143.8</ele>
        <time>2017-05-14T08:21:57Z</time>
      </trkpt>
      <trkpt lat="49.1992" lon="1.21122">
        <ele>144</ele>
        <time>2017-05-14T08:21:59Z</time>
      </trkpt>
      <trkpt lat="49.19928" lon="1.21133">
        <ele>144.3</ele>
        <time>2017-05-14T08:22:01Z</time>
      </trkpt>
      <trkpt lat="49.19935" lon="1.21143">
        <ele>144.5</ele>
        <time>2017-05-14T08:22:03Z</time>
      </trkpt>
      <trkpt lat="49.19942" lon="1.21154">
        <ele>144.7</ele>
        <time>2017-05-14T08:22:05Z</time>
      </trkpt>
      <trkpt lat="49.19949" lon="1.21165">
        <ele>144.9</ele>
        <time>2017-05-14T08:22:07Z</time>
      </trkpt>
      <trkpt lat="49.19956" lon="1.21175">
        <ele>145.1</ele>
        <time>2017-05-14T08:22:09Z</time>
      </trkpt>
      <trkpt lat="49.19963" lon="1.21186">
        <ele>145.5</ele>
        <time>2017-05-14T08:22:11Z</time>
      </trkpt>
      <trkpt lat="49.19971" lon="1.21197">
        <ele>145.8</ele>
        <time>2017-05-14T08:22:13Z</time>
      </trkpt>
      <trkpt lat="49.19978" lon="1.21207">
        <ele>146</ele>
        <time>2017-05-14T08:22:15Z</time>
      </trkpt>
      <trkpt lat="49.19985" lon="1.21217">
        <ele>146.4</ele>
        <time>2017-05-14T08:22:17Z</time>
      </trkpt>
      <trkpt lat="49.19992" lon="1.21227">
        <ele>146.8</ele>
        <time>2017-05-14T08:22:19Z</time>
      </trkpt>
      <trkpt lat="49.19999" lon="1.21237">
        <ele>147.2</ele>
        <time>2017-05-14T08:22:21Z</time>
      </trkpt>
      <trkpt lat="49.20006" lon="1.21247">
        <ele>147.5</ele>
        <time>2017-05-14T08:22:23Z</time>
      </trkpt>
      <trkpt lat="49.20014" lon="1.21257">
        <ele>147.7</ele>
        <time>2017-05-14T08:22:25Z</time>
      </trkpt>
      <trkpt lat="49.20022" lon="1.21267">
        <ele>148</ele>
        <time>2017-05-14T08:22:27Z</time>
      </trkpt>
      <trkpt lat="49.20031" lon="1.21277">
        <ele>148.2</ele>
        <time>2017-05-14T08:22:29Z</time>
      </trkpt>
      <trkpt lat="49.2004" lon="1.21286">
        <ele>148.4</ele>
        <time>2017-05-14T08:22:31Z</time>
      </trkpt>
      <trkpt lat="49.20049" lon="1.21295">
        <ele>148.7</ele>
        <time>2017-05-14T08:22:33Z</time>
      </trkpt>
      <trkpt lat="49.20059" lon="1.21304">
        <ele>148.8</ele>
        <time>2017-05-14T08:22:35Z</time>
      </trkpt>
      <trkpt lat="49.20069" lon="1.21313">
        <ele>149</ele>
        <time>2017-05-14T08:22:37Z</time>
      </trkpt>
      <trkpt lat="49.20079" lon="1.21322">
        <ele>149.1</ele>
        <time>2017-05-14T08:22:39Z</time>
      </trkpt>
      <trkpt lat="49.20089" lon="1.21331">
        <ele>149.2</ele>
        <time>2017-05-14T08:22:41Z</time>
      </trkpt>
      <trkpt lat="49.20099" lon="1.2134">
        <ele>149.3</ele>
        <time>2017-05-14T08:22:43Z</time>
      </trkpt>
      <trkpt lat="49.2011" lon="1.21348">
        <ele>149.4</ele>
        <time>2017-05-14T08:22:45Z</time>
      </trkpt>
      <trkpt lat="49.2012" lon="1.21357">
        <ele>149.5</ele>
        <time>2017-05-14T08:22:47Z</time>
      </trkpt>
      <trkpt lat="49.2013" lon="1.21365">
        <ele>149.5</ele>
        <time>2017-05-14T08:22:49Z</time>
      </trkpt>
      <trkpt lat="49.20141" lon="1.21374">
        <ele>149.5</ele>
        <time>2017-05-14T08:22:51Z</time>
      </trkpt>
      <trkpt lat="49.20151" lon="1.21382">
        <ele>149.7</ele>
        <time>2017-05-14T08:22:53Z</time>
      </trkpt>
      <trkpt lat="49.20162" lon="1.21391">
        <ele>149.7</ele>
        <time>2017-05-14T08:22:55Z</time>
      </trkpt>
      <trkpt lat="49.20172" lon="1.214">
        <ele>149.8</ele>
        <time>2017-05-14T08:22:57Z</time>
      </trkpt>
      <trkpt lat="49.20183" lon="1.21408">
        <ele>149.8</ele>
        <time>2017-05-14T08:22:59Z</time>
      </trkpt>
      <trkpt lat="49.20193" lon="1.21417">
        <ele>149.9</ele>
        <time>2017-05-14T08:23:01Z</time>
      </trkpt>
      <trkpt lat="49.20203" lon="1.21427">
        <ele>149.7</ele>
        <time>2017-05-14T08:23:03Z</time>
      </trkpt>
      <trkpt lat="49.20214" lon="1.21436">
        <ele>149.9</ele>
        <time>2017-05-14T08:23:05Z</time>
      </trkpt>
      <trkpt lat="49.20224" lon="1.21446">
        <ele>150.1</ele>
        <time>2017-05-14T08:23:07Z</time>
      </trkpt>
      <trkpt lat="49.20234" lon="1.21456">
        <ele>150.1</ele>
        <time>2017-05-14T08:23:09Z</time>
      </trkpt>
      <trkpt lat="49.20244" lon="1.21467">
        <ele>150.2</ele>
        <time>2017-05-14T08:23:11Z</time>
      </trkpt>
      <trkpt lat="49.20253" lon="1.21478">
        <ele>150.2</ele>
        <time>2017-05-14T08:23:13Z</time>
      </trkpt>
      <trkpt lat="49.20263" lon="1.2149">
        <ele>150.4</ele>
        <time>2017-05-14T08:23:15Z</time>
      </trkpt>
      <trkpt lat="49.20272" lon="1.21501">
        <ele>150.4</ele>
        <time>2017-05-14T08:23:17Z</time>
      </trkpt>
      <trkpt lat="49.20282" lon="1.21512">
        <ele>150.4</ele>
        <time>2017-05-14T08:23:19Z</time>
      </trkpt>
      <trkpt lat="49.20292" lon="1.21523">
        <ele>150.5</ele>
        <time>2017-05-14T08:23:21Z</time>
      </trkpt>
      <trkpt lat="49.20302" lon="1.21534">
        <ele>150.6</ele>
        <time>2017-05-14T08:23:23Z</time>
      </trkpt>
      <trkpt lat="49.20311" lon="1.21545">
        <ele>150.6</ele>
        <time>2017-05-14T08:23:25Z</time>
      </trkpt>
      <trkpt lat="49.20321" lon="1.21557">
        <ele>150.7</ele>
        <time>2017-05-14T08:23:27Z</time>
      </trkpt>
      <trkpt lat="49.20332" lon="1.21568">
        <ele>150.6</ele>
        <time>2017-05-14T08:23:29Z</time>
      </trkpt>
      <trkpt lat="49.20343" lon="1.21579">
        <ele>150.6</ele>
        <time>2017-05-14T08:23:31Z</time>
      </trkpt>
      <trkpt lat="49.20353" lon="1.2159">
        <ele>150.3</ele>
        <time>2017-05-14T08:23:33Z</time>
      </trkpt>
      <trkpt lat="49.20364" lon="1.21601">
        <ele>150.3</ele>
        <time>2017-05-14T08:23:35Z</time>
      </trkpt>
      <trkpt lat="49.20374" lon="1.21612">
        <ele>150.2</ele>
        <time>2017-05-14T08:23:37Z</time>
      </trkpt>
      <trkpt lat="49.20384" lon="1.21623">
        <ele>150.1</ele>
        <time>2017-05-14T08:23:39Z</time>
      </trkpt>
      <trkpt lat="49.20394" lon="1.21634">
        <ele>150</ele>
        <time>2017-05-14T08:23:41Z</time>
      </trkpt>
      <trkpt lat="49.20404" lon="1.21645">
        <ele>150</ele>
        <time>2017-05-14T08:23:43Z</time>
      </trkpt>
      <trkpt lat="49.20415" lon="1.21656">
        <ele>149.9</ele>
        <time>2017-05-14T08:23:45Z</time>
      </trkpt>
      <trkpt lat="49.20425" lon="1.21668">
        <ele>149.8</ele>
        <time>2017-05-14T08:23:47Z</time>
      </trkpt>
      <trkpt lat="49.20435" lon="1.21679">
        <ele>149.7</ele>
        <time>2017-05-14T08:23:49Z</time>
      </trkpt>
      <trkpt lat="49.20445" lon="1.2169">
        <ele>149.6</ele>
        <time>2017-05-14T08:23:51Z</time>
      </trkpt>
      <trkpt lat="49.20456" lon="1.21702">
        <ele>149.6</ele>
        <time>2017-05-14T08:23:53Z</time>
      </trkpt>
      <trkpt lat="49.20466" lon="1.21713">
        <ele>149.6</ele>
        <time>2017-05-14T08:23:55Z</time>
      </trkpt>
      <trkpt lat="49.20476" lon="1.21723">
        <ele>149.6</ele>
        <time>2017-05-14T08:23:57Z</time>
      </trkpt>
      <trkpt lat="49.20486" lon="1.21734">
        <ele>149.6</ele>
        <time>2017-05-14T08:23:59Z</time>
      </trkpt>
      <trkpt lat="49.20496" lon="1.21745">
        <ele>149.5</ele>
        <time>2017-05-14T08:24:01Z</time>
      </trkpt>
      <trkpt lat="49.20507" lon="1.21756">
        <ele>149.4</ele>
        <time>2017-05-14T08:24:03Z</time>
      </trkpt>
      <trkpt lat="49.20517" lon="1.21766">
        <ele>149.3</ele>
        <time>2017-05-14T08:24:05Z</time>
      </trkpt>
      <trkpt lat="49.20527" lon="1.21776">
        <ele>149.2</ele>
        <time>2017-05-14T08:24:07Z</time>
      </trkpt>
      <trkpt lat="49.20537" lon="1.21787">
        <ele>149.1</ele>
        <time>2017-05-14T08:24:09Z</time>
      </trkpt>
      <trkpt lat="49.20548" lon="1.21797">
        <ele>149</ele>
        <time>2017-05-14T08:24:11Z</time>
      </trkpt>
      <trkpt lat="49.20558" lon="1.21806">
        <ele>148.9</ele>
        <time>2017-05-14T08:24:13Z</time>
      </trkpt>
      <trkpt lat="49.20569" lon="1.21816">
        <ele>148.9</ele>
        <time>2017-05-14T08:24:15Z</time>
      </trkpt>
      <trkpt lat="49.2058" lon="1.21825">
        <ele>148.8</ele>
        <time>2017-05-14T08:24:17Z</time>
      </trkpt>
      <trkpt lat="49.20591" lon="1.21833">
        <ele>148.8</ele>
        <time>2017-05-14T08:24:19Z</time>
      </trkpt>
      <trkpt lat="49.20602" lon="1.21837">
        <ele>148.7</ele>
        <time>2017-05-14T08:24:21Z</time>
      </trkpt>
      <trkpt lat="49.20611" lon="1.21846">
        <ele>148.6</ele>
        <time>2017-05-14T08:24:23Z</time>
      </trkpt>
      <trkpt lat="49.20616" lon="1.21862">
        <ele>148.4</ele>
        <time>2017-05-14T08:24:25Z</time>
      </trkpt>
      <trkpt lat="49.20619" lon="1.21879">
        <ele>148.5</ele>
        <time>2017-05-14T08:24:27Z</time>
      </trkpt>
      <trkpt lat="49.20622" lon="1.21897">
        <ele>148.5</ele>
        <time>2017-05-14T08:24:29Z</time>
      </trkpt>
      <trkpt lat="49.20625" lon="1.21915">
        <ele>148.5</ele>
        <time>2017-05-14T08:24:31Z</time>
      </trkpt>
      <trkpt lat="49.20629" lon="1.21932">
        <ele>148.5</ele>
        <time>2017-05-14T08:24:33Z</time>
      </trkpt>
      <trkpt lat="49.20633" lon="1.21949">
        <ele>148.4</ele>
        <time>2017-05-14T08:24:35Z</time>
      </trkpt>
      <trkpt lat="49.20636" lon="1.21966">
        <ele>148.3</ele>
        <time>2017-05-14T08:24:37Z</time>
      </trkpt>
      <trkpt lat="49.20641" lon="1.21984">
        <ele>148.2</ele>
        <time>2017-05-14T08:24:39Z</time>
      </trkpt>
      <trkpt lat="49.20647" lon="1.22001">
        <ele>148.1</ele>
        <time>2017-05-14T08:24:41Z</time>
      </trkpt>
      <trkpt lat="49.20652" lon="1.22017">
        <ele>148.2</ele>
        <time>2017-05-14T08:24:43Z</time>
      </trkpt>
      <trkpt lat="49.20659" lon="1.22033">
        <ele>148.1</ele>
        <time>2017-05-14T08:24:45Z</time>
      </trkpt>
      <trkpt lat="49.20666" lon="1.22048">
        <ele>148.1</ele>
        <time>2017-05-14T08:24:47Z</time>
      </trkpt>
      <trkpt lat="49.20673" lon="1.22064">
        <ele>148</ele>
        <time>2017-05-14T08:24:49Z</time>
      </trkpt>
      <trkpt lat="49.2068" lon="1.2208">
        <ele>148</ele>
        <time>2017-05-14T08:24:51Z</time>
      </trkpt>
      <trkpt lat="49.20687" lon="1.22095">
        <ele>148.1</ele>
        <time>2017-05-14T08:24:53Z</time>
      </trkpt>
      <trkpt lat="49.20694" lon="1.22111">
        <ele>148.2</ele>
        <time>2017-05-14T08:24:55Z</time>
      </trkpt>
      <trkpt lat="49.20701" lon="1.22127">
        <ele>148.2</ele>
        <time>2017-05-14T08:24:57Z</time>
      </trkpt>
      <trkpt lat="49.20706" lon="1.22144">
        <ele>148.1</ele>
        <time>2017-05-14T08:24:59Z</time>
      </trkpt>
      <trkpt lat="49.20711" lon="1.22161">
        <ele>148</ele>
        <time>2017-05-14T08:25:01Z</time>
      </trkpt>
      <trkpt lat="49.20717" lon="1.22178">
        <ele>147.9</ele>
        <time>2017-05-14T08:25:03Z</time>
      </trkpt>
      <trkpt lat="49.20722" lon="1.22195">
        <ele>147.8</ele>
        <time>2017-05-14T08:25:05Z</time>
      </trkpt>
      <trkpt lat="49.20727" lon="1.22212">
        <ele>147.6</ele>
        <time>2017-05-14T08:25:07Z</time>
      </trkpt>
      <trkpt lat="49.20731" lon="1.2223">
        <ele>147.2</ele>
        <time>2017-05-14T08:25:09Z</time>
      </trkpt>
      <trkpt lat="49.20734" lon="1.2225">
        <ele>146.9</ele>
        <time>2017-05-14T08:25:11Z</time>
      </trkpt>
      <trkpt lat="49.20737" lon="1.22269">
        <ele>146.6</ele>
        <time>2017-05-14T08:25:13Z</time>
      </trkpt>
      <trkpt lat="49.20741" lon="1.22289">
        <ele>146.1</ele>
        <time>2017-05-14T08:25:15Z</time>
      </trkpt>
      <trkpt lat="49.20746" lon="1.22309">
        <ele>145.7</ele>
        <time>2017-05-14T08:25:17Z</time>
      </trkpt>
      <trkpt lat="49.20753" lon="1.22329">
        <ele>145.4</ele>
        <time>2017-05-14T08:25:19Z</time>
      </trkpt>
      <trkpt lat="49.2076" lon="1.22349">
        <ele>144.8</ele>
        <time>2017-05-14T08:25:21Z</time>
      </trkpt>
      <trkpt lat="49.20767" lon="1.22369">
        <ele>144.1</ele>
        <time>2017-05-14T08:25:23Z</time>
      </trkpt>
      <trkpt lat="49.20773" lon="1.2239">
        <ele>143.5</ele>
        <time>2017-05-14T08:25:25Z</time>
      </trkpt>
      <trkpt lat="49.20777" lon="1.22413">
        <ele>143</ele>
        <time>2017-05-14T08:25:27Z</time>
      </trkpt>
      <trkpt lat="49.20781" lon="1.22436">
        <ele>142.7</ele>
        <time>2017-05-14T08:25:29Z</time>
      </trkpt>
      <trkpt lat="49.20786" lon="1.22458">
        <ele>142.3</ele>
        <time>2017-05-14T08:25:31Z</time>
      </trkpt>
      <trkpt lat="49.20789" lon="1.2248">
        <ele>141.9</ele>
        <time>2017-05-14T08:25:33Z</time>
      </trkpt>
      <trkpt lat="49.20793" lon="1.22498">
        <ele>141.5</ele>
        <time>2017-05-14T08:25:35Z</time>
      </trkpt>
      <trkpt lat="49.20793" lon="1.22513">
        <ele>140.8</ele>
        <time>2017-05-14T08:25:38Z</time>
      </trkpt>
      <trkpt lat="49.20795" lon="1.22528">
        <ele>140.6</ele>
        <time>2017-05-14T08:25:41Z</time>
      </trkpt>
      <trkpt lat="49.20798" lon="1.22542">
        <ele>140.6</ele>
        <time>2017-05-14T08:25:43Z</time>
      </trkpt>
      <trkpt lat="49.208" lon="1.22559">
        <ele>140.4</ele>
        <time>2017-05-14T08:25:45Z</time>
      </trkpt>
      <trkpt lat="49.20802" lon="1.22579">
        <ele>140.4</ele>
        <time>2017-05-14T08:25:47Z</time>
      </trkpt>
      <trkpt lat="49.20805" lon="1.22597">
        <ele>140.5</ele>
        <time>2017-05-14T08:25:49Z</time>
      </trkpt>
      <trkpt lat="49.20806" lon="1.22615">
        <ele>140.6</ele>
        <time>2017-05-14T08:25:51Z</time>
      </trkpt>
      <trkpt lat="49.20807" lon="1.22634">
        <ele>140.8</ele>
        <time>2017-05-14T08:25:53Z</time>
      </trkpt>
      <trkpt lat="49.20807" lon="1.22652">
        <ele>140.7</ele>
        <time>2017-05-14T08:25:55Z</time>
      </trkpt>
      <trkpt lat="49.20807" lon="1.22671">
        <ele>140.6</ele>
        <time>2017-05-14T08:25:57Z</time>
      </trkpt>
      <trkpt lat="49.20809" lon="1.22689">
        <ele>140.4</ele>
        <time>2017-05-14T08:25:59Z</time>
      </trkpt>
      <trkpt lat="49.20813" lon="1.22707">
        <ele>140.2</ele>
        <time>2017-05-14T08:26:01Z</time>
      </trkpt>
      <trkpt lat="49.2082" lon="1.22723">
        <ele>139.9</ele>
        <time>2017-05-14T08:26:03Z</time>
      </trkpt>
      <trkpt lat="49.20827" lon="1.2274">
        <ele>139.6</ele>
        <time>2017-05-14T08:26:05Z</time>
      </trkpt>
      <trkpt lat="49.20834" lon="1.22758">
        <ele>139.4</ele>
        <time>2017-05-14T08:26:07Z</time>
      </trkpt>
      <trkpt lat="49.20839" lon="1.22778">
        <ele>139.1</ele>
        <time>2017-05-14T08:26:09Z</time>
      </trkpt>
      <trkpt lat="49.20841" lon="1.22798">
        <ele>139</ele>
        <time>2017-05-14T08:26:11Z</time>
      </trkpt>
      <trkpt lat="49.20842" lon="1.22817">
        <ele>138.8</ele>
        <time>2017-05-14T08:26:13Z</time>
      </trkpt>
      <trkpt lat="49.20842" lon="1.22835">
        <ele>138.9</ele>
        <time>2017-05-14T08:26:15Z</time>
      </trkpt>
      <trkpt lat="49.20844" lon="1.2285">
        <ele>138.7</ele>
        <time>2017-05-14T08:26:17Z</time>
      </trkpt>
      <trkpt lat="49.20849" lon="1.22868">
        <ele>138.7</ele>
        <time>2017-05-14T08:26:20Z</time>
      </trkpt>
      <trkpt lat="49.20858" lon="1.22871">
        <ele>138.6</ele>
        <time>2017-05-14T08:26:23Z</time>
      </trkpt>
      <trkpt lat="49.20868" lon="1.22876">
        <ele>138.5</ele>
        <time>2017-05-14T08:26:26Z</time>
      </trkpt>
      <trkpt lat="49.20872" lon="1.2289">
        <ele>138.1</ele>
        <time>2017-05-14T08:26:28Z</time>
      </trkpt>
      <trkpt lat="49.20874" lon="1.22905">
        <ele>137.9</ele>
        <time>2017-05-14T08:26:30Z</time>
      </trkpt>
      <trkpt lat="49.20876" lon="1.2292">
        <ele>137.8</ele>
        <time>2017-05-14T08:26:32Z</time>
      </trkpt>
      <trkpt lat="49.20879" lon="1.22936">
        <ele>137.8</ele>
        <time>2017-05-14T08:26:35Z</time>
      </trkpt>
      <trkpt lat="49.20881" lon="1.22952">
        <ele>137.2</ele>
        <time>2017-05-14T08:26:40Z</time>
      </trkpt>
      <trkpt lat="49.20883" lon="1.22969">
        <ele>136.4</ele>
        <time>2017-05-14T08:26:44Z</time>
      </trkpt>
      <trkpt lat="49.20892" lon="1.22971">
        <ele>135.2</ele>
        <time>2017-05-14T08:26:51Z</time>
      </trkpt>
      <trkpt lat="49.20885" lon="1.22964">
        <ele>135</ele>
        <time>2017-05-14T08:31:02Z</time>
      </trkpt>
      <trkpt lat="49.20881" lon="1.22948">
        <ele>135.6</ele>
        <time>2017-05-14T08:31:08Z</time>
      </trkpt>
      <trkpt lat="49.20881" lon="1.22934">
        <ele>136.4</ele>
        <time>2017-05-14T08:31:13Z</time>
      </trkpt>
      <trkpt lat="49.20877" lon="1.22918">
        <ele>136.8</ele>
        <time>2017-05-14T08:31:17Z</time>
      </trkpt>
      <trkpt lat="49.20875" lon="1.22902">
        <ele>137</ele>
        <time>2017-05-14T08:31:20Z</time>
      </trkpt>
      <trkpt lat="49.20871" lon="1.22884">
        <ele>137.1</ele>
        <time>2017-05-14T08:31:23Z</time>
      </trkpt>
      <trkpt lat="49.20862" lon="1.22873">
        <ele>137.2</ele>
        <time>2017-05-14T08:31:26Z</time>
      </trkpt>
      <trkpt lat="49.20851" lon="1.22869">
        <ele>137.6</ele>
        <time>2017-05-14T08:31:29Z</time>
      </trkpt>
      <trkpt lat="49.2084" lon="1.22868">
        <ele>137.9</ele>
        <time>2017-05-14T08:31:32Z</time>
      </trkpt>
      <trkpt lat="49.2083" lon="1.22866">
        <ele>138.2</ele>
        <time>2017-05-14T08:31:35Z</time>
      </trkpt>
      <trkpt lat="49.20818" lon="1.22871">
        <ele>138.4</ele>
        <time>2017-05-14T08:31:38Z</time>
      </trkpt>
      <trkpt lat="49.20807" lon="1.22879">
        <ele>138.5</ele>
        <time>2017-05-14T08:31:41Z</time>
      </trkpt>
      <trkpt lat="49.20795" lon="1.22887">
        <ele>138.5</ele>
        <time>2017-05-14T08:31:44Z</time>
      </trkpt>
      <trkpt lat="49.20787" lon="1.22894">
        <ele>138.5</ele>
        <time>2017-05-14T08:31:46Z</time>
      </trkpt>
      <trkpt lat="49.20778" lon="1.22901">
        <ele>138.5</ele>
        <time>2017-05-14T08:31:48Z</time>
      </trkpt>
      <trkpt lat="49.20768" lon="1.22909">
        <ele>138.1</ele>
        <time>2017-05-14T08:31:50Z</time>
      </trkpt>
      <trkpt lat="49.20758" lon="1.22918">
        <ele>137.7</ele>
        <time>2017-05-14T08:31:52Z</time>
      </trkpt>
      <trkpt lat="49.20747" lon="1.22925">
        <ele>137.4</ele>
        <time>2017-05-14T08:31:54Z</time>
      </trkpt>
      <trkpt lat="49.20735" lon="1.22928">
        <ele>137</ele>
        <time>2017-05-14T08:31:56Z</time>
      </trkpt>
      <trkpt lat="49.20723" lon="1.22931">
        <ele>136.6</ele>
        <time>2017-05-14T08:31:58Z</time>
      </trkpt>
      <trkpt lat="49.20711" lon="1.22934">
        <ele>136.4</ele>
        <time>2017-05-14T08:32:00Z</time>
      </trkpt>
      <trkpt lat="49.207" lon="1.22936">
        <ele>136.4</ele>
        <time>2017-05-14T08:32:02Z</time>
      </trkpt>
      <trkpt lat="49.20689" lon="1.22938">
        <ele>136.5</ele>
        <time>2017-05-14T08:32:04Z</time>
      </trkpt>
      <trkpt lat="49.20678" lon="1.22941">
        <ele>136.5</ele>
        <time>2017-05-14T08:32:06Z</time>
      </trkpt>
      <trkpt lat="49.20666" lon="1.22947">
        <ele>136.4</ele>
        <time>2017-05-14T08:32:08Z</time>
      </trkpt>
      <trkpt lat="49.20657" lon="1.22955">
        <ele>136.4</ele>
        <time>2017-05-14T08:32:10Z</time>
      </trkpt>
      <trkpt lat="49.20648" lon="1.22966">
        <ele>136.4</ele>
        <time>2017-05-14T08:32:12Z</time>
      </trkpt>
      <trkpt lat="49.20639" lon="1.22976">
        <ele>136.7</ele>
        <time>2017-05-14T08:32:14Z</time>
      </trkpt>
      <trkpt lat="49.2063" lon="1.22986">
        <ele>136.9</ele>
        <time>2017-05-14T08:32:16Z</time>
      </trkpt>
      <trkpt lat="49.2062" lon="1.22995">
        <ele>136.9</ele>
        <time>2017-05-14T08:32:18Z</time>
      </trkpt>
      <trkpt lat="49.20609" lon="1.23003">
        <ele>136.9</ele>
        <time>2017-05-14T08:32:20Z</time>
      </trkpt>
      <trkpt lat="49.20598" lon="1.2301">
        <ele>136.8</ele>
        <time>2017-05-14T08:32:22Z</time>
      </trkpt>
      <trkpt lat="49.20587" lon="1.23016">
        <ele>136.8</ele>
        <time>2017-05-14T08:32:24Z</time>
      </trkpt>
      <trkpt lat="49.20576" lon="1.23022">
        <ele>136.8</ele>
        <time>2017-05-14T08:32:26Z</time>
      </trkpt>
      <trkpt lat="49.20566" lon="1.23027">
        <ele>136.9</ele>
        <time>2017-05-14T08:32:28Z</time>
      </trkpt>
      <trkpt lat="49.20556" lon="1.23033">
        <ele>137.1</ele>
        <time>2017-05-14T08:32:30Z</time>
      </trkpt>
      <trkpt lat="49.20545" lon="1.23038">
        <ele>137</ele>
        <time>2017-05-14T08:32:32Z</time>
      </trkpt>
      <trkpt lat="49.20535" lon="1.23043">
        <ele>137</ele>
        <time>2017-05-14T08:32:34Z</time>
      </trkpt>
      <trkpt lat="49.20524" lon="1.23048">
        <ele>137.1</ele>
        <time>2017-05-14T08:32:36Z</time>
      </trkpt>
      <trkpt lat="49.20514" lon="1.23053">
        <ele>137</ele>
        <time>2017-05-14T08:32:38Z</time>
      </trkpt>
      <trkpt lat="49.20503" lon="1.23057">
        <ele>137</ele>
        <time>2017-05-14T08:32:40Z</time>
      </trkpt>
      <trkpt lat="49.20492" lon="1.23061">
        <ele>136.9</ele>
        <time>2017-05-14T08:32:42Z</time>
      </trkpt>
      <trkpt lat="49.2048" lon="1.23065">
        <ele>136.7</ele>
        <time>2017-05-14T08:32:44Z</time>
      </trkpt>
      <trkpt lat="49.20469" lon="1.23068">
        <ele>136.6</ele>
        <time>2017-05-14T08:32:46Z</time>
      </trkpt>
      <trkpt lat="49.20458" lon="1.23071">
        <ele>136.4</ele>
        <time>2017-05-14T08:32:48Z</time>
      </trkpt>
      <trkpt lat="49.20447" lon="1.23074">
        <ele>136.4</ele>
        <time>2017-05-14T08:32:50Z</time>
      </trkpt>
      <trkpt lat="49.20436" lon="1.23077">
        <ele>136.4</ele>
        <time>2017-05-14T08:32:52Z</time>
      </trkpt>
      <trkpt lat="49.20426" lon="1.2308">
        <ele>136.3</ele>
        <time>2017-05-14T08:32:54Z</time>
      </trkpt>
      <trkpt lat="49.20417" lon="1.23084">
        <ele>136.3</ele>
        <time>2017-05-14T08:32:56Z</time>
      </trkpt>
      <trkpt lat="49.20408" lon="1.23087">
        <ele>136.3</ele>
        <time>2017-05-14T08:32:58Z</time>
      </trkpt>
      <trkpt lat="49.20399" lon="1.23091">
        <ele>136.4</ele>
        <time>2017-05-14T08:33:00Z</time>
      </trkpt>
      <trkpt lat="49.20392" lon="1.23101">
        <ele>136.5</ele>
        <time>2017-05-14T08:33:02Z</time>
      </trkpt>
      <trkpt lat="49.20393" lon="1.23115">
        <ele>136.5</ele>
        <time>2017-05-14T08:33:04Z</time>
      </trkpt>
      <trkpt lat="49.20397" lon="1.23129">
        <ele>136.2</ele>
        <time>2017-05-14T08:33:06Z</time>
      </trkpt>
      <trkpt lat="49.204" lon="1.23144">
        <ele>136.2</ele>
        <time>2017-05-14T08:33:08Z</time>
      </trkpt>
      <trkpt lat="49.20404" lon="1.23159">
        <ele>136.1</ele>
        <time>2017-05-14T08:33:10Z</time>
      </trkpt>
      <trkpt lat="49.20408" lon="1.23174">
        <ele>136</ele>
        <time>2017-05-14T08:33:12Z</time>
      </trkpt>
      <trkpt lat="49.20412" lon="1.23188">
        <ele>135.9</ele>
        <time>2017-05-14T08:33:14Z</time>
      </trkpt>
      <trkpt lat="49.20416" lon="1.23202">
        <ele>136</ele>
        <time>2017-05-14T08:33:16Z</time>
      </trkpt>
      <trkpt lat="49.2042" lon="1.23217">
        <ele>135.9</ele>
        <time>2017-05-14T08:33:18Z</time>
      </trkpt>
      <trkpt lat="49.20424" lon="1.23232">
        <ele>136.2</ele>
        <time>2017-05-14T08:33:20Z</time>
      </trkpt>
      <trkpt lat="49.20428" lon="1.23246">
        <ele>136.2</ele>
        <time>2017-05-14T08:33:22Z</time>
      </trkpt>
      <trkpt lat="49.20433" lon="1.23261">
        <ele>136.1</ele>
        <time>2017-05-14T08:33:24Z</time>
      </trkpt>
      <trkpt lat="49.20436" lon="1.23277">
        <ele>136.1</ele>
        <time>2017-05-14T08:33:26Z</time>
      </trkpt>
      <trkpt lat="49.2044" lon="1.23293">
        <ele>136.1</ele>
        <time>2017-05-14T08:33:28Z</time>
      </trkpt>
      <trkpt lat="49.20444" lon="1.23309">
        <ele>136</ele>
        <time>2017-05-14T08:33:30Z</time>
      </trkpt>
      <trkpt lat="49.20449" lon="1.23325">
        <ele>135.9</ele>
        <time>2017-05-14T08:33:32Z</time>
      </trkpt>
      <trkpt lat="49.20454" lon="1.23341">
        <ele>135.6</ele>
        <time>2017-05-14T08:33:34Z</time>
      </trkpt>
      <trkpt lat="49.20458" lon="1.23358">
        <ele>135.2</ele>
        <time>2017-05-14T08:33:36Z</time>
      </trkpt>
      <trkpt lat="49.20463" lon="1.23375">
        <ele>134.9</ele>
        <time>2017-05-14T08:33:38Z</time>
      </trkpt>
      <trkpt lat="49.20467" lon="1.23391">
        <ele>134.3</ele>
        <time>2017-05-14T08:33:40Z</time>
      </trkpt>
      <trkpt lat="49.20472" lon="1.23409">
        <ele>134</ele>
        <time>2017-05-14T08:33:42Z</time>
      </trkpt>
      <trkpt lat="49.20477" lon="1.23427">
        <ele>133.6</ele>
        <time>2017-05-14T08:33:44Z</time>
      </trkpt>
      <trkpt lat="49.20483" lon="1.23445">
        <ele>132.6</ele>
        <time>2017-05-14T08:33:46Z</time>
      </trkpt>
      <trkpt lat="49.20489" lon="1.23465">
        <ele>131.7</ele>
        <time>2017-05-14T08:33:48Z</time>
      </trkpt>
      <trkpt lat="49.20492" lon="1.23489">
        <ele>130.5</ele>
        <time>2017-05-14T08:33:50Z</time>
      </trkpt>
      <trkpt lat="49.20498" lon="1.23513">
        <ele>129.3</ele>
        <time>2017-05-14T08:33:52Z</time>
      </trkpt>
      <trkpt lat="49.20502" lon="1.23526">
        <ele>128.6</ele>
        <time>2017-05-14T08:33:53Z</time>
      </trkpt>
      <trkpt lat="49.20508" lon="1.2355">
        <ele>126.9</ele>
        <time>2017-05-14T08:33:55Z</time>
      </trkpt>
      <trkpt lat="49.20514" lon="1.23574">
        <ele>124.8</ele>
        <time>2017-05-14T08:33:57Z</time>
      </trkpt>
      <trkpt lat="49.20524" lon="1.23595">
        <ele>123.1</ele>
        <time>2017-05-14T08:33:59Z</time>
      </trkpt>
      <trkpt lat="49.20535" lon="1.23615">
        <ele>121.5</ele>
        <time>2017-05-14T08:34:01Z</time>
      </trkpt>
      <trkpt lat="49.20542" lon="1.23625">
        <ele>120.8</ele>
        <time>2017-05-14T08:34:02Z</time>
      </trkpt>
      <trkpt lat="49.20549" lon="1.23635">
        <ele>120.1</ele>
        <time>2017-05-14T08:34:03Z</time>
      </trkpt>
      <trkpt lat="49.20556" lon="1.23644">
        <ele>119.5</ele>
        <time>2017-05-14T08:34:04Z</time>
      </trkpt>
      <trkpt lat="49.20564" lon="1.23654">
        <ele>118.4</ele>
        <time>2017-05-14T08:34:05Z</time>
      </trkpt>
      <trkpt lat="49.20571" lon="1.23663">
        <ele>117.5</ele>
        <time>2017-05-14T08:34:06Z</time>
      </trkpt>
      <trkpt lat="49.20578" lon="1.23672">
        <ele>116.6</ele>
        <time>2017-05-14T08:34:07Z</time>
      </trkpt>
      <trkpt lat="49.20585" lon="1.23682">
        <ele>115.5</ele>
        <time>2017-05-14T08:34:08Z</time>
      </trkpt>
      <trkpt lat="49.20592" lon="1.23694">
        <ele>114.4</ele>
        <time>2017-05-14T08:34:09Z</time>
      </trkpt>
      <trkpt lat="49.20598" lon="1.23704">
        <ele>112.9</ele>
        <time>2017-05-14T08:34:10Z</time>
      </trkpt>
      <trkpt lat="49.20604" lon="1.23715">
        <ele>112.1</ele>
        <time>2017-05-14T08:34:11Z</time>
      </trkpt>
      <trkpt lat="49.2061" lon="1.23727">
        <ele>111</ele>
        <time>2017-05-14T08:34:12Z</time>
      </trkpt>
      <trkpt lat="49.20617" lon="1.23738">
        <ele>110.1</ele>
        <time>2017-05-14T08:34:13Z</time>
      </trkpt>
      <trkpt lat="49.20622" lon="1.2375">
        <ele>108.9</ele>
        <time>2017-05-14T08:34:14Z</time>
      </trkpt>
      <trkpt lat="49.20628" lon="1.23762">
        <ele>108.3</ele>
        <time>2017-05-14T08:34:15Z</time>
      </trkpt>
      <trkpt lat="49.20634" lon="1.23774">
        <ele>107.5</ele>
        <time>2017-05-14T08:34:16Z</time>
      </trkpt>
      <trkpt lat="49.2064" lon="1.23785">
        <ele>107</ele>
        <time>2017-05-14T08:34:17Z</time>
      </trkpt>
      <trkpt lat="49.20646" lon="1.23796">
        <ele>106</ele>
        <time>2017-05-14T08:34:18Z</time>
      </trkpt>
      <trkpt lat="49.20652" lon="1.23808">
        <ele>105.2</ele>
        <time>2017-05-14T08:34:19Z</time>
      </trkpt>
      <trkpt lat="49.20658" lon="1.23818">
        <ele>103.9</ele>
        <time>2017-05-14T08:34:20Z</time>
      </trkpt>
      <trkpt lat="49.20668" lon="1.23838">
        <ele>102.1</ele>
        <time>2017-05-14T08:34:22Z</time>
      </trkpt>
      <trkpt lat="49.20672" lon="1.23856">
        <ele>100.4</ele>
        <time>2017-05-14T08:34:24Z</time>
      </trkpt>
      <trkpt lat="49.20668" lon="1.23872">
        <ele>98.7</ele>
        <time>2017-05-14T08:34:26Z</time>
      </trkpt>
      <trkpt lat="49.2066" lon="1.23879">
        <ele>97.3</ele>
        <time>2017-05-14T08:34:28Z</time>
      </trkpt>
      <trkpt lat="49.20648" lon="1.23878">
        <ele>95.9</ele>
        <time>2017-05-14T08:34:30Z</time>
      </trkpt>
      <trkpt lat="49.20636" lon="1.23874">
        <ele>94.3</ele>
        <time>2017-05-14T08:34:32Z</time>
      </trkpt>
      <trkpt lat="49.20624" lon="1.23867">
        <ele>92.7</ele>
        <time>2017-05-14T08:34:34Z</time>
      </trkpt>
      <trkpt lat="49.2061" lon="1.23857">
        <ele>90.9</ele>
        <time>2017-05-14T08:34:36Z</time>
      </trkpt>
      <trkpt lat="49.20596" lon="1.23847">
        <ele>89</ele>
        <time>2017-05-14T08:34:38Z</time>
      </trkpt>
      <trkpt lat="49.20581" lon="1.23837">
        <ele>86.8</ele>
        <time>2017-05-14T08:34:40Z</time>
      </trkpt>
      <trkpt lat="49.20566" lon="1.23827">
        <ele>84.9</ele>
        <time>2017-05-14T08:34:42Z</time>
      </trkpt>
      <trkpt lat="49.20552" lon="1.23818">
        <ele>82.5</ele>
        <time>2017-05-14T08:34:44Z</time>
      </trkpt>
      <trkpt lat="49.20541" lon="1.23808">
        <ele>80.9</ele>
        <time>2017-05-14T08:34:46Z</time>
      </trkpt>
      <trkpt lat="49.2053" lon="1.23798">
        <ele>79.1</ele>
        <time>2017-05-14T08:34:48Z</time>
      </trkpt>
      <trkpt lat="49.20515" lon="1.2379">
        <ele>77.3</ele>
        <time>2017-05-14T08:34:50Z</time>
      </trkpt>
      <trkpt lat="49.20503" lon="1.23789">
        <ele>75.5</ele>
        <time>2017-05-14T08:34:52Z</time>
      </trkpt>
      <trkpt lat="49.20493" lon="1.23795">
        <ele>73.6</ele>
        <time>2017-05-14T08:34:54Z</time>
      </trkpt>
      <trkpt lat="49.20493" lon="1.23812">
        <ele>69.4</ele>
        <time>2017-05-14T08:34:59Z</time>
      </trkpt>
      <trkpt lat="49.20497" lon="1.23827">
        <ele>66.9</ele>
        <time>2017-05-14T08:35:03Z</time>
      </trkpt>
      <trkpt lat="49.20504" lon="1.23836">
        <ele>65.3</ele>
        <time>2017-05-14T08:35:06Z</time>
      </trkpt>
      <trkpt lat="49.20511" lon="1.23857">
        <ele>63.3</ele>
        <time>2017-05-14T08:35:09Z</time>
      </trkpt>
      <trkpt lat="49.20517" lon="1.23876">
        <ele>62.2</ele>
        <time>2017-05-14T08:35:11Z</time>
      </trkpt>
      <trkpt lat="49.20524" lon="1.23897">
        <ele>60.7</ele>
        <time>2017-05-14T08:35:13Z</time>
      </trkpt>
      <trkpt lat="49.20527" lon="1.23921">
        <ele>58.6</ele>
        <time>2017-05-14T08:35:15Z</time>
      </trkpt>
      <trkpt lat="49.20529" lon="1.23935">
        <ele>57.6</ele>
        <time>2017-05-14T08:35:16Z</time>
      </trkpt>
      <trkpt lat="49.20534" lon="1.23957">
        <ele>55.3</ele>
        <time>2017-05-14T08:35:18Z</time>
      </trkpt>
      <trkpt lat="49.20538" lon="1.23978">
        <ele>53.1</ele>
        <time>2017-05-14T08:35:20Z</time>
      </trkpt>
      <trkpt lat="49.2054" lon="1.23996">
        <ele>51.1</ele>
        <time>2017-05-14T08:35:22Z</time>
      </trkpt>
      <trkpt lat="49.20542" lon="1.24018">
        <ele>49.1</ele>
        <time>2017-05-14T08:35:24Z</time>
      </trkpt>
      <trkpt lat="49.2055" lon="1.2403">
        <ele>48.1</ele>
        <time>2017-05-14T08:35:25Z</time>
      </trkpt>
      <trkpt lat="49.20562" lon="1.24053">
        <ele>45.7</ele>
        <time>2017-05-14T08:35:27Z</time>
      </trkpt>
      <trkpt lat="49.20568" lon="1.24065">
        <ele>44.8</ele>
        <time>2017-05-14T08:35:28Z</time>
      </trkpt>
      <trkpt lat="49.20573" lon="1.24076">
        <ele>43.8</ele>
        <time>2017-05-14T08:35:29Z</time>
      </trkpt>
      <trkpt lat="49.20583" lon="1.24093">
        <ele>41.8</ele>
        <time>2017-05-14T08:35:31Z</time>
      </trkpt>
      <trkpt lat="49.20593" lon="1.24108">
        <ele>39.7</ele>
        <time>2017-05-14T08:35:33Z</time>
      </trkpt>
      <trkpt lat="49.20606" lon="1.24121">
        <ele>37.4</ele>
        <time>2017-05-14T08:35:35Z</time>
      </trkpt>
      <trkpt lat="49.20616" lon="1.24134">
        <ele>35.3</ele>
        <time>2017-05-14T08:35:37Z</time>
      </trkpt>
      <trkpt lat="49.20624" lon="1.24154">
        <ele>33.1</ele>
        <time>2017-05-14T08:35:39Z</time>
      </trkpt>
      <trkpt lat="49.20628" lon="1.24177">
        <ele>31.3</ele>
        <time>2017-05-14T08:35:41Z</time>
      </trkpt>
      <trkpt lat="49.20632" lon="1.24198">
        <ele>29.6</ele>
        <time>2017-05-14T08:35:43Z</time>
      </trkpt>
      <trkpt lat="49.20638" lon="1.24212">
        <ele>28.1</ele>
        <time>2017-05-14T08:35:45Z</time>
      </trkpt>
      <trkpt lat="49.20645" lon="1.24224">
        <ele>26.6</ele>
        <time>2017-05-14T08:35:47Z</time>
      </trkpt>
      <trkpt lat="49.20655" lon="1.24239">
        <ele>25.1</ele>
        <time>2017-05-14T08:35:49Z</time>
      </trkpt>
      <trkpt lat="49.20659" lon="1.24255">
        <ele>23.8</ele>
        <time>2017-05-14T08:35:51Z</time>
      </trkpt>
      <trkpt lat="49.20654" lon="1.24268">
        <ele>22.7</ele>
        <time>2017-05-14T08:35:54Z</time>
      </trkpt>
      <trkpt lat="49.20646" lon="1.24285">
        <ele>22.1</ele>
        <time>2017-05-14T08:35:57Z</time>
      </trkpt>
      <trkpt lat="49.20639" lon="1.24296">
        <ele>21.8</ele>
        <time>2017-05-14T08:35:59Z</time>
      </trkpt>
      <trkpt lat="49.20632" lon="1.24307">
        <ele>21.5</ele>
        <time>2017-05-14T08:36:01Z</time>
      </trkpt>
      <trkpt lat="49.20626" lon="1.24317">
        <ele>21.4</ele>
        <time>2017-05-14T08:36:03Z</time>
      </trkpt>
      <trkpt lat="49.2062" lon="1.24332">
        <ele>21.3</ele>
        <time>2017-05-14T08:36:05Z</time>
      </trkpt>
      <trkpt lat="49.20614" lon="1.24346">
        <ele>21.3</ele>
        <time>2017-05-14T08:36:07Z</time>
      </trkpt>
      <trkpt lat="49.20608" lon="1.24361">
        <ele>21.2</ele>
        <time>2017-05-14T08:36:09Z</time>
      </trkpt>
      <trkpt lat="49.20601" lon="1.24374">
        <ele>21</ele>
        <time>2017-05-14T08:36:11Z</time>
      </trkpt>
      <trkpt lat="49.20595" lon="1.24389">
        <ele>21</ele>
        <time>2017-05-14T08:36:13Z</time>
      </trkpt>
      <trkpt lat="49.20588" lon="1.24403">
        <ele>20.9</ele>
        <time>2017-05-14T08:36:15Z</time>
      </trkpt>
      <trkpt lat="49.20582" lon="1.24418">
        <ele>20.8</ele>
        <time>2017-05-14T08:36:17Z</time>
      </trkpt>
      <trkpt lat="49.20575" lon="1.24432">
        <ele>20.7</ele>
        <time>2017-05-14T08:36:19Z</time>
      </trkpt>
      <trkpt lat="49.20568" lon="1.24447">
        <ele>20.6</ele>
        <time>2017-05-14T08:36:21Z</time>
      </trkpt>
      <trkpt lat="49.20561" lon="1.24464">
        <ele>20.6</ele>
        <time>2017-05-14T08:36:23Z</time>
      </trkpt>
      <trkpt lat="49.20554" lon="1.2448">
        <ele>20.7</ele>
        <time>2017-05-14T08:36:25Z</time>
      </trkpt>
      <trkpt lat="49.20547" lon="1.24496">
        <ele>20.8</ele>
        <time>2017-05-14T08:36:27Z</time>
      </trkpt>
      <trkpt lat="49.20541" lon="1.24511">
        <ele>21</ele>
        <time>2017-05-14T08:36:29Z</time>
      </trkpt>
      <trkpt lat="49.20535" lon="1.24527">
        <ele>21.1</ele>
        <time>2017-05-14T08:36:31Z</time>
      </trkpt>
      <trkpt lat="49.20529" lon="1.24543">
        <ele>21.2</ele>
        <time>2017-05-14T08:36:33Z</time>
      </trkpt>
      <trkpt lat="49.20523" lon="1.24558">
        <ele>21.3</ele>
        <time>2017-05-14T08:36:35Z</time>
      </trkpt>
      <trkpt lat="49.20518" lon="1.24574">
        <ele>21.4</ele>
        <time>2017-05-14T08:36:37Z</time>
      </trkpt>
      <trkpt lat="49.20512" lon="1.24591">
        <ele>21.4</ele>
        <time>2017-05-14T08:36:39Z</time>
      </trkpt>
      <trkpt lat="49.20507" lon="1.24608">
        <ele>21.3</ele>
        <time>2017-05-14T08:36:41Z</time>
      </trkpt>
      <trkpt lat="49.20501" lon="1.24624">
        <ele>21.4</ele>
        <time>2017-05-14T08:36:43Z</time>
      </trkpt>
      <trkpt lat="49.20496" lon="1.24641">
        <ele>21.4</ele>
        <time>2017-05-14T08:36:45Z</time>
      </trkpt>
      <trkpt lat="49.2049" lon="1.24658">
        <ele>21.3</ele>
        <time>2017-05-14T08:36:47Z</time>
      </trkpt>
      <trkpt lat="49.20484" lon="1.24675">
        <ele>21.4</ele>
        <time>2017-05-14T08:36:49Z</time>
      </trkpt>
      <trkpt lat="49.20479" lon="1.24691">
        <ele>21.4</ele>
        <time>2017-05-14T08:36:51Z</time>
      </trkpt>
      <trkpt lat="49.20473" lon="1.24708">
        <ele>21.5</ele>
        <time>2017-05-14T08:36:53Z</time>
      </trkpt>
      <trkpt lat="49.20467" lon="1.24725">
        <ele>21.5</ele>
        <time>2017-05-14T08:36:55Z</time>
      </trkpt>
      <trkpt lat="49.20462" lon="1.24741">
        <ele>21.4</ele>
        <time>2017-05-14T08:36:57Z</time>
      </trkpt>
      <trkpt lat="49.20457" lon="1.24758">
        <ele>21.4</ele>
        <time>2017-05-14T08:36:59Z</time>
      </trkpt>
      <trkpt lat="49.20452" lon="1.24774">
        <ele>21.5</ele>
        <time>2017-05-14T08:37:01Z</time>
      </trkpt>
      <trkpt lat="49.20447" lon="1.24791">
        <ele>21.6</ele>
        <time>2017-05-14T08:37:03Z</time>
      </trkpt>
      <trkpt lat="49.20442" lon="1.24808">
        <ele>21.7</ele>
        <time>2017-05-14T08:37:05Z</time>
      </trkpt>
      <trkpt lat="49.20437" lon="1.24824">
        <ele>21.7</ele>
        <time>2017-05-14T08:37:07Z</time>
      </trkpt>
      <trkpt lat="49.20431" lon="1.24841">
        <ele>21.7</ele>
        <time>2017-05-14T08:37:09Z</time>
      </trkpt>
      <trkpt lat="49.20427" lon="1.24858">
        <ele>21.8</ele>
        <time>2017-05-14T08:37:11Z</time>
      </trkpt>
      <trkpt lat="49.20422" lon="1.24875">
        <ele>21.7</ele>
        <time>2017-05-14T08:37:13Z</time>
      </trkpt>
      <trkpt lat="49.20416" lon="1.24892">
        <ele>21.7</ele>
        <time>2017-05-14T08:37:15Z</time>
      </trkpt>
      <trkpt lat="49.20411" lon="1.24908">
        <ele>21.6</ele>
        <time>2017-05-14T08:37:17Z</time>
      </trkpt>
      <trkpt lat="49.20406" lon="1.24926">
        <ele>21.5</ele>
        <time>2017-05-14T08:37:19Z</time>
      </trkpt>
      <trkpt lat="49.20401" lon="1.24942">
        <ele>21.5</ele>
        <time>2017-05-14T08:37:21Z</time>
      </trkpt>
      <trkpt lat="49.20397" lon="1.24959">
        <ele>21.4</ele>
        <time>2017-05-14T08:37:23Z</time>
      </trkpt>
      <trkpt lat="49.20392" lon="1.24975">
        <ele>21.4</ele>
        <time>2017-05-14T08:37:25Z</time>
      </trkpt>
      <trkpt lat="49.20387" lon="1.24992">
        <ele>21.5</ele>
        <time>2017-05-14T08:37:27Z</time>
      </trkpt>
      <trkpt lat="49.20382" lon="1.25009">
        <ele>21.6</ele>
        <time>2017-05-14T08:37:29Z</time>
      </trkpt>
      <trkpt lat="49.20377" lon="1.25027">
        <ele>21.6</ele>
        <time>2017-05-14T08:37:31Z</time>
      </trkpt>
      <trkpt lat="49.20371" lon="1.25043">
        <ele>21.5</ele>
        <time>2017-05-14T08:37:33Z</time>
      </trkpt>
      <trkpt lat="49.20363" lon="1.25058">
        <ele>21.4</ele>
        <time>2017-05-14T08:37:35Z</time>
      </trkpt>
      <trkpt lat="49.20355" lon="1.25071">
        <ele>21.3</ele>
        <time>2017-05-14T08:37:37Z</time>
      </trkpt>
      <trkpt lat="49.20349" lon="1.25088">
        <ele>21.3</ele>
        <time>2017-05-14T08:37:39Z</time>
      </trkpt>
      <trkpt lat="49.20343" lon="1.25104">
        <ele>21.2</ele>
        <time>2017-05-14T08:37:41Z</time>
      </trkpt>
      <trkpt lat="49.20337" lon="1.2512">
        <ele>21.3</ele>
        <time>2017-05-14T08:37:43Z</time>
      </trkpt>
      <trkpt lat="49.20332" lon="1.25136">
        <ele>21.4</ele>
        <time>2017-05-14T08:37:45Z</time>
      </trkpt>
      <trkpt lat="49.20327" lon="1.25153">
        <ele>21.4</ele>
        <time>2017-05-14T08:37:47Z</time>
      </trkpt>
      <trkpt lat="49.20322" lon="1.25171">
        <ele>21.3</ele>
        <time>2017-05-14T08:37:49Z</time>
      </trkpt>
      <trkpt lat="49.20317" lon="1.25188">
        <ele>21.4</ele>
        <time>2017-05-14T08:37:51Z</time>
      </trkpt>
      <trkpt lat="49.20313" lon="1.25205">
        <ele>21.3</ele>
        <time>2017-05-14T08:37:53Z</time>
      </trkpt>
      <trkpt lat="49.20308" lon="1.25222">
        <ele>21.3</ele>
        <time>2017-05-14T08:37:55Z</time>
      </trkpt>
      <trkpt lat="49.20304" lon="1.25239">
        <ele>21.3</ele>
        <time>2017-05-14T08:37:57Z</time>
      </trkpt>
      <trkpt lat="49.20299" lon="1.25256">
        <ele>21.3</ele>
        <time>2017-05-14T08:37:59Z</time>
      </trkpt>
      <trkpt lat="49.20295" lon="1.25273">
        <ele>21.2</ele>
        <time>2017-05-14T08:38:01Z</time>
      </trkpt>
      <trkpt lat="49.2029" lon="1.25291">
        <ele>21.3</ele>
        <time>2017-05-14T08:38:03Z</time>
      </trkpt>
      <trkpt lat="49.20287" lon="1.25309">
        <ele>21.2</ele>
        <time>2017-05-14T08:38:05Z</time>
      </trkpt>
      <trkpt lat="49.20283" lon="1.25326">
        <ele>21.2</ele>
        <time>2017-05-14T08:38:07Z</time>
      </trkpt>
      <trkpt lat="49.20279" lon="1.25344">
        <ele>21.3</ele>
        <time>2017-05-14T08:38:09Z</time>
      </trkpt>
      <trkpt lat="49.20275" lon="1.25362">
        <ele>21.3</ele>
        <time>2017-05-14T08:38:11Z</time>
      </trkpt>
      <trkpt lat="49.20271" lon="1.2538">
        <ele>21.4</ele>
        <time>2017-05-14T08:38:13Z</time>
      </trkpt>
      <trkpt lat="49.20267" lon="1.25398">
        <ele>21.4</ele>
        <time>2017-05-14T08:38:15Z</time>
      </trkpt>
      <trkpt lat="49.20264" lon="1.25416">
        <ele>21.3</ele>
        <time>2017-05-14T08:38:17Z</time>
      </trkpt>
      <trkpt lat="49.2026" lon="1.25435">
        <ele>21.3</ele>
        <time>2017-05-14T08:38:19Z</time>
      </trkpt>
      <trkpt lat="49.20256" lon="1.25454">
        <ele>21.3</ele>
        <time>2017-05-14T08:38:21Z</time>
      </trkpt>
      <trkpt lat="49.20253" lon="1.25472">
        <ele>21.1</ele>
        <time>2017-05-14T08:38:23Z</time>
      </trkpt>
      <trkpt lat="49.2025" lon="1.25491">
        <ele>21.2</ele>
        <time>2017-05-14T08:38:25Z</time>
      </trkpt>
      <trkpt lat="49.20247" lon="1.25509">
        <ele>21.1</ele>
        <time>2017-05-14T08:38:27Z</time>
      </trkpt>
      <trkpt lat="49.20244" lon="1.25528">
        <ele>21.1</ele>
        <time>2017-05-14T08:38:29Z</time>
      </trkpt>
      <trkpt lat="49.20241" lon="1.25547">
        <ele>21.2</ele>
        <time>2017-05-14T08:38:31Z</time>
      </trkpt>
      <trkpt lat="49.20238" lon="1.25566">
        <ele>21.3</ele>
        <time>2017-05-14T08:38:33Z</time>
      </trkpt>
      <trkpt lat="49.20235" lon="1.25584">
        <ele>21.4</ele>
        <time>2017-05-14T08:38:35Z</time>
      </trkpt>
      <trkpt lat="49.20232" lon="1.25602">
        <ele>21.2</ele>
        <time>2017-05-14T08:38:37Z</time>
      </trkpt>
      <trkpt lat="49.2023" lon="1.25621">
        <ele>21.2</ele>
        <time>2017-05-14T08:38:39Z</time>
      </trkpt>
      <trkpt lat="49.20228" lon="1.25639">
        <ele>21.2</ele>
        <time>2017-05-14T08:38:41Z</time>
      </trkpt>
      <trkpt lat="49.20225" lon="1.25657">
        <ele>21.2</ele>
        <time>2017-05-14T08:38:43Z</time>
      </trkpt>
      <trkpt lat="49.20224" lon="1.25676">
        <ele>21.1</ele>
        <time>2017-05-14T08:38:45Z</time>
      </trkpt>
      <trkpt lat="49.20222" lon="1.25694">
        <ele>21</ele>
        <time>2017-05-14T08:38:47Z</time>
      </trkpt>
      <trkpt lat="49.20221" lon="1.25713">
        <ele>21</ele>
        <time>2017-05-14T08:38:49Z</time>
      </trkpt>
      <trkpt lat="49.20221" lon="1.25731">
        <ele>21</ele>
        <time>2017-05-14T08:38:51Z</time>
      </trkpt>
      <trkpt lat="49.2022" lon="1.25749">
        <ele>21</ele>
        <time>2017-05-14T08:38:53Z</time>
      </trkpt>
      <trkpt lat="49.20219" lon="1.25767">
        <ele>21.1</ele>
        <time>2017-05-14T08:38:55Z</time>
      </trkpt>
      <trkpt lat="49.20218" lon="1.25785">
        <ele>21.1</ele>
        <time>2017-05-14T08:38:57Z</time>
      </trkpt>
      <trkpt lat="49.20217" lon="1.25804">
        <ele>21.2</ele>
        <time>2017-05-14T08:38:59Z</time>
      </trkpt>
      <trkpt lat="49.20216" lon="1.25823">
        <ele>21.3</ele>
        <time>2017-05-14T08:39:01Z</time>
      </trkpt>
      <trkpt lat="49.20213" lon="1.2584">
        <ele>21.4</ele>
        <time>2017-05-14T08:39:03Z</time>
      </trkpt>
      <trkpt lat="49.20211" lon="1.25857">
        <ele>21.6</ele>
        <time>2017-05-14T08:39:05Z</time>
      </trkpt>
      <trkpt lat="49.20208" lon="1.25873">
        <ele>21.7</ele>
        <time>2017-05-14T08:39:07Z</time>
      </trkpt>
      <trkpt lat="49.20203" lon="1.2589">
        <ele>21.8</ele>
        <time>2017-05-14T08:39:09Z</time>
      </trkpt>
      <trkpt lat="49.20198" lon="1.25906">
        <ele>21.7</ele>
        <time>2017-05-14T08:39:11Z</time>
      </trkpt>
      <trkpt lat="49.20191" lon="1.25922">
        <ele>21.7</ele>
        <time>2017-05-14T08:39:13Z</time>
      </trkpt>
      <trkpt lat="49.20186" lon="1.25937">
        <ele>21.7</ele>
        <time>2017-05-14T08:39:15Z</time>
      </trkpt>
      <trkpt lat="49.2018" lon="1.25954">
        <ele>21.6</ele>
        <time>2017-05-14T08:39:17Z</time>
      </trkpt>
      <trkpt lat="49.20175" lon="1.25972">
        <ele>21.4</ele>
        <time>2017-05-14T08:39:19Z</time>
      </trkpt>
      <trkpt lat="49.20171" lon="1.25991">
        <ele>21.2</ele>
        <time>2017-05-14T08:39:21Z</time>
      </trkpt>
      <trkpt lat="49.20168" lon="1.26009">
        <ele>21</ele>
        <time>2017-05-14T08:39:23Z</time>
      </trkpt>
      <trkpt lat="49.20165" lon="1.26029">
        <ele>20.9</ele>
        <time>2017-05-14T08:39:25Z</time>
      </trkpt>
      <trkpt lat="49.20163" lon="1.26048">
        <ele>20.9</ele>
        <time>2017-05-14T08:39:27Z</time>
      </trkpt>
      <trkpt lat="49.20161" lon="1.26068">
        <ele>20.9</ele>
        <time>2017-05-14T08:39:29Z</time>
      </trkpt>
      <trkpt lat="49.2016" lon="1.26087">
        <ele>20.9</ele>
        <time>2017-05-14T08:39:31Z</time>
      </trkpt>
      <trkpt lat="49.20159" lon="1.26106">
        <ele>20.9</ele>
        <time>2017-05-14T08:39:33Z</time>
      </trkpt>
      <trkpt lat="49.20159" lon="1.26126">
        <ele>20.9</ele>
        <time>2017-05-14T08:39:35Z</time>
      </trkpt>
      <trkpt lat="49.20159" lon="1.26145">
        <ele>20.9</ele>
        <time>2017-05-14T08:39:37Z</time>
      </trkpt>
      <trkpt lat="49.20159" lon="1.26165">
        <ele>20.9</ele>
        <time>2017-05-14T08:39:39Z</time>
      </trkpt>
      <trkpt lat="49.2016" lon="1.26184">
        <ele>20.9</ele>
        <time>2017-05-14T08:39:41Z</time>
      </trkpt>
      <trkpt lat="49.20161" lon="1.26203">
        <ele>21</ele>
        <time>2017-05-14T08:39:43Z</time>
      </trkpt>
      <trkpt lat="49.20162" lon="1.26222">
        <ele>21</ele>
        <time>2017-05-14T08:39:45Z</time>
      </trkpt>
      <trkpt lat="49.20162" lon="1.26241">
        <ele>21</ele>
        <time>2017-05-14T08:39:47Z</time>
      </trkpt>
      <trkpt lat="49.20162" lon="1.2626">
        <ele>21.1</ele>
        <time>2017-05-14T08:39:49Z</time>
      </trkpt>
      <trkpt lat="49.20162" lon="1.2628">
        <ele>21.2</ele>
        <time>2017-05-14T08:39:51Z</time>
      </trkpt>
      <trkpt lat="49.20161" lon="1.26299">
        <ele>21.2</ele>
        <time>2017-05-14T08:39:53Z</time>
      </trkpt>
      <trkpt lat="49.20161" lon="1.26318">
        <ele>21.2</ele>
        <time>2017-05-14T08:39:55Z</time>
      </trkpt>
      <trkpt lat="49.2016" lon="1.26336">
        <ele>21.2</ele>
        <time>2017-05-14T08:39:57Z</time>
      </trkpt>
      <trkpt lat="49.2016" lon="1.26353">
        <ele>21.2</ele>
        <time>2017-05-14T08:39:59Z</time>
      </trkpt>
      <trkpt lat="49.20151" lon="1.26361">
        <ele>21.4</ele>
        <time>2017-05-14T08:40:03Z</time>
      </trkpt>
      <trkpt lat="49.2014" lon="1.26356">
        <ele>21.4</ele>
        <time>2017-05-14T08:40:07Z</time>
      </trkpt>
      <trkpt lat="49.20129" lon="1.26351">
        <ele>22</ele>
        <time>2017-05-14T08:40:11Z</time>
      </trkpt>
      <trkpt lat="49.20117" lon="1.26347">
        <ele>22.8</ele>
        <time>2017-05-14T08:40:15Z</time>
      </trkpt>
      <trkpt lat="49.20108" lon="1.26343">
        <ele>23.3</ele>
        <time>2017-05-14T08:40:19Z</time>
      </trkpt>
      <trkpt lat="49.20099" lon="1.26339">
        <ele>24</ele>
        <time>2017-05-14T08:40:24Z</time>
      </trkpt>
      <trkpt lat="49.20089" lon="1.26335">
        <ele>25</ele>
        <time>2017-05-14T08:40:29Z</time>
      </trkpt>
      <trkpt lat="49.2008" lon="1.26327">
        <ele>26.2</ele>
        <time>2017-05-14T08:40:36Z</time>
      </trkpt>
      <trkpt lat="49.20072" lon="1.26318">
        <ele>28.1</ele>
        <time>2017-05-14T08:40:43Z</time>
      </trkpt>
      <trkpt lat="49.20065" lon="1.26307">
        <ele>30.3</ele>
        <time>2017-05-14T08:40:51Z</time>
      </trkpt>
      <trkpt lat="49.20056" lon="1.26296">
        <ele>31.8</ele>
        <time>2017-05-14T08:40:56Z</time>
      </trkpt>
      <trkpt lat="49.20049" lon="1.26287">
        <ele>33.8</ele>
        <time>2017-05-14T08:41:03Z</time>
      </trkpt>
      <trkpt lat="49.20041" lon="1.26278">
        <ele>36</ele>
        <time>2017-05-14T08:41:10Z</time>
      </trkpt>
      <trkpt lat="49.20035" lon="1.26269">
        <ele>37.6</ele>
        <time>2017-05-14T08:41:17Z</time>
      </trkpt>
      <trkpt lat="49.20029" lon="1.26258">
        <ele>39.8</ele>
        <time>2017-05-14T08:41:26Z</time>
      </trkpt>
      <trkpt lat="49.20021" lon="1.2625">
        <ele>41.4</ele>
        <time>2017-05-14T08:41:33Z</time>
      </trkpt>
      <trkpt lat="49.20012" lon="1.26241">
        <ele>43.4</ele>
        <time>2017-05-14T08:41:39Z</time>
      </trkpt>
      <trkpt lat="49.20003" lon="1.26232">
        <ele>45.2</ele>
        <time>2017-05-14T08:41:46Z</time>
      </trkpt>
      <trkpt lat="49.19995" lon="1.26225">
        <ele>46.9</ele>
        <time>2017-05-14T08:41:52Z</time>
      </trkpt>
      <trkpt lat="49.19987" lon="1.26218">
        <ele>48.5</ele>
        <time>2017-05-14T08:42:00Z</time>
      </trkpt>
      <trkpt lat="49.19979" lon="1.2621">
        <ele>49.8</ele>
        <time>2017-05-14T08:42:06Z</time>
      </trkpt>
      <trkpt lat="49.1997" lon="1.26203">
        <ele>51.1</ele>
        <time>2017-05-14T08:42:11Z</time>
      </trkpt>
      <trkpt lat="49.19961" lon="1.26196">
        <ele>52.5</ele>
        <time>2017-05-14T08:42:17Z</time>
      </trkpt>
      <trkpt lat="49.19953" lon="1.26185">
        <ele>53.8</ele>
        <time>2017-05-14T08:42:23Z</time>
      </trkpt>
      <trkpt lat="49.19945" lon="1.26175">
        <ele>55.9</ele>
        <time>2017-05-14T08:42:32Z</time>
      </trkpt>
      <trkpt lat="49.19937" lon="1.26165">
        <ele>57.2</ele>
        <time>2017-05-14T08:42:37Z</time>
      </trkpt>
      <trkpt lat="49.19928" lon="1.26158">
        <ele>58.3</ele>
        <time>2017-05-14T08:42:42Z</time>
      </trkpt>
      <trkpt lat="49.1992" lon="1.26149">
        <ele>59.7</ele>
        <time>2017-05-14T08:42:48Z</time>
      </trkpt>
      <trkpt lat="49.19911" lon="1.26139">
        <ele>61</ele>
        <time>2017-05-14T08:42:54Z</time>
      </trkpt>
      <trkpt lat="49.19902" lon="1.26132">
        <ele>62.7</ele>
        <time>2017-05-14T08:43:01Z</time>
      </trkpt>
      <trkpt lat="49.19894" lon="1.26125">
        <ele>64.1</ele>
        <time>2017-05-14T08:43:07Z</time>
      </trkpt>
      <trkpt lat="49.19887" lon="1.26115">
        <ele>66.3</ele>
        <time>2017-05-14T08:43:16Z</time>
      </trkpt>
      <trkpt lat="49.19882" lon="1.26102">
        <ele>68.4</ele>
        <time>2017-05-14T08:43:23Z</time>
      </trkpt>
      <trkpt lat="49.1988" lon="1.26087">
        <ele>70.5</ele>
        <time>2017-05-14T08:43:31Z</time>
      </trkpt>
      <trkpt lat="49.19884" lon="1.26074">
        <ele>72.5</ele>
        <time>2017-05-14T08:43:40Z</time>
      </trkpt>
      <trkpt lat="49.19893" lon="1.26067">
        <ele>74.1</ele>
        <time>2017-05-14T08:43:47Z</time>
      </trkpt>
      <trkpt lat="49.19902" lon="1.26063">
        <ele>76.5</ele>
        <time>2017-05-14T08:43:56Z</time>
      </trkpt>
      <trkpt lat="49.19911" lon="1.26059">
        <ele>77.6</ele>
        <time>2017-05-14T08:44:02Z</time>
      </trkpt>
      <trkpt lat="49.1992" lon="1.26055">
        <ele>78.6</ele>
        <time>2017-05-14T08:44:06Z</time>
      </trkpt>
      <trkpt lat="49.19929" lon="1.26054">
        <ele>79.8</ele>
        <time>2017-05-14T08:44:12Z</time>
      </trkpt>
      <trkpt lat="49.19939" lon="1.26051">
        <ele>81</ele>
        <time>2017-05-14T08:44:19Z</time>
      </trkpt>
      <trkpt lat="49.19949" lon="1.26048">
        <ele>81.9</ele>
        <time>2017-05-14T08:44:24Z</time>
      </trkpt>
      <trkpt lat="49.19957" lon="1.26042">
        <ele>83</ele>
        <time>2017-05-14T08:44:29Z</time>
      </trkpt>
      <trkpt lat="49.19965" lon="1.26031">
        <ele>83.8</ele>
        <time>2017-05-14T08:44:35Z</time>
      </trkpt>
      <trkpt lat="49.19968" lon="1.26019">
        <ele>84.6</ele>
        <time>2017-05-14T08:44:40Z</time>
      </trkpt>
      <trkpt lat="49.19962" lon="1.26008">
        <ele>85.7</ele>
        <time>2017-05-14T08:44:46Z</time>
      </trkpt>
      <trkpt lat="49.19955" lon="1.25998">
        <ele>87.1</ele>
        <time>2017-05-14T08:44:52Z</time>
      </trkpt>
      <trkpt lat="49.19947" lon="1.2599">
        <ele>88.5</ele>
        <time>2017-05-14T08:44:58Z</time>
      </trkpt>
      <trkpt lat="49.19938" lon="1.25986">
        <ele>90.4</ele>
        <time>2017-05-14T08:45:04Z</time>
      </trkpt>
      <trkpt lat="49.19929" lon="1.25983">
        <ele>91.8</ele>
        <time>2017-05-14T08:45:10Z</time>
      </trkpt>
      <trkpt lat="49.1992" lon="1.25979">
        <ele>93.3</ele>
        <time>2017-05-14T08:45:16Z</time>
      </trkpt>
      <trkpt lat="49.19909" lon="1.25976">
        <ele>94.6</ele>
        <time>2017-05-14T08:45:22Z</time>
      </trkpt>
      <trkpt lat="49.199" lon="1.2597">
        <ele>95.8</ele>
        <time>2017-05-14T08:45:28Z</time>
      </trkpt>
      <trkpt lat="49.19891" lon="1.25966">
        <ele>97.3</ele>
        <time>2017-05-14T08:45:34Z</time>
      </trkpt>
      <trkpt lat="49.19882" lon="1.2596">
        <ele>98.8</ele>
        <time>2017-05-14T08:45:40Z</time>
      </trkpt>
      <trkpt lat="49.19872" lon="1.25955">
        <ele>100.1</ele>
        <time>2017-05-14T08:45:46Z</time>
      </trkpt>
      <trkpt lat="49.19863" lon="1.25951">
        <ele>101.7</ele>
        <time>2017-05-14T08:45:52Z</time>
      </trkpt>
      <trkpt lat="49.19853" lon="1.25947">
        <ele>103.8</ele>
        <time>2017-05-14T08:45:59Z</time>
      </trkpt>
      <trkpt lat="49.19844" lon="1.25942">
        <ele>105.2</ele>
        <time>2017-05-14T08:46:05Z</time>
      </trkpt>
      <trkpt lat="49.19835" lon="1.2594">
        <ele>106.6</ele>
        <time>2017-05-14T08:46:17Z</time>
      </trkpt>
      <trkpt lat="49.19826" lon="1.25939">
        <ele>106.4</ele>
        <time>2017-05-14T08:46:22Z</time>
      </trkpt>
      <trkpt lat="49.19817" lon="1.25939">
        <ele>107</ele>
        <time>2017-05-14T08:46:31Z</time>
      </trkpt>
      <trkpt lat="49.19808" lon="1.2594">
        <ele>108.5</ele>
        <time>2017-05-14T08:46:38Z</time>
      </trkpt>
      <trkpt lat="49.19799" lon="1.25941">
        <ele>109.9</ele>
        <time>2017-05-14T08:46:44Z</time>
      </trkpt>
      <trkpt lat="49.19789" lon="1.25941">
        <ele>111.4</ele>
        <time>2017-05-14T08:46:51Z</time>
      </trkpt>
      <trkpt lat="49.19779" lon="1.2594">
        <ele>112.7</ele>
        <time>2017-05-14T08:46:59Z</time>
      </trkpt>
      <trkpt lat="49.1977" lon="1.2594">
        <ele>113.8</ele>
        <time>2017-05-14T08:47:06Z</time>
      </trkpt>
      <trkpt lat="49.1976" lon="1.25943">
        <ele>115.1</ele>
        <time>2017-05-14T08:47:14Z</time>
      </trkpt>
      <trkpt lat="49.19751" lon="1.25943">
        <ele>116.2</ele>
        <time>2017-05-14T08:47:20Z</time>
      </trkpt>
      <trkpt lat="49.19741" lon="1.25948">
        <ele>117.5</ele>
        <time>2017-05-14T08:47:26Z</time>
      </trkpt>
      <trkpt lat="49.19732" lon="1.25949">
        <ele>118.7</ele>
        <time>2017-05-14T08:47:32Z</time>
      </trkpt>
      <trkpt lat="49.19722" lon="1.25948">
        <ele>120</ele>
        <time>2017-05-14T08:47:38Z</time>
      </trkpt>
      <trkpt lat="49.19713" lon="1.25949">
        <ele>121.5</ele>
        <time>2017-05-14T08:47:46Z</time>
      </trkpt>
      <trkpt lat="49.19704" lon="1.2595">
        <ele>123.2</ele>
        <time>2017-05-14T08:47:53Z</time>
      </trkpt>
      <trkpt lat="49.19693" lon="1.25947">
        <ele>124.1</ele>
        <time>2017-05-14T08:47:57Z</time>
      </trkpt>
      <trkpt lat="49.19684" lon="1.25943">
        <ele>125.2</ele>
        <time>2017-05-14T08:48:02Z</time>
      </trkpt>
      <trkpt lat="49.19675" lon="1.25937">
        <ele>126</ele>
        <time>2017-05-14T08:48:07Z</time>
      </trkpt>
      <trkpt lat="49.19667" lon="1.2593">
        <ele>127</ele>
        <time>2017-05-14T08:48:13Z</time>
      </trkpt>
      <trkpt lat="49.19661" lon="1.25916">
        <ele>128.6</ele>
        <time>2017-05-14T08:48:21Z</time>
      </trkpt>
      <trkpt lat="49.19656" lon="1.25904">
        <ele>129.5</ele>
        <time>2017-05-14T08:48:26Z</time>
      </trkpt>
      <trkpt lat="49.19652" lon="1.25891">
        <ele>131</ele>
        <time>2017-05-14T08:48:32Z</time>
      </trkpt>
      <trkpt lat="49.19648" lon="1.25879">
        <ele>132.2</ele>
        <time>2017-05-14T08:48:41Z</time>
      </trkpt>
      <trkpt lat="49.19642" lon="1.25866">
        <ele>133.4</ele>
        <time>2017-05-14T08:48:49Z</time>
      </trkpt>
      <trkpt lat="49.1964" lon="1.25852">
        <ele>134</ele>
        <time>2017-05-14T08:48:58Z</time>
      </trkpt>
      <trkpt lat="49.19638" lon="1.25839">
        <ele>134.8</ele>
        <time>2017-05-14T08:49:04Z</time>
      </trkpt>
      <trkpt lat="49.19637" lon="1.25823">
        <ele>135.6</ele>
        <time>2017-05-14T08:49:09Z</time>
      </trkpt>
      <trkpt lat="49.19634" lon="1.25807">
        <ele>136.3</ele>
        <time>2017-05-14T08:49:13Z</time>
      </trkpt>
      <trkpt lat="49.19632" lon="1.25792">
        <ele>136.8</ele>
        <time>2017-05-14T08:49:17Z</time>
      </trkpt>
      <trkpt lat="49.19629" lon="1.25777">
        <ele>137.3</ele>
        <time>2017-05-14T08:49:21Z</time>
      </trkpt>
      <trkpt lat="49.19626" lon="1.25761">
        <ele>138.2</ele>
        <time>2017-05-14T08:49:26Z</time>
      </trkpt>
      <trkpt lat="49.19621" lon="1.25746">
        <ele>138.8</ele>
        <time>2017-05-14T08:49:30Z</time>
      </trkpt>
      <trkpt lat="49.19616" lon="1.25734">
        <ele>139</ele>
        <time>2017-05-14T08:49:33Z</time>
      </trkpt>
      <trkpt lat="49.19612" lon="1.25718">
        <ele>139.7</ele>
        <time>2017-05-14T08:49:37Z</time>
      </trkpt>
      <trkpt lat="49.19611" lon="1.257">
        <ele>140.4</ele>
        <time>2017-05-14T08:49:41Z</time>
      </trkpt>
      <trkpt lat="49.19613" lon="1.25684">
        <ele>140.8</ele>
        <time>2017-05-14T08:49:45Z</time>
      </trkpt>
      <trkpt lat="49.19615" lon="1.2567">
        <ele>141.2</ele>
        <time>2017-05-14T08:49:48Z</time>
      </trkpt>
      <trkpt lat="49.19617" lon="1.25656">
        <ele>141.6</ele>
        <time>2017-05-14T08:49:51Z</time>
      </trkpt>
      <trkpt lat="49.19619" lon="1.25638">
        <ele>142.3</ele>
        <time>2017-05-14T08:49:55Z</time>
      </trkpt>
      <trkpt lat="49.19621" lon="1.25622">
        <ele>142.7</ele>
        <time>2017-05-14T08:49:59Z</time>
      </trkpt>
      <trkpt lat="49.19624" lon="1.25605">
        <ele>143</ele>
        <time>2017-05-14T08:50:03Z</time>
      </trkpt>
      <trkpt lat="49.19626" lon="1.25586">
        <ele>142.9</ele>
        <time>2017-05-14T08:50:06Z</time>
      </trkpt>
      <trkpt lat="49.19629" lon="1.25571">
        <ele>142.8</ele>
        <time>2017-05-14T08:50:09Z</time>
      </trkpt>
      <trkpt lat="49.19632" lon="1.25556">
        <ele>142.8</ele>
        <time>2017-05-14T08:50:12Z</time>
      </trkpt>
      <trkpt lat="49.19633" lon="1.25542">
        <ele>143</ele>
        <time>2017-05-14T08:50:15Z</time>
      </trkpt>
      <trkpt lat="49.19634" lon="1.25526">
        <ele>143.2</ele>
        <time>2017-05-14T08:50:18Z</time>
      </trkpt>
      <trkpt lat="49.19634" lon="1.25511">
        <ele>143.5</ele>
        <time>2017-05-14T08:50:21Z</time>
      </trkpt>
      <trkpt lat="49.19634" lon="1.25495">
        <ele>143.9</ele>
        <time>2017-05-14T08:50:25Z</time>
      </trkpt>
      <trkpt lat="49.1963" lon="1.25512">
        <ele>144</ele>
        <time>2017-05-14T08:51:01Z</time>
      </trkpt>
      <trkpt lat="49.19629" lon="1.2553">
        <ele>143.8</ele>
        <time>2017-05-14T08:51:04Z</time>
      </trkpt>
      <trkpt lat="49.19628" lon="1.25547">
        <ele>143.5</ele>
        <time>2017-05-14T08:51:07Z</time>
      </trkpt>
      <trkpt lat="49.19628" lon="1.25561">
        <ele>143</ele>
        <time>2017-05-14T08:51:10Z</time>
      </trkpt>
      <trkpt lat="49.19624" lon="1.25574">
        <ele>142.5</ele>
        <time>2017-05-14T08:51:19Z</time>
      </trkpt>
      <trkpt lat="49.19623" lon="1.25588">
        <ele>142.4</ele>
        <time>2017-05-14T08:51:24Z</time>
      </trkpt>
      <trkpt lat="49.19623" lon="1.25605">
        <ele>142.5</ele>
        <time>2017-05-14T08:51:28Z</time>
      </trkpt>
      <trkpt lat="49.19621" lon="1.25621">
        <ele>142.7</ele>
        <time>2017-05-14T08:51:31Z</time>
      </trkpt>
      <trkpt lat="49.19622" lon="1.25636">
        <ele>142.5</ele>
        <time>2017-05-14T08:51:34Z</time>
      </trkpt>
      <trkpt lat="49.19622" lon="1.25655">
        <ele>142.3</ele>
        <time>2017-05-14T08:51:37Z</time>
      </trkpt>
      <trkpt lat="49.19622" lon="1.25674">
        <ele>142.1</ele>
        <time>2017-05-14T08:51:40Z</time>
      </trkpt>
      <trkpt lat="49.1962" lon="1.25693">
        <ele>141.7</ele>
        <time>2017-05-14T08:51:43Z</time>
      </trkpt>
      <trkpt lat="49.19617" lon="1.25708">
        <ele>141.4</ele>
        <time>2017-05-14T08:51:46Z</time>
      </trkpt>
      <trkpt lat="49.1962" lon="1.25726">
        <ele>140.7</ele>
        <time>2017-05-14T08:51:49Z</time>
      </trkpt>
      <trkpt lat="49.19623" lon="1.25742">
        <ele>139.8</ele>
        <time>2017-05-14T08:51:52Z</time>
      </trkpt>
      <trkpt lat="49.19627" lon="1.25756">
        <ele>139.3</ele>
        <time>2017-05-14T08:51:54Z</time>
      </trkpt>
      <trkpt lat="49.19631" lon="1.25775">
        <ele>138.5</ele>
        <time>2017-05-14T08:51:57Z</time>
      </trkpt>
      <trkpt lat="49.19633" lon="1.25791">
        <ele>137.7</ele>
        <time>2017-05-14T08:51:59Z</time>
      </trkpt>
      <trkpt lat="49.19635" lon="1.25806">
        <ele>137.1</ele>
        <time>2017-05-14T08:52:01Z</time>
      </trkpt>
      <trkpt lat="49.19637" lon="1.25823">
        <ele>136.6</ele>
        <time>2017-05-14T08:52:03Z</time>
      </trkpt>
      <trkpt lat="49.19639" lon="1.25839">
        <ele>135.9</ele>
        <time>2017-05-14T08:52:06Z</time>
      </trkpt>
      <trkpt lat="49.19641" lon="1.25854">
        <ele>134.8</ele>
        <time>2017-05-14T08:52:10Z</time>
      </trkpt>
      <trkpt lat="49.19643" lon="1.2587">
        <ele>132.9</ele>
        <time>2017-05-14T08:52:16Z</time>
      </trkpt>
      <trkpt lat="49.19647" lon="1.25886">
        <ele>131.4</ele>
        <time>2017-05-14T08:52:20Z</time>
      </trkpt>
      <trkpt lat="49.19652" lon="1.25898">
        <ele>130.2</ele>
        <time>2017-05-14T08:52:23Z</time>
      </trkpt>
      <trkpt lat="49.19657" lon="1.25912">
        <ele>128.5</ele>
        <time>2017-05-14T08:52:27Z</time>
      </trkpt>
      <trkpt lat="49.19664" lon="1.25921">
        <ele>127.2</ele>
        <time>2017-05-14T08:52:31Z</time>
      </trkpt>
      <trkpt lat="49.19657" lon="1.25911">
        <ele>128.2</ele>
        <time>2017-05-14T08:53:04Z</time>
      </trkpt>
      <trkpt lat="49.19651" lon="1.259">
        <ele>129.4</ele>
        <time>2017-05-14T08:53:13Z</time>
      </trkpt>
      <trkpt lat="49.19646" lon="1.25886">
        <ele>130.6</ele>
        <time>2017-05-14T08:53:23Z</time>
      </trkpt>
      <trkpt lat="49.19642" lon="1.25872">
        <ele>132.1</ele>
        <time>2017-05-14T08:53:35Z</time>
      </trkpt>
      <trkpt lat="49.19641" lon="1.25858">
        <ele>133.8</ele>
        <time>2017-05-14T08:53:47Z</time>
      </trkpt>
      <trkpt lat="49.19638" lon="1.25844">
        <ele>134.5</ele>
        <time>2017-05-14T08:53:52Z</time>
      </trkpt>
      <trkpt lat="49.19638" lon="1.25829">
        <ele>135.2</ele>
        <time>2017-05-14T08:53:57Z</time>
      </trkpt>
      <trkpt lat="49.19637" lon="1.25815">
        <ele>135.9</ele>
        <time>2017-05-14T08:54:01Z</time>
      </trkpt>
      <trkpt lat="49.19635" lon="1.25801">
        <ele>136.5</ele>
        <time>2017-05-14T08:54:05Z</time>
      </trkpt>
      <trkpt lat="49.19632" lon="1.25784">
        <ele>136.8</ele>
        <time>2017-05-14T08:54:09Z</time>
      </trkpt>
      <trkpt lat="49.19627" lon="1.2577">
        <ele>137.2</ele>
        <time>2017-05-14T08:54:13Z</time>
      </trkpt>
      <trkpt lat="49.19623" lon="1.25755">
        <ele>137.8</ele>
        <time>2017-05-14T08:54:19Z</time>
      </trkpt>
      <trkpt lat="49.19619" lon="1.25742">
        <ele>138.4</ele>
        <time>2017-05-14T08:54:24Z</time>
      </trkpt>
      <trkpt lat="49.19616" lon="1.25727">
        <ele>139.3</ele>
        <time>2017-05-14T08:54:29Z</time>
      </trkpt>
      <trkpt lat="49.19611" lon="1.25713">
        <ele>139.9</ele>
        <time>2017-05-14T08:54:34Z</time>
      </trkpt>
      <trkpt lat="49.19611" lon="1.25698">
        <ele>140.4</ele>
        <time>2017-05-14T08:54:39Z</time>
      </trkpt>
      <trkpt lat="49.19612" lon="1.2568">
        <ele>140.8</ele>
        <time>2017-05-14T08:54:45Z</time>
      </trkpt>
      <trkpt lat="49.19613" lon="1.25665">
        <ele>141</ele>
        <time>2017-05-14T08:54:49Z</time>
      </trkpt>
      <trkpt lat="49.19615" lon="1.25651">
        <ele>141.4</ele>
        <time>2017-05-14T08:54:53Z</time>
      </trkpt>
      <trkpt lat="49.19618" lon="1.25633">
        <ele>141.7</ele>
        <time>2017-05-14T08:54:57Z</time>
      </trkpt>
      <trkpt lat="49.19621" lon="1.25618">
        <ele>142</ele>
        <time>2017-05-14T08:55:00Z</time>
      </trkpt>
      <trkpt lat="49.19622" lon="1.25602">
        <ele>142.2</ele>
        <time>2017-05-14T08:55:04Z</time>
      </trkpt>
      <trkpt lat="49.19624" lon="1.25589">
        <ele>142.3</ele>
        <time>2017-05-14T08:55:07Z</time>
      </trkpt>
      <trkpt lat="49.19627" lon="1.25572">
        <ele>142.3</ele>
        <time>2017-05-14T08:55:11Z</time>
      </trkpt>
      <trkpt lat="49.1963" lon="1.25555">
        <ele>142.4</ele>
        <time>2017-05-14T08:55:15Z</time>
      </trkpt>
      <trkpt lat="49.19632" lon="1.2554">
        <ele>142.6</ele>
        <time>2017-05-14T08:55:18Z</time>
      </trkpt>
      <trkpt lat="49.19632" lon="1.25523">
        <ele>142.7</ele>
        <time>2017-05-14T08:55:21Z</time>
      </trkpt>
      <trkpt lat="49.19633" lon="1.25506">
        <ele>142.9</ele>
        <time>2017-05-14T08:55:24Z</time>
      </trkpt>
      <trkpt lat="49.19632" lon="1.25488">
        <ele>143.3</ele>
        <time>2017-05-14T08:55:27Z</time>
      </trkpt>
      <trkpt lat="49.19634" lon="1.25472">
        <ele>144</ele>
        <time>2017-05-14T08:55:31Z</time>
      </trkpt>
      <trkpt lat="49.19636" lon="1.25455">
        <ele>144.5</ele>
        <time>2017-05-14T08:55:34Z</time>
      </trkpt>
      <trkpt lat="49.19636" lon="1.2544">
        <ele>144.7</ele>
        <time>2017-05-14T08:55:37Z</time>
      </trkpt>
      <trkpt lat="49.19637" lon="1.25425">
        <ele>145</ele>
        <time>2017-05-14T08:55:40Z</time>
      </trkpt>
      <trkpt lat="49.19636" lon="1.25409">
        <ele>145.3</ele>
        <time>2017-05-14T08:55:43Z</time>
      </trkpt>
      <trkpt lat="49.19637" lon="1.25392">
        <ele>145.6</ele>
        <time>2017-05-14T08:55:46Z</time>
      </trkpt>
      <trkpt lat="49.19638" lon="1.25378">
        <ele>145.6</ele>
        <time>2017-05-14T08:55:48Z</time>
      </trkpt>
      <trkpt lat="49.19638" lon="1.25363">
        <ele>145.7</ele>
        <time>2017-05-14T08:55:50Z</time>
      </trkpt>
      <trkpt lat="49.19635" lon="1.25344">
        <ele>145.9</ele>
        <time>2017-05-14T08:55:53Z</time>
      </trkpt>
      <trkpt lat="49.1963" lon="1.25325">
        <ele>146</ele>
        <time>2017-05-14T08:55:56Z</time>
      </trkpt>
      <trkpt lat="49.19625" lon="1.25312">
        <ele>146.1</ele>
        <time>2017-05-14T08:55:58Z</time>
      </trkpt>
      <trkpt lat="49.1962" lon="1.253">
        <ele>146.2</ele>
        <time>2017-05-14T08:56:00Z</time>
      </trkpt>
      <trkpt lat="49.19614" lon="1.25288">
        <ele>145.9</ele>
        <time>2017-05-14T08:56:02Z</time>
      </trkpt>
      <trkpt lat="49.19607" lon="1.2527">
        <ele>145.8</ele>
        <time>2017-05-14T08:56:05Z</time>
      </trkpt>
      <trkpt lat="49.196" lon="1.25255">
        <ele>146</ele>
        <time>2017-05-14T08:56:08Z</time>
      </trkpt>
      <trkpt lat="49.19592" lon="1.2524">
        <ele>146.1</ele>
        <time>2017-05-14T08:56:11Z</time>
      </trkpt>
      <trkpt lat="49.19584" lon="1.25225">
        <ele>146.1</ele>
        <time>2017-05-14T08:56:14Z</time>
      </trkpt>
      <trkpt lat="49.19578" lon="1.25213">
        <ele>146.2</ele>
        <time>2017-05-14T08:56:17Z</time>
      </trkpt>
      <trkpt lat="49.19574" lon="1.252">
        <ele>146.3</ele>
        <time>2017-05-14T08:56:33Z</time>
      </trkpt>
      <trkpt lat="49.19567" lon="1.25186">
        <ele>146.5</ele>
        <time>2017-05-14T08:56:41Z</time>
      </trkpt>
      <trkpt lat="49.1956" lon="1.25171">
        <ele>146.4</ele>
        <time>2017-05-14T08:56:45Z</time>
      </trkpt>
      <trkpt lat="49.19554" lon="1.25159">
        <ele>146.4</ele>
        <time>2017-05-14T08:56:48Z</time>
      </trkpt>
      <trkpt lat="49.19548" lon="1.25148">
        <ele>146.3</ele>
        <time>2017-05-14T08:56:51Z</time>
      </trkpt>
      <trkpt lat="49.19541" lon="1.25136">
        <ele>146.3</ele>
        <time>2017-05-14T08:56:54Z</time>
      </trkpt>
      <trkpt lat="49.19534" lon="1.25124">
        <ele>146.6</ele>
        <time>2017-05-14T08:56:57Z</time>
      </trkpt>
      <trkpt lat="49.19527" lon="1.25113">
        <ele>146.8</ele>
        <time>2017-05-14T08:57:00Z</time>
      </trkpt>
      <trkpt lat="49.19519" lon="1.25102">
        <ele>146.9</ele>
        <time>2017-05-14T08:57:03Z</time>
      </trkpt>
      <trkpt lat="49.19511" lon="1.25089">
        <ele>147.1</ele>
        <time>2017-05-14T08:57:06Z</time>
      </trkpt>
      <trkpt lat="49.19502" lon="1.25076">
        <ele>147.1</ele>
        <time>2017-05-14T08:57:09Z</time>
      </trkpt>
      <trkpt lat="49.19494" lon="1.25063">
        <ele>147.5</ele>
        <time>2017-05-14T08:57:12Z</time>
      </trkpt>
      <trkpt lat="49.19485" lon="1.25048">
        <ele>147.6</ele>
        <time>2017-05-14T08:57:15Z</time>
      </trkpt>
      <trkpt lat="49.19479" lon="1.25037">
        <ele>147.7</ele>
        <time>2017-05-14T08:57:17Z</time>
      </trkpt>
      <trkpt lat="49.19474" lon="1.25025">
        <ele>147.8</ele>
        <time>2017-05-14T08:57:19Z</time>
      </trkpt>
      <trkpt lat="49.19468" lon="1.25013">
        <ele>147.7</ele>
        <time>2017-05-14T08:57:21Z</time>
      </trkpt>
      <trkpt lat="49.19462" lon="1.25">
        <ele>147.5</ele>
        <time>2017-05-14T08:57:23Z</time>
      </trkpt>
      <trkpt lat="49.19456" lon="1.24986">
        <ele>147.4</ele>
        <time>2017-05-14T08:57:25Z</time>
      </trkpt>
      <trkpt lat="49.19449" lon="1.24972">
        <ele>147.1</ele>
        <time>2017-05-14T08:57:27Z</time>
      </trkpt>
      <trkpt lat="49.19443" lon="1.24957">
        <ele>146.8</ele>
        <time>2017-05-14T08:57:29Z</time>
      </trkpt>
      <trkpt lat="49.19436" lon="1.24942">
        <ele>146.7</ele>
        <time>2017-05-14T08:57:31Z</time>
      </trkpt>
      <trkpt lat="49.19429" lon="1.24927">
        <ele>146.5</ele>
        <time>2017-05-14T08:57:33Z</time>
      </trkpt>
      <trkpt lat="49.19423" lon="1.24912">
        <ele>146.3</ele>
        <time>2017-05-14T08:57:35Z</time>
      </trkpt>
      <trkpt lat="49.19416" lon="1.24897">
        <ele>146.2</ele>
        <time>2017-05-14T08:57:37Z</time>
      </trkpt>
      <trkpt lat="49.19409" lon="1.24882">
        <ele>146</ele>
        <time>2017-05-14T08:57:39Z</time>
      </trkpt>
      <trkpt lat="49.19402" lon="1.24868">
        <ele>145.7</ele>
        <time>2017-05-14T08:57:41Z</time>
      </trkpt>
      <trkpt lat="49.19395" lon="1.24853">
        <ele>145.7</ele>
        <time>2017-05-14T08:57:43Z</time>
      </trkpt>
      <trkpt lat="49.19388" lon="1.24838">
        <ele>145.5</ele>
        <time>2017-05-14T08:57:45Z</time>
      </trkpt>
      <trkpt lat="49.19382" lon="1.24823">
        <ele>145.4</ele>
        <time>2017-05-14T08:57:47Z</time>
      </trkpt>
      <trkpt lat="49.19376" lon="1.24811">
        <ele>145.2</ele>
        <time>2017-05-14T08:57:49Z</time>
      </trkpt>
      <trkpt lat="49.19369" lon="1.24799">
        <ele>145</ele>
        <time>2017-05-14T08:57:51Z</time>
      </trkpt>
      <trkpt lat="49.19364" lon="1.24784">
        <ele>144.7</ele>
        <time>2017-05-14T08:57:53Z</time>
      </trkpt>
      <trkpt lat="49.19361" lon="1.24767">
        <ele>144.5</ele>
        <time>2017-05-14T08:57:55Z</time>
      </trkpt>
      <trkpt lat="49.19359" lon="1.24749">
        <ele>144.2</ele>
        <time>2017-05-14T08:57:57Z</time>
      </trkpt>
      <trkpt lat="49.19357" lon="1.24731">
        <ele>143.9</ele>
        <time>2017-05-14T08:57:59Z</time>
      </trkpt>
      <trkpt lat="49.19354" lon="1.24714">
        <ele>143.6</ele>
        <time>2017-05-14T08:58:01Z</time>
      </trkpt>
      <trkpt lat="49.19351" lon="1.24697">
        <ele>143.3</ele>
        <time>2017-05-14T08:58:03Z</time>
      </trkpt>
      <trkpt lat="49.19348" lon="1.2468">
        <ele>143.1</ele>
        <time>2017-05-14T08:58:05Z</time>
      </trkpt>
      <trkpt lat="49.19345" lon="1.24662">
        <ele>143</ele>
        <time>2017-05-14T08:58:07Z</time>
      </trkpt>
      <trkpt lat="49.19343" lon="1.24645">
        <ele>142.5</ele>
        <time>2017-05-14T08:58:09Z</time>
      </trkpt>
      <trkpt lat="49.19341" lon="1.24626">
        <ele>142.5</ele>
        <time>2017-05-14T08:58:11Z</time>
      </trkpt>
      <trkpt lat="49.1934" lon="1.24609">
        <ele>142.3</ele>
        <time>2017-05-14T08:58:13Z</time>
      </trkpt>
      <trkpt lat="49.19338" lon="1.24592">
        <ele>142.1</ele>
        <time>2017-05-14T08:58:15Z</time>
      </trkpt>
      <trkpt lat="49.19336" lon="1.24575">
        <ele>141.7</ele>
        <time>2017-05-14T08:58:17Z</time>
      </trkpt>
      <trkpt lat="49.19334" lon="1.24561">
        <ele>141.5</ele>
        <time>2017-05-14T08:58:19Z</time>
      </trkpt>
      <trkpt lat="49.19332" lon="1.24546">
        <ele>141.3</ele>
        <time>2017-05-14T08:58:21Z</time>
      </trkpt>
      <trkpt lat="49.19329" lon="1.24531">
        <ele>141.2</ele>
        <time>2017-05-14T08:58:23Z</time>
      </trkpt>
      <trkpt lat="49.19327" lon="1.24514">
        <ele>141.3</ele>
        <time>2017-05-14T08:58:25Z</time>
      </trkpt>
      <trkpt lat="49.19325" lon="1.24498">
        <ele>141.4</ele>
        <time>2017-05-14T08:58:27Z</time>
      </trkpt>
      <trkpt lat="49.19323" lon="1.24482">
        <ele>141.5</ele>
        <time>2017-05-14T08:58:29Z</time>
      </trkpt>
      <trkpt lat="49.19321" lon="1.24466">
        <ele>141.5</ele>
        <time>2017-05-14T08:58:31Z</time>
      </trkpt>
      <trkpt lat="49.1932" lon="1.2445">
        <ele>141.7</ele>
        <time>2017-05-14T08:58:33Z</time>
      </trkpt>
      <trkpt lat="49.1932" lon="1.24435">
        <ele>141.9</ele>
        <time>2017-05-14T08:58:35Z</time>
      </trkpt>
      <trkpt lat="49.1932" lon="1.24419">
        <ele>142.1</ele>
        <time>2017-05-14T08:58:37Z</time>
      </trkpt>
      <trkpt lat="49.1932" lon="1.24403">
        <ele>142.3</ele>
        <time>2017-05-14T08:58:39Z</time>
      </trkpt>
      <trkpt lat="49.19321" lon="1.24387">
        <ele>142.5</ele>
        <time>2017-05-14T08:58:41Z</time>
      </trkpt>
      <trkpt lat="49.19322" lon="1.24371">
        <ele>142.8</ele>
        <time>2017-05-14T08:58:43Z</time>
      </trkpt>
      <trkpt lat="49.19323" lon="1.24355">
        <ele>143.1</ele>
        <time>2017-05-14T08:58:45Z</time>
      </trkpt>
      <trkpt lat="49.19324" lon="1.24339">
        <ele>143.4</ele>
        <time>2017-05-14T08:58:47Z</time>
      </trkpt>
      <trkpt lat="49.19325" lon="1.24324">
        <ele>143.7</ele>
        <time>2017-05-14T08:58:49Z</time>
      </trkpt>
      <trkpt lat="49.19326" lon="1.24309">
        <ele>143.7</ele>
        <time>2017-05-14T08:58:51Z</time>
      </trkpt>
      <trkpt lat="49.19326" lon="1.24293">
        <ele>143.8</ele>
        <time>2017-05-14T08:58:53Z</time>
      </trkpt>
      <trkpt lat="49.19322" lon="1.24277">
        <ele>143.8</ele>
        <time>2017-05-14T08:58:56Z</time>
      </trkpt>
      <trkpt lat="49.19311" lon="1.24286">
        <ele>144</ele>
        <time>2017-05-14T08:58:59Z</time>
      </trkpt>
      <trkpt lat="49.19302" lon="1.24299">
        <ele>144.2</ele>
        <time>2017-05-14T08:59:02Z</time>
      </trkpt>
      <trkpt lat="49.19292" lon="1.24313">
        <ele>144.5</ele>
        <time>2017-05-14T08:59:05Z</time>
      </trkpt>
      <trkpt lat="49.19285" lon="1.24323">
        <ele>144.7</ele>
        <time>2017-05-14T08:59:07Z</time>
      </trkpt>
      <trkpt lat="49.19278" lon="1.24333">
        <ele>144.9</ele>
        <time>2017-05-14T08:59:09Z</time>
      </trkpt>
      <trkpt lat="49.1927" lon="1.24343">
        <ele>145.1</ele>
        <time>2017-05-14T08:59:11Z</time>
      </trkpt>
      <trkpt lat="49.19263" lon="1.24355">
        <ele>145.4</ele>
        <time>2017-05-14T08:59:13Z</time>
      </trkpt>
      <trkpt lat="49.19257" lon="1.24366">
        <ele>145.6</ele>
        <time>2017-05-14T08:59:15Z</time>
      </trkpt>
      <trkpt lat="49.1925" lon="1.24377">
        <ele>145.7</ele>
        <time>2017-05-14T08:59:17Z</time>
      </trkpt>
      <trkpt lat="49.19244" lon="1.24388">
        <ele>145.8</ele>
        <time>2017-05-14T08:59:19Z</time>
      </trkpt>
      <trkpt lat="49.19238" lon="1.24401">
        <ele>145.8</ele>
        <time>2017-05-14T08:59:21Z</time>
      </trkpt>
      <trkpt lat="49.19235" lon="1.24416">
        <ele>145.8</ele>
        <time>2017-05-14T08:59:23Z</time>
      </trkpt>
      <trkpt lat="49.19235" lon="1.24431">
        <ele>145.8</ele>
        <time>2017-05-14T08:59:25Z</time>
      </trkpt>
      <trkpt lat="49.19236" lon="1.24446">
        <ele>145.8</ele>
        <time>2017-05-14T08:59:27Z</time>
      </trkpt>
      <trkpt lat="49.19237" lon="1.24461">
        <ele>145.8</ele>
        <time>2017-05-14T08:59:29Z</time>
      </trkpt>
      <trkpt lat="49.19236" lon="1.24476">
        <ele>146</ele>
        <time>2017-05-14T08:59:31Z</time>
      </trkpt>
      <trkpt lat="49.19235" lon="1.2449">
        <ele>145.8</ele>
        <time>2017-05-14T08:59:34Z</time>
      </trkpt>
      <trkpt lat="49.19235" lon="1.24509">
        <ele>146.3</ele>
        <time>2017-05-14T08:59:41Z</time>
      </trkpt>
      <trkpt lat="49.19231" lon="1.24527">
        <ele>146.4</ele>
        <time>2017-05-14T08:59:44Z</time>
      </trkpt>
      <trkpt lat="49.19227" lon="1.2454">
        <ele>146.5</ele>
        <time>2017-05-14T08:59:46Z</time>
      </trkpt>
      <trkpt lat="49.19223" lon="1.24553">
        <ele>146.5</ele>
        <time>2017-05-14T08:59:48Z</time>
      </trkpt>
      <trkpt lat="49.1922" lon="1.24567">
        <ele>146.7</ele>
        <time>2017-05-14T08:59:50Z</time>
      </trkpt>
      <trkpt lat="49.19215" lon="1.24581">
        <ele>146.9</ele>
        <time>2017-05-14T08:59:52Z</time>
      </trkpt>
      <trkpt lat="49.19211" lon="1.24595">
        <ele>147</ele>
        <time>2017-05-14T08:59:54Z</time>
      </trkpt>
      <trkpt lat="49.19207" lon="1.24608">
        <ele>147</ele>
        <time>2017-05-14T08:59:56Z</time>
      </trkpt>
      <trkpt lat="49.19203" lon="1.24622">
        <ele>147.1</ele>
        <time>2017-05-14T08:59:58Z</time>
      </trkpt>
      <trkpt lat="49.19199" lon="1.24636">
        <ele>147</ele>
        <time>2017-05-14T09:00:00Z</time>
      </trkpt>
      <trkpt lat="49.19194" lon="1.24649">
        <ele>146.9</ele>
        <time>2017-05-14T09:00:02Z</time>
      </trkpt>
      <trkpt lat="49.1919" lon="1.24663">
        <ele>147.1</ele>
        <time>2017-05-14T09:00:04Z</time>
      </trkpt>
      <trkpt lat="49.19185" lon="1.24677">
        <ele>147.3</ele>
        <time>2017-05-14T09:00:06Z</time>
      </trkpt>
      <trkpt lat="49.1918" lon="1.2469">
        <ele>147.4</ele>
        <time>2017-05-14T09:00:08Z</time>
      </trkpt>
      <trkpt lat="49.19175" lon="1.24704">
        <ele>147.4</ele>
        <time>2017-05-14T09:00:10Z</time>
      </trkpt>
      <trkpt lat="49.1917" lon="1.24717">
        <ele>147.2</ele>
        <time>2017-05-14T09:00:12Z</time>
      </trkpt>
      <trkpt lat="49.19164" lon="1.2473">
        <ele>147.1</ele>
        <time>2017-05-14T09:00:14Z</time>
      </trkpt>
      <trkpt lat="49.19159" lon="1.24743">
        <ele>147.3</ele>
        <time>2017-05-14T09:00:16Z</time>
      </trkpt>
      <trkpt lat="49.19153" lon="1.24757">
        <ele>147.2</ele>
        <time>2017-05-14T09:00:18Z</time>
      </trkpt>
      <trkpt lat="49.19147" lon="1.2477">
        <ele>147.2</ele>
        <time>2017-05-14T09:00:20Z</time>
      </trkpt>
      <trkpt lat="49.19141" lon="1.24783">
        <ele>146.9</ele>
        <time>2017-05-14T09:00:22Z</time>
      </trkpt>
      <trkpt lat="49.19134" lon="1.24796">
        <ele>146.7</ele>
        <time>2017-05-14T09:00:24Z</time>
      </trkpt>
      <trkpt lat="49.19128" lon="1.24809">
        <ele>146.7</ele>
        <time>2017-05-14T09:00:26Z</time>
      </trkpt>
      <trkpt lat="49.19121" lon="1.24822">
        <ele>146.7</ele>
        <time>2017-05-14T09:00:28Z</time>
      </trkpt>
      <trkpt lat="49.19114" lon="1.24834">
        <ele>146.5</ele>
        <time>2017-05-14T09:00:30Z</time>
      </trkpt>
      <trkpt lat="49.19107" lon="1.24847">
        <ele>146.4</ele>
        <time>2017-05-14T09:00:32Z</time>
      </trkpt>
      <trkpt lat="49.191" lon="1.24859">
        <ele>146.1</ele>
        <time>2017-05-14T09:00:34Z</time>
      </trkpt>
      <trkpt lat="49.19092" lon="1.24872">
        <ele>146</ele>
        <time>2017-05-14T09:00:36Z</time>
      </trkpt>
      <trkpt lat="49.19084" lon="1.24884">
        <ele>145.9</ele>
        <time>2017-05-14T09:00:38Z</time>
      </trkpt>
      <trkpt lat="49.19076" lon="1.24896">
        <ele>145.9</ele>
        <time>2017-05-14T09:00:40Z</time>
      </trkpt>
      <trkpt lat="49.19068" lon="1.24907">
        <ele>145.6</ele>
        <time>2017-05-14T09:00:42Z</time>
      </trkpt>
      <trkpt lat="49.19059" lon="1.24919">
        <ele>145.6</ele>
        <time>2017-05-14T09:00:44Z</time>
      </trkpt>
      <trkpt lat="49.19051" lon="1.2493">
        <ele>145.4</ele>
        <time>2017-05-14T09:00:46Z</time>
      </trkpt>
      <trkpt lat="49.19043" lon="1.24941">
        <ele>145.2</ele>
        <time>2017-05-14T09:00:48Z</time>
      </trkpt>
      <trkpt lat="49.19036" lon="1.24953">
        <ele>145.1</ele>
        <time>2017-05-14T09:00:50Z</time>
      </trkpt>
      <trkpt lat="49.19028" lon="1.24965">
        <ele>144.9</ele>
        <time>2017-05-14T09:00:52Z</time>
      </trkpt>
      <trkpt lat="49.1902" lon="1.24977">
        <ele>144.9</ele>
        <time>2017-05-14T09:00:54Z</time>
      </trkpt>
      <trkpt lat="49.19012" lon="1.24988">
        <ele>145</ele>
        <time>2017-05-14T09:00:56Z</time>
      </trkpt>
      <trkpt lat="49.19004" lon="1.24999">
        <ele>145.1</ele>
        <time>2017-05-14T09:00:58Z</time>
      </trkpt>
      <trkpt lat="49.18996" lon="1.2501">
        <ele>145.3</ele>
        <time>2017-05-14T09:01:00Z</time>
      </trkpt>
      <trkpt lat="49.18989" lon="1.25021">
        <ele>145.5</ele>
        <time>2017-05-14T09:01:02Z</time>
      </trkpt>
      <trkpt lat="49.18981" lon="1.25032">
        <ele>145.4</ele>
        <time>2017-05-14T09:01:04Z</time>
      </trkpt>
      <trkpt lat="49.18973" lon="1.25042">
        <ele>145.6</ele>
        <time>2017-05-14T09:01:06Z</time>
      </trkpt>
      <trkpt lat="49.18966" lon="1.25052">
        <ele>145.6</ele>
        <time>2017-05-14T09:01:08Z</time>
      </trkpt>
      <trkpt lat="49.18958" lon="1.25062">
        <ele>145.6</ele>
        <time>2017-05-14T09:01:10Z</time>
      </trkpt>
      <trkpt lat="49.1895" lon="1.25072">
        <ele>145.5</ele>
        <time>2017-05-14T09:01:12Z</time>
      </trkpt>
      <trkpt lat="49.18942" lon="1.25083">
        <ele>145.5</ele>
        <time>2017-05-14T09:01:14Z</time>
      </trkpt>
      <trkpt lat="49.18935" lon="1.25094">
        <ele>145.6</ele>
        <time>2017-05-14T09:01:16Z</time>
      </trkpt>
      <trkpt lat="49.18927" lon="1.25105">
        <ele>145.5</ele>
        <time>2017-05-14T09:01:18Z</time>
      </trkpt>
      <trkpt lat="49.18919" lon="1.25116">
        <ele>145.5</ele>
        <time>2017-05-14T09:01:20Z</time>
      </trkpt>
      <trkpt lat="49.18911" lon="1.25127">
        <ele>145.4</ele>
        <time>2017-05-14T09:01:22Z</time>
      </trkpt>
      <trkpt lat="49.18904" lon="1.25138">
        <ele>145.5</ele>
        <time>2017-05-14T09:01:24Z</time>
      </trkpt>
      <trkpt lat="49.18896" lon="1.2515">
        <ele>145.5</ele>
        <time>2017-05-14T09:01:26Z</time>
      </trkpt>
      <trkpt lat="49.18889" lon="1.25161">
        <ele>145.7</ele>
        <time>2017-05-14T09:01:28Z</time>
      </trkpt>
      <trkpt lat="49.18882" lon="1.25174">
        <ele>145.8</ele>
        <time>2017-05-14T09:01:30Z</time>
      </trkpt>
      <trkpt lat="49.18875" lon="1.25186">
        <ele>145.8</ele>
        <time>2017-05-14T09:01:32Z</time>
      </trkpt>
      <trkpt lat="49.18868" lon="1.25199">
        <ele>145.9</ele>
        <time>2017-05-14T09:01:34Z</time>
      </trkpt>
      <trkpt lat="49.18861" lon="1.25211">
        <ele>145.8</ele>
        <time>2017-05-14T09:01:36Z</time>
      </trkpt>
      <trkpt lat="49.18854" lon="1.25224">
        <ele>145.8</ele>
        <time>2017-05-14T09:01:38Z</time>
      </trkpt>
      <trkpt lat="49.18846" lon="1.25237">
        <ele>145.8</ele>
        <time>2017-05-14T09:01:40Z</time>
      </trkpt>
      <trkpt lat="49.18839" lon="1.2525">
        <ele>145.9</ele>
        <time>2017-05-14T09:01:42Z</time>
      </trkpt>
      <trkpt lat="49.18832" lon="1.25262">
        <ele>145.7</ele>
        <time>2017-05-14T09:01:44Z</time>
      </trkpt>
      <trkpt lat="49.18823" lon="1.25274">
        <ele>145.4</ele>
        <time>2017-05-14T09:01:46Z</time>
      </trkpt>
      <trkpt lat="49.18816" lon="1.25286">
        <ele>145.2</ele>
        <time>2017-05-14T09:01:48Z</time>
      </trkpt>
      <trkpt lat="49.18809" lon="1.25298">
        <ele>145.1</ele>
        <time>2017-05-14T09:01:50Z</time>
      </trkpt>
      <trkpt lat="49.18802" lon="1.25311">
        <ele>144.9</ele>
        <time>2017-05-14T09:01:52Z</time>
      </trkpt>
      <trkpt lat="49.18795" lon="1.25325">
        <ele>144.8</ele>
        <time>2017-05-14T09:01:54Z</time>
      </trkpt>
      <trkpt lat="49.18788" lon="1.25338">
        <ele>144.5</ele>
        <time>2017-05-14T09:01:56Z</time>
      </trkpt>
      <trkpt lat="49.18781" lon="1.25351">
        <ele>144.5</ele>
        <time>2017-05-14T09:01:58Z</time>
      </trkpt>
      <trkpt lat="49.18775" lon="1.25365">
        <ele>144.6</ele>
        <time>2017-05-14T09:02:00Z</time>
      </trkpt>
      <trkpt lat="49.18768" lon="1.25378">
        <ele>144.6</ele>
        <time>2017-05-14T09:02:02Z</time>
      </trkpt>
      <trkpt lat="49.18762" lon="1.25391">
        <ele>144.8</ele>
        <time>2017-05-14T09:02:04Z</time>
      </trkpt>
      <trkpt lat="49.18756" lon="1.25404">
        <ele>144.7</ele>
        <time>2017-05-14T09:02:06Z</time>
      </trkpt>
      <trkpt lat="49.1875" lon="1.25416">
        <ele>144.7</ele>
        <time>2017-05-14T09:02:08Z</time>
      </trkpt>
      <trkpt lat="49.18744" lon="1.25428">
        <ele>144.8</ele>
        <time>2017-05-14T09:02:10Z</time>
      </trkpt>
      <trkpt lat="49.18738" lon="1.25439">
        <ele>145</ele>
        <time>2017-05-14T09:02:12Z</time>
      </trkpt>
      <trkpt lat="49.18732" lon="1.2545">
        <ele>145.2</ele>
        <time>2017-05-14T09:02:14Z</time>
      </trkpt>
      <trkpt lat="49.18726" lon="1.25462">
        <ele>145.3</ele>
        <time>2017-05-14T09:02:16Z</time>
      </trkpt>
      <trkpt lat="49.18721" lon="1.25473">
        <ele>145.6</ele>
        <time>2017-05-14T09:02:18Z</time>
      </trkpt>
      <trkpt lat="49.18715" lon="1.25484">
        <ele>145.8</ele>
        <time>2017-05-14T09:02:20Z</time>
      </trkpt>
      <trkpt lat="49.18709" lon="1.25495">
        <ele>146</ele>
        <time>2017-05-14T09:02:22Z</time>
      </trkpt>
      <trkpt lat="49.18701" lon="1.25511">
        <ele>146.5</ele>
        <time>2017-05-14T09:02:25Z</time>
      </trkpt>
      <trkpt lat="49.18695" lon="1.25522">
        <ele>146.7</ele>
        <time>2017-05-14T09:02:27Z</time>
      </trkpt>
      <trkpt lat="49.1869" lon="1.25533">
        <ele>146.8</ele>
        <time>2017-05-14T09:02:29Z</time>
      </trkpt>
      <trkpt lat="49.18685" lon="1.25545">
        <ele>147</ele>
        <time>2017-05-14T09:02:31Z</time>
      </trkpt>
      <trkpt lat="49.18677" lon="1.25561">
        <ele>147.5</ele>
        <time>2017-05-14T09:02:34Z</time>
      </trkpt>
      <trkpt lat="49.18672" lon="1.25573">
        <ele>147.7</ele>
        <time>2017-05-14T09:02:36Z</time>
      </trkpt>
      <trkpt lat="49.18667" lon="1.25584">
        <ele>147.7</ele>
        <time>2017-05-14T09:02:38Z</time>
      </trkpt>
      <trkpt lat="49.18662" lon="1.25595">
        <ele>148</ele>
        <time>2017-05-14T09:02:40Z</time>
      </trkpt>
      <trkpt lat="49.18656" lon="1.25607">
        <ele>147.9</ele>
        <time>2017-05-14T09:02:42Z</time>
      </trkpt>
      <trkpt lat="49.18651" lon="1.25618">
        <ele>148</ele>
        <time>2017-05-14T09:02:44Z</time>
      </trkpt>
      <trkpt lat="49.18646" lon="1.2563">
        <ele>148.2</ele>
        <time>2017-05-14T09:02:46Z</time>
      </trkpt>
      <trkpt lat="49.18638" lon="1.25647">
        <ele>148.5</ele>
        <time>2017-05-14T09:02:49Z</time>
      </trkpt>
      <trkpt lat="49.18632" lon="1.25657">
        <ele>148.7</ele>
        <time>2017-05-14T09:02:51Z</time>
      </trkpt>
      <trkpt lat="49.18626" lon="1.25669">
        <ele>148.9</ele>
        <time>2017-05-14T09:02:53Z</time>
      </trkpt>
      <trkpt lat="49.18621" lon="1.2568">
        <ele>149</ele>
        <time>2017-05-14T09:02:55Z</time>
      </trkpt>
      <trkpt lat="49.18615" lon="1.25691">
        <ele>149.2</ele>
        <time>2017-05-14T09:02:57Z</time>
      </trkpt>
      <trkpt lat="49.1861" lon="1.25702">
        <ele>149.6</ele>
        <time>2017-05-14T09:02:59Z</time>
      </trkpt>
      <trkpt lat="49.18601" lon="1.25718">
        <ele>150</ele>
        <time>2017-05-14T09:03:02Z</time>
      </trkpt>
      <trkpt lat="49.18593" lon="1.25732">
        <ele>150.4</ele>
        <time>2017-05-14T09:03:05Z</time>
      </trkpt>
      <trkpt lat="49.18586" lon="1.25748">
        <ele>150.7</ele>
        <time>2017-05-14T09:03:08Z</time>
      </trkpt>
      <trkpt lat="49.18579" lon="1.25765">
        <ele>151.1</ele>
        <time>2017-05-14T09:03:11Z</time>
      </trkpt>
      <trkpt lat="49.18572" lon="1.25781">
        <ele>151.1</ele>
        <time>2017-05-14T09:03:14Z</time>
      </trkpt>
      <trkpt lat="49.18565" lon="1.25797">
        <ele>151.1</ele>
        <time>2017-05-14T09:03:17Z</time>
      </trkpt>
      <trkpt lat="49.18559" lon="1.25807">
        <ele>151.4</ele>
        <time>2017-05-14T09:03:19Z</time>
      </trkpt>
      <trkpt lat="49.18553" lon="1.25819">
        <ele>151.8</ele>
        <time>2017-05-14T09:03:21Z</time>
      </trkpt>
      <trkpt lat="49.18547" lon="1.25829">
        <ele>152.1</ele>
        <time>2017-05-14T09:03:23Z</time>
      </trkpt>
      <trkpt lat="49.18537" lon="1.25843">
        <ele>152.3</ele>
        <time>2017-05-14T09:03:26Z</time>
      </trkpt>
      <trkpt lat="49.18525" lon="1.25855">
        <ele>152.6</ele>
        <time>2017-05-14T09:03:29Z</time>
      </trkpt>
      <trkpt lat="49.18513" lon="1.25852">
        <ele>152.7</ele>
        <time>2017-05-14T09:03:32Z</time>
      </trkpt>
      <trkpt lat="49.18505" lon="1.2586">
        <ele>152.9</ele>
        <time>2017-05-14T09:03:35Z</time>
      </trkpt>
      <trkpt lat="49.18503" lon="1.2588">
        <ele>153</ele>
        <time>2017-05-14T09:03:38Z</time>
      </trkpt>
      <trkpt lat="49.18502" lon="1.25895">
        <ele>153.2</ele>
        <time>2017-05-14T09:03:40Z</time>
      </trkpt>
      <trkpt lat="49.185" lon="1.2591">
        <ele>153.4</ele>
        <time>2017-05-14T09:03:42Z</time>
      </trkpt>
      <trkpt lat="49.18498" lon="1.25926">
        <ele>153.7</ele>
        <time>2017-05-14T09:03:44Z</time>
      </trkpt>
      <trkpt lat="49.18497" lon="1.25942">
        <ele>153.8</ele>
        <time>2017-05-14T09:03:46Z</time>
      </trkpt>
      <trkpt lat="49.18497" lon="1.25959">
        <ele>153.8</ele>
        <time>2017-05-14T09:03:48Z</time>
      </trkpt>
      <trkpt lat="49.18497" lon="1.25975">
        <ele>153.9</ele>
        <time>2017-05-14T09:03:50Z</time>
      </trkpt>
      <trkpt lat="49.18498" lon="1.25993">
        <ele>153.9</ele>
        <time>2017-05-14T09:03:52Z</time>
      </trkpt>
      <trkpt lat="49.18498" lon="1.2601">
        <ele>154</ele>
        <time>2017-05-14T09:03:54Z</time>
      </trkpt>
      <trkpt lat="49.18498" lon="1.26027">
        <ele>154</ele>
        <time>2017-05-14T09:03:56Z</time>
      </trkpt>
      <trkpt lat="49.18498" lon="1.26043">
        <ele>154.1</ele>
        <time>2017-05-14T09:03:58Z</time>
      </trkpt>
      <trkpt lat="49.18496" lon="1.26059">
        <ele>154.3</ele>
        <time>2017-05-14T09:04:00Z</time>
      </trkpt>
      <trkpt lat="49.18488" lon="1.2607">
        <ele>154.5</ele>
        <time>2017-05-14T09:04:02Z</time>
      </trkpt>
      <trkpt lat="49.18479" lon="1.26078">
        <ele>154.6</ele>
        <time>2017-05-14T09:04:04Z</time>
      </trkpt>
      <trkpt lat="49.1847" lon="1.26085">
        <ele>154.8</ele>
        <time>2017-05-14T09:04:06Z</time>
      </trkpt>
      <trkpt lat="49.18461" lon="1.2609">
        <ele>154.8</ele>
        <time>2017-05-14T09:04:08Z</time>
      </trkpt>
      <trkpt lat="49.18453" lon="1.26096">
        <ele>155.1</ele>
        <time>2017-05-14T09:04:10Z</time>
      </trkpt>
      <trkpt lat="49.18443" lon="1.26102">
        <ele>155.3</ele>
        <time>2017-05-14T09:04:12Z</time>
      </trkpt>
      <trkpt lat="49.18434" lon="1.26109">
        <ele>155.4</ele>
        <time>2017-05-14T09:04:14Z</time>
      </trkpt>
      <trkpt lat="49.18425" lon="1.26116">
        <ele>155.5</ele>
        <time>2017-05-14T09:04:16Z</time>
      </trkpt>
      <trkpt lat="49.18415" lon="1.26124">
        <ele>155.7</ele>
        <time>2017-05-14T09:04:18Z</time>
      </trkpt>
      <trkpt lat="49.18405" lon="1.26131">
        <ele>155.9</ele>
        <time>2017-05-14T09:04:20Z</time>
      </trkpt>
      <trkpt lat="49.18396" lon="1.26138">
        <ele>156</ele>
        <time>2017-05-14T09:04:22Z</time>
      </trkpt>
      <trkpt lat="49.18387" lon="1.26146">
        <ele>156.2</ele>
        <time>2017-05-14T09:04:24Z</time>
      </trkpt>
      <trkpt lat="49.18377" lon="1.26154">
        <ele>156.4</ele>
        <time>2017-05-14T09:04:26Z</time>
      </trkpt>
      <trkpt lat="49.18367" lon="1.26161">
        <ele>156.5</ele>
        <time>2017-05-14T09:04:28Z</time>
      </trkpt>
      <trkpt lat="49.18356" lon="1.26169">
        <ele>156.6</ele>
        <time>2017-05-14T09:04:30Z</time>
      </trkpt>
      <trkpt lat="49.18346" lon="1.26177">
        <ele>156.6</ele>
        <time>2017-05-14T09:04:32Z</time>
      </trkpt>
      <trkpt lat="49.18335" lon="1.26186">
        <ele>156.7</ele>
        <time>2017-05-14T09:04:34Z</time>
      </trkpt>
      <trkpt lat="49.18325" lon="1.26195">
        <ele>156.7</ele>
        <time>2017-05-14T09:04:36Z</time>
      </trkpt>
      <trkpt lat="49.18315" lon="1.26205">
        <ele>156.4</ele>
        <time>2017-05-14T09:04:38Z</time>
      </trkpt>
      <trkpt lat="49.18304" lon="1.26216">
        <ele>156.3</ele>
        <time>2017-05-14T09:04:40Z</time>
      </trkpt>
      <trkpt lat="49.18293" lon="1.26228">
        <ele>156.1</ele>
        <time>2017-05-14T09:04:42Z</time>
      </trkpt>
      <trkpt lat="49.18283" lon="1.2624">
        <ele>155.7</ele>
        <time>2017-05-14T09:04:44Z</time>
      </trkpt>
      <trkpt lat="49.18271" lon="1.26252">
        <ele>155.4</ele>
        <time>2017-05-14T09:04:46Z</time>
      </trkpt>
      <trkpt lat="49.1826" lon="1.26265">
        <ele>155</ele>
        <time>2017-05-14T09:04:48Z</time>
      </trkpt>
      <trkpt lat="49.18249" lon="1.26276">
        <ele>154.6</ele>
        <time>2017-05-14T09:04:50Z</time>
      </trkpt>
      <trkpt lat="49.18238" lon="1.26288">
        <ele>154.1</ele>
        <time>2017-05-14T09:04:52Z</time>
      </trkpt>
      <trkpt lat="49.18227" lon="1.26301">
        <ele>153.5</ele>
        <time>2017-05-14T09:04:54Z</time>
      </trkpt>
      <trkpt lat="49.18216" lon="1.26313">
        <ele>152.9</ele>
        <time>2017-05-14T09:04:56Z</time>
      </trkpt>
      <trkpt lat="49.18204" lon="1.26325">
        <ele>152.3</ele>
        <time>2017-05-14T09:04:58Z</time>
      </trkpt>
      <trkpt lat="49.18193" lon="1.26337">
        <ele>151.9</ele>
        <time>2017-05-14T09:05:00Z</time>
      </trkpt>
      <trkpt lat="49.1818" lon="1.26348">
        <ele>151.4</ele>
        <time>2017-05-14T09:05:02Z</time>
      </trkpt>
      <trkpt lat="49.18168" lon="1.26358">
        <ele>150.9</ele>
        <time>2017-05-14T09:05:04Z</time>
      </trkpt>
      <trkpt lat="49.18155" lon="1.26368">
        <ele>150.4</ele>
        <time>2017-05-14T09:05:06Z</time>
      </trkpt>
      <trkpt lat="49.18141" lon="1.26377">
        <ele>150.1</ele>
        <time>2017-05-14T09:05:08Z</time>
      </trkpt>
      <trkpt lat="49.18128" lon="1.26385">
        <ele>149.5</ele>
        <time>2017-05-14T09:05:10Z</time>
      </trkpt>
      <trkpt lat="49.18115" lon="1.26392">
        <ele>149</ele>
        <time>2017-05-14T09:05:12Z</time>
      </trkpt>
      <trkpt lat="49.18102" lon="1.26398">
        <ele>148.7</ele>
        <time>2017-05-14T09:05:14Z</time>
      </trkpt>
      <trkpt lat="49.18089" lon="1.26405">
        <ele>148.3</ele>
        <time>2017-05-14T09:05:16Z</time>
      </trkpt>
      <trkpt lat="49.18076" lon="1.26411">
        <ele>148</ele>
        <time>2017-05-14T09:05:18Z</time>
      </trkpt>
      <trkpt lat="49.18063" lon="1.26417">
        <ele>147.8</ele>
        <time>2017-05-14T09:05:20Z</time>
      </trkpt>
      <trkpt lat="49.18051" lon="1.26423">
        <ele>147.8</ele>
        <time>2017-05-14T09:05:22Z</time>
      </trkpt>
      <trkpt lat="49.18039" lon="1.26429">
        <ele>147.7</ele>
        <time>2017-05-14T09:05:24Z</time>
      </trkpt>
      <trkpt lat="49.1803" lon="1.26439">
        <ele>147.7</ele>
        <time>2017-05-14T09:05:26Z</time>
      </trkpt>
      <trkpt lat="49.18023" lon="1.26453">
        <ele>147.6</ele>
        <time>2017-05-14T09:05:28Z</time>
      </trkpt>
      <trkpt lat="49.18013" lon="1.26461">
        <ele>147.5</ele>
        <time>2017-05-14T09:05:30Z</time>
      </trkpt>
      <trkpt lat="49.18002" lon="1.26459">
        <ele>147.8</ele>
        <time>2017-05-14T09:05:32Z</time>
      </trkpt>
      <trkpt lat="49.17993" lon="1.26454">
        <ele>147.9</ele>
        <time>2017-05-14T09:05:34Z</time>
      </trkpt>
      <trkpt lat="49.17985" lon="1.26449">
        <ele>147.9</ele>
        <time>2017-05-14T09:05:36Z</time>
      </trkpt>
      <trkpt lat="49.17974" lon="1.26444">
        <ele>147.9</ele>
        <time>2017-05-14T09:05:38Z</time>
      </trkpt>
      <trkpt lat="49.17963" lon="1.26445">
        <ele>147.8</ele>
        <time>2017-05-14T09:05:40Z</time>
      </trkpt>
      <trkpt lat="49.17951" lon="1.2645">
        <ele>147.7</ele>
        <time>2017-05-14T09:05:42Z</time>
      </trkpt>
      <trkpt lat="49.1794" lon="1.26457">
        <ele>147.7</ele>
        <time>2017-05-14T09:05:44Z</time>
      </trkpt>
      <trkpt lat="49.1793" lon="1.26465">
        <ele>147.7</ele>
        <time>2017-05-14T09:05:46Z</time>
      </trkpt>
      <trkpt lat="49.1792" lon="1.26475">
        <ele>147.7</ele>
        <time>2017-05-14T09:05:48Z</time>
      </trkpt>
      <trkpt lat="49.17909" lon="1.26482">
        <ele>147.8</ele>
        <time>2017-05-14T09:05:50Z</time>
      </trkpt>
      <trkpt lat="49.17898" lon="1.26489">
        <ele>147.8</ele>
        <time>2017-05-14T09:05:52Z</time>
      </trkpt>
      <trkpt lat="49.17887" lon="1.26496">
        <ele>147.8</ele>
        <time>2017-05-14T09:05:54Z</time>
      </trkpt>
      <trkpt lat="49.17876" lon="1.26503">
        <ele>147.9</ele>
        <time>2017-05-14T09:05:56Z</time>
      </trkpt>
      <trkpt lat="49.17865" lon="1.26511">
        <ele>148</ele>
        <time>2017-05-14T09:05:58Z</time>
      </trkpt>
      <trkpt lat="49.17856" lon="1.26521">
        <ele>148.1</ele>
        <time>2017-05-14T09:06:00Z</time>
      </trkpt>
      <trkpt lat="49.17847" lon="1.26532">
        <ele>148.1</ele>
        <time>2017-05-14T09:06:02Z</time>
      </trkpt>
      <trkpt lat="49.17837" lon="1.26545">
        <ele>148.1</ele>
        <time>2017-05-14T09:06:04Z</time>
      </trkpt>
      <trkpt lat="49.17828" lon="1.26557">
        <ele>148.1</ele>
        <time>2017-05-14T09:06:06Z</time>
      </trkpt>
      <trkpt lat="49.17819" lon="1.2657">
        <ele>148.2</ele>
        <time>2017-05-14T09:06:08Z</time>
      </trkpt>
      <trkpt lat="49.1781" lon="1.26583">
        <ele>148.3</ele>
        <time>2017-05-14T09:06:10Z</time>
      </trkpt>
      <trkpt lat="49.178" lon="1.26595">
        <ele>148.3</ele>
        <time>2017-05-14T09:06:12Z</time>
      </trkpt>
      <trkpt lat="49.17789" lon="1.26606">
        <ele>148.2</ele>
        <time>2017-05-14T09:06:14Z</time>
      </trkpt>
      <trkpt lat="49.17778" lon="1.26615">
        <ele>148.2</ele>
        <time>2017-05-14T09:06:16Z</time>
      </trkpt>
      <trkpt lat="49.17767" lon="1.26625">
        <ele>148.1</ele>
        <time>2017-05-14T09:06:18Z</time>
      </trkpt>
      <trkpt lat="49.17755" lon="1.26635">
        <ele>148</ele>
        <time>2017-05-14T09:06:20Z</time>
      </trkpt>
      <trkpt lat="49.17743" lon="1.26644">
        <ele>148</ele>
        <time>2017-05-14T09:06:22Z</time>
      </trkpt>
      <trkpt lat="49.1773" lon="1.26654">
        <ele>147.6</ele>
        <time>2017-05-14T09:06:24Z</time>
      </trkpt>
      <trkpt lat="49.17718" lon="1.26664">
        <ele>147.3</ele>
        <time>2017-05-14T09:06:26Z</time>
      </trkpt>
      <trkpt lat="49.17709" lon="1.26677">
        <ele>146.6</ele>
        <time>2017-05-14T09:06:28Z</time>
      </trkpt>
      <trkpt lat="49.17705" lon="1.26696">
        <ele>145.7</ele>
        <time>2017-05-14T09:06:30Z</time>
      </trkpt>
      <trkpt lat="49.17706" lon="1.26717">
        <ele>144.7</ele>
        <time>2017-05-14T09:06:32Z</time>
      </trkpt>
      <trkpt lat="49.17707" lon="1.26739">
        <ele>143.8</ele>
        <time>2017-05-14T09:06:34Z</time>
      </trkpt>
      <trkpt lat="49.17708" lon="1.26762">
        <ele>143.1</ele>
        <time>2017-05-14T09:06:36Z</time>
      </trkpt>
      <trkpt lat="49.17708" lon="1.26782">
        <ele>142.5</ele>
        <time>2017-05-14T09:06:38Z</time>
      </trkpt>
      <trkpt lat="49.17702" lon="1.26794">
        <ele>141.4</ele>
        <time>2017-05-14T09:06:41Z</time>
      </trkpt>
      <trkpt lat="49.17691" lon="1.26798">
        <ele>140.4</ele>
        <time>2017-05-14T09:06:44Z</time>
      </trkpt>
      <trkpt lat="49.17682" lon="1.26801">
        <ele>139.1</ele>
        <time>2017-05-14T09:06:47Z</time>
      </trkpt>
      <trkpt lat="49.1767" lon="1.26805">
        <ele>137.5</ele>
        <time>2017-05-14T09:06:51Z</time>
      </trkpt>
      <trkpt lat="49.17659" lon="1.26806">
        <ele>136.7</ele>
        <time>2017-05-14T09:06:54Z</time>
      </trkpt>
      <trkpt lat="49.17649" lon="1.26807">
        <ele>135.7</ele>
        <time>2017-05-14T09:06:57Z</time>
      </trkpt>
      <trkpt lat="49.17638" lon="1.26802">
        <ele>135</ele>
        <time>2017-05-14T09:07:00Z</time>
      </trkpt>
      <trkpt lat="49.17629" lon="1.26799">
        <ele>134.3</ele>
        <time>2017-05-14T09:07:02Z</time>
      </trkpt>
      <trkpt lat="49.17616" lon="1.26799">
        <ele>133.7</ele>
        <time>2017-05-14T09:07:05Z</time>
      </trkpt>
      <trkpt lat="49.17604" lon="1.26803">
        <ele>132.8</ele>
        <time>2017-05-14T09:07:08Z</time>
      </trkpt>
      <trkpt lat="49.17591" lon="1.26809">
        <ele>131.5</ele>
        <time>2017-05-14T09:07:11Z</time>
      </trkpt>
      <trkpt lat="49.17582" lon="1.26817">
        <ele>130.8</ele>
        <time>2017-05-14T09:07:13Z</time>
      </trkpt>
      <trkpt lat="49.17573" lon="1.26827">
        <ele>130.4</ele>
        <time>2017-05-14T09:07:15Z</time>
      </trkpt>
      <trkpt lat="49.17566" lon="1.26835">
        <ele>129.9</ele>
        <time>2017-05-14T09:07:17Z</time>
      </trkpt>
      <trkpt lat="49.17554" lon="1.26845">
        <ele>129.1</ele>
        <time>2017-05-14T09:07:20Z</time>
      </trkpt>
      <trkpt lat="49.17543" lon="1.26854">
        <ele>128.3</ele>
        <time>2017-05-14T09:07:23Z</time>
      </trkpt>
      <trkpt lat="49.17531" lon="1.26863">
        <ele>127.6</ele>
        <time>2017-05-14T09:07:26Z</time>
      </trkpt>
      <trkpt lat="49.17522" lon="1.26872">
        <ele>126.8</ele>
        <time>2017-05-14T09:07:28Z</time>
      </trkpt>
      <trkpt lat="49.17512" lon="1.26882">
        <ele>125.8</ele>
        <time>2017-05-14T09:07:30Z</time>
      </trkpt>
      <trkpt lat="49.17502" lon="1.26893">
        <ele>125</ele>
        <time>2017-05-14T09:07:32Z</time>
      </trkpt>
      <trkpt lat="49.1749" lon="1.26905">
        <ele>124.5</ele>
        <time>2017-05-14T09:07:34Z</time>
      </trkpt>
      <trkpt lat="49.17479" lon="1.26919">
        <ele>123.7</ele>
        <time>2017-05-14T09:07:36Z</time>
      </trkpt>
      <trkpt lat="49.17468" lon="1.26933">
        <ele>122.4</ele>
        <time>2017-05-14T09:07:38Z</time>
      </trkpt>
      <trkpt lat="49.17457" lon="1.26946">
        <ele>121.3</ele>
        <time>2017-05-14T09:07:40Z</time>
      </trkpt>
      <trkpt lat="49.17446" lon="1.2696">
        <ele>119.6</ele>
        <time>2017-05-14T09:07:42Z</time>
      </trkpt>
      <trkpt lat="49.17434" lon="1.26975">
        <ele>118.3</ele>
        <time>2017-05-14T09:07:44Z</time>
      </trkpt>
      <trkpt lat="49.17426" lon="1.26986">
        <ele>116.9</ele>
        <time>2017-05-14T09:07:46Z</time>
      </trkpt>
      <trkpt lat="49.17417" lon="1.26997">
        <ele>115.7</ele>
        <time>2017-05-14T09:07:48Z</time>
      </trkpt>
      <trkpt lat="49.1741" lon="1.27011">
        <ele>114.4</ele>
        <time>2017-05-14T09:07:50Z</time>
      </trkpt>
      <trkpt lat="49.17404" lon="1.27027">
        <ele>113.8</ele>
        <time>2017-05-14T09:07:52Z</time>
      </trkpt>
      <trkpt lat="49.17398" lon="1.27042">
        <ele>113.1</ele>
        <time>2017-05-14T09:07:54Z</time>
      </trkpt>
      <trkpt lat="49.17392" lon="1.27058">
        <ele>112.6</ele>
        <time>2017-05-14T09:07:56Z</time>
      </trkpt>
      <trkpt lat="49.17385" lon="1.27074">
        <ele>112.2</ele>
        <time>2017-05-14T09:07:58Z</time>
      </trkpt>
      <trkpt lat="49.17379" lon="1.2709">
        <ele>111.8</ele>
        <time>2017-05-14T09:08:00Z</time>
      </trkpt>
      <trkpt lat="49.17372" lon="1.27106">
        <ele>111.5</ele>
        <time>2017-05-14T09:08:02Z</time>
      </trkpt>
      <trkpt lat="49.17365" lon="1.27123">
        <ele>111</ele>
        <time>2017-05-14T09:08:04Z</time>
      </trkpt>
      <trkpt lat="49.17357" lon="1.2714">
        <ele>110.6</ele>
        <time>2017-05-14T09:08:06Z</time>
      </trkpt>
      <trkpt lat="49.1735" lon="1.27158">
        <ele>110.1</ele>
        <time>2017-05-14T09:08:08Z</time>
      </trkpt>
      <trkpt lat="49.17343" lon="1.27176">
        <ele>109.7</ele>
        <time>2017-05-14T09:08:10Z</time>
      </trkpt>
      <trkpt lat="49.17334" lon="1.27193">
        <ele>109.4</ele>
        <time>2017-05-14T09:08:12Z</time>
      </trkpt>
      <trkpt lat="49.17325" lon="1.2721">
        <ele>109.1</ele>
        <time>2017-05-14T09:08:14Z</time>
      </trkpt>
      <trkpt lat="49.17315" lon="1.27225">
        <ele>108.8</ele>
        <time>2017-05-14T09:08:16Z</time>
      </trkpt>
      <trkpt lat="49.17305" lon="1.27239">
        <ele>108.6</ele>
        <time>2017-05-14T09:08:18Z</time>
      </trkpt>
      <trkpt lat="49.17298" lon="1.27256">
        <ele>108.3</ele>
        <time>2017-05-14T09:08:20Z</time>
      </trkpt>
      <trkpt lat="49.17294" lon="1.27276">
        <ele>107.7</ele>
        <time>2017-05-14T09:08:22Z</time>
      </trkpt>
      <trkpt lat="49.17296" lon="1.27295">
        <ele>107</ele>
        <time>2017-05-14T09:08:24Z</time>
      </trkpt>
      <trkpt lat="49.17301" lon="1.27312">
        <ele>106.7</ele>
        <time>2017-05-14T09:08:26Z</time>
      </trkpt>
      <trkpt lat="49.17308" lon="1.27324">
        <ele>106.7</ele>
        <time>2017-05-14T09:08:28Z</time>
      </trkpt>
      <trkpt lat="49.17312" lon="1.27341">
        <ele>106.3</ele>
        <time>2017-05-14T09:08:31Z</time>
      </trkpt>
      <trkpt lat="49.17314" lon="1.27356">
        <ele>106</ele>
        <time>2017-05-14T09:08:33Z</time>
      </trkpt>
      <trkpt lat="49.17317" lon="1.27372">
        <ele>105.6</ele>
        <time>2017-05-14T09:08:35Z</time>
      </trkpt>
      <trkpt lat="49.1732" lon="1.27388">
        <ele>105.3</ele>
        <time>2017-05-14T09:08:37Z</time>
      </trkpt>
      <trkpt lat="49.17324" lon="1.27404">
        <ele>105</ele>
        <time>2017-05-14T09:08:39Z</time>
      </trkpt>
      <trkpt lat="49.17327" lon="1.27421">
        <ele>104.4</ele>
        <time>2017-05-14T09:08:41Z</time>
      </trkpt>
      <trkpt lat="49.17329" lon="1.27438">
        <ele>104.2</ele>
        <time>2017-05-14T09:08:43Z</time>
      </trkpt>
      <trkpt lat="49.17332" lon="1.27455">
        <ele>104.1</ele>
        <time>2017-05-14T09:08:45Z</time>
      </trkpt>
      <trkpt lat="49.17333" lon="1.27472">
        <ele>103.8</ele>
        <time>2017-05-14T09:08:47Z</time>
      </trkpt>
      <trkpt lat="49.17334" lon="1.27491">
        <ele>103.4</ele>
        <time>2017-05-14T09:08:50Z</time>
      </trkpt>
      <trkpt lat="49.17336" lon="1.27505">
        <ele>103.3</ele>
        <time>2017-05-14T09:08:52Z</time>
      </trkpt>
      <trkpt lat="49.17338" lon="1.27519">
        <ele>103.3</ele>
        <time>2017-05-14T09:08:54Z</time>
      </trkpt>
      <trkpt lat="49.17339" lon="1.27534">
        <ele>103.3</ele>
        <time>2017-05-14T09:08:56Z</time>
      </trkpt>
      <trkpt lat="49.17339" lon="1.2755">
        <ele>103.3</ele>
        <time>2017-05-14T09:08:58Z</time>
      </trkpt>
      <trkpt lat="49.17341" lon="1.27566">
        <ele>102.7</ele>
        <time>2017-05-14T09:09:00Z</time>
      </trkpt>
      <trkpt lat="49.17342" lon="1.27581">
        <ele>102.7</ele>
        <time>2017-05-14T09:09:02Z</time>
      </trkpt>
      <trkpt lat="49.17343" lon="1.27596">
        <ele>102.3</ele>
        <time>2017-05-14T09:09:04Z</time>
      </trkpt>
      <trkpt lat="49.17344" lon="1.2761">
        <ele>102</ele>
        <time>2017-05-14T09:09:06Z</time>
      </trkpt>
      <trkpt lat="49.17344" lon="1.27625">
        <ele>102</ele>
        <time>2017-05-14T09:09:08Z</time>
      </trkpt>
      <trkpt lat="49.17343" lon="1.2764">
        <ele>102</ele>
        <time>2017-05-14T09:09:10Z</time>
      </trkpt>
      <trkpt lat="49.17342" lon="1.27656">
        <ele>101.8</ele>
        <time>2017-05-14T09:09:12Z</time>
      </trkpt>
      <trkpt lat="49.17341" lon="1.27671">
        <ele>101.7</ele>
        <time>2017-05-14T09:09:14Z</time>
      </trkpt>
      <trkpt lat="49.1734" lon="1.27685">
        <ele>101.6</ele>
        <time>2017-05-14T09:09:16Z</time>
      </trkpt>
      <trkpt lat="49.17338" lon="1.277">
        <ele>101.6</ele>
        <time>2017-05-14T09:09:18Z</time>
      </trkpt>
      <trkpt lat="49.17336" lon="1.27715">
        <ele>101.6</ele>
        <time>2017-05-14T09:09:20Z</time>
      </trkpt>
      <trkpt lat="49.17334" lon="1.2773">
        <ele>101.6</ele>
        <time>2017-05-14T09:09:22Z</time>
      </trkpt>
      <trkpt lat="49.17333" lon="1.27745">
        <ele>101.6</ele>
        <time>2017-05-14T09:09:24Z</time>
      </trkpt>
      <trkpt lat="49.17332" lon="1.2776">
        <ele>101.5</ele>
        <time>2017-05-14T09:09:26Z</time>
      </trkpt>
      <trkpt lat="49.1733" lon="1.27774">
        <ele>101.4</ele>
        <time>2017-05-14T09:09:28Z</time>
      </trkpt>
      <trkpt lat="49.1733" lon="1.27788">
        <ele>101.2</ele>
        <time>2017-05-14T09:09:30Z</time>
      </trkpt>
      <trkpt lat="49.17329" lon="1.27803">
        <ele>101.1</ele>
        <time>2017-05-14T09:09:32Z</time>
      </trkpt>
      <trkpt lat="49.17331" lon="1.27817">
        <ele>100.5</ele>
        <time>2017-05-14T09:09:34Z</time>
      </trkpt>
      <trkpt lat="49.17333" lon="1.27831">
        <ele>100.3</ele>
        <time>2017-05-14T09:09:36Z</time>
      </trkpt>
      <trkpt lat="49.17336" lon="1.27844">
        <ele>100.4</ele>
        <time>2017-05-14T09:09:38Z</time>
      </trkpt>
      <trkpt lat="49.17341" lon="1.27863">
        <ele>100.3</ele>
        <time>2017-05-14T09:09:41Z</time>
      </trkpt>
      <trkpt lat="49.17348" lon="1.27879">
        <ele>100.1</ele>
        <time>2017-05-14T09:09:44Z</time>
      </trkpt>
      <trkpt lat="49.17355" lon="1.27895">
        <ele>99.9</ele>
        <time>2017-05-14T09:09:47Z</time>
      </trkpt>
      <trkpt lat="49.17364" lon="1.27909">
        <ele>99.7</ele>
        <time>2017-05-14T09:09:50Z</time>
      </trkpt>
      <trkpt lat="49.17373" lon="1.2792">
        <ele>99.5</ele>
        <time>2017-05-14T09:09:53Z</time>
      </trkpt>
      <trkpt lat="49.17378" lon="1.27932">
        <ele>99.3</ele>
        <time>2017-05-14T09:09:56Z</time>
      </trkpt>
      <trkpt lat="49.1738" lon="1.27948">
        <ele>98.7</ele>
        <time>2017-05-14T09:10:02Z</time>
      </trkpt>
      <trkpt lat="49.17386" lon="1.27959">
        <ele>97.6</ele>
        <time>2017-05-14T09:10:11Z</time>
      </trkpt>
      <trkpt lat="49.17391" lon="1.27973">
        <ele>97.4</ele>
        <time>2017-05-14T09:10:16Z</time>
      </trkpt>
      <trkpt lat="49.17402" lon="1.27977">
        <ele>96.8</ele>
        <time>2017-05-14T09:10:19Z</time>
      </trkpt>
      <trkpt lat="49.1741" lon="1.27984">
        <ele>95.9</ele>
        <time>2017-05-14T09:10:22Z</time>
      </trkpt>
      <trkpt lat="49.17418" lon="1.27991">
        <ele>95</ele>
        <time>2017-05-14T09:10:28Z</time>
      </trkpt>
      <trkpt lat="49.17427" lon="1.27996">
        <ele>94.9</ele>
        <time>2017-05-14T09:10:33Z</time>
      </trkpt>
      <trkpt lat="49.17436" lon="1.27999">
        <ele>97.9</ele>
        <time>2017-05-14T09:10:57Z</time>
      </trkpt>
      <trkpt lat="49.17444" lon="1.28008">
        <ele>98.1</ele>
        <time>2017-05-14T09:11:21Z</time>
      </trkpt>
      <trkpt lat="49.17451" lon="1.28017">
        <ele>98</ele>
        <time>2017-05-14T09:11:25Z</time>
      </trkpt>
      <trkpt lat="49.17458" lon="1.28029">
        <ele>98.2</ele>
        <time>2017-05-14T09:11:31Z</time>
      </trkpt>
      <trkpt lat="49.17467" lon="1.28042">
        <ele>97.8</ele>
        <time>2017-05-14T09:11:36Z</time>
      </trkpt>
      <trkpt lat="49.1748" lon="1.28053">
        <ele>96.7</ele>
        <time>2017-05-14T09:11:40Z</time>
      </trkpt>
      <trkpt lat="49.17493" lon="1.28063">
        <ele>96.5</ele>
        <time>2017-05-14T09:11:43Z</time>
      </trkpt>
      <trkpt lat="49.17506" lon="1.28074">
        <ele>96.5</ele>
        <time>2017-05-14T09:11:45Z</time>
      </trkpt>
      <trkpt lat="49.17515" lon="1.28086">
        <ele>96.3</ele>
        <time>2017-05-14T09:11:48Z</time>
      </trkpt>
      <trkpt lat="49.17522" lon="1.28098">
        <ele>96.3</ele>
        <time>2017-05-14T09:11:51Z</time>
      </trkpt>
      <trkpt lat="49.17532" lon="1.28111">
        <ele>96.3</ele>
        <time>2017-05-14T09:11:54Z</time>
      </trkpt>
      <trkpt lat="49.1754" lon="1.2812">
        <ele>96.2</ele>
        <time>2017-05-14T09:11:57Z</time>
      </trkpt>
      <trkpt lat="49.17552" lon="1.28128">
        <ele>96.2</ele>
        <time>2017-05-14T09:12:00Z</time>
      </trkpt>
      <trkpt lat="49.17563" lon="1.28137">
        <ele>96.3</ele>
        <time>2017-05-14T09:12:03Z</time>
      </trkpt>
      <trkpt lat="49.17569" lon="1.28149">
        <ele>96.2</ele>
        <time>2017-05-14T09:12:05Z</time>
      </trkpt>
      <trkpt lat="49.17578" lon="1.28168">
        <ele>96</ele>
        <time>2017-05-14T09:12:08Z</time>
      </trkpt>
      <trkpt lat="49.17589" lon="1.28182">
        <ele>95.5</ele>
        <time>2017-05-14T09:12:10Z</time>
      </trkpt>
      <trkpt lat="49.17596" lon="1.28199">
        <ele>94.9</ele>
        <time>2017-05-14T09:12:13Z</time>
      </trkpt>
      <trkpt lat="49.17606" lon="1.28213">
        <ele>94.9</ele>
        <time>2017-05-14T09:12:16Z</time>
      </trkpt>
      <trkpt lat="49.1761" lon="1.28226">
        <ele>94.6</ele>
        <time>2017-05-14T09:12:18Z</time>
      </trkpt>
      <trkpt lat="49.17617" lon="1.28242">
        <ele>94.5</ele>
        <time>2017-05-14T09:12:20Z</time>
      </trkpt>
      <trkpt lat="49.17624" lon="1.28258">
        <ele>94</ele>
        <time>2017-05-14T09:12:22Z</time>
      </trkpt>
      <trkpt lat="49.1763" lon="1.28278">
        <ele>94</ele>
        <time>2017-05-14T09:12:25Z</time>
      </trkpt>
      <trkpt lat="49.17639" lon="1.28295">
        <ele>93.8</ele>
        <time>2017-05-14T09:12:27Z</time>
      </trkpt>
      <trkpt lat="49.1764" lon="1.28309">
        <ele>93.6</ele>
        <time>2017-05-14T09:12:29Z</time>
      </trkpt>
      <trkpt lat="49.17639" lon="1.28322">
        <ele>92.7</ele>
        <time>2017-05-14T09:12:40Z</time>
      </trkpt>
      <trkpt lat="49.17634" lon="1.28335">
        <ele>89.7</ele>
        <time>2017-05-14T09:12:55Z</time>
      </trkpt>
      <trkpt lat="49.17637" lon="1.28349">
        <ele>89.3</ele>
        <time>2017-05-14T09:13:07Z</time>
      </trkpt>
      <trkpt lat="49.17637" lon="1.28365">
        <ele>88.9</ele>
        <time>2017-05-14T09:13:12Z</time>
      </trkpt>
      <trkpt lat="49.1764" lon="1.28378">
        <ele>88.5</ele>
        <time>2017-05-14T09:13:17Z</time>
      </trkpt>
      <trkpt lat="49.17643" lon="1.28393">
        <ele>88.6</ele>
        <time>2017-05-14T09:13:26Z</time>
      </trkpt>
      <trkpt lat="49.17639" lon="1.28406">
        <ele>88.3</ele>
        <time>2017-05-14T09:13:38Z</time>
      </trkpt>
      <trkpt lat="49.1764" lon="1.28423">
        <ele>88</ele>
        <time>2017-05-14T09:13:45Z</time>
      </trkpt>
      <trkpt lat="49.17639" lon="1.28438">
        <ele>87.9</ele>
        <time>2017-05-14T09:13:48Z</time>
      </trkpt>
      <trkpt lat="49.1764" lon="1.28453">
        <ele>87.7</ele>
        <time>2017-05-14T09:13:52Z</time>
      </trkpt>
      <trkpt lat="49.17644" lon="1.28471">
        <ele>87.6</ele>
        <time>2017-05-14T09:13:55Z</time>
      </trkpt>
      <trkpt lat="49.17645" lon="1.28485">
        <ele>87.5</ele>
        <time>2017-05-14T09:13:57Z</time>
      </trkpt>
      <trkpt lat="49.17649" lon="1.28501">
        <ele>87.4</ele>
        <time>2017-05-14T09:14:01Z</time>
      </trkpt>
      <trkpt lat="49.17651" lon="1.28515">
        <ele>87.1</ele>
        <time>2017-05-14T09:14:05Z</time>
      </trkpt>
      <trkpt lat="49.17652" lon="1.28531">
        <ele>87</ele>
        <time>2017-05-14T09:14:10Z</time>
      </trkpt>
      <trkpt lat="49.17655" lon="1.28545">
        <ele>86.6</ele>
        <time>2017-05-14T09:14:24Z</time>
      </trkpt>
      <trkpt lat="49.17659" lon="1.28559">
        <ele>86.3</ele>
        <time>2017-05-14T09:14:35Z</time>
      </trkpt>
      <trkpt lat="49.17662" lon="1.28575">
        <ele>86.2</ele>
        <time>2017-05-14T09:14:42Z</time>
      </trkpt>
      <trkpt lat="49.17667" lon="1.28587">
        <ele>86.3</ele>
        <time>2017-05-14T09:14:47Z</time>
      </trkpt>
      <trkpt lat="49.17671" lon="1.28599">
        <ele>86.4</ele>
        <time>2017-05-14T09:14:56Z</time>
      </trkpt>
      <trkpt lat="49.17679" lon="1.28608">
        <ele>86.3</ele>
        <time>2017-05-14T09:15:05Z</time>
      </trkpt>
      <trkpt lat="49.17686" lon="1.28623">
        <ele>86.4</ele>
        <time>2017-05-14T09:15:10Z</time>
      </trkpt>
      <trkpt lat="49.17691" lon="1.28635">
        <ele>86.4</ele>
        <time>2017-05-14T09:15:13Z</time>
      </trkpt>
      <trkpt lat="49.17698" lon="1.28649">
        <ele>86.3</ele>
        <time>2017-05-14T09:15:17Z</time>
      </trkpt>
      <trkpt lat="49.17704" lon="1.28659">
        <ele>86.2</ele>
        <time>2017-05-14T09:15:21Z</time>
      </trkpt>
      <trkpt lat="49.17711" lon="1.28669">
        <ele>85.9</ele>
        <time>2017-05-14T09:15:26Z</time>
      </trkpt>
      <trkpt lat="49.17717" lon="1.2868">
        <ele>85.5</ele>
        <time>2017-05-14T09:15:34Z</time>
      </trkpt>
      <trkpt lat="49.17723" lon="1.28691">
        <ele>85.4</ele>
        <time>2017-05-14T09:15:45Z</time>
      </trkpt>
      <trkpt lat="49.1773" lon="1.287">
        <ele>85.1</ele>
        <time>2017-05-14T09:16:06Z</time>
      </trkpt>
      <trkpt lat="49.17737" lon="1.28712">
        <ele>85</ele>
        <time>2017-05-14T09:16:13Z</time>
      </trkpt>
      <trkpt lat="49.17744" lon="1.28721">
        <ele>85.2</ele>
        <time>2017-05-14T09:16:23Z</time>
      </trkpt>
      <trkpt lat="49.1775" lon="1.28733">
        <ele>84.6</ele>
        <time>2017-05-14T09:16:38Z</time>
      </trkpt>
      <trkpt lat="49.17755" lon="1.28744">
        <ele>84.2</ele>
        <time>2017-05-14T09:16:49Z</time>
      </trkpt>
      <trkpt lat="49.17762" lon="1.28755">
        <ele>84.1</ele>
        <time>2017-05-14T09:16:53Z</time>
      </trkpt>
      <trkpt lat="49.1777" lon="1.28763">
        <ele>84</ele>
        <time>2017-05-14T09:16:57Z</time>
      </trkpt>
      <trkpt lat="49.17777" lon="1.28771">
        <ele>84</ele>
        <time>2017-05-14T09:17:00Z</time>
      </trkpt>
      <trkpt lat="49.17785" lon="1.28785">
        <ele>83.9</ele>
        <time>2017-05-14T09:17:04Z</time>
      </trkpt>
      <trkpt lat="49.17794" lon="1.28793">
        <ele>83.7</ele>
        <time>2017-05-14T09:17:10Z</time>
      </trkpt>
      <trkpt lat="49.17803" lon="1.28801">
        <ele>83.7</ele>
        <time>2017-05-14T09:17:14Z</time>
      </trkpt>
      <trkpt lat="49.17809" lon="1.28812">
        <ele>83.5</ele>
        <time>2017-05-14T09:17:18Z</time>
      </trkpt>
      <trkpt lat="49.17816" lon="1.28821">
        <ele>83.5</ele>
        <time>2017-05-14T09:17:21Z</time>
      </trkpt>
      <trkpt lat="49.1782" lon="1.28835">
        <ele>83.3</ele>
        <time>2017-05-14T09:17:25Z</time>
      </trkpt>
      <trkpt lat="49.17826" lon="1.2885">
        <ele>83.2</ele>
        <time>2017-05-14T09:17:28Z</time>
      </trkpt>
      <trkpt lat="49.17827" lon="1.28865">
        <ele>83</ele>
        <time>2017-05-14T09:17:32Z</time>
      </trkpt>
      <trkpt lat="49.17829" lon="1.28879">
        <ele>82.8</ele>
        <time>2017-05-14T09:17:35Z</time>
      </trkpt>
      <trkpt lat="49.17834" lon="1.28893">
        <ele>82.5</ele>
        <time>2017-05-14T09:17:39Z</time>
      </trkpt>
      <trkpt lat="49.17841" lon="1.28908">
        <ele>82.6</ele>
        <time>2017-05-14T09:17:42Z</time>
      </trkpt>
      <trkpt lat="49.17847" lon="1.28922">
        <ele>82.7</ele>
        <time>2017-05-14T09:17:46Z</time>
      </trkpt>
      <trkpt lat="49.17851" lon="1.28937">
        <ele>82.4</ele>
        <time>2017-05-14T09:17:50Z</time>
      </trkpt>
      <trkpt lat="49.17851" lon="1.28954">
        <ele>82.2</ele>
        <time>2017-05-14T09:17:55Z</time>
      </trkpt>
      <trkpt lat="49.17852" lon="1.28971">
        <ele>82</ele>
        <time>2017-05-14T09:18:00Z</time>
      </trkpt>
      <trkpt lat="49.17855" lon="1.28986">
        <ele>81.9</ele>
        <time>2017-05-14T09:18:03Z</time>
      </trkpt>
      <trkpt lat="49.17858" lon="1.29004">
        <ele>81.8</ele>
        <time>2017-05-14T09:18:06Z</time>
      </trkpt>
      <trkpt lat="49.17861" lon="1.29018">
        <ele>81.7</ele>
        <time>2017-05-14T09:18:10Z</time>
      </trkpt>
      <trkpt lat="49.1786" lon="1.29032">
        <ele>81.7</ele>
        <time>2017-05-14T09:18:14Z</time>
      </trkpt>
      <trkpt lat="49.17859" lon="1.29047">
        <ele>81.3</ele>
        <time>2017-05-14T09:18:20Z</time>
      </trkpt>
      <trkpt lat="49.17859" lon="1.29062">
        <ele>80.9</ele>
        <time>2017-05-14T09:18:26Z</time>
      </trkpt>
      <trkpt lat="49.17861" lon="1.29077">
        <ele>80.7</ele>
        <time>2017-05-14T09:18:30Z</time>
      </trkpt>
      <trkpt lat="49.17863" lon="1.29096">
        <ele>80.8</ele>
        <time>2017-05-14T09:18:34Z</time>
      </trkpt>
      <trkpt lat="49.17864" lon="1.29111">
        <ele>80.7</ele>
        <time>2017-05-14T09:18:38Z</time>
      </trkpt>
      <trkpt lat="49.17866" lon="1.29126">
        <ele>80.4</ele>
        <time>2017-05-14T09:18:44Z</time>
      </trkpt>
      <trkpt lat="49.17871" lon="1.2914">
        <ele>80.2</ele>
        <time>2017-05-14T09:18:48Z</time>
      </trkpt>
      <trkpt lat="49.17872" lon="1.29155">
        <ele>80.3</ele>
        <time>2017-05-14T09:18:55Z</time>
      </trkpt>
      <trkpt lat="49.17871" lon="1.29174">
        <ele>80.2</ele>
        <time>2017-05-14T09:19:03Z</time>
      </trkpt>
      <trkpt lat="49.17872" lon="1.29188">
        <ele>80.1</ele>
        <time>2017-05-14T09:19:07Z</time>
      </trkpt>
      <trkpt lat="49.17876" lon="1.29201">
        <ele>79.6</ele>
        <time>2017-05-14T09:19:13Z</time>
      </trkpt>
      <trkpt lat="49.1788" lon="1.29216">
        <ele>79.5</ele>
        <time>2017-05-14T09:19:19Z</time>
      </trkpt>
      <trkpt lat="49.17883" lon="1.2923">
        <ele>79.4</ele>
        <time>2017-05-14T09:19:23Z</time>
      </trkpt>
      <trkpt lat="49.17886" lon="1.29244">
        <ele>79.4</ele>
        <time>2017-05-14T09:19:26Z</time>
      </trkpt>
      <trkpt lat="49.17891" lon="1.29258">
        <ele>79.4</ele>
        <time>2017-05-14T09:19:29Z</time>
      </trkpt>
      <trkpt lat="49.17895" lon="1.2927">
        <ele>79.3</ele>
        <time>2017-05-14T09:19:32Z</time>
      </trkpt>
      <trkpt lat="49.17894" lon="1.29285">
        <ele>79.4</ele>
        <time>2017-05-14T09:19:36Z</time>
      </trkpt>
      <trkpt lat="49.17892" lon="1.29301">
        <ele>79.2</ele>
        <time>2017-05-14T09:19:40Z</time>
      </trkpt>
      <trkpt lat="49.17896" lon="1.29317">
        <ele>79.1</ele>
        <time>2017-05-14T09:19:43Z</time>
      </trkpt>
      <trkpt lat="49.17897" lon="1.29334">
        <ele>79.1</ele>
        <time>2017-05-14T09:19:46Z</time>
      </trkpt>
      <trkpt lat="49.17899" lon="1.2935">
        <ele>78.9</ele>
        <time>2017-05-14T09:19:49Z</time>
      </trkpt>
      <trkpt lat="49.17902" lon="1.29364">
        <ele>78.8</ele>
        <time>2017-05-14T09:19:52Z</time>
      </trkpt>
      <trkpt lat="49.17906" lon="1.29379">
        <ele>78.6</ele>
        <time>2017-05-14T09:19:55Z</time>
      </trkpt>
      <trkpt lat="49.17909" lon="1.29396">
        <ele>78.6</ele>
        <time>2017-05-14T09:19:59Z</time>
      </trkpt>
      <trkpt lat="49.17914" lon="1.29412">
        <ele>78.6</ele>
        <time>2017-05-14T09:20:03Z</time>
      </trkpt>
      <trkpt lat="49.17915" lon="1.29429">
        <ele>78.7</ele>
        <time>2017-05-14T09:20:07Z</time>
      </trkpt>
      <trkpt lat="49.17913" lon="1.29443">
        <ele>78.8</ele>
        <time>2017-05-14T09:20:12Z</time>
      </trkpt>
      <trkpt lat="49.17908" lon="1.29454">
        <ele>79.1</ele>
        <time>2017-05-14T09:20:17Z</time>
      </trkpt>
      <trkpt lat="49.17902" lon="1.29468">
        <ele>79.5</ele>
        <time>2017-05-14T09:20:22Z</time>
      </trkpt>
      <trkpt lat="49.17903" lon="1.29484">
        <ele>79.5</ele>
        <time>2017-05-14T09:20:27Z</time>
      </trkpt>
      <trkpt lat="49.17913" lon="1.29489">
        <ele>79.5</ele>
        <time>2017-05-14T09:20:31Z</time>
      </trkpt>
      <trkpt lat="49.17923" lon="1.2949">
        <ele>79.5</ele>
        <time>2017-05-14T09:20:35Z</time>
      </trkpt>
      <trkpt lat="49.17933" lon="1.29491">
        <ele>80.2</ele>
        <time>2017-05-14T09:20:39Z</time>
      </trkpt>
      <trkpt lat="49.17943" lon="1.2949">
        <ele>81.3</ele>
        <time>2017-05-14T09:20:44Z</time>
      </trkpt>
      <trkpt lat="49.17952" lon="1.29491">
        <ele>83.2</ele>
        <time>2017-05-14T09:20:50Z</time>
      </trkpt>
      <trkpt lat="49.17961" lon="1.29492">
        <ele>85.8</ele>
        <time>2017-05-14T09:20:57Z</time>
      </trkpt>
      <trkpt lat="49.1797" lon="1.29493">
        <ele>88</ele>
        <time>2017-05-14T09:21:04Z</time>
      </trkpt>
      <trkpt lat="49.1798" lon="1.29493">
        <ele>90.4</ele>
        <time>2017-05-14T09:21:11Z</time>
      </trkpt>
      <trkpt lat="49.1799" lon="1.29493">
        <ele>92.7</ele>
        <time>2017-05-14T09:21:18Z</time>
      </trkpt>
      <trkpt lat="49.17999" lon="1.29495">
        <ele>94.5</ele>
        <time>2017-05-14T09:21:24Z</time>
      </trkpt>
      <trkpt lat="49.18009" lon="1.29496">
        <ele>96.7</ele>
        <time>2017-05-14T09:21:31Z</time>
      </trkpt>
      <trkpt lat="49.18018" lon="1.29496">
        <ele>98.2</ele>
        <time>2017-05-14T09:21:37Z</time>
      </trkpt>
      <trkpt lat="49.18024" lon="1.29508">
        <ele>99.1</ele>
        <time>2017-05-14T09:21:43Z</time>
      </trkpt>
      <trkpt lat="49.18028" lon="1.29521">
        <ele>99.6</ele>
        <time>2017-05-14T09:21:55Z</time>
      </trkpt>
      <trkpt lat="49.18037" lon="1.29523">
        <ele>99.7</ele>
        <time>2017-05-14T09:22:35Z</time>
      </trkpt>
      <trkpt lat="49.18033" lon="1.29509">
        <ele>100</ele>
        <time>2017-05-14T09:23:17Z</time>
      </trkpt>
      <trkpt lat="49.18031" lon="1.29524">
        <ele>100</ele>
        <time>2017-05-14T09:23:35Z</time>
      </trkpt>
      <trkpt lat="49.18031" lon="1.29539">
        <ele>99.8</ele>
        <time>2017-05-14T09:23:40Z</time>
      </trkpt>
      <trkpt lat="49.1803" lon="1.29557">
        <ele>99.7</ele>
        <time>2017-05-14T09:23:44Z</time>
      </trkpt>
      <trkpt lat="49.18032" lon="1.29574">
        <ele>99.5</ele>
        <time>2017-05-14T09:23:47Z</time>
      </trkpt>
      <trkpt lat="49.18033" lon="1.29593">
        <ele>99</ele>
        <time>2017-05-14T09:23:50Z</time>
      </trkpt>
      <trkpt lat="49.18037" lon="1.29611">
        <ele>98.4</ele>
        <time>2017-05-14T09:23:53Z</time>
      </trkpt>
      <trkpt lat="49.18038" lon="1.29626">
        <ele>97.9</ele>
        <time>2017-05-14T09:23:55Z</time>
      </trkpt>
      <trkpt lat="49.1804" lon="1.29643">
        <ele>97.5</ele>
        <time>2017-05-14T09:23:57Z</time>
      </trkpt>
      <trkpt lat="49.18042" lon="1.29658">
        <ele>96.8</ele>
        <time>2017-05-14T09:23:59Z</time>
      </trkpt>
      <trkpt lat="49.18044" lon="1.29673">
        <ele>96.2</ele>
        <time>2017-05-14T09:24:01Z</time>
      </trkpt>
      <trkpt lat="49.18046" lon="1.29694">
        <ele>95.2</ele>
        <time>2017-05-14T09:24:04Z</time>
      </trkpt>
      <trkpt lat="49.1805" lon="1.29709">
        <ele>94.8</ele>
        <time>2017-05-14T09:24:07Z</time>
      </trkpt>
      <trkpt lat="49.18058" lon="1.29721">
        <ele>94.4</ele>
        <time>2017-05-14T09:24:10Z</time>
      </trkpt>
      <trkpt lat="49.18064" lon="1.29731">
        <ele>94.5</ele>
        <time>2017-05-14T09:24:12Z</time>
      </trkpt>
      <trkpt lat="49.18071" lon="1.29743">
        <ele>94.5</ele>
        <time>2017-05-14T09:24:14Z</time>
      </trkpt>
      <trkpt lat="49.18079" lon="1.29753">
        <ele>94.5</ele>
        <time>2017-05-14T09:24:16Z</time>
      </trkpt>
      <trkpt lat="49.18085" lon="1.29763">
        <ele>94.8</ele>
        <time>2017-05-14T09:24:18Z</time>
      </trkpt>
      <trkpt lat="49.18091" lon="1.29773">
        <ele>95</ele>
        <time>2017-05-14T09:24:20Z</time>
      </trkpt>
      <trkpt lat="49.18101" lon="1.29787">
        <ele>95</ele>
        <time>2017-05-14T09:24:23Z</time>
      </trkpt>
      <trkpt lat="49.18108" lon="1.29797">
        <ele>94.9</ele>
        <time>2017-05-14T09:24:25Z</time>
      </trkpt>
      <trkpt lat="49.18115" lon="1.29807">
        <ele>95</ele>
        <time>2017-05-14T09:24:27Z</time>
      </trkpt>
      <trkpt lat="49.18122" lon="1.29824">
        <ele>95</ele>
        <time>2017-05-14T09:24:29Z</time>
      </trkpt>
      <trkpt lat="49.18127" lon="1.29842">
        <ele>94.7</ele>
        <time>2017-05-14T09:24:31Z</time>
      </trkpt>
      <trkpt lat="49.18136" lon="1.29854">
        <ele>94.4</ele>
        <time>2017-05-14T09:24:34Z</time>
      </trkpt>
      <trkpt lat="49.18144" lon="1.29866">
        <ele>94.3</ele>
        <time>2017-05-14T09:24:37Z</time>
      </trkpt>
      <trkpt lat="49.1815" lon="1.29876">
        <ele>94.4</ele>
        <time>2017-05-14T09:24:39Z</time>
      </trkpt>
      <trkpt lat="49.18158" lon="1.29887">
        <ele>94.6</ele>
        <time>2017-05-14T09:24:41Z</time>
      </trkpt>
      <trkpt lat="49.18165" lon="1.29897">
        <ele>94.8</ele>
        <time>2017-05-14T09:24:43Z</time>
      </trkpt>
      <trkpt lat="49.18173" lon="1.29906">
        <ele>94.9</ele>
        <time>2017-05-14T09:24:45Z</time>
      </trkpt>
      <trkpt lat="49.1818" lon="1.29916">
        <ele>95</ele>
        <time>2017-05-14T09:24:47Z</time>
      </trkpt>
      <trkpt lat="49.18187" lon="1.29926">
        <ele>95.2</ele>
        <time>2017-05-14T09:24:49Z</time>
      </trkpt>
      <trkpt lat="49.18195" lon="1.29936">
        <ele>95.2</ele>
        <time>2017-05-14T09:24:51Z</time>
      </trkpt>
      <trkpt lat="49.18202" lon="1.29946">
        <ele>95.2</ele>
        <time>2017-05-14T09:24:53Z</time>
      </trkpt>
      <trkpt lat="49.1821" lon="1.29956">
        <ele>95</ele>
        <time>2017-05-14T09:24:55Z</time>
      </trkpt>
      <trkpt lat="49.18218" lon="1.29965">
        <ele>95.2</ele>
        <time>2017-05-14T09:24:58Z</time>
      </trkpt>
      <trkpt lat="49.18228" lon="1.29973">
        <ele>95.2</ele>
        <time>2017-05-14T09:25:00Z</time>
      </trkpt>
      <trkpt lat="49.18237" lon="1.29982">
        <ele>95</ele>
        <time>2017-05-14T09:25:02Z</time>
      </trkpt>
      <trkpt lat="49.18247" lon="1.29991">
        <ele>95.1</ele>
        <time>2017-05-14T09:25:04Z</time>
      </trkpt>
      <trkpt lat="49.18257" lon="1.3">
        <ele>95.1</ele>
        <time>2017-05-14T09:25:06Z</time>
      </trkpt>
      <trkpt lat="49.18266" lon="1.30009">
        <ele>94.9</ele>
        <time>2017-05-14T09:25:08Z</time>
      </trkpt>
      <trkpt lat="49.18276" lon="1.30019">
        <ele>94.5</ele>
        <time>2017-05-14T09:25:10Z</time>
      </trkpt>
      <trkpt lat="49.18286" lon="1.30028">
        <ele>94.4</ele>
        <time>2017-05-14T09:25:12Z</time>
      </trkpt>
      <trkpt lat="49.18296" lon="1.30038">
        <ele>94</ele>
        <time>2017-05-14T09:25:14Z</time>
      </trkpt>
      <trkpt lat="49.18306" lon="1.30047">
        <ele>93.6</ele>
        <time>2017-05-14T09:25:16Z</time>
      </trkpt>
      <trkpt lat="49.18315" lon="1.30056">
        <ele>93.3</ele>
        <time>2017-05-14T09:25:18Z</time>
      </trkpt>
      <trkpt lat="49.18323" lon="1.30064">
        <ele>93</ele>
        <time>2017-05-14T09:25:20Z</time>
      </trkpt>
      <trkpt lat="49.18333" lon="1.30071">
        <ele>92.7</ele>
        <time>2017-05-14T09:25:23Z</time>
      </trkpt>
      <trkpt lat="49.18343" lon="1.3007">
        <ele>92.7</ele>
        <time>2017-05-14T09:25:26Z</time>
      </trkpt>
      <trkpt lat="49.18353" lon="1.30062">
        <ele>93.5</ele>
        <time>2017-05-14T09:25:30Z</time>
      </trkpt>
      <trkpt lat="49.18358" lon="1.30049">
        <ele>94.6</ele>
        <time>2017-05-14T09:25:34Z</time>
      </trkpt>
      <trkpt lat="49.18363" lon="1.30034">
        <ele>95.7</ele>
        <time>2017-05-14T09:25:39Z</time>
      </trkpt>
      <trkpt lat="49.18368" lon="1.30023">
        <ele>96.7</ele>
        <time>2017-05-14T09:25:43Z</time>
      </trkpt>
      <trkpt lat="49.18373" lon="1.30009">
        <ele>97.8</ele>
        <time>2017-05-14T09:25:48Z</time>
      </trkpt>
      <trkpt lat="49.18378" lon="1.29997">
        <ele>98.8</ele>
        <time>2017-05-14T09:25:52Z</time>
      </trkpt>
      <trkpt lat="49.18383" lon="1.29985">
        <ele>99.8</ele>
        <time>2017-05-14T09:25:56Z</time>
      </trkpt>
      <trkpt lat="49.18387" lon="1.29973">
        <ele>100.7</ele>
        <time>2017-05-14T09:26:00Z</time>
      </trkpt>
      <trkpt lat="49.18393" lon="1.2996">
        <ele>101.9</ele>
        <time>2017-05-14T09:26:04Z</time>
      </trkpt>
      <trkpt lat="49.18397" lon="1.29947">
        <ele>102.8</ele>
        <time>2017-05-14T09:26:08Z</time>
      </trkpt>
      <trkpt lat="49.18403" lon="1.29932">
        <ele>103.9</ele>
        <time>2017-05-14T09:26:13Z</time>
      </trkpt>
      <trkpt lat="49.18409" lon="1.29919">
        <ele>105</ele>
        <time>2017-05-14T09:26:18Z</time>
      </trkpt>
      <trkpt lat="49.18413" lon="1.29903">
        <ele>106</ele>
        <time>2017-05-14T09:26:23Z</time>
      </trkpt>
      <trkpt lat="49.18419" lon="1.29892">
        <ele>106.9</ele>
        <time>2017-05-14T09:26:27Z</time>
      </trkpt>
      <trkpt lat="49.18424" lon="1.29879">
        <ele>107.7</ele>
        <time>2017-05-14T09:26:31Z</time>
      </trkpt>
      <trkpt lat="49.18428" lon="1.29864">
        <ele>108.8</ele>
        <time>2017-05-14T09:26:35Z</time>
      </trkpt>
      <trkpt lat="49.18432" lon="1.29849">
        <ele>109.5</ele>
        <time>2017-05-14T09:26:39Z</time>
      </trkpt>
      <trkpt lat="49.18437" lon="1.29834">
        <ele>110.2</ele>
        <time>2017-05-14T09:26:43Z</time>
      </trkpt>
      <trkpt lat="49.18441" lon="1.2982">
        <ele>111</ele>
        <time>2017-05-14T09:26:47Z</time>
      </trkpt>
      <trkpt lat="49.18446" lon="1.29806">
        <ele>112</ele>
        <time>2017-05-14T09:26:51Z</time>
      </trkpt>
      <trkpt lat="49.18452" lon="1.29792">
        <ele>112.8</ele>
        <time>2017-05-14T09:26:55Z</time>
      </trkpt>
      <trkpt lat="49.18458" lon="1.29778">
        <ele>113.5</ele>
        <time>2017-05-14T09:26:59Z</time>
      </trkpt>
      <trkpt lat="49.18463" lon="1.29762">
        <ele>114.2</ele>
        <time>2017-05-14T09:27:03Z</time>
      </trkpt>
      <trkpt lat="49.18466" lon="1.29747">
        <ele>115.1</ele>
        <time>2017-05-14T09:27:07Z</time>
      </trkpt>
      <trkpt lat="49.18473" lon="1.29733">
        <ele>115.7</ele>
        <time>2017-05-14T09:27:11Z</time>
      </trkpt>
      <trkpt lat="49.1848" lon="1.29721">
        <ele>116.3</ele>
        <time>2017-05-14T09:27:14Z</time>
      </trkpt>
      <trkpt lat="49.18488" lon="1.29709">
        <ele>116.7</ele>
        <time>2017-05-14T09:27:17Z</time>
      </trkpt>
      <trkpt lat="49.18496" lon="1.29697">
        <ele>116.8</ele>
        <time>2017-05-14T09:27:20Z</time>
      </trkpt>
      <trkpt lat="49.18506" lon="1.29685">
        <ele>117</ele>
        <time>2017-05-14T09:27:23Z</time>
      </trkpt>
      <trkpt lat="49.18515" lon="1.29674">
        <ele>116.9</ele>
        <time>2017-05-14T09:27:26Z</time>
      </trkpt>
      <trkpt lat="49.18525" lon="1.29664">
        <ele>117.1</ele>
        <time>2017-05-14T09:27:29Z</time>
      </trkpt>
      <trkpt lat="49.18536" lon="1.29653">
        <ele>117.1</ele>
        <time>2017-05-14T09:27:32Z</time>
      </trkpt>
      <trkpt lat="49.18544" lon="1.29646">
        <ele>117.1</ele>
        <time>2017-05-14T09:27:34Z</time>
      </trkpt>
      <trkpt lat="49.18553" lon="1.29639">
        <ele>116.8</ele>
        <time>2017-05-14T09:27:36Z</time>
      </trkpt>
      <trkpt lat="49.18563" lon="1.29632">
        <ele>116.5</ele>
        <time>2017-05-14T09:27:38Z</time>
      </trkpt>
      <trkpt lat="49.18573" lon="1.29626">
        <ele>116.2</ele>
        <time>2017-05-14T09:27:40Z</time>
      </trkpt>
      <trkpt lat="49.18585" lon="1.2962">
        <ele>115.8</ele>
        <time>2017-05-14T09:27:42Z</time>
      </trkpt>
      <trkpt lat="49.18597" lon="1.29616">
        <ele>115</ele>
        <time>2017-05-14T09:27:44Z</time>
      </trkpt>
      <trkpt lat="49.18609" lon="1.29613">
        <ele>114.3</ele>
        <time>2017-05-14T09:27:46Z</time>
      </trkpt>
      <trkpt lat="49.18622" lon="1.29609">
        <ele>113.5</ele>
        <time>2017-05-14T09:27:48Z</time>
      </trkpt>
      <trkpt lat="49.18636" lon="1.29608">
        <ele>112.5</ele>
        <time>2017-05-14T09:27:50Z</time>
      </trkpt>
      <trkpt lat="49.1865" lon="1.29608">
        <ele>111.2</ele>
        <time>2017-05-14T09:27:52Z</time>
      </trkpt>
      <trkpt lat="49.18663" lon="1.2961">
        <ele>110</ele>
        <time>2017-05-14T09:27:54Z</time>
      </trkpt>
      <trkpt lat="49.18678" lon="1.29615">
        <ele>108.7</ele>
        <time>2017-05-14T09:27:56Z</time>
      </trkpt>
      <trkpt lat="49.18691" lon="1.29619">
        <ele>107.5</ele>
        <time>2017-05-14T09:27:58Z</time>
      </trkpt>
      <trkpt lat="49.18705" lon="1.29623">
        <ele>106.2</ele>
        <time>2017-05-14T09:28:00Z</time>
      </trkpt>
      <trkpt lat="49.1872" lon="1.2963">
        <ele>105.3</ele>
        <time>2017-05-14T09:28:02Z</time>
      </trkpt>
      <trkpt lat="49.18736" lon="1.29636">
        <ele>104.4</ele>
        <time>2017-05-14T09:28:04Z</time>
      </trkpt>
      <trkpt lat="49.18752" lon="1.29642">
        <ele>103.2</ele>
        <time>2017-05-14T09:28:06Z</time>
      </trkpt>
      <trkpt lat="49.18768" lon="1.29647">
        <ele>102</ele>
        <time>2017-05-14T09:28:08Z</time>
      </trkpt>
      <trkpt lat="49.18777" lon="1.29651">
        <ele>101.3</ele>
        <time>2017-05-14T09:28:09Z</time>
      </trkpt>
      <trkpt lat="49.18794" lon="1.29658">
        <ele>100.4</ele>
        <time>2017-05-14T09:28:11Z</time>
      </trkpt>
      <trkpt lat="49.18803" lon="1.29662">
        <ele>99.7</ele>
        <time>2017-05-14T09:28:12Z</time>
      </trkpt>
      <trkpt lat="49.1882" lon="1.2967">
        <ele>98.4</ele>
        <time>2017-05-14T09:28:14Z</time>
      </trkpt>
      <trkpt lat="49.18836" lon="1.29675">
        <ele>97.3</ele>
        <time>2017-05-14T09:28:16Z</time>
      </trkpt>
      <trkpt lat="49.18852" lon="1.2968">
        <ele>96.3</ele>
        <time>2017-05-14T09:28:18Z</time>
      </trkpt>
      <trkpt lat="49.18868" lon="1.29687">
        <ele>95.2</ele>
        <time>2017-05-14T09:28:20Z</time>
      </trkpt>
      <trkpt lat="49.18883" lon="1.29692">
        <ele>94</ele>
        <time>2017-05-14T09:28:22Z</time>
      </trkpt>
      <trkpt lat="49.18899" lon="1.29696">
        <ele>92.7</ele>
        <time>2017-05-14T09:28:24Z</time>
      </trkpt>
      <trkpt lat="49.18914" lon="1.297">
        <ele>91.8</ele>
        <time>2017-05-14T09:28:26Z</time>
      </trkpt>
      <trkpt lat="49.1893" lon="1.29705">
        <ele>90.9</ele>
        <time>2017-05-14T09:28:28Z</time>
      </trkpt>
      <trkpt lat="49.18946" lon="1.2971">
        <ele>90.3</ele>
        <time>2017-05-14T09:28:30Z</time>
      </trkpt>
      <trkpt lat="49.18962" lon="1.29714">
        <ele>89.5</ele>
        <time>2017-05-14T09:28:32Z</time>
      </trkpt>
      <trkpt lat="49.18978" lon="1.29719">
        <ele>88.3</ele>
        <time>2017-05-14T09:28:34Z</time>
      </trkpt>
      <trkpt lat="49.18994" lon="1.29725">
        <ele>86.9</ele>
        <time>2017-05-14T09:28:36Z</time>
      </trkpt>
      <trkpt lat="49.19009" lon="1.2973">
        <ele>85.9</ele>
        <time>2017-05-14T09:28:38Z</time>
      </trkpt>
      <trkpt lat="49.19024" lon="1.29733">
        <ele>84.7</ele>
        <time>2017-05-14T09:28:40Z</time>
      </trkpt>
      <trkpt lat="49.19038" lon="1.29736">
        <ele>83.6</ele>
        <time>2017-05-14T09:28:42Z</time>
      </trkpt>
      <trkpt lat="49.1905" lon="1.29739">
        <ele>82.2</ele>
        <time>2017-05-14T09:28:44Z</time>
      </trkpt>
      <trkpt lat="49.1906" lon="1.29742">
        <ele>81.1</ele>
        <time>2017-05-14T09:28:46Z</time>
      </trkpt>
      <trkpt lat="49.1907" lon="1.29745">
        <ele>80</ele>
        <time>2017-05-14T09:28:48Z</time>
      </trkpt>
      <trkpt lat="49.1908" lon="1.29749">
        <ele>79</ele>
        <time>2017-05-14T09:28:50Z</time>
      </trkpt>
      <trkpt lat="49.19092" lon="1.29753">
        <ele>77.8</ele>
        <time>2017-05-14T09:28:52Z</time>
      </trkpt>
      <trkpt lat="49.19106" lon="1.29759">
        <ele>76.4</ele>
        <time>2017-05-14T09:28:54Z</time>
      </trkpt>
      <trkpt lat="49.19119" lon="1.29764">
        <ele>75.1</ele>
        <time>2017-05-14T09:28:56Z</time>
      </trkpt>
      <trkpt lat="49.19131" lon="1.29764">
        <ele>73.9</ele>
        <time>2017-05-14T09:28:58Z</time>
      </trkpt>
      <trkpt lat="49.19142" lon="1.29765">
        <ele>72.8</ele>
        <time>2017-05-14T09:29:00Z</time>
      </trkpt>
      <trkpt lat="49.19151" lon="1.29771">
        <ele>71.7</ele>
        <time>2017-05-14T09:29:02Z</time>
      </trkpt>
      <trkpt lat="49.1916" lon="1.2978">
        <ele>71.1</ele>
        <time>2017-05-14T09:29:05Z</time>
      </trkpt>
      <trkpt lat="49.19168" lon="1.2979">
        <ele>71.1</ele>
        <time>2017-05-14T09:29:09Z</time>
      </trkpt>
      <trkpt lat="49.19177" lon="1.29796">
        <ele>72.9</ele>
        <time>2017-05-14T09:29:14Z</time>
      </trkpt>
      <trkpt lat="49.19186" lon="1.29802">
        <ele>75.5</ele>
        <time>2017-05-14T09:29:21Z</time>
      </trkpt>
      <trkpt lat="49.19195" lon="1.29805">
        <ele>77.8</ele>
        <time>2017-05-14T09:29:28Z</time>
      </trkpt>
      <trkpt lat="49.19205" lon="1.29809">
        <ele>80.3</ele>
        <time>2017-05-14T09:29:36Z</time>
      </trkpt>
      <trkpt lat="49.19214" lon="1.29812">
        <ele>82.7</ele>
        <time>2017-05-14T09:29:44Z</time>
      </trkpt>
      <trkpt lat="49.19223" lon="1.29814">
        <ele>85.1</ele>
        <time>2017-05-14T09:29:52Z</time>
      </trkpt>
      <trkpt lat="49.19233" lon="1.29817">
        <ele>87.2</ele>
        <time>2017-05-14T09:30:00Z</time>
      </trkpt>
      <trkpt lat="49.19243" lon="1.29817">
        <ele>88.8</ele>
        <time>2017-05-14T09:30:08Z</time>
      </trkpt>
      <trkpt lat="49.19252" lon="1.29815">
        <ele>90.4</ele>
        <time>2017-05-14T09:30:15Z</time>
      </trkpt>
      <trkpt lat="49.19262" lon="1.29813">
        <ele>91.8</ele>
        <time>2017-05-14T09:30:22Z</time>
      </trkpt>
      <trkpt lat="49.19271" lon="1.29812">
        <ele>93.1</ele>
        <time>2017-05-14T09:30:29Z</time>
      </trkpt>
      <trkpt lat="49.19281" lon="1.29813">
        <ele>94.5</ele>
        <time>2017-05-14T09:30:35Z</time>
      </trkpt>
      <trkpt lat="49.1929" lon="1.29813">
        <ele>95.8</ele>
        <time>2017-05-14T09:30:41Z</time>
      </trkpt>
      <trkpt lat="49.19299" lon="1.29811">
        <ele>97.1</ele>
        <time>2017-05-14T09:30:47Z</time>
      </trkpt>
      <trkpt lat="49.1931" lon="1.29811">
        <ele>98.7</ele>
        <time>2017-05-14T09:30:53Z</time>
      </trkpt>
      <trkpt lat="49.19319" lon="1.29811">
        <ele>100.1</ele>
        <time>2017-05-14T09:30:59Z</time>
      </trkpt>
      <trkpt lat="49.19329" lon="1.29811">
        <ele>101.4</ele>
        <time>2017-05-14T09:31:05Z</time>
      </trkpt>
      <trkpt lat="49.19338" lon="1.2981">
        <ele>102.7</ele>
        <time>2017-05-14T09:31:11Z</time>
      </trkpt>
      <trkpt lat="49.19346" lon="1.29815">
        <ele>103.7</ele>
        <time>2017-05-14T09:31:16Z</time>
      </trkpt>
      <trkpt lat="49.19354" lon="1.29823">
        <ele>104.5</ele>
        <time>2017-05-14T09:31:21Z</time>
      </trkpt>
      <trkpt lat="49.19364" lon="1.29829">
        <ele>105.7</ele>
        <time>2017-05-14T09:31:27Z</time>
      </trkpt>
      <trkpt lat="49.19375" lon="1.29832">
        <ele>106.8</ele>
        <time>2017-05-14T09:31:33Z</time>
      </trkpt>
      <trkpt lat="49.19385" lon="1.29833">
        <ele>108.3</ele>
        <time>2017-05-14T09:31:39Z</time>
      </trkpt>
      <trkpt lat="49.19394" lon="1.29836">
        <ele>109.3</ele>
        <time>2017-05-14T09:31:44Z</time>
      </trkpt>
      <trkpt lat="49.19403" lon="1.29839">
        <ele>110.5</ele>
        <time>2017-05-14T09:31:49Z</time>
      </trkpt>
      <trkpt lat="49.19412" lon="1.29841">
        <ele>111.5</ele>
        <time>2017-05-14T09:31:54Z</time>
      </trkpt>
      <trkpt lat="49.19423" lon="1.29845">
        <ele>112.6</ele>
        <time>2017-05-14T09:31:59Z</time>
      </trkpt>
      <trkpt lat="49.19412" lon="1.29841">
        <ele>113.2</ele>
        <time>2017-05-14T09:32:11Z</time>
      </trkpt>
      <trkpt lat="49.19403" lon="1.29839">
        <ele>112.3</ele>
        <time>2017-05-14T09:32:14Z</time>
      </trkpt>
      <trkpt lat="49.19391" lon="1.29836">
        <ele>110.9</ele>
        <time>2017-05-14T09:32:17Z</time>
      </trkpt>
      <trkpt lat="49.19381" lon="1.29834">
        <ele>109.8</ele>
        <time>2017-05-14T09:32:20Z</time>
      </trkpt>
      <trkpt lat="49.19371" lon="1.29831">
        <ele>108.3</ele>
        <time>2017-05-14T09:32:23Z</time>
      </trkpt>
      <trkpt lat="49.19362" lon="1.29828">
        <ele>107.3</ele>
        <time>2017-05-14T09:32:26Z</time>
      </trkpt>
      <trkpt lat="49.19353" lon="1.29822">
        <ele>106.6</ele>
        <time>2017-05-14T09:32:29Z</time>
      </trkpt>
      <trkpt lat="49.19344" lon="1.29815">
        <ele>105.3</ele>
        <time>2017-05-14T09:32:34Z</time>
      </trkpt>
      <trkpt lat="49.19334" lon="1.29812">
        <ele>104.1</ele>
        <time>2017-05-14T09:32:39Z</time>
      </trkpt>
      <trkpt lat="49.19322" lon="1.29811">
        <ele>102.7</ele>
        <time>2017-05-14T09:32:43Z</time>
      </trkpt>
      <trkpt lat="49.19311" lon="1.29809">
        <ele>101.4</ele>
        <time>2017-05-14T09:32:47Z</time>
      </trkpt>
      <trkpt lat="49.19321" lon="1.29808">
        <ele>100</ele>
        <time>2017-05-14T09:33:07Z</time>
      </trkpt>
      <trkpt lat="49.19331" lon="1.29808">
        <ele>101.5</ele>
        <time>2017-05-14T09:33:14Z</time>
      </trkpt>
      <trkpt lat="49.19341" lon="1.29812">
        <ele>102.8</ele>
        <time>2017-05-14T09:33:20Z</time>
      </trkpt>
      <trkpt lat="49.1935" lon="1.29818">
        <ele>103.9</ele>
        <time>2017-05-14T09:33:26Z</time>
      </trkpt>
      <trkpt lat="49.19359" lon="1.29822">
        <ele>104.8</ele>
        <time>2017-05-14T09:33:32Z</time>
      </trkpt>
      <trkpt lat="49.19368" lon="1.29826">
        <ele>105.7</ele>
        <time>2017-05-14T09:33:38Z</time>
      </trkpt>
      <trkpt lat="49.19378" lon="1.29829">
        <ele>106.7</ele>
        <time>2017-05-14T09:33:44Z</time>
      </trkpt>
      <trkpt lat="49.19388" lon="1.29832">
        <ele>107.7</ele>
        <time>2017-05-14T09:33:50Z</time>
      </trkpt>
      <trkpt lat="49.19397" lon="1.29834">
        <ele>108.5</ele>
        <time>2017-05-14T09:33:55Z</time>
      </trkpt>
      <trkpt lat="49.19406" lon="1.29837">
        <ele>109.7</ele>
        <time>2017-05-14T09:34:00Z</time>
      </trkpt>
      <trkpt lat="49.19416" lon="1.29841">
        <ele>111.2</ele>
        <time>2017-05-14T09:34:05Z</time>
      </trkpt>
      <trkpt lat="49.19425" lon="1.29844">
        <ele>112.4</ele>
        <time>2017-05-14T09:34:10Z</time>
      </trkpt>
      <trkpt lat="49.19435" lon="1.29849">
        <ele>113.5</ele>
        <time>2017-05-14T09:34:15Z</time>
      </trkpt>
      <trkpt lat="49.19444" lon="1.29854">
        <ele>114.4</ele>
        <time>2017-05-14T09:34:20Z</time>
      </trkpt>
      <trkpt lat="49.19452" lon="1.29861">
        <ele>115.5</ele>
        <time>2017-05-14T09:34:33Z</time>
      </trkpt>
      <trkpt lat="49.19462" lon="1.29864">
        <ele>115.7</ele>
        <time>2017-05-14T09:34:58Z</time>
      </trkpt>
      <trkpt lat="49.19472" lon="1.29865">
        <ele>115.8</ele>
        <time>2017-05-14T09:35:02Z</time>
      </trkpt>
      <trkpt lat="49.19483" lon="1.29868">
        <ele>115.9</ele>
        <time>2017-05-14T09:35:06Z</time>
      </trkpt>
      <trkpt lat="49.19491" lon="1.29877">
        <ele>115</ele>
        <time>2017-05-14T09:35:09Z</time>
      </trkpt>
      <trkpt lat="49.19494" lon="1.29891">
        <ele>114</ele>
        <time>2017-05-14T09:35:12Z</time>
      </trkpt>
      <trkpt lat="49.19495" lon="1.29906">
        <ele>113.4</ele>
        <time>2017-05-14T09:35:15Z</time>
      </trkpt>
      <trkpt lat="49.19495" lon="1.29922">
        <ele>112.7</ele>
        <time>2017-05-14T09:35:18Z</time>
      </trkpt>
      <trkpt lat="49.19495" lon="1.29939">
        <ele>112.1</ele>
        <time>2017-05-14T09:35:21Z</time>
      </trkpt>
      <trkpt lat="49.19496" lon="1.29959">
        <ele>111.4</ele>
        <time>2017-05-14T09:35:24Z</time>
      </trkpt>
      <trkpt lat="49.19496" lon="1.29974">
        <ele>110.9</ele>
        <time>2017-05-14T09:35:26Z</time>
      </trkpt>
      <trkpt lat="49.19496" lon="1.2999">
        <ele>110.3</ele>
        <time>2017-05-14T09:35:28Z</time>
      </trkpt>
      <trkpt lat="49.19496" lon="1.30005">
        <ele>109.8</ele>
        <time>2017-05-14T09:35:30Z</time>
      </trkpt>
      <trkpt lat="49.19496" lon="1.30024">
        <ele>109.3</ele>
        <time>2017-05-14T09:35:33Z</time>
      </trkpt>
      <trkpt lat="49.19496" lon="1.30041">
        <ele>108.5</ele>
        <time>2017-05-14T09:35:36Z</time>
      </trkpt>
      <trkpt lat="49.19495" lon="1.30059">
        <ele>107.6</ele>
        <time>2017-05-14T09:35:39Z</time>
      </trkpt>
      <trkpt lat="49.19497" lon="1.30077">
        <ele>106.9</ele>
        <time>2017-05-14T09:35:43Z</time>
      </trkpt>
      <trkpt lat="49.19497" lon="1.30095">
        <ele>106.3</ele>
        <time>2017-05-14T09:35:46Z</time>
      </trkpt>
      <trkpt lat="49.19496" lon="1.30115">
        <ele>105.8</ele>
        <time>2017-05-14T09:35:49Z</time>
      </trkpt>
      <trkpt lat="49.19496" lon="1.3013">
        <ele>105.3</ele>
        <time>2017-05-14T09:35:51Z</time>
      </trkpt>
      <trkpt lat="49.19496" lon="1.30146">
        <ele>104.7</ele>
        <time>2017-05-14T09:35:53Z</time>
      </trkpt>
      <trkpt lat="49.19496" lon="1.30161">
        <ele>104.2</ele>
        <time>2017-05-14T09:35:55Z</time>
      </trkpt>
      <trkpt lat="49.19496" lon="1.30176">
        <ele>103.4</ele>
        <time>2017-05-14T09:35:58Z</time>
      </trkpt>
      <trkpt lat="49.19497" lon="1.30194">
        <ele>102.5</ele>
        <time>2017-05-14T09:36:02Z</time>
      </trkpt>
      <trkpt lat="49.19497" lon="1.30211">
        <ele>101.9</ele>
        <time>2017-05-14T09:36:05Z</time>
      </trkpt>
      <trkpt lat="49.19496" lon="1.30231">
        <ele>100.9</ele>
        <time>2017-05-14T09:36:08Z</time>
      </trkpt>
      <trkpt lat="49.19496" lon="1.30245">
        <ele>100.3</ele>
        <time>2017-05-14T09:36:10Z</time>
      </trkpt>
      <trkpt lat="49.19496" lon="1.30261">
        <ele>99.8</ele>
        <time>2017-05-14T09:36:12Z</time>
      </trkpt>
      <trkpt lat="49.19496" lon="1.30278">
        <ele>99.2</ele>
        <time>2017-05-14T09:36:14Z</time>
      </trkpt>
      <trkpt lat="49.19496" lon="1.30296">
        <ele>98.6</ele>
        <time>2017-05-14T09:36:16Z</time>
      </trkpt>
      <trkpt lat="49.19494" lon="1.30311">
        <ele>97.7</ele>
        <time>2017-05-14T09:36:18Z</time>
      </trkpt>
      <trkpt lat="49.19494" lon="1.30328">
        <ele>96.8</ele>
        <time>2017-05-14T09:36:20Z</time>
      </trkpt>
      <trkpt lat="49.19494" lon="1.30344">
        <ele>95.7</ele>
        <time>2017-05-14T09:36:22Z</time>
      </trkpt>
      <trkpt lat="49.19493" lon="1.30362">
        <ele>94.4</ele>
        <time>2017-05-14T09:36:25Z</time>
      </trkpt>
      <trkpt lat="49.19494" lon="1.30381">
        <ele>93.3</ele>
        <time>2017-05-14T09:36:28Z</time>
      </trkpt>
      <trkpt lat="49.19494" lon="1.30396">
        <ele>92.6</ele>
        <time>2017-05-14T09:36:30Z</time>
      </trkpt>
      <trkpt lat="49.19493" lon="1.30412">
        <ele>92</ele>
        <time>2017-05-14T09:36:32Z</time>
      </trkpt>
      <trkpt lat="49.19493" lon="1.30428">
        <ele>91.3</ele>
        <time>2017-05-14T09:36:34Z</time>
      </trkpt>
      <trkpt lat="49.19494" lon="1.30443">
        <ele>90.5</ele>
        <time>2017-05-14T09:36:36Z</time>
      </trkpt>
      <trkpt lat="49.19493" lon="1.30457">
        <ele>89.8</ele>
        <time>2017-05-14T09:36:38Z</time>
      </trkpt>
      <trkpt lat="49.19494" lon="1.30472">
        <ele>87.5</ele>
        <time>2017-05-14T09:36:47Z</time>
      </trkpt>
      <trkpt lat="49.19494" lon="1.30487">
        <ele>86.4</ele>
        <time>2017-05-14T09:36:56Z</time>
      </trkpt>
      <trkpt lat="49.19493" lon="1.30503">
        <ele>86.1</ele>
        <time>2017-05-14T09:36:59Z</time>
      </trkpt>
      <trkpt lat="49.19492" lon="1.30519">
        <ele>85.9</ele>
        <time>2017-05-14T09:37:02Z</time>
      </trkpt>
      <trkpt lat="49.19493" lon="1.30537">
        <ele>85.4</ele>
        <time>2017-05-14T09:37:05Z</time>
      </trkpt>
      <trkpt lat="49.19492" lon="1.30551">
        <ele>84.9</ele>
        <time>2017-05-14T09:37:07Z</time>
      </trkpt>
      <trkpt lat="49.19492" lon="1.30566">
        <ele>84.4</ele>
        <time>2017-05-14T09:37:09Z</time>
      </trkpt>
      <trkpt lat="49.19492" lon="1.30583">
        <ele>83.5</ele>
        <time>2017-05-14T09:37:11Z</time>
      </trkpt>
      <trkpt lat="49.19492" lon="1.306">
        <ele>82.5</ele>
        <time>2017-05-14T09:37:13Z</time>
      </trkpt>
      <trkpt lat="49.19491" lon="1.30619">
        <ele>81.8</ele>
        <time>2017-05-14T09:37:15Z</time>
      </trkpt>
      <trkpt lat="49.19491" lon="1.30638">
        <ele>81.1</ele>
        <time>2017-05-14T09:37:17Z</time>
      </trkpt>
      <trkpt lat="49.19491" lon="1.30659">
        <ele>80</ele>
        <time>2017-05-14T09:37:19Z</time>
      </trkpt>
      <trkpt lat="49.1949" lon="1.30676">
        <ele>79</ele>
        <time>2017-05-14T09:37:21Z</time>
      </trkpt>
      <trkpt lat="49.19492" lon="1.3069">
        <ele>76.6</ele>
        <time>2017-05-14T09:37:25Z</time>
      </trkpt>
      <trkpt lat="49.19503" lon="1.30696">
        <ele>75.1</ele>
        <time>2017-05-14T09:37:29Z</time>
      </trkpt>
      <trkpt lat="49.19516" lon="1.307">
        <ele>74.1</ele>
        <time>2017-05-14T09:37:33Z</time>
      </trkpt>
      <trkpt lat="49.19528" lon="1.30705">
        <ele>73.4</ele>
        <time>2017-05-14T09:37:36Z</time>
      </trkpt>
      <trkpt lat="49.19537" lon="1.30706">
        <ele>72.9</ele>
        <time>2017-05-14T09:37:38Z</time>
      </trkpt>
      <trkpt lat="49.19549" lon="1.30707">
        <ele>71.2</ele>
        <time>2017-05-14T09:37:43Z</time>
      </trkpt>
      <trkpt lat="49.19558" lon="1.30706">
        <ele>69.1</ele>
        <time>2017-05-14T09:37:47Z</time>
      </trkpt>
      <trkpt lat="49.19569" lon="1.30708">
        <ele>67</ele>
        <time>2017-05-14T09:37:51Z</time>
      </trkpt>
      <trkpt lat="49.19578" lon="1.30708">
        <ele>65.1</ele>
        <time>2017-05-14T09:37:54Z</time>
      </trkpt>
      <trkpt lat="49.19589" lon="1.30709">
        <ele>63.4</ele>
        <time>2017-05-14T09:37:57Z</time>
      </trkpt>
      <trkpt lat="49.19596" lon="1.3072">
        <ele>61.8</ele>
        <time>2017-05-14T09:38:00Z</time>
      </trkpt>
      <trkpt lat="49.19598" lon="1.30735">
        <ele>60.5</ele>
        <time>2017-05-14T09:38:04Z</time>
      </trkpt>
      <trkpt lat="49.19599" lon="1.30752">
        <ele>59.6</ele>
        <time>2017-05-14T09:38:08Z</time>
      </trkpt>
      <trkpt lat="49.196" lon="1.30768">
        <ele>59.1</ele>
        <time>2017-05-14T09:38:11Z</time>
      </trkpt>
      <trkpt lat="49.196" lon="1.30785">
        <ele>58.5</ele>
        <time>2017-05-14T09:38:14Z</time>
      </trkpt>
      <trkpt lat="49.196" lon="1.308">
        <ele>57.9</ele>
        <time>2017-05-14T09:38:17Z</time>
      </trkpt>
      <trkpt lat="49.19601" lon="1.30818">
        <ele>56.7</ele>
        <time>2017-05-14T09:38:21Z</time>
      </trkpt>
      <trkpt lat="49.19599" lon="1.30837">
        <ele>55.2</ele>
        <time>2017-05-14T09:38:24Z</time>
      </trkpt>
      <trkpt lat="49.196" lon="1.30854">
        <ele>53</ele>
        <time>2017-05-14T09:38:28Z</time>
      </trkpt>
      <trkpt lat="49.19604" lon="1.30868">
        <ele>51.9</ele>
        <time>2017-05-14T09:38:32Z</time>
      </trkpt>
      <trkpt lat="49.19605" lon="1.30884">
        <ele>50.8</ele>
        <time>2017-05-14T09:38:36Z</time>
      </trkpt>
      <trkpt lat="49.19605" lon="1.30898">
        <ele>50.3</ele>
        <time>2017-05-14T09:38:40Z</time>
      </trkpt>
      <trkpt lat="49.19605" lon="1.30913">
        <ele>48.8</ele>
        <time>2017-05-14T09:38:46Z</time>
      </trkpt>
      <trkpt lat="49.19599" lon="1.30924">
        <ele>48.3</ele>
        <time>2017-05-14T09:38:58Z</time>
      </trkpt>
      <trkpt lat="49.19603" lon="1.3094">
        <ele>48.4</ele>
        <time>2017-05-14T09:39:07Z</time>
      </trkpt>
      <trkpt lat="49.19609" lon="1.30955">
        <ele>48.7</ele>
        <time>2017-05-14T09:39:11Z</time>
      </trkpt>
      <trkpt lat="49.19613" lon="1.3097">
        <ele>49.1</ele>
        <time>2017-05-14T09:39:15Z</time>
      </trkpt>
      <trkpt lat="49.19616" lon="1.30986">
        <ele>49.5</ele>
        <time>2017-05-14T09:39:19Z</time>
      </trkpt>
      <trkpt lat="49.1962" lon="1.31002">
        <ele>50.5</ele>
        <time>2017-05-14T09:39:24Z</time>
      </trkpt>
      <trkpt lat="49.19619" lon="1.31018">
        <ele>51.8</ele>
        <time>2017-05-14T09:39:30Z</time>
      </trkpt>
      <trkpt lat="49.19619" lon="1.31032">
        <ele>53.9</ele>
        <time>2017-05-14T09:39:38Z</time>
      </trkpt>
      <trkpt lat="49.1962" lon="1.31045">
        <ele>55</ele>
        <time>2017-05-14T09:39:44Z</time>
      </trkpt>
      <trkpt lat="49.1962" lon="1.3106">
        <ele>56.5</ele>
        <time>2017-05-14T09:39:50Z</time>
      </trkpt>
      <trkpt lat="49.19622" lon="1.31074">
        <ele>58.6</ele>
        <time>2017-05-14T09:39:58Z</time>
      </trkpt>
      <trkpt lat="49.19624" lon="1.31088">
        <ele>60.3</ele>
        <time>2017-05-14T09:40:05Z</time>
      </trkpt>
      <trkpt lat="49.19627" lon="1.31101">
        <ele>61.7</ele>
        <time>2017-05-14T09:40:12Z</time>
      </trkpt>
      <trkpt lat="49.19629" lon="1.31116">
        <ele>63.2</ele>
        <time>2017-05-14T09:40:21Z</time>
      </trkpt>
      <trkpt lat="49.19632" lon="1.3113">
        <ele>64.2</ele>
        <time>2017-05-14T09:40:28Z</time>
      </trkpt>
      <trkpt lat="49.19634" lon="1.31145">
        <ele>65.5</ele>
        <time>2017-05-14T09:40:36Z</time>
      </trkpt>
      <trkpt lat="49.19638" lon="1.31159">
        <ele>66.5</ele>
        <time>2017-05-14T09:40:42Z</time>
      </trkpt>
      <trkpt lat="49.19642" lon="1.31171">
        <ele>67.2</ele>
        <time>2017-05-14T09:40:47Z</time>
      </trkpt>
      <trkpt lat="49.19646" lon="1.31184">
        <ele>68</ele>
        <time>2017-05-14T09:40:52Z</time>
      </trkpt>
      <trkpt lat="49.19649" lon="1.31197">
        <ele>68.4</ele>
        <time>2017-05-14T09:40:56Z</time>
      </trkpt>
      <trkpt lat="49.19654" lon="1.31212">
        <ele>68.7</ele>
        <time>2017-05-14T09:41:00Z</time>
      </trkpt>
      <trkpt lat="49.19659" lon="1.31225">
        <ele>69.1</ele>
        <time>2017-05-14T09:41:04Z</time>
      </trkpt>
      <trkpt lat="49.19661" lon="1.31238">
        <ele>69.5</ele>
        <time>2017-05-14T09:41:08Z</time>
      </trkpt>
      <trkpt lat="49.19664" lon="1.31254">
        <ele>69.9</ele>
        <time>2017-05-14T09:41:12Z</time>
      </trkpt>
      <trkpt lat="49.19658" lon="1.31265">
        <ele>70.4</ele>
        <time>2017-05-14T09:41:18Z</time>
      </trkpt>
      <trkpt lat="49.19648" lon="1.31265">
        <ele>71.2</ele>
        <time>2017-05-14T09:41:23Z</time>
      </trkpt>
      <trkpt lat="49.19639" lon="1.31266">
        <ele>72</ele>
        <time>2017-05-14T09:41:27Z</time>
      </trkpt>
      <trkpt lat="49.19628" lon="1.31267">
        <ele>73</ele>
        <time>2017-05-14T09:41:32Z</time>
      </trkpt>
      <trkpt lat="49.19617" lon="1.31269">
        <ele>74</ele>
        <time>2017-05-14T09:41:37Z</time>
      </trkpt>
      <trkpt lat="49.19608" lon="1.31269">
        <ele>75</ele>
        <time>2017-05-14T09:41:41Z</time>
      </trkpt>
      <trkpt lat="49.19597" lon="1.3127">
        <ele>76.1</ele>
        <time>2017-05-14T09:41:46Z</time>
      </trkpt>
      <trkpt lat="49.19587" lon="1.31271">
        <ele>77</ele>
        <time>2017-05-14T09:41:50Z</time>
      </trkpt>
      <trkpt lat="49.19578" lon="1.31271">
        <ele>77.8</ele>
        <time>2017-05-14T09:41:54Z</time>
      </trkpt>
      <trkpt lat="49.19569" lon="1.31271">
        <ele>78.6</ele>
        <time>2017-05-14T09:41:58Z</time>
      </trkpt>
      <trkpt lat="49.19559" lon="1.31272">
        <ele>79.4</ele>
        <time>2017-05-14T09:42:02Z</time>
      </trkpt>
      <trkpt lat="49.19549" lon="1.31272">
        <ele>80.6</ele>
        <time>2017-05-14T09:42:07Z</time>
      </trkpt>
      <trkpt lat="49.19538" lon="1.31272">
        <ele>81.8</ele>
        <time>2017-05-14T09:42:12Z</time>
      </trkpt>
      <trkpt lat="49.19529" lon="1.31275">
        <ele>83.1</ele>
        <time>2017-05-14T09:42:17Z</time>
      </trkpt>
      <trkpt lat="49.1952" lon="1.31274">
        <ele>84.2</ele>
        <time>2017-05-14T09:42:22Z</time>
      </trkpt>
      <trkpt lat="49.19511" lon="1.31272">
        <ele>85.4</ele>
        <time>2017-05-14T09:42:27Z</time>
      </trkpt>
      <trkpt lat="49.19501" lon="1.31269">
        <ele>86.4</ele>
        <time>2017-05-14T09:42:32Z</time>
      </trkpt>
      <trkpt lat="49.19491" lon="1.31269">
        <ele>87.5</ele>
        <time>2017-05-14T09:42:37Z</time>
      </trkpt>
      <trkpt lat="49.19481" lon="1.31268">
        <ele>88.5</ele>
        <time>2017-05-14T09:42:42Z</time>
      </trkpt>
      <trkpt lat="49.1947" lon="1.31266">
        <ele>89.5</ele>
        <time>2017-05-14T09:42:47Z</time>
      </trkpt>
      <trkpt lat="49.19461" lon="1.31265">
        <ele>90.3</ele>
        <time>2017-05-14T09:42:51Z</time>
      </trkpt>
      <trkpt lat="49.19452" lon="1.31263">
        <ele>90.9</ele>
        <time>2017-05-14T09:42:55Z</time>
      </trkpt>
      <trkpt lat="49.19443" lon="1.3126">
        <ele>91.8</ele>
        <time>2017-05-14T09:42:59Z</time>
      </trkpt>
      <trkpt lat="49.19434" lon="1.31257">
        <ele>92.6</ele>
        <time>2017-05-14T09:43:03Z</time>
      </trkpt>
      <trkpt lat="49.19425" lon="1.31252">
        <ele>93.3</ele>
        <time>2017-05-14T09:43:07Z</time>
      </trkpt>
      <trkpt lat="49.19416" lon="1.31247">
        <ele>94.2</ele>
        <time>2017-05-14T09:43:11Z</time>
      </trkpt>
      <trkpt lat="49.19406" lon="1.31242">
        <ele>95.1</ele>
        <time>2017-05-14T09:43:15Z</time>
      </trkpt>
      <trkpt lat="49.19397" lon="1.31238">
        <ele>96.3</ele>
        <time>2017-05-14T09:43:19Z</time>
      </trkpt>
      <trkpt lat="49.19388" lon="1.31234">
        <ele>97.2</ele>
        <time>2017-05-14T09:43:23Z</time>
      </trkpt>
      <trkpt lat="49.19377" lon="1.31233">
        <ele>98.4</ele>
        <time>2017-05-14T09:43:28Z</time>
      </trkpt>
      <trkpt lat="49.19368" lon="1.31237">
        <ele>99.1</ele>
        <time>2017-05-14T09:43:32Z</time>
      </trkpt>
      <trkpt lat="49.1936" lon="1.31243">
        <ele>100</ele>
        <time>2017-05-14T09:43:36Z</time>
      </trkpt>
      <trkpt lat="49.19352" lon="1.31251">
        <ele>100.9</ele>
        <time>2017-05-14T09:43:40Z</time>
      </trkpt>
      <trkpt lat="49.19344" lon="1.31259">
        <ele>101.8</ele>
        <time>2017-05-14T09:43:44Z</time>
      </trkpt>
      <trkpt lat="49.19337" lon="1.31268">
        <ele>102.8</ele>
        <time>2017-05-14T09:43:48Z</time>
      </trkpt>
      <trkpt lat="49.19329" lon="1.3128">
        <ele>103.4</ele>
        <time>2017-05-14T09:43:52Z</time>
      </trkpt>
      <trkpt lat="49.19323" lon="1.31292">
        <ele>103.6</ele>
        <time>2017-05-14T09:43:56Z</time>
      </trkpt>
      <trkpt lat="49.19318" lon="1.31306">
        <ele>103.7</ele>
        <time>2017-05-14T09:44:00Z</time>
      </trkpt>
      <trkpt lat="49.19315" lon="1.31322">
        <ele>103.8</ele>
        <time>2017-05-14T09:44:04Z</time>
      </trkpt>
      <trkpt lat="49.19313" lon="1.31338">
        <ele>103.9</ele>
        <time>2017-05-14T09:44:08Z</time>
      </trkpt>
      <trkpt lat="49.19312" lon="1.31352">
        <ele>103.9</ele>
        <time>2017-05-14T09:44:12Z</time>
      </trkpt>
      <trkpt lat="49.19313" lon="1.31368">
        <ele>105.7</ele>
        <time>2017-05-14T09:45:18Z</time>
      </trkpt>
      <trkpt lat="49.19312" lon="1.31383">
        <ele>105.5</ele>
        <time>2017-05-14T09:45:21Z</time>
      </trkpt>
      <trkpt lat="49.1931" lon="1.31401">
        <ele>105.3</ele>
        <time>2017-05-14T09:45:24Z</time>
      </trkpt>
      <trkpt lat="49.19306" lon="1.31418">
        <ele>105.2</ele>
        <time>2017-05-14T09:45:27Z</time>
      </trkpt>
      <trkpt lat="49.19297" lon="1.31426">
        <ele>105.3</ele>
        <time>2017-05-14T09:45:30Z</time>
      </trkpt>
      <trkpt lat="49.19286" lon="1.31431">
        <ele>105.8</ele>
        <time>2017-05-14T09:45:34Z</time>
      </trkpt>
      <trkpt lat="49.19275" lon="1.31436">
        <ele>106.3</ele>
        <time>2017-05-14T09:45:38Z</time>
      </trkpt>
      <trkpt lat="49.19265" lon="1.31442">
        <ele>106.9</ele>
        <time>2017-05-14T09:45:42Z</time>
      </trkpt>
      <trkpt lat="49.19255" lon="1.3145">
        <ele>107.9</ele>
        <time>2017-05-14T09:45:46Z</time>
      </trkpt>
      <trkpt lat="49.19246" lon="1.31459">
        <ele>109.1</ele>
        <time>2017-05-14T09:45:50Z</time>
      </trkpt>
      <trkpt lat="49.19239" lon="1.31468">
        <ele>109.8</ele>
        <time>2017-05-14T09:45:53Z</time>
      </trkpt>
      <trkpt lat="49.19232" lon="1.31479">
        <ele>110.8</ele>
        <time>2017-05-14T09:45:57Z</time>
      </trkpt>
      <trkpt lat="49.19223" lon="1.31489">
        <ele>111.7</ele>
        <time>2017-05-14T09:46:01Z</time>
      </trkpt>
      <trkpt lat="49.19214" lon="1.31501">
        <ele>112.6</ele>
        <time>2017-05-14T09:46:05Z</time>
      </trkpt>
      <trkpt lat="49.19205" lon="1.31508">
        <ele>113.5</ele>
        <time>2017-05-14T09:46:09Z</time>
      </trkpt>
      <trkpt lat="49.19195" lon="1.31515">
        <ele>114.3</ele>
        <time>2017-05-14T09:46:13Z</time>
      </trkpt>
      <trkpt lat="49.19184" lon="1.3152">
        <ele>115</ele>
        <time>2017-05-14T09:46:17Z</time>
      </trkpt>
      <trkpt lat="49.19176" lon="1.31524">
        <ele>116</ele>
        <time>2017-05-14T09:46:20Z</time>
      </trkpt>
      <trkpt lat="49.19164" lon="1.31526">
        <ele>116.7</ele>
        <time>2017-05-14T09:46:24Z</time>
      </trkpt>
      <trkpt lat="49.19153" lon="1.31528">
        <ele>117.3</ele>
        <time>2017-05-14T09:46:28Z</time>
      </trkpt>
      <trkpt lat="49.19144" lon="1.31528">
        <ele>117.9</ele>
        <time>2017-05-14T09:46:31Z</time>
      </trkpt>
      <trkpt lat="49.19135" lon="1.31527">
        <ele>118.4</ele>
        <time>2017-05-14T09:46:34Z</time>
      </trkpt>
      <trkpt lat="49.19126" lon="1.31527">
        <ele>118.9</ele>
        <time>2017-05-14T09:46:37Z</time>
      </trkpt>
      <trkpt lat="49.19114" lon="1.31527">
        <ele>119.3</ele>
        <time>2017-05-14T09:46:41Z</time>
      </trkpt>
      <trkpt lat="49.19105" lon="1.31527">
        <ele>119.6</ele>
        <time>2017-05-14T09:46:44Z</time>
      </trkpt>
      <trkpt lat="49.19095" lon="1.31527">
        <ele>120.1</ele>
        <time>2017-05-14T09:46:47Z</time>
      </trkpt>
      <trkpt lat="49.19085" lon="1.31526">
        <ele>120.6</ele>
        <time>2017-05-14T09:46:50Z</time>
      </trkpt>
      <trkpt lat="49.19076" lon="1.31525">
        <ele>121.2</ele>
        <time>2017-05-14T09:46:53Z</time>
      </trkpt>
      <trkpt lat="49.19066" lon="1.31525">
        <ele>121.4</ele>
        <time>2017-05-14T09:46:56Z</time>
      </trkpt>
      <trkpt lat="49.19057" lon="1.31525">
        <ele>121.8</ele>
        <time>2017-05-14T09:46:59Z</time>
      </trkpt>
      <trkpt lat="49.19047" lon="1.31524">
        <ele>122.2</ele>
        <time>2017-05-14T09:47:02Z</time>
      </trkpt>
      <trkpt lat="49.19038" lon="1.31523">
        <ele>122.6</ele>
        <time>2017-05-14T09:47:05Z</time>
      </trkpt>
      <trkpt lat="49.19028" lon="1.31519">
        <ele>122.9</ele>
        <time>2017-05-14T09:47:08Z</time>
      </trkpt>
      <trkpt lat="49.19019" lon="1.31514">
        <ele>123.5</ele>
        <time>2017-05-14T09:47:11Z</time>
      </trkpt>
      <trkpt lat="49.19009" lon="1.31509">
        <ele>124</ele>
        <time>2017-05-14T09:47:14Z</time>
      </trkpt>
      <trkpt lat="49.18999" lon="1.31503">
        <ele>124.3</ele>
        <time>2017-05-14T09:47:17Z</time>
      </trkpt>
      <trkpt lat="49.1899" lon="1.31497">
        <ele>124.7</ele>
        <time>2017-05-14T09:47:20Z</time>
      </trkpt>
      <trkpt lat="49.1898" lon="1.31491">
        <ele>125.3</ele>
        <time>2017-05-14T09:47:23Z</time>
      </trkpt>
      <trkpt lat="49.18971" lon="1.31487">
        <ele>125.6</ele>
        <time>2017-05-14T09:47:26Z</time>
      </trkpt>
      <trkpt lat="49.18961" lon="1.31478">
        <ele>126.1</ele>
        <time>2017-05-14T09:47:30Z</time>
      </trkpt>
      <trkpt lat="49.18952" lon="1.3147">
        <ele>126.6</ele>
        <time>2017-05-14T09:47:33Z</time>
      </trkpt>
      <trkpt lat="49.1894" lon="1.31462">
        <ele>127</ele>
        <time>2017-05-14T09:47:37Z</time>
      </trkpt>
      <trkpt lat="49.18931" lon="1.31451">
        <ele>127.3</ele>
        <time>2017-05-14T09:47:40Z</time>
      </trkpt>
      <trkpt lat="49.18923" lon="1.31446">
        <ele>127.7</ele>
        <time>2017-05-14T09:47:43Z</time>
      </trkpt>
      <trkpt lat="49.18914" lon="1.31452">
        <ele>128</ele>
        <time>2017-05-14T09:47:46Z</time>
      </trkpt>
      <trkpt lat="49.18909" lon="1.31464">
        <ele>128.1</ele>
        <time>2017-05-14T09:47:50Z</time>
      </trkpt>
      <trkpt lat="49.18903" lon="1.31475">
        <ele>128.3</ele>
        <time>2017-05-14T09:47:53Z</time>
      </trkpt>
      <trkpt lat="49.18897" lon="1.31487">
        <ele>128.3</ele>
        <time>2017-05-14T09:47:56Z</time>
      </trkpt>
      <trkpt lat="49.18891" lon="1.31499">
        <ele>128.4</ele>
        <time>2017-05-14T09:47:59Z</time>
      </trkpt>
      <trkpt lat="49.18886" lon="1.31511">
        <ele>128.3</ele>
        <time>2017-05-14T09:48:02Z</time>
      </trkpt>
      <trkpt lat="49.18881" lon="1.31523">
        <ele>128.2</ele>
        <time>2017-05-14T09:48:05Z</time>
      </trkpt>
      <trkpt lat="49.18873" lon="1.3154">
        <ele>128.2</ele>
        <time>2017-05-14T09:48:08Z</time>
      </trkpt>
      <trkpt lat="49.18868" lon="1.31552">
        <ele>128</ele>
        <time>2017-05-14T09:48:10Z</time>
      </trkpt>
      <trkpt lat="49.18861" lon="1.31565">
        <ele>127.9</ele>
        <time>2017-05-14T09:48:13Z</time>
      </trkpt>
      <trkpt lat="49.18854" lon="1.31578">
        <ele>127.8</ele>
        <time>2017-05-14T09:48:16Z</time>
      </trkpt>
      <trkpt lat="49.18847" lon="1.31592">
        <ele>127.5</ele>
        <time>2017-05-14T09:48:19Z</time>
      </trkpt>
      <trkpt lat="49.18843" lon="1.31608">
        <ele>127.5</ele>
        <time>2017-05-14T09:48:21Z</time>
      </trkpt>
      <trkpt lat="49.18839" lon="1.31626">
        <ele>127.2</ele>
        <time>2017-05-14T09:48:24Z</time>
      </trkpt>
      <trkpt lat="49.18835" lon="1.3164">
        <ele>126.9</ele>
        <time>2017-05-14T09:48:26Z</time>
      </trkpt>
      <trkpt lat="49.18832" lon="1.31655">
        <ele>126.8</ele>
        <time>2017-05-14T09:48:28Z</time>
      </trkpt>
      <trkpt lat="49.18828" lon="1.31672">
        <ele>126.5</ele>
        <time>2017-05-14T09:48:30Z</time>
      </trkpt>
      <trkpt lat="49.18825" lon="1.31685">
        <ele>126.4</ele>
        <time>2017-05-14T09:48:32Z</time>
      </trkpt>
      <trkpt lat="49.18819" lon="1.31701">
        <ele>126.3</ele>
        <time>2017-05-14T09:48:35Z</time>
      </trkpt>
      <trkpt lat="49.18813" lon="1.31712">
        <ele>126.1</ele>
        <time>2017-05-14T09:48:38Z</time>
      </trkpt>
      <trkpt lat="49.18806" lon="1.31724">
        <ele>126.2</ele>
        <time>2017-05-14T09:48:41Z</time>
      </trkpt>
      <trkpt lat="49.18798" lon="1.31736">
        <ele>126.3</ele>
        <time>2017-05-14T09:48:44Z</time>
      </trkpt>
      <trkpt lat="49.1879" lon="1.31748">
        <ele>126.8</ele>
        <time>2017-05-14T09:48:47Z</time>
      </trkpt>
      <trkpt lat="49.18786" lon="1.31762">
        <ele>126.9</ele>
        <time>2017-05-14T09:48:50Z</time>
      </trkpt>
      <trkpt lat="49.18789" lon="1.31778">
        <ele>127.1</ele>
        <time>2017-05-14T09:48:53Z</time>
      </trkpt>
      <trkpt lat="49.18796" lon="1.31792">
        <ele>127.2</ele>
        <time>2017-05-14T09:48:56Z</time>
      </trkpt>
      <trkpt lat="49.18803" lon="1.31808">
        <ele>127.3</ele>
        <time>2017-05-14T09:48:59Z</time>
      </trkpt>
      <trkpt lat="49.18809" lon="1.31824">
        <ele>126.9</ele>
        <time>2017-05-14T09:49:02Z</time>
      </trkpt>
      <trkpt lat="49.18813" lon="1.31841">
        <ele>126.6</ele>
        <time>2017-05-14T09:49:05Z</time>
      </trkpt>
      <trkpt lat="49.1882" lon="1.31857">
        <ele>126</ele>
        <time>2017-05-14T09:49:08Z</time>
      </trkpt>
      <trkpt lat="49.18825" lon="1.31876">
        <ele>125.9</ele>
        <time>2017-05-14T09:49:11Z</time>
      </trkpt>
      <trkpt lat="49.18821" lon="1.31891">
        <ele>125.8</ele>
        <time>2017-05-14T09:49:13Z</time>
      </trkpt>
      <trkpt lat="49.18814" lon="1.31907">
        <ele>125.7</ele>
        <time>2017-05-14T09:49:16Z</time>
      </trkpt>
      <trkpt lat="49.18808" lon="1.31921">
        <ele>125.6</ele>
        <time>2017-05-14T09:49:19Z</time>
      </trkpt>
      <trkpt lat="49.18802" lon="1.31936">
        <ele>125.7</ele>
        <time>2017-05-14T09:49:22Z</time>
      </trkpt>
      <trkpt lat="49.18796" lon="1.31949">
        <ele>126</ele>
        <time>2017-05-14T09:49:25Z</time>
      </trkpt>
      <trkpt lat="49.1879" lon="1.31963">
        <ele>126.2</ele>
        <time>2017-05-14T09:49:30Z</time>
      </trkpt>
      <trkpt lat="49.18785" lon="1.31977">
        <ele>126.4</ele>
        <time>2017-05-14T09:49:34Z</time>
      </trkpt>
      <trkpt lat="49.18778" lon="1.31989">
        <ele>126.6</ele>
        <time>2017-05-14T09:49:37Z</time>
      </trkpt>
      <trkpt lat="49.18773" lon="1.32006">
        <ele>126.6</ele>
        <time>2017-05-14T09:49:40Z</time>
      </trkpt>
      <trkpt lat="49.18769" lon="1.32018">
        <ele>126.9</ele>
        <time>2017-05-14T09:49:42Z</time>
      </trkpt>
      <trkpt lat="49.18764" lon="1.32033">
        <ele>127.1</ele>
        <time>2017-05-14T09:49:44Z</time>
      </trkpt>
      <trkpt lat="49.18759" lon="1.32048">
        <ele>127.4</ele>
        <time>2017-05-14T09:49:46Z</time>
      </trkpt>
      <trkpt lat="49.18755" lon="1.32062">
        <ele>127.8</ele>
        <time>2017-05-14T09:49:48Z</time>
      </trkpt>
      <trkpt lat="49.1875" lon="1.32076">
        <ele>128.2</ele>
        <time>2017-05-14T09:49:50Z</time>
      </trkpt>
      <trkpt lat="49.18745" lon="1.32089">
        <ele>128.4</ele>
        <time>2017-05-14T09:49:52Z</time>
      </trkpt>
      <trkpt lat="49.1874" lon="1.32102">
        <ele>128.4</ele>
        <time>2017-05-14T09:49:54Z</time>
      </trkpt>
      <trkpt lat="49.18735" lon="1.32115">
        <ele>128.8</ele>
        <time>2017-05-14T09:49:56Z</time>
      </trkpt>
      <trkpt lat="49.1873" lon="1.32129">
        <ele>129</ele>
        <time>2017-05-14T09:49:58Z</time>
      </trkpt>
      <trkpt lat="49.18727" lon="1.32146">
        <ele>129.1</ele>
        <time>2017-05-14T09:50:00Z</time>
      </trkpt>
      <trkpt lat="49.18725" lon="1.32162">
        <ele>129.3</ele>
        <time>2017-05-14T09:50:02Z</time>
      </trkpt>
      <trkpt lat="49.18722" lon="1.32178">
        <ele>129.5</ele>
        <time>2017-05-14T09:50:04Z</time>
      </trkpt>
      <trkpt lat="49.18719" lon="1.32195">
        <ele>129.5</ele>
        <time>2017-05-14T09:50:06Z</time>
      </trkpt>
      <trkpt lat="49.18716" lon="1.32211">
        <ele>129.4</ele>
        <time>2017-05-14T09:50:08Z</time>
      </trkpt>
      <trkpt lat="49.18714" lon="1.32226">
        <ele>129.4</ele>
        <time>2017-05-14T09:50:10Z</time>
      </trkpt>
      <trkpt lat="49.18712" lon="1.32242">
        <ele>129</ele>
        <time>2017-05-14T09:50:13Z</time>
      </trkpt>
      <trkpt lat="49.18702" lon="1.32247">
        <ele>128.9</ele>
        <time>2017-05-14T09:50:17Z</time>
      </trkpt>
      <trkpt lat="49.18692" lon="1.32257">
        <ele>129</ele>
        <time>2017-05-14T09:50:20Z</time>
      </trkpt>
      <trkpt lat="49.18685" lon="1.32269">
        <ele>128.9</ele>
        <time>2017-05-14T09:50:22Z</time>
      </trkpt>
      <trkpt lat="49.18678" lon="1.32279">
        <ele>128.7</ele>
        <time>2017-05-14T09:50:24Z</time>
      </trkpt>
      <trkpt lat="49.18671" lon="1.32289">
        <ele>128.6</ele>
        <time>2017-05-14T09:50:26Z</time>
      </trkpt>
      <trkpt lat="49.18664" lon="1.32298">
        <ele>128.4</ele>
        <time>2017-05-14T09:50:28Z</time>
      </trkpt>
      <trkpt lat="49.18655" lon="1.3231">
        <ele>128.3</ele>
        <time>2017-05-14T09:50:31Z</time>
      </trkpt>
      <trkpt lat="49.18645" lon="1.32321">
        <ele>128.1</ele>
        <time>2017-05-14T09:50:34Z</time>
      </trkpt>
      <trkpt lat="49.18637" lon="1.32328">
        <ele>127.9</ele>
        <time>2017-05-14T09:50:36Z</time>
      </trkpt>
      <trkpt lat="49.18627" lon="1.32344">
        <ele>127.6</ele>
        <time>2017-05-14T09:50:39Z</time>
      </trkpt>
      <trkpt lat="49.18623" lon="1.32358">
        <ele>127.3</ele>
        <time>2017-05-14T09:50:41Z</time>
      </trkpt>
      <trkpt lat="49.18618" lon="1.32374">
        <ele>126.8</ele>
        <time>2017-05-14T09:50:44Z</time>
      </trkpt>
      <trkpt lat="49.18618" lon="1.32392">
        <ele>126.5</ele>
        <time>2017-05-14T09:50:48Z</time>
      </trkpt>
      <trkpt lat="49.18625" lon="1.32408">
        <ele>126.4</ele>
        <time>2017-05-14T09:50:51Z</time>
      </trkpt>
      <trkpt lat="49.1863" lon="1.32425">
        <ele>126.5</ele>
        <time>2017-05-14T09:50:54Z</time>
      </trkpt>
      <trkpt lat="49.18634" lon="1.32444">
        <ele>126.8</ele>
        <time>2017-05-14T09:50:57Z</time>
      </trkpt>
      <trkpt lat="49.18634" lon="1.32465">
        <ele>126.9</ele>
        <time>2017-05-14T09:51:00Z</time>
      </trkpt>
      <trkpt lat="49.18635" lon="1.32481">
        <ele>126.9</ele>
        <time>2017-05-14T09:51:02Z</time>
      </trkpt>
      <trkpt lat="49.18636" lon="1.32496">
        <ele>127</ele>
        <time>2017-05-14T09:51:04Z</time>
      </trkpt>
      <trkpt lat="49.18637" lon="1.32511">
        <ele>127.1</ele>
        <time>2017-05-14T09:51:06Z</time>
      </trkpt>
      <trkpt lat="49.18642" lon="1.32524">
        <ele>127</ele>
        <time>2017-05-14T09:51:08Z</time>
      </trkpt>
      <trkpt lat="49.18646" lon="1.32537">
        <ele>127</ele>
        <time>2017-05-14T09:51:10Z</time>
      </trkpt>
      <trkpt lat="49.18647" lon="1.32556">
        <ele>126.9</ele>
        <time>2017-05-14T09:51:12Z</time>
      </trkpt>
      <trkpt lat="49.1865" lon="1.32571">
        <ele>126.8</ele>
        <time>2017-05-14T09:51:14Z</time>
      </trkpt>
      <trkpt lat="49.18653" lon="1.3259">
        <ele>126.8</ele>
        <time>2017-05-14T09:51:17Z</time>
      </trkpt>
      <trkpt lat="49.18655" lon="1.32611">
        <ele>126.9</ele>
        <time>2017-05-14T09:51:20Z</time>
      </trkpt>
      <trkpt lat="49.18655" lon="1.32628">
        <ele>126.9</ele>
        <time>2017-05-14T09:51:22Z</time>
      </trkpt>
      <trkpt lat="49.18654" lon="1.32643">
        <ele>126.9</ele>
        <time>2017-05-14T09:51:24Z</time>
      </trkpt>
      <trkpt lat="49.18653" lon="1.32659">
        <ele>126.9</ele>
        <time>2017-05-14T09:51:26Z</time>
      </trkpt>
      <trkpt lat="49.1865" lon="1.32677">
        <ele>126.8</ele>
        <time>2017-05-14T09:51:29Z</time>
      </trkpt>
      <trkpt lat="49.1864" lon="1.32683">
        <ele>126.6</ele>
        <time>2017-05-14T09:51:33Z</time>
      </trkpt>
      <trkpt lat="49.18631" lon="1.32678">
        <ele>126.6</ele>
        <time>2017-05-14T09:51:36Z</time>
      </trkpt>
      <trkpt lat="49.18625" lon="1.32668">
        <ele>126.6</ele>
        <time>2017-05-14T09:51:38Z</time>
      </trkpt>
      <trkpt lat="49.18617" lon="1.32657">
        <ele>126.4</ele>
        <time>2017-05-14T09:51:40Z</time>
      </trkpt>
      <trkpt lat="49.18611" lon="1.32642">
        <ele>126.3</ele>
        <time>2017-05-14T09:51:43Z</time>
      </trkpt>
      <trkpt lat="49.18604" lon="1.32629">
        <ele>125.6</ele>
        <time>2017-05-14T09:51:47Z</time>
      </trkpt>
      <trkpt lat="49.18601" lon="1.32613">
        <ele>125</ele>
        <time>2017-05-14T09:51:50Z</time>
      </trkpt>
      <trkpt lat="49.18599" lon="1.32597">
        <ele>124.5</ele>
        <time>2017-05-14T09:51:52Z</time>
      </trkpt>
      <trkpt lat="49.18595" lon="1.32579">
        <ele>124.3</ele>
        <time>2017-05-14T09:51:55Z</time>
      </trkpt>
      <trkpt lat="49.18592" lon="1.32564">
        <ele>124.1</ele>
        <time>2017-05-14T09:51:57Z</time>
      </trkpt>
      <trkpt lat="49.18588" lon="1.32548">
        <ele>123.5</ele>
        <time>2017-05-14T09:52:00Z</time>
      </trkpt>
      <trkpt lat="49.18585" lon="1.32529">
        <ele>123.1</ele>
        <time>2017-05-14T09:52:03Z</time>
      </trkpt>
      <trkpt lat="49.18583" lon="1.32515">
        <ele>122.7</ele>
        <time>2017-05-14T09:52:07Z</time>
      </trkpt>
      <trkpt lat="49.18575" lon="1.32522">
        <ele>121.8</ele>
        <time>2017-05-14T09:52:14Z</time>
      </trkpt>
      <trkpt lat="49.1857" lon="1.32537">
        <ele>120.8</ele>
        <time>2017-05-14T09:52:18Z</time>
      </trkpt>
      <trkpt lat="49.18564" lon="1.3255">
        <ele>118.5</ele>
        <time>2017-05-14T09:52:22Z</time>
      </trkpt>
      <trkpt lat="49.18558" lon="1.3256">
        <ele>115.8</ele>
        <time>2017-05-14T09:52:27Z</time>
      </trkpt>
      <trkpt lat="49.18552" lon="1.32572">
        <ele>113.3</ele>
        <time>2017-05-14T09:52:32Z</time>
      </trkpt>
      <trkpt lat="49.18546" lon="1.32585">
        <ele>110.2</ele>
        <time>2017-05-14T09:52:38Z</time>
      </trkpt>
      <trkpt lat="49.18541" lon="1.32601">
        <ele>108.3</ele>
        <time>2017-05-14T09:52:42Z</time>
      </trkpt>
      <trkpt lat="49.18532" lon="1.326">
        <ele>106.5</ele>
        <time>2017-05-14T09:52:48Z</time>
      </trkpt>
      <trkpt lat="49.18522" lon="1.32594">
        <ele>104.7</ele>
        <time>2017-05-14T09:53:04Z</time>
      </trkpt>
      <trkpt lat="49.18514" lon="1.32584">
        <ele>104.5</ele>
        <time>2017-05-14T09:53:07Z</time>
      </trkpt>
      <trkpt lat="49.18507" lon="1.32575">
        <ele>104.1</ele>
        <time>2017-05-14T09:53:09Z</time>
      </trkpt>
      <trkpt lat="49.18497" lon="1.32561">
        <ele>103.6</ele>
        <time>2017-05-14T09:53:12Z</time>
      </trkpt>
      <trkpt lat="49.18486" lon="1.32546">
        <ele>103</ele>
        <time>2017-05-14T09:53:15Z</time>
      </trkpt>
      <trkpt lat="49.18477" lon="1.32535">
        <ele>102.5</ele>
        <time>2017-05-14T09:53:17Z</time>
      </trkpt>
      <trkpt lat="49.18465" lon="1.32522">
        <ele>102.1</ele>
        <time>2017-05-14T09:53:19Z</time>
      </trkpt>
      <trkpt lat="49.18453" lon="1.32514">
        <ele>101.5</ele>
        <time>2017-05-14T09:53:21Z</time>
      </trkpt>
      <trkpt lat="49.1844" lon="1.32505">
        <ele>100.8</ele>
        <time>2017-05-14T09:53:23Z</time>
      </trkpt>
      <trkpt lat="49.18431" lon="1.32498">
        <ele>99.8</ele>
        <time>2017-05-14T09:53:25Z</time>
      </trkpt>
      <trkpt lat="49.18421" lon="1.32488">
        <ele>98.9</ele>
        <time>2017-05-14T09:53:27Z</time>
      </trkpt>
      <trkpt lat="49.18411" lon="1.32477">
        <ele>97.6</ele>
        <time>2017-05-14T09:53:30Z</time>
      </trkpt>
      <trkpt lat="49.184" lon="1.32478">
        <ele>95.4</ele>
        <time>2017-05-14T09:53:34Z</time>
      </trkpt>
      <trkpt lat="49.1839" lon="1.32485">
        <ele>93.8</ele>
        <time>2017-05-14T09:53:39Z</time>
      </trkpt>
      <trkpt lat="49.18383" lon="1.32496">
        <ele>93</ele>
        <time>2017-05-14T09:53:42Z</time>
      </trkpt>
      <trkpt lat="49.18375" lon="1.32508">
        <ele>91.3</ele>
        <time>2017-05-14T09:53:46Z</time>
      </trkpt>
      <trkpt lat="49.18371" lon="1.32521">
        <ele>89.8</ele>
        <time>2017-05-14T09:53:49Z</time>
      </trkpt>
      <trkpt lat="49.18364" lon="1.32531">
        <ele>88</ele>
        <time>2017-05-14T09:53:52Z</time>
      </trkpt>
      <trkpt lat="49.18354" lon="1.32534">
        <ele>86.3</ele>
        <time>2017-05-14T09:53:55Z</time>
      </trkpt>
      <trkpt lat="49.18342" lon="1.32537">
        <ele>84.9</ele>
        <time>2017-05-14T09:53:58Z</time>
      </trkpt>
      <trkpt lat="49.18338" lon="1.32552">
        <ele>81.8</ele>
        <time>2017-05-14T09:54:04Z</time>
      </trkpt>
      <trkpt lat="49.18338" lon="1.32566">
        <ele>80.3</ele>
        <time>2017-05-14T09:54:09Z</time>
      </trkpt>
      <trkpt lat="49.1833" lon="1.32575">
        <ele>78.2</ele>
        <time>2017-05-14T09:54:22Z</time>
      </trkpt>
      <trkpt lat="49.18325" lon="1.32586">
        <ele>77.6</ele>
        <time>2017-05-14T09:54:35Z</time>
      </trkpt>
      <trkpt lat="49.18323" lon="1.32603">
        <ele>76.8</ele>
        <time>2017-05-14T09:55:08Z</time>
      </trkpt>
      <trkpt lat="49.18322" lon="1.32617">
        <ele>76.1</ele>
        <time>2017-05-14T09:55:12Z</time>
      </trkpt>
      <trkpt lat="49.18326" lon="1.32629">
        <ele>74.8</ele>
        <time>2017-05-14T09:55:16Z</time>
      </trkpt>
      <trkpt lat="49.18326" lon="1.32643">
        <ele>73.6</ele>
        <time>2017-05-14T09:55:21Z</time>
      </trkpt>
      <trkpt lat="49.18326" lon="1.3266">
        <ele>73.2</ele>
        <time>2017-05-14T09:55:24Z</time>
      </trkpt>
      <trkpt lat="49.18326" lon="1.32681">
        <ele>72.2</ele>
        <time>2017-05-14T09:55:27Z</time>
      </trkpt>
      <trkpt lat="49.18328" lon="1.32696">
        <ele>70.9</ele>
        <time>2017-05-14T09:55:29Z</time>
      </trkpt>
      <trkpt lat="49.18329" lon="1.32715">
        <ele>69.2</ele>
        <time>2017-05-14T09:55:32Z</time>
      </trkpt>
      <trkpt lat="49.18333" lon="1.3273">
        <ele>66.4</ele>
        <time>2017-05-14T09:55:36Z</time>
      </trkpt>
      <trkpt lat="49.1833" lon="1.32747">
        <ele>63.1</ele>
        <time>2017-05-14T09:55:41Z</time>
      </trkpt>
      <trkpt lat="49.18329" lon="1.32771">
        <ele>62.5</ele>
        <time>2017-05-14T09:55:44Z</time>
      </trkpt>
      <trkpt lat="49.18326" lon="1.32795">
        <ele>61.6</ele>
        <time>2017-05-14T09:55:46Z</time>
      </trkpt>
      <trkpt lat="49.18325" lon="1.32812">
        <ele>60.4</ele>
        <time>2017-05-14T09:55:48Z</time>
      </trkpt>
      <trkpt lat="49.18321" lon="1.32825">
        <ele>59.5</ele>
        <time>2017-05-14T09:55:50Z</time>
      </trkpt>
      <trkpt lat="49.18319" lon="1.3284">
        <ele>58</ele>
        <time>2017-05-14T09:55:53Z</time>
      </trkpt>
      <trkpt lat="49.1833" lon="1.32848">
        <ele>56.7</ele>
        <time>2017-05-14T09:55:57Z</time>
      </trkpt>
      <trkpt lat="49.18337" lon="1.32858">
        <ele>55.6</ele>
        <time>2017-05-14T09:56:00Z</time>
      </trkpt>
      <trkpt lat="49.1833" lon="1.32867">
        <ele>54.4</ele>
        <time>2017-05-14T09:56:04Z</time>
      </trkpt>
      <trkpt lat="49.18319" lon="1.32874">
        <ele>53.7</ele>
        <time>2017-05-14T09:56:07Z</time>
      </trkpt>
      <trkpt lat="49.18313" lon="1.32884">
        <ele>53</ele>
        <time>2017-05-14T09:56:09Z</time>
      </trkpt>
      <trkpt lat="49.18306" lon="1.329">
        <ele>52.9</ele>
        <time>2017-05-14T09:56:11Z</time>
      </trkpt>
      <trkpt lat="49.18302" lon="1.32918">
        <ele>52.4</ele>
        <time>2017-05-14T09:56:13Z</time>
      </trkpt>
      <trkpt lat="49.18298" lon="1.32933">
        <ele>51.3</ele>
        <time>2017-05-14T09:56:15Z</time>
      </trkpt>
      <trkpt lat="49.18293" lon="1.32945">
        <ele>50.7</ele>
        <time>2017-05-14T09:56:17Z</time>
      </trkpt>
      <trkpt lat="49.18286" lon="1.32955">
        <ele>49.7</ele>
        <time>2017-05-14T09:56:20Z</time>
      </trkpt>
      <trkpt lat="49.18287" lon="1.32971">
        <ele>48.1</ele>
        <time>2017-05-14T09:56:26Z</time>
      </trkpt>
      <trkpt lat="49.18287" lon="1.32988">
        <ele>47.3</ele>
        <time>2017-05-14T09:56:29Z</time>
      </trkpt>
      <trkpt lat="49.18287" lon="1.33003">
        <ele>46.5</ele>
        <time>2017-05-14T09:56:31Z</time>
      </trkpt>
      <trkpt lat="49.18287" lon="1.33023">
        <ele>45.9</ele>
        <time>2017-05-14T09:56:33Z</time>
      </trkpt>
      <trkpt lat="49.18285" lon="1.33043">
        <ele>45.2</ele>
        <time>2017-05-14T09:56:35Z</time>
      </trkpt>
      <trkpt lat="49.18278" lon="1.33055">
        <ele>44.3</ele>
        <time>2017-05-14T09:56:37Z</time>
      </trkpt>
      <trkpt lat="49.18269" lon="1.33057">
        <ele>43</ele>
        <time>2017-05-14T09:56:40Z</time>
      </trkpt>
      <trkpt lat="49.1826" lon="1.33051">
        <ele>41.1</ele>
        <time>2017-05-14T09:56:45Z</time>
      </trkpt>
      <trkpt lat="49.18268" lon="1.33057">
        <ele>31.8</ele>
        <time>2017-05-14T09:57:25Z</time>
      </trkpt>
      <trkpt lat="49.18265" lon="1.3307">
        <ele>21.2</ele>
        <time>2017-05-14T09:57:57Z</time>
      </trkpt>
      <trkpt lat="49.18275" lon="1.33076">
        <ele>12.1</ele>
        <time>2017-05-14T10:00:03Z</time>
      </trkpt>
      <trkpt lat="49.18283" lon="1.33068">
        <ele>13.8</ele>
        <time>2017-05-14T10:00:07Z</time>
      </trkpt>
      <trkpt lat="49.18289" lon="1.33053">
        <ele>15.7</ele>
        <time>2017-05-14T10:00:11Z</time>
      </trkpt>
      <trkpt lat="49.18296" lon="1.33039">
        <ele>17.4</ele>
        <time>2017-05-14T10:00:15Z</time>
      </trkpt>
      <trkpt lat="49.18302" lon="1.33028">
        <ele>18.8</ele>
        <time>2017-05-14T10:00:18Z</time>
      </trkpt>
      <trkpt lat="49.18309" lon="1.33019">
        <ele>20.1</ele>
        <time>2017-05-14T10:00:21Z</time>
      </trkpt>
      <trkpt lat="49.18319" lon="1.33019">
        <ele>21.9</ele>
        <time>2017-05-14T10:00:25Z</time>
      </trkpt>
      <trkpt lat="49.18328" lon="1.33023">
        <ele>22.9</ele>
        <time>2017-05-14T10:00:29Z</time>
      </trkpt>
      <trkpt lat="49.18337" lon="1.33028">
        <ele>23.4</ele>
        <time>2017-05-14T10:00:33Z</time>
      </trkpt>
      <trkpt lat="49.18337" lon="1.33028">
        <ele>23.5</ele>
        <time>2017-05-14T10:00:33Z</time>
      </trkpt>
      <trkpt lat="49.18339" lon="1.33029">
        <ele>23.6</ele>
        <time>2017-05-14T10:00:34Z</time>
      </trkpt>
    </trkseg>
  </trk>
</gpx>